<?xml version="1.0" encoding="UTF-8" standalone="no" ?>
<gpx xmlns="http://www.topografix.com/GPX/1/1" xmlns:xsi="http://www.w3.org/2001/XMLSchema-instance" xsi:schemaLocation="http://www.topografix.com/GPX/1/1 http://www.topografix.com/GPX/1/1/gpx.xsd" version="1.1" creator="VisuGPX - https://www.visugpx.com">
  <metadata>
    <name>Tour des Lacs de l'Embarrat</name>
    <desc><![CDATA[Départ du parking du Pont d'Espagne (7€)]]></desc>
  </metadata>
  <trk>
    <name><![CDATA[Lacs de l'Embarrats]]></name>
    <extensions>
      <line xmlns="http://www.topografix.com/GPX/gpx_style/0/2">
        <width>4</width>
      </line>
    </extensions>
    <trkseg>
      <trkpt lat="42.85278" lon="-0.13654">
        <ele>1463.8</ele>
        <time>2022-07-09T06:15:39.000Z</time>
      </trkpt>
      <trkpt lat="42.85278" lon="-0.13654">
        <ele>1463.7</ele>
        <time>2022-07-09T06:15:40.000Z</time>
      </trkpt>
      <trkpt lat="42.85277" lon="-0.13654">
        <ele>1463.6</ele>
        <time>2022-07-09T06:15:52.000Z</time>
      </trkpt>
      <trkpt lat="42.85277" lon="-0.13654">
        <ele>1463.6</ele>
        <time>2022-07-09T06:15:53.000Z</time>
      </trkpt>
      <trkpt lat="42.85277" lon="-0.13652">
        <ele>1480.6</ele>
        <time>2022-07-09T06:16:24.000Z</time>
      </trkpt>
      <trkpt lat="42.85277" lon="-0.13652">
        <ele>1480.6</ele>
        <time>2022-07-09T06:16:24.000Z</time>
      </trkpt>
      <trkpt lat="42.85271" lon="-0.13642">
        <ele>1479.9</ele>
        <time>2022-07-09T06:16:37.000Z</time>
      </trkpt>
      <trkpt lat="42.85275" lon="-0.13637">
        <ele>1479.5</ele>
        <time>2022-07-09T06:16:49.000Z</time>
      </trkpt>
      <trkpt lat="42.85276" lon="-0.13637">
        <ele>1479.5</ele>
        <time>2022-07-09T06:16:50.000Z</time>
      </trkpt>
      <trkpt lat="42.85276" lon="-0.13641">
        <ele>1479.9</ele>
        <time>2022-07-09T06:16:56.000Z</time>
      </trkpt>
      <trkpt lat="42.85276" lon="-0.13641">
        <ele>1479.9</ele>
        <time>2022-07-09T06:16:57.000Z</time>
      </trkpt>
      <trkpt lat="42.85277" lon="-0.13642">
        <ele>1479.8</ele>
        <time>2022-07-09T06:17:00.000Z</time>
      </trkpt>
      <trkpt lat="42.85277" lon="-0.13642">
        <ele>1479.7</ele>
        <time>2022-07-09T06:17:01.000Z</time>
      </trkpt>
      <trkpt lat="42.85277" lon="-0.13655">
        <ele>1479.3</ele>
        <time>2022-07-09T06:17:14.000Z</time>
      </trkpt>
      <trkpt lat="42.85277" lon="-0.13657">
        <ele>1479.5</ele>
        <time>2022-07-09T06:17:16.000Z</time>
      </trkpt>
      <trkpt lat="42.85277" lon="-0.13659">
        <ele>1479.6</ele>
        <time>2022-07-09T06:17:19.000Z</time>
      </trkpt>
      <trkpt lat="42.8527" lon="-0.1365">
        <ele>1479.5</ele>
        <time>2022-07-09T06:17:30.000Z</time>
      </trkpt>
      <trkpt lat="42.8526" lon="-0.13648">
        <ele>1479.2</ele>
        <time>2022-07-09T06:17:36.000Z</time>
      </trkpt>
      <trkpt lat="42.8525" lon="-0.13649">
        <ele>1479.7</ele>
        <time>2022-07-09T06:17:41.000Z</time>
      </trkpt>
      <trkpt lat="42.85241" lon="-0.13645">
        <ele>1480.3</ele>
        <time>2022-07-09T06:17:46.000Z</time>
      </trkpt>
      <trkpt lat="42.85232" lon="-0.13645">
        <ele>1479.7</ele>
        <time>2022-07-09T06:17:51.000Z</time>
      </trkpt>
      <trkpt lat="42.85223" lon="-0.13648">
        <ele>1480</ele>
        <time>2022-07-09T06:17:56.000Z</time>
      </trkpt>
      <trkpt lat="42.85213" lon="-0.13653">
        <ele>1480.3</ele>
        <time>2022-07-09T06:18:02.000Z</time>
      </trkpt>
      <trkpt lat="42.85204" lon="-0.13653">
        <ele>1480.8</ele>
        <time>2022-07-09T06:18:08.000Z</time>
      </trkpt>
      <trkpt lat="42.85195" lon="-0.13652">
        <ele>1480.9</ele>
        <time>2022-07-09T06:18:14.000Z</time>
      </trkpt>
      <trkpt lat="42.85185" lon="-0.13657">
        <ele>1481.3</ele>
        <time>2022-07-09T06:18:21.000Z</time>
      </trkpt>
      <trkpt lat="42.85177" lon="-0.13663">
        <ele>1481.2</ele>
        <time>2022-07-09T06:18:28.000Z</time>
      </trkpt>
      <trkpt lat="42.85171" lon="-0.13674">
        <ele>1482.3</ele>
        <time>2022-07-09T06:18:37.000Z</time>
      </trkpt>
      <trkpt lat="42.85171" lon="-0.13675">
        <ele>1483.2</ele>
        <time>2022-07-09T06:18:41.000Z</time>
      </trkpt>
      <trkpt lat="42.85171" lon="-0.13676">
        <ele>1483</ele>
        <time>2022-07-09T06:18:42.000Z</time>
      </trkpt>
      <trkpt lat="42.85166" lon="-0.13687">
        <ele>1483</ele>
        <time>2022-07-09T06:18:56.000Z</time>
      </trkpt>
      <trkpt lat="42.85162" lon="-0.13701">
        <ele>1484.1</ele>
        <time>2022-07-09T06:19:09.000Z</time>
      </trkpt>
      <trkpt lat="42.85159" lon="-0.13701">
        <ele>1483.8</ele>
        <time>2022-07-09T06:19:13.000Z</time>
      </trkpt>
      <trkpt lat="42.85159" lon="-0.13701">
        <ele>1483.9</ele>
        <time>2022-07-09T06:19:14.000Z</time>
      </trkpt>
      <trkpt lat="42.85152" lon="-0.13712">
        <ele>1484.3</ele>
        <time>2022-07-09T06:19:22.000Z</time>
      </trkpt>
      <trkpt lat="42.85153" lon="-0.13708">
        <ele>1484.8</ele>
        <time>2022-07-09T06:19:28.000Z</time>
      </trkpt>
      <trkpt lat="42.85153" lon="-0.13708">
        <ele>1484.8</ele>
        <time>2022-07-09T06:19:29.000Z</time>
      </trkpt>
      <trkpt lat="42.8515" lon="-0.13721">
        <ele>1485.2</ele>
        <time>2022-07-09T06:19:36.000Z</time>
      </trkpt>
      <trkpt lat="42.85146" lon="-0.13733">
        <ele>1485.9</ele>
        <time>2022-07-09T06:19:43.000Z</time>
      </trkpt>
      <trkpt lat="42.85142" lon="-0.13745">
        <ele>1485.3</ele>
        <time>2022-07-09T06:19:49.000Z</time>
      </trkpt>
      <trkpt lat="42.85139" lon="-0.13758">
        <ele>1486.8</ele>
        <time>2022-07-09T06:19:55.000Z</time>
      </trkpt>
      <trkpt lat="42.85135" lon="-0.1377">
        <ele>1487.1</ele>
        <time>2022-07-09T06:20:02.000Z</time>
      </trkpt>
      <trkpt lat="42.85131" lon="-0.13783">
        <ele>1487.3</ele>
        <time>2022-07-09T06:20:09.000Z</time>
      </trkpt>
      <trkpt lat="42.85129" lon="-0.13795">
        <ele>1487.9</ele>
        <time>2022-07-09T06:20:15.000Z</time>
      </trkpt>
      <trkpt lat="42.8513" lon="-0.13809">
        <ele>1489.5</ele>
        <time>2022-07-09T06:20:24.000Z</time>
      </trkpt>
      <trkpt lat="42.85128" lon="-0.13821">
        <ele>1490.5</ele>
        <time>2022-07-09T06:20:31.000Z</time>
      </trkpt>
      <trkpt lat="42.85128" lon="-0.13834">
        <ele>1491.2</ele>
        <time>2022-07-09T06:20:39.000Z</time>
      </trkpt>
      <trkpt lat="42.85124" lon="-0.13845">
        <ele>1492</ele>
        <time>2022-07-09T06:20:47.000Z</time>
      </trkpt>
      <trkpt lat="42.85117" lon="-0.13855">
        <ele>1493.5</ele>
        <time>2022-07-09T06:20:55.000Z</time>
      </trkpt>
      <trkpt lat="42.85109" lon="-0.13865">
        <ele>1494.3</ele>
        <time>2022-07-09T06:21:02.000Z</time>
      </trkpt>
      <trkpt lat="42.85103" lon="-0.13873">
        <ele>1495.3</ele>
        <time>2022-07-09T06:21:08.000Z</time>
      </trkpt>
      <trkpt lat="42.85097" lon="-0.13884">
        <ele>1496.7</ele>
        <time>2022-07-09T06:21:17.000Z</time>
      </trkpt>
      <trkpt lat="42.85093" lon="-0.13896">
        <ele>1498</ele>
        <time>2022-07-09T06:21:25.000Z</time>
      </trkpt>
      <trkpt lat="42.85095" lon="-0.13909">
        <ele>1499.9</ele>
        <time>2022-07-09T06:21:37.000Z</time>
      </trkpt>
      <trkpt lat="42.85097" lon="-0.13921">
        <ele>1500.1</ele>
        <time>2022-07-09T06:21:48.000Z</time>
      </trkpt>
      <trkpt lat="42.85103" lon="-0.1393">
        <ele>1501.2</ele>
        <time>2022-07-09T06:21:58.000Z</time>
      </trkpt>
      <trkpt lat="42.85111" lon="-0.13939">
        <ele>1501.4</ele>
        <time>2022-07-09T06:22:05.000Z</time>
      </trkpt>
      <trkpt lat="42.85122" lon="-0.13936">
        <ele>1501.8</ele>
        <time>2022-07-09T06:22:11.000Z</time>
      </trkpt>
      <trkpt lat="42.85131" lon="-0.13936">
        <ele>1502.8</ele>
        <time>2022-07-09T06:22:17.000Z</time>
      </trkpt>
      <trkpt lat="42.85133" lon="-0.13948">
        <ele>1505.8</ele>
        <time>2022-07-09T06:22:35.000Z</time>
      </trkpt>
      <trkpt lat="42.85124" lon="-0.13953">
        <ele>1507</ele>
        <time>2022-07-09T06:22:43.000Z</time>
      </trkpt>
      <trkpt lat="42.85117" lon="-0.13961">
        <ele>1508.6</ele>
        <time>2022-07-09T06:22:52.000Z</time>
      </trkpt>
      <trkpt lat="42.8511" lon="-0.13971">
        <ele>1510.5</ele>
        <time>2022-07-09T06:23:01.000Z</time>
      </trkpt>
      <trkpt lat="42.85105" lon="-0.13983">
        <ele>1512.6</ele>
        <time>2022-07-09T06:23:12.000Z</time>
      </trkpt>
      <trkpt lat="42.851" lon="-0.13994">
        <ele>1513.5</ele>
        <time>2022-07-09T06:23:17.000Z</time>
      </trkpt>
      <trkpt lat="42.85095" lon="-0.14006">
        <ele>1513.8</ele>
        <time>2022-07-09T06:23:24.000Z</time>
      </trkpt>
      <trkpt lat="42.85093" lon="-0.14019">
        <ele>1513.2</ele>
        <time>2022-07-09T06:23:32.000Z</time>
      </trkpt>
      <trkpt lat="42.85086" lon="-0.14027">
        <ele>1512.9</ele>
        <time>2022-07-09T06:23:39.000Z</time>
      </trkpt>
      <trkpt lat="42.85079" lon="-0.14035">
        <ele>1513.3</ele>
        <time>2022-07-09T06:23:50.000Z</time>
      </trkpt>
      <trkpt lat="42.85069" lon="-0.14034">
        <ele>1515.2</ele>
        <time>2022-07-09T06:24:00.000Z</time>
      </trkpt>
      <trkpt lat="42.85061" lon="-0.14041">
        <ele>1517.5</ele>
        <time>2022-07-09T06:24:11.000Z</time>
      </trkpt>
      <trkpt lat="42.85053" lon="-0.14048">
        <ele>1517.6</ele>
        <time>2022-07-09T06:24:18.000Z</time>
      </trkpt>
      <trkpt lat="42.8505" lon="-0.1405">
        <ele>1517.1</ele>
        <time>2022-07-09T06:24:21.000Z</time>
      </trkpt>
      <trkpt lat="42.85049" lon="-0.14051">
        <ele>1516.9</ele>
        <time>2022-07-09T06:24:22.000Z</time>
      </trkpt>
      <trkpt lat="42.85046" lon="-0.14063">
        <ele>1520.5</ele>
        <time>2022-07-09T06:24:38.000Z</time>
      </trkpt>
      <trkpt lat="42.85044" lon="-0.1407">
        <ele>1522.5</ele>
        <time>2022-07-09T06:24:48.000Z</time>
      </trkpt>
      <trkpt lat="42.85043" lon="-0.14071">
        <ele>1522.9</ele>
        <time>2022-07-09T06:24:49.000Z</time>
      </trkpt>
      <trkpt lat="42.85035" lon="-0.14077">
        <ele>1524.6</ele>
        <time>2022-07-09T06:24:59.000Z</time>
      </trkpt>
      <trkpt lat="42.85029" lon="-0.14088">
        <ele>1526.7</ele>
        <time>2022-07-09T06:25:10.000Z</time>
      </trkpt>
      <trkpt lat="42.85023" lon="-0.14098">
        <ele>1528.2</ele>
        <time>2022-07-09T06:25:18.000Z</time>
      </trkpt>
      <trkpt lat="42.85018" lon="-0.14109">
        <ele>1529.2</ele>
        <time>2022-07-09T06:25:29.000Z</time>
      </trkpt>
      <trkpt lat="42.85018" lon="-0.14108">
        <ele>1529.3</ele>
        <time>2022-07-09T06:25:31.000Z</time>
      </trkpt>
      <trkpt lat="42.85018" lon="-0.14109">
        <ele>1529.4</ele>
        <time>2022-07-09T06:25:32.000Z</time>
      </trkpt>
      <trkpt lat="42.8502" lon="-0.14121">
        <ele>1528.2</ele>
        <time>2022-07-09T06:25:42.000Z</time>
      </trkpt>
      <trkpt lat="42.85019" lon="-0.14134">
        <ele>1526.9</ele>
        <time>2022-07-09T06:25:54.000Z</time>
      </trkpt>
      <trkpt lat="42.85018" lon="-0.14135">
        <ele>1526.8</ele>
        <time>2022-07-09T06:25:57.000Z</time>
      </trkpt>
      <trkpt lat="42.85018" lon="-0.14137">
        <ele>1526.8</ele>
        <time>2022-07-09T06:25:58.000Z</time>
      </trkpt>
      <trkpt lat="42.8502" lon="-0.1415">
        <ele>1526.6</ele>
        <time>2022-07-09T06:26:05.000Z</time>
      </trkpt>
      <trkpt lat="42.85024" lon="-0.14163">
        <ele>1526.7</ele>
        <time>2022-07-09T06:26:11.000Z</time>
      </trkpt>
      <trkpt lat="42.85024" lon="-0.14177">
        <ele>1526.7</ele>
        <time>2022-07-09T06:26:19.000Z</time>
      </trkpt>
      <trkpt lat="42.8503" lon="-0.14187">
        <ele>1526.9</ele>
        <time>2022-07-09T06:26:27.000Z</time>
      </trkpt>
      <trkpt lat="42.85038" lon="-0.14194">
        <ele>1527</ele>
        <time>2022-07-09T06:26:34.000Z</time>
      </trkpt>
      <trkpt lat="42.85048" lon="-0.14196">
        <ele>1527.9</ele>
        <time>2022-07-09T06:26:40.000Z</time>
      </trkpt>
      <trkpt lat="42.85054" lon="-0.14206">
        <ele>1529.8</ele>
        <time>2022-07-09T06:26:49.000Z</time>
      </trkpt>
      <trkpt lat="42.8506" lon="-0.14216">
        <ele>1530.6</ele>
        <time>2022-07-09T06:26:59.000Z</time>
      </trkpt>
      <trkpt lat="42.85065" lon="-0.14227">
        <ele>1529.9</ele>
        <time>2022-07-09T06:27:10.000Z</time>
      </trkpt>
      <trkpt lat="42.85072" lon="-0.14236">
        <ele>1529</ele>
        <time>2022-07-09T06:27:18.000Z</time>
      </trkpt>
      <trkpt lat="42.85079" lon="-0.14245">
        <ele>1529.3</ele>
        <time>2022-07-09T06:27:25.000Z</time>
      </trkpt>
      <trkpt lat="42.85086" lon="-0.14253">
        <ele>1529.8</ele>
        <time>2022-07-09T06:27:32.000Z</time>
      </trkpt>
      <trkpt lat="42.8509" lon="-0.14266">
        <ele>1530.1</ele>
        <time>2022-07-09T06:27:39.000Z</time>
      </trkpt>
      <trkpt lat="42.85088" lon="-0.14272">
        <ele>1530</ele>
        <time>2022-07-09T06:27:44.000Z</time>
      </trkpt>
      <trkpt lat="42.85089" lon="-0.14271">
        <ele>1530.2</ele>
        <time>2022-07-09T06:27:45.000Z</time>
      </trkpt>
      <trkpt lat="42.85098" lon="-0.14275">
        <ele>1529.8</ele>
        <time>2022-07-09T06:27:57.000Z</time>
      </trkpt>
      <trkpt lat="42.85104" lon="-0.14284">
        <ele>1530.5</ele>
        <time>2022-07-09T06:28:07.000Z</time>
      </trkpt>
      <trkpt lat="42.85105" lon="-0.14284">
        <ele>1530.4</ele>
        <time>2022-07-09T06:28:11.000Z</time>
      </trkpt>
      <trkpt lat="42.85105" lon="-0.14285">
        <ele>1530.1</ele>
        <time>2022-07-09T06:28:17.000Z</time>
      </trkpt>
      <trkpt lat="42.85115" lon="-0.14281">
        <ele>1530.5</ele>
        <time>2022-07-09T06:28:25.000Z</time>
      </trkpt>
      <trkpt lat="42.85118" lon="-0.14285">
        <ele>1530.7</ele>
        <time>2022-07-09T06:28:30.000Z</time>
      </trkpt>
      <trkpt lat="42.85118" lon="-0.14285">
        <ele>1530.6</ele>
        <time>2022-07-09T06:28:31.000Z</time>
      </trkpt>
      <trkpt lat="42.85118" lon="-0.14285">
        <ele>1530.6</ele>
        <time>2022-07-09T06:28:32.000Z</time>
      </trkpt>
      <trkpt lat="42.85118" lon="-0.14286">
        <ele>1530.8</ele>
        <time>2022-07-09T06:28:34.000Z</time>
      </trkpt>
      <trkpt lat="42.85117" lon="-0.14288">
        <ele>1531</ele>
        <time>2022-07-09T06:28:38.000Z</time>
      </trkpt>
      <trkpt lat="42.85118" lon="-0.14289">
        <ele>1530.9</ele>
        <time>2022-07-09T06:28:39.000Z</time>
      </trkpt>
      <trkpt lat="42.85127" lon="-0.14285">
        <ele>1530.9</ele>
        <time>2022-07-09T06:28:45.000Z</time>
      </trkpt>
      <trkpt lat="42.85136" lon="-0.14284">
        <ele>1530.9</ele>
        <time>2022-07-09T06:28:50.000Z</time>
      </trkpt>
      <trkpt lat="42.8515" lon="-0.14281">
        <ele>1530.9</ele>
        <time>2022-07-09T06:28:55.000Z</time>
      </trkpt>
      <trkpt lat="42.8516" lon="-0.14278">
        <ele>1531.1</ele>
        <time>2022-07-09T06:29:00.000Z</time>
      </trkpt>
      <trkpt lat="42.8517" lon="-0.14277">
        <ele>1530.9</ele>
        <time>2022-07-09T06:29:06.000Z</time>
      </trkpt>
      <trkpt lat="42.8518" lon="-0.14277">
        <ele>1530.6</ele>
        <time>2022-07-09T06:29:14.000Z</time>
      </trkpt>
      <trkpt lat="42.85188" lon="-0.14277">
        <ele>1530.2</ele>
        <time>2022-07-09T06:29:28.000Z</time>
      </trkpt>
      <trkpt lat="42.85189" lon="-0.14277">
        <ele>1530.4</ele>
        <time>2022-07-09T06:29:29.000Z</time>
      </trkpt>
      <trkpt lat="42.85198" lon="-0.14278">
        <ele>1530.6</ele>
        <time>2022-07-09T06:29:35.000Z</time>
      </trkpt>
      <trkpt lat="42.85208" lon="-0.14284">
        <ele>1530.8</ele>
        <time>2022-07-09T06:29:44.000Z</time>
      </trkpt>
      <trkpt lat="42.85215" lon="-0.14292">
        <ele>1531.6</ele>
        <time>2022-07-09T06:29:52.000Z</time>
      </trkpt>
      <trkpt lat="42.85219" lon="-0.14304">
        <ele>1531.5</ele>
        <time>2022-07-09T06:29:59.000Z</time>
      </trkpt>
      <trkpt lat="42.85222" lon="-0.14316">
        <ele>1531.8</ele>
        <time>2022-07-09T06:30:05.000Z</time>
      </trkpt>
      <trkpt lat="42.85216" lon="-0.14327">
        <ele>1532.2</ele>
        <time>2022-07-09T06:30:10.000Z</time>
      </trkpt>
      <trkpt lat="42.85215" lon="-0.1434">
        <ele>1532.5</ele>
        <time>2022-07-09T06:30:16.000Z</time>
      </trkpt>
      <trkpt lat="42.8521" lon="-0.1435">
        <ele>1533.1</ele>
        <time>2022-07-09T06:30:25.000Z</time>
      </trkpt>
      <trkpt lat="42.85203" lon="-0.14359">
        <ele>1533.8</ele>
        <time>2022-07-09T06:30:33.000Z</time>
      </trkpt>
      <trkpt lat="42.85195" lon="-0.14367">
        <ele>1534</ele>
        <time>2022-07-09T06:30:39.000Z</time>
      </trkpt>
      <trkpt lat="42.85188" lon="-0.14378">
        <ele>1534.3</ele>
        <time>2022-07-09T06:30:48.000Z</time>
      </trkpt>
      <trkpt lat="42.85185" lon="-0.14391">
        <ele>1534.4</ele>
        <time>2022-07-09T06:30:54.000Z</time>
      </trkpt>
      <trkpt lat="42.85178" lon="-0.144">
        <ele>1534.1</ele>
        <time>2022-07-09T06:31:02.000Z</time>
      </trkpt>
      <trkpt lat="42.85171" lon="-0.14408">
        <ele>1534.3</ele>
        <time>2022-07-09T06:31:09.000Z</time>
      </trkpt>
      <trkpt lat="42.85163" lon="-0.14417">
        <ele>1534.3</ele>
        <time>2022-07-09T06:31:16.000Z</time>
      </trkpt>
      <trkpt lat="42.85155" lon="-0.14424">
        <ele>1534.4</ele>
        <time>2022-07-09T06:31:24.000Z</time>
      </trkpt>
      <trkpt lat="42.85147" lon="-0.14431">
        <ele>1534.6</ele>
        <time>2022-07-09T06:31:29.000Z</time>
      </trkpt>
      <trkpt lat="42.85139" lon="-0.14441">
        <ele>1535</ele>
        <time>2022-07-09T06:31:34.000Z</time>
      </trkpt>
      <trkpt lat="42.85132" lon="-0.14448">
        <ele>1535.3</ele>
        <time>2022-07-09T06:31:39.000Z</time>
      </trkpt>
      <trkpt lat="42.85125" lon="-0.14456">
        <ele>1535.5</ele>
        <time>2022-07-09T06:31:46.000Z</time>
      </trkpt>
      <trkpt lat="42.85117" lon="-0.14465">
        <ele>1535.7</ele>
        <time>2022-07-09T06:31:51.000Z</time>
      </trkpt>
      <trkpt lat="42.85109" lon="-0.14472">
        <ele>1536.2</ele>
        <time>2022-07-09T06:31:57.000Z</time>
      </trkpt>
      <trkpt lat="42.85102" lon="-0.14481">
        <ele>1535.7</ele>
        <time>2022-07-09T06:32:04.000Z</time>
      </trkpt>
      <trkpt lat="42.85095" lon="-0.1449">
        <ele>1536</ele>
        <time>2022-07-09T06:32:16.000Z</time>
      </trkpt>
      <trkpt lat="42.85089" lon="-0.14501">
        <ele>1536.1</ele>
        <time>2022-07-09T06:32:23.000Z</time>
      </trkpt>
      <trkpt lat="42.85082" lon="-0.1451">
        <ele>1536.1</ele>
        <time>2022-07-09T06:32:30.000Z</time>
      </trkpt>
      <trkpt lat="42.85077" lon="-0.14523">
        <ele>1536.5</ele>
        <time>2022-07-09T06:32:36.000Z</time>
      </trkpt>
      <trkpt lat="42.85072" lon="-0.14534">
        <ele>1537.1</ele>
        <time>2022-07-09T06:32:42.000Z</time>
      </trkpt>
      <trkpt lat="42.85072" lon="-0.14546">
        <ele>1537.4</ele>
        <time>2022-07-09T06:32:51.000Z</time>
      </trkpt>
      <trkpt lat="42.85068" lon="-0.14558">
        <ele>1537.4</ele>
        <time>2022-07-09T06:32:58.000Z</time>
      </trkpt>
      <trkpt lat="42.85067" lon="-0.14571">
        <ele>1538</ele>
        <time>2022-07-09T06:33:04.000Z</time>
      </trkpt>
      <trkpt lat="42.85065" lon="-0.14584">
        <ele>1538.2</ele>
        <time>2022-07-09T06:33:10.000Z</time>
      </trkpt>
      <trkpt lat="42.85062" lon="-0.14596">
        <ele>1538</ele>
        <time>2022-07-09T06:33:16.000Z</time>
      </trkpt>
      <trkpt lat="42.85058" lon="-0.14608">
        <ele>1538.4</ele>
        <time>2022-07-09T06:33:23.000Z</time>
      </trkpt>
      <trkpt lat="42.85056" lon="-0.14621">
        <ele>1538.5</ele>
        <time>2022-07-09T06:33:30.000Z</time>
      </trkpt>
      <trkpt lat="42.85056" lon="-0.14635">
        <ele>1538.3</ele>
        <time>2022-07-09T06:33:38.000Z</time>
      </trkpt>
      <trkpt lat="42.85053" lon="-0.14647">
        <ele>1538.6</ele>
        <time>2022-07-09T06:33:43.000Z</time>
      </trkpt>
      <trkpt lat="42.85052" lon="-0.1466">
        <ele>1538.8</ele>
        <time>2022-07-09T06:33:50.000Z</time>
      </trkpt>
      <trkpt lat="42.85056" lon="-0.14673">
        <ele>1539.6</ele>
        <time>2022-07-09T06:34:00.000Z</time>
      </trkpt>
      <trkpt lat="42.85065" lon="-0.1468">
        <ele>1539.3</ele>
        <time>2022-07-09T06:34:07.000Z</time>
      </trkpt>
      <trkpt lat="42.85075" lon="-0.1468">
        <ele>1539</ele>
        <time>2022-07-09T06:34:12.000Z</time>
      </trkpt>
      <trkpt lat="42.85083" lon="-0.14686">
        <ele>1538.5</ele>
        <time>2022-07-09T06:34:21.000Z</time>
      </trkpt>
      <trkpt lat="42.85092" lon="-0.14688">
        <ele>1538.6</ele>
        <time>2022-07-09T06:34:29.000Z</time>
      </trkpt>
      <trkpt lat="42.85102" lon="-0.14697">
        <ele>1538.6</ele>
        <time>2022-07-09T06:34:35.000Z</time>
      </trkpt>
      <trkpt lat="42.85103" lon="-0.14703">
        <ele>1538.7</ele>
        <time>2022-07-09T06:34:51.000Z</time>
      </trkpt>
      <trkpt lat="42.85103" lon="-0.14703">
        <ele>1537.9</ele>
        <time>2022-07-09T06:34:52.000Z</time>
      </trkpt>
      <trkpt lat="42.85108" lon="-0.14698">
        <ele>1537.1</ele>
        <time>2022-07-09T06:34:58.000Z</time>
      </trkpt>
      <trkpt lat="42.85108" lon="-0.14699">
        <ele>1536.8</ele>
        <time>2022-07-09T06:35:14.000Z</time>
      </trkpt>
      <trkpt lat="42.85108" lon="-0.14699">
        <ele>1536.9</ele>
        <time>2022-07-09T06:35:15.000Z</time>
      </trkpt>
      <trkpt lat="42.85108" lon="-0.14699">
        <ele>1536.3</ele>
        <time>2022-07-09T06:35:36.000Z</time>
      </trkpt>
      <trkpt lat="42.85108" lon="-0.14699">
        <ele>1536.2</ele>
        <time>2022-07-09T06:35:37.000Z</time>
      </trkpt>
      <trkpt lat="42.85108" lon="-0.14699">
        <ele>1536.5</ele>
        <time>2022-07-09T06:35:44.000Z</time>
      </trkpt>
      <trkpt lat="42.85107" lon="-0.14707">
        <ele>1537.7</ele>
        <time>2022-07-09T06:35:54.000Z</time>
      </trkpt>
      <trkpt lat="42.85107" lon="-0.14705">
        <ele>1537.5</ele>
        <time>2022-07-09T06:35:55.000Z</time>
      </trkpt>
      <trkpt lat="42.85115" lon="-0.14697">
        <ele>1537.6</ele>
        <time>2022-07-09T06:36:00.000Z</time>
      </trkpt>
      <trkpt lat="42.85124" lon="-0.14702">
        <ele>1537.9</ele>
        <time>2022-07-09T06:36:08.000Z</time>
      </trkpt>
      <trkpt lat="42.85123" lon="-0.14714">
        <ele>1537.7</ele>
        <time>2022-07-09T06:36:23.000Z</time>
      </trkpt>
      <trkpt lat="42.8513" lon="-0.14723">
        <ele>1538.7</ele>
        <time>2022-07-09T06:36:33.000Z</time>
      </trkpt>
      <trkpt lat="42.85137" lon="-0.14732">
        <ele>1537.2</ele>
        <time>2022-07-09T06:36:40.000Z</time>
      </trkpt>
      <trkpt lat="42.85144" lon="-0.14742">
        <ele>1537.5</ele>
        <time>2022-07-09T06:36:47.000Z</time>
      </trkpt>
      <trkpt lat="42.8515" lon="-0.14754">
        <ele>1538.8</ele>
        <time>2022-07-09T06:36:54.000Z</time>
      </trkpt>
      <trkpt lat="42.85154" lon="-0.14766">
        <ele>1537.9</ele>
        <time>2022-07-09T06:37:01.000Z</time>
      </trkpt>
      <trkpt lat="42.85156" lon="-0.14778">
        <ele>1537.8</ele>
        <time>2022-07-09T06:37:07.000Z</time>
      </trkpt>
      <trkpt lat="42.85156" lon="-0.14792">
        <ele>1537</ele>
        <time>2022-07-09T06:37:12.000Z</time>
      </trkpt>
      <trkpt lat="42.85156" lon="-0.14805">
        <ele>1537.9</ele>
        <time>2022-07-09T06:37:19.000Z</time>
      </trkpt>
      <trkpt lat="42.85157" lon="-0.14818">
        <ele>1539</ele>
        <time>2022-07-09T06:37:27.000Z</time>
      </trkpt>
      <trkpt lat="42.85158" lon="-0.14832">
        <ele>1539.6</ele>
        <time>2022-07-09T06:37:35.000Z</time>
      </trkpt>
      <trkpt lat="42.85159" lon="-0.14845">
        <ele>1541.6</ele>
        <time>2022-07-09T06:37:44.000Z</time>
      </trkpt>
      <trkpt lat="42.85159" lon="-0.14857">
        <ele>1542.3</ele>
        <time>2022-07-09T06:37:53.000Z</time>
      </trkpt>
      <trkpt lat="42.8516" lon="-0.14871">
        <ele>1543.7</ele>
        <time>2022-07-09T06:38:01.000Z</time>
      </trkpt>
      <trkpt lat="42.85159" lon="-0.14885">
        <ele>1545.2</ele>
        <time>2022-07-09T06:38:09.000Z</time>
      </trkpt>
      <trkpt lat="42.85162" lon="-0.14898">
        <ele>1546.2</ele>
        <time>2022-07-09T06:38:17.000Z</time>
      </trkpt>
      <trkpt lat="42.85163" lon="-0.1491">
        <ele>1546.7</ele>
        <time>2022-07-09T06:38:23.000Z</time>
      </trkpt>
      <trkpt lat="42.85164" lon="-0.14924">
        <ele>1547.6</ele>
        <time>2022-07-09T06:38:30.000Z</time>
      </trkpt>
      <trkpt lat="42.85164" lon="-0.14937">
        <ele>1549.1</ele>
        <time>2022-07-09T06:38:38.000Z</time>
      </trkpt>
      <trkpt lat="42.85164" lon="-0.1495">
        <ele>1550</ele>
        <time>2022-07-09T06:38:45.000Z</time>
      </trkpt>
      <trkpt lat="42.8517" lon="-0.14961">
        <ele>1551</ele>
        <time>2022-07-09T06:38:54.000Z</time>
      </trkpt>
      <trkpt lat="42.85173" lon="-0.14974">
        <ele>1551.7</ele>
        <time>2022-07-09T06:39:03.000Z</time>
      </trkpt>
      <trkpt lat="42.85182" lon="-0.14979">
        <ele>1553.9</ele>
        <time>2022-07-09T06:39:15.000Z</time>
      </trkpt>
      <trkpt lat="42.85191" lon="-0.14985">
        <ele>1555.7</ele>
        <time>2022-07-09T06:39:24.000Z</time>
      </trkpt>
      <trkpt lat="42.85194" lon="-0.14998">
        <ele>1557.2</ele>
        <time>2022-07-09T06:39:34.000Z</time>
      </trkpt>
      <trkpt lat="42.85195" lon="-0.1501">
        <ele>1558.7</ele>
        <time>2022-07-09T06:39:44.000Z</time>
      </trkpt>
      <trkpt lat="42.85199" lon="-0.15023">
        <ele>1560.4</ele>
        <time>2022-07-09T06:39:54.000Z</time>
      </trkpt>
      <trkpt lat="42.85202" lon="-0.15037">
        <ele>1561.2</ele>
        <time>2022-07-09T06:40:02.000Z</time>
      </trkpt>
      <trkpt lat="42.85205" lon="-0.15049">
        <ele>1562.1</ele>
        <time>2022-07-09T06:40:10.000Z</time>
      </trkpt>
      <trkpt lat="42.85211" lon="-0.15059">
        <ele>1563.5</ele>
        <time>2022-07-09T06:40:19.000Z</time>
      </trkpt>
      <trkpt lat="42.85216" lon="-0.15069">
        <ele>1565</ele>
        <time>2022-07-09T06:40:28.000Z</time>
      </trkpt>
      <trkpt lat="42.85223" lon="-0.15076">
        <ele>1566.3</ele>
        <time>2022-07-09T06:40:39.000Z</time>
      </trkpt>
      <trkpt lat="42.85228" lon="-0.15087">
        <ele>1567.1</ele>
        <time>2022-07-09T06:40:49.000Z</time>
      </trkpt>
      <trkpt lat="42.85232" lon="-0.15099">
        <ele>1568</ele>
        <time>2022-07-09T06:40:58.000Z</time>
      </trkpt>
      <trkpt lat="42.85236" lon="-0.15112">
        <ele>1569.2</ele>
        <time>2022-07-09T06:41:05.000Z</time>
      </trkpt>
      <trkpt lat="42.85235" lon="-0.15124">
        <ele>1570.7</ele>
        <time>2022-07-09T06:41:14.000Z</time>
      </trkpt>
      <trkpt lat="42.85231" lon="-0.15136">
        <ele>1572.2</ele>
        <time>2022-07-09T06:41:22.000Z</time>
      </trkpt>
      <trkpt lat="42.85234" lon="-0.15148">
        <ele>1573.5</ele>
        <time>2022-07-09T06:41:32.000Z</time>
      </trkpt>
      <trkpt lat="42.85235" lon="-0.15162">
        <ele>1574.7</ele>
        <time>2022-07-09T06:41:40.000Z</time>
      </trkpt>
      <trkpt lat="42.85236" lon="-0.15178">
        <ele>1576.4</ele>
        <time>2022-07-09T06:41:52.000Z</time>
      </trkpt>
      <trkpt lat="42.85233" lon="-0.1519">
        <ele>1576.6</ele>
        <time>2022-07-09T06:42:03.000Z</time>
      </trkpt>
      <trkpt lat="42.8523" lon="-0.15201">
        <ele>1577.3</ele>
        <time>2022-07-09T06:42:11.000Z</time>
      </trkpt>
      <trkpt lat="42.85228" lon="-0.15214">
        <ele>1578.8</ele>
        <time>2022-07-09T06:42:24.000Z</time>
      </trkpt>
      <trkpt lat="42.85227" lon="-0.15226">
        <ele>1578.4</ele>
        <time>2022-07-09T06:42:36.000Z</time>
      </trkpt>
      <trkpt lat="42.85226" lon="-0.1524">
        <ele>1578.2</ele>
        <time>2022-07-09T06:42:44.000Z</time>
      </trkpt>
      <trkpt lat="42.85221" lon="-0.15251">
        <ele>1578.1</ele>
        <time>2022-07-09T06:42:52.000Z</time>
      </trkpt>
      <trkpt lat="42.85218" lon="-0.15264">
        <ele>1578.2</ele>
        <time>2022-07-09T06:42:59.000Z</time>
      </trkpt>
      <trkpt lat="42.85214" lon="-0.15275">
        <ele>1578.1</ele>
        <time>2022-07-09T06:43:06.000Z</time>
      </trkpt>
      <trkpt lat="42.8521" lon="-0.15287">
        <ele>1578.9</ele>
        <time>2022-07-09T06:43:13.000Z</time>
      </trkpt>
      <trkpt lat="42.85206" lon="-0.15298">
        <ele>1579.7</ele>
        <time>2022-07-09T06:43:20.000Z</time>
      </trkpt>
      <trkpt lat="42.85201" lon="-0.1531">
        <ele>1580.4</ele>
        <time>2022-07-09T06:43:28.000Z</time>
      </trkpt>
      <trkpt lat="42.85198" lon="-0.15323">
        <ele>1581.7</ele>
        <time>2022-07-09T06:43:37.000Z</time>
      </trkpt>
      <trkpt lat="42.85191" lon="-0.15333">
        <ele>1583.2</ele>
        <time>2022-07-09T06:43:46.000Z</time>
      </trkpt>
      <trkpt lat="42.85182" lon="-0.15336">
        <ele>1583.7</ele>
        <time>2022-07-09T06:43:53.000Z</time>
      </trkpt>
      <trkpt lat="42.85172" lon="-0.15337">
        <ele>1584.3</ele>
        <time>2022-07-09T06:44:01.000Z</time>
      </trkpt>
      <trkpt lat="42.85164" lon="-0.15342">
        <ele>1583.8</ele>
        <time>2022-07-09T06:44:07.000Z</time>
      </trkpt>
      <trkpt lat="42.85156" lon="-0.1535">
        <ele>1583.6</ele>
        <time>2022-07-09T06:44:16.000Z</time>
      </trkpt>
      <trkpt lat="42.85157" lon="-0.15363">
        <ele>1582.7</ele>
        <time>2022-07-09T06:44:23.000Z</time>
      </trkpt>
      <trkpt lat="42.85155" lon="-0.15375">
        <ele>1581.4</ele>
        <time>2022-07-09T06:44:30.000Z</time>
      </trkpt>
      <trkpt lat="42.8515" lon="-0.15388">
        <ele>1580.8</ele>
        <time>2022-07-09T06:44:36.000Z</time>
      </trkpt>
      <trkpt lat="42.85147" lon="-0.15399">
        <ele>1580.7</ele>
        <time>2022-07-09T06:44:43.000Z</time>
      </trkpt>
      <trkpt lat="42.85143" lon="-0.15412">
        <ele>1580.3</ele>
        <time>2022-07-09T06:44:53.000Z</time>
      </trkpt>
      <trkpt lat="42.85137" lon="-0.15422">
        <ele>1580.2</ele>
        <time>2022-07-09T06:45:00.000Z</time>
      </trkpt>
      <trkpt lat="42.85133" lon="-0.15435">
        <ele>1579.9</ele>
        <time>2022-07-09T06:45:08.000Z</time>
      </trkpt>
      <trkpt lat="42.85132" lon="-0.15448">
        <ele>1580.4</ele>
        <time>2022-07-09T06:45:16.000Z</time>
      </trkpt>
      <trkpt lat="42.85129" lon="-0.15461">
        <ele>1580.5</ele>
        <time>2022-07-09T06:45:25.000Z</time>
      </trkpt>
      <trkpt lat="42.85132" lon="-0.15473">
        <ele>1580.4</ele>
        <time>2022-07-09T06:45:37.000Z</time>
      </trkpt>
      <trkpt lat="42.85127" lon="-0.15484">
        <ele>1579.7</ele>
        <time>2022-07-09T06:45:47.000Z</time>
      </trkpt>
      <trkpt lat="42.85121" lon="-0.15495">
        <ele>1578.6</ele>
        <time>2022-07-09T06:45:55.000Z</time>
      </trkpt>
      <trkpt lat="42.85115" lon="-0.15505">
        <ele>1578.4</ele>
        <time>2022-07-09T06:46:03.000Z</time>
      </trkpt>
      <trkpt lat="42.85107" lon="-0.15514">
        <ele>1578</ele>
        <time>2022-07-09T06:46:12.000Z</time>
      </trkpt>
      <trkpt lat="42.851" lon="-0.15522">
        <ele>1577.6</ele>
        <time>2022-07-09T06:46:21.000Z</time>
      </trkpt>
      <trkpt lat="42.85093" lon="-0.15532">
        <ele>1578.1</ele>
        <time>2022-07-09T06:46:29.000Z</time>
      </trkpt>
      <trkpt lat="42.85087" lon="-0.15543">
        <ele>1578.9</ele>
        <time>2022-07-09T06:46:37.000Z</time>
      </trkpt>
      <trkpt lat="42.85081" lon="-0.15555">
        <ele>1578.6</ele>
        <time>2022-07-09T06:46:43.000Z</time>
      </trkpt>
      <trkpt lat="42.8508" lon="-0.15569">
        <ele>1578.2</ele>
        <time>2022-07-09T06:46:50.000Z</time>
      </trkpt>
      <trkpt lat="42.85084" lon="-0.1558">
        <ele>1578.8</ele>
        <time>2022-07-09T06:46:59.000Z</time>
      </trkpt>
      <trkpt lat="42.85088" lon="-0.15591">
        <ele>1579.4</ele>
        <time>2022-07-09T06:47:07.000Z</time>
      </trkpt>
      <trkpt lat="42.8509" lon="-0.15604">
        <ele>1580</ele>
        <time>2022-07-09T06:47:15.000Z</time>
      </trkpt>
      <trkpt lat="42.85097" lon="-0.15614">
        <ele>1580.4</ele>
        <time>2022-07-09T06:47:24.000Z</time>
      </trkpt>
      <trkpt lat="42.85103" lon="-0.15625">
        <ele>1579.6</ele>
        <time>2022-07-09T06:47:32.000Z</time>
      </trkpt>
      <trkpt lat="42.85105" lon="-0.15638">
        <ele>1582.2</ele>
        <time>2022-07-09T06:47:39.000Z</time>
      </trkpt>
      <trkpt lat="42.85106" lon="-0.15651">
        <ele>1581.3</ele>
        <time>2022-07-09T06:47:46.000Z</time>
      </trkpt>
      <trkpt lat="42.85106" lon="-0.15665">
        <ele>1581.7</ele>
        <time>2022-07-09T06:47:52.000Z</time>
      </trkpt>
      <trkpt lat="42.85104" lon="-0.15679">
        <ele>1581.9</ele>
        <time>2022-07-09T06:47:59.000Z</time>
      </trkpt>
      <trkpt lat="42.85107" lon="-0.15693">
        <ele>1582.1</ele>
        <time>2022-07-09T06:48:08.000Z</time>
      </trkpt>
      <trkpt lat="42.85105" lon="-0.15706">
        <ele>1582.7</ele>
        <time>2022-07-09T06:48:15.000Z</time>
      </trkpt>
      <trkpt lat="42.85105" lon="-0.1572">
        <ele>1583.1</ele>
        <time>2022-07-09T06:48:23.000Z</time>
      </trkpt>
      <trkpt lat="42.85109" lon="-0.15732">
        <ele>1584.7</ele>
        <time>2022-07-09T06:48:33.000Z</time>
      </trkpt>
      <trkpt lat="42.85106" lon="-0.15744">
        <ele>1586.2</ele>
        <time>2022-07-09T06:48:43.000Z</time>
      </trkpt>
      <trkpt lat="42.85104" lon="-0.15758">
        <ele>1587.8</ele>
        <time>2022-07-09T06:48:51.000Z</time>
      </trkpt>
      <trkpt lat="42.85101" lon="-0.1577">
        <ele>1588.8</ele>
        <time>2022-07-09T06:48:59.000Z</time>
      </trkpt>
      <trkpt lat="42.85095" lon="-0.15779">
        <ele>1589.3</ele>
        <time>2022-07-09T06:49:07.000Z</time>
      </trkpt>
      <trkpt lat="42.85092" lon="-0.15793">
        <ele>1589.9</ele>
        <time>2022-07-09T06:49:16.000Z</time>
      </trkpt>
      <trkpt lat="42.8509" lon="-0.15806">
        <ele>1590</ele>
        <time>2022-07-09T06:49:23.000Z</time>
      </trkpt>
      <trkpt lat="42.85088" lon="-0.15818">
        <ele>1590.5</ele>
        <time>2022-07-09T06:49:30.000Z</time>
      </trkpt>
      <trkpt lat="42.85091" lon="-0.1583">
        <ele>1590.9</ele>
        <time>2022-07-09T06:49:40.000Z</time>
      </trkpt>
      <trkpt lat="42.85098" lon="-0.15839">
        <ele>1591.6</ele>
        <time>2022-07-09T06:49:49.000Z</time>
      </trkpt>
      <trkpt lat="42.85102" lon="-0.15851">
        <ele>1594</ele>
        <time>2022-07-09T06:50:02.000Z</time>
      </trkpt>
      <trkpt lat="42.85097" lon="-0.15863">
        <ele>1596.6</ele>
        <time>2022-07-09T06:50:12.000Z</time>
      </trkpt>
      <trkpt lat="42.85092" lon="-0.15875">
        <ele>1599.5</ele>
        <time>2022-07-09T06:50:22.000Z</time>
      </trkpt>
      <trkpt lat="42.85085" lon="-0.15884">
        <ele>1601</ele>
        <time>2022-07-09T06:50:32.000Z</time>
      </trkpt>
      <trkpt lat="42.85078" lon="-0.15892">
        <ele>1601.9</ele>
        <time>2022-07-09T06:50:40.000Z</time>
      </trkpt>
      <trkpt lat="42.85075" lon="-0.15904">
        <ele>1603.8</ele>
        <time>2022-07-09T06:50:50.000Z</time>
      </trkpt>
      <trkpt lat="42.85083" lon="-0.15908">
        <ele>1605.5</ele>
        <time>2022-07-09T06:51:02.000Z</time>
      </trkpt>
      <trkpt lat="42.85093" lon="-0.15903">
        <ele>1605.8</ele>
        <time>2022-07-09T06:51:08.000Z</time>
      </trkpt>
      <trkpt lat="42.851" lon="-0.15895">
        <ele>1606.6</ele>
        <time>2022-07-09T06:51:16.000Z</time>
      </trkpt>
      <trkpt lat="42.85109" lon="-0.15891">
        <ele>1607.8</ele>
        <time>2022-07-09T06:51:24.000Z</time>
      </trkpt>
      <trkpt lat="42.85116" lon="-0.15887">
        <ele>1609.2</ele>
        <time>2022-07-09T06:51:34.000Z</time>
      </trkpt>
      <trkpt lat="42.85116" lon="-0.15888">
        <ele>1609.3</ele>
        <time>2022-07-09T06:51:35.000Z</time>
      </trkpt>
      <trkpt lat="42.85115" lon="-0.15901">
        <ele>1610.4</ele>
        <time>2022-07-09T06:51:46.000Z</time>
      </trkpt>
      <trkpt lat="42.85114" lon="-0.15914">
        <ele>1610.8</ele>
        <time>2022-07-09T06:51:55.000Z</time>
      </trkpt>
      <trkpt lat="42.85111" lon="-0.15927">
        <ele>1611.4</ele>
        <time>2022-07-09T06:52:03.000Z</time>
      </trkpt>
      <trkpt lat="42.85109" lon="-0.1594">
        <ele>1612.4</ele>
        <time>2022-07-09T06:52:10.000Z</time>
      </trkpt>
      <trkpt lat="42.85103" lon="-0.1595">
        <ele>1614.5</ele>
        <time>2022-07-09T06:52:20.000Z</time>
      </trkpt>
      <trkpt lat="42.85096" lon="-0.1596">
        <ele>1615.2</ele>
        <time>2022-07-09T06:52:28.000Z</time>
      </trkpt>
      <trkpt lat="42.85088" lon="-0.15966">
        <ele>1616.1</ele>
        <time>2022-07-09T06:52:37.000Z</time>
      </trkpt>
      <trkpt lat="42.8508" lon="-0.15973">
        <ele>1578.9</ele>
        <time>2022-07-09T06:52:45.000Z</time>
      </trkpt>
      <trkpt lat="42.85072" lon="-0.1598">
        <ele>1577.7</ele>
        <time>2022-07-09T06:52:56.000Z</time>
      </trkpt>
      <trkpt lat="42.85066" lon="-0.1599">
        <ele>1576.9</ele>
        <time>2022-07-09T06:53:03.000Z</time>
      </trkpt>
      <trkpt lat="42.85059" lon="-0.15998">
        <ele>1576</ele>
        <time>2022-07-09T06:53:10.000Z</time>
      </trkpt>
      <trkpt lat="42.85056" lon="-0.16011">
        <ele>1576.1</ele>
        <time>2022-07-09T06:53:17.000Z</time>
      </trkpt>
      <trkpt lat="42.85062" lon="-0.1602">
        <ele>1576.2</ele>
        <time>2022-07-09T06:53:26.000Z</time>
      </trkpt>
      <trkpt lat="42.85072" lon="-0.16017">
        <ele>1576.9</ele>
        <time>2022-07-09T06:53:33.000Z</time>
      </trkpt>
      <trkpt lat="42.85082" lon="-0.16013">
        <ele>1576.9</ele>
        <time>2022-07-09T06:53:43.000Z</time>
      </trkpt>
      <trkpt lat="42.85087" lon="-0.16004">
        <ele>1576.8</ele>
        <time>2022-07-09T06:53:49.000Z</time>
      </trkpt>
      <trkpt lat="42.85095" lon="-0.15997">
        <ele>1576.8</ele>
        <time>2022-07-09T06:53:59.000Z</time>
      </trkpt>
      <trkpt lat="42.85103" lon="-0.16003">
        <ele>1575.8</ele>
        <time>2022-07-09T06:54:09.000Z</time>
      </trkpt>
      <trkpt lat="42.85108" lon="-0.16015">
        <ele>1575.2</ele>
        <time>2022-07-09T06:54:18.000Z</time>
      </trkpt>
      <trkpt lat="42.85109" lon="-0.16028">
        <ele>1575.7</ele>
        <time>2022-07-09T06:54:25.000Z</time>
      </trkpt>
      <trkpt lat="42.8511" lon="-0.16041">
        <ele>1576</ele>
        <time>2022-07-09T06:54:32.000Z</time>
      </trkpt>
      <trkpt lat="42.85114" lon="-0.16052">
        <ele>1576.6</ele>
        <time>2022-07-09T06:54:40.000Z</time>
      </trkpt>
      <trkpt lat="42.85112" lon="-0.16065">
        <ele>1576.5</ele>
        <time>2022-07-09T06:54:49.000Z</time>
      </trkpt>
      <trkpt lat="42.85106" lon="-0.16076">
        <ele>1576.9</ele>
        <time>2022-07-09T06:54:57.000Z</time>
      </trkpt>
      <trkpt lat="42.85101" lon="-0.16087">
        <ele>1577.4</ele>
        <time>2022-07-09T06:55:05.000Z</time>
      </trkpt>
      <trkpt lat="42.85094" lon="-0.16098">
        <ele>1577.8</ele>
        <time>2022-07-09T06:55:12.000Z</time>
      </trkpt>
      <trkpt lat="42.8509" lon="-0.16109">
        <ele>1577.8</ele>
        <time>2022-07-09T06:55:19.000Z</time>
      </trkpt>
      <trkpt lat="42.85087" lon="-0.16121">
        <ele>1578.2</ele>
        <time>2022-07-09T06:55:26.000Z</time>
      </trkpt>
      <trkpt lat="42.85083" lon="-0.16134">
        <ele>1580.2</ele>
        <time>2022-07-09T06:55:34.000Z</time>
      </trkpt>
      <trkpt lat="42.85082" lon="-0.16146">
        <ele>1579.8</ele>
        <time>2022-07-09T06:55:43.000Z</time>
      </trkpt>
      <trkpt lat="42.85078" lon="-0.16158">
        <ele>1581</ele>
        <time>2022-07-09T06:55:54.000Z</time>
      </trkpt>
      <trkpt lat="42.85077" lon="-0.16171">
        <ele>1581.8</ele>
        <time>2022-07-09T06:56:02.000Z</time>
      </trkpt>
      <trkpt lat="42.85076" lon="-0.16183">
        <ele>1581.6</ele>
        <time>2022-07-09T06:56:09.000Z</time>
      </trkpt>
      <trkpt lat="42.85072" lon="-0.16195">
        <ele>1582.5</ele>
        <time>2022-07-09T06:56:18.000Z</time>
      </trkpt>
      <trkpt lat="42.85067" lon="-0.16207">
        <ele>1583.5</ele>
        <time>2022-07-09T06:56:27.000Z</time>
      </trkpt>
      <trkpt lat="42.85063" lon="-0.16219">
        <ele>1584.7</ele>
        <time>2022-07-09T06:56:36.000Z</time>
      </trkpt>
      <trkpt lat="42.85059" lon="-0.16231">
        <ele>1585.9</ele>
        <time>2022-07-09T06:56:46.000Z</time>
      </trkpt>
      <trkpt lat="42.85056" lon="-0.16243">
        <ele>1587.1</ele>
        <time>2022-07-09T06:56:54.000Z</time>
      </trkpt>
      <trkpt lat="42.85049" lon="-0.16252">
        <ele>1588.2</ele>
        <time>2022-07-09T06:57:02.000Z</time>
      </trkpt>
      <trkpt lat="42.85041" lon="-0.16256">
        <ele>1589.3</ele>
        <time>2022-07-09T06:57:12.000Z</time>
      </trkpt>
      <trkpt lat="42.85031" lon="-0.16256">
        <ele>1591.1</ele>
        <time>2022-07-09T06:57:22.000Z</time>
      </trkpt>
      <trkpt lat="42.85023" lon="-0.16261">
        <ele>1592.1</ele>
        <time>2022-07-09T06:57:32.000Z</time>
      </trkpt>
      <trkpt lat="42.85014" lon="-0.16265">
        <ele>1592.7</ele>
        <time>2022-07-09T06:57:40.000Z</time>
      </trkpt>
      <trkpt lat="42.85004" lon="-0.16267">
        <ele>1592.9</ele>
        <time>2022-07-09T06:57:47.000Z</time>
      </trkpt>
      <trkpt lat="42.84995" lon="-0.16269">
        <ele>1593.1</ele>
        <time>2022-07-09T06:57:54.000Z</time>
      </trkpt>
      <trkpt lat="42.84985" lon="-0.16272">
        <ele>1593.3</ele>
        <time>2022-07-09T06:58:03.000Z</time>
      </trkpt>
      <trkpt lat="42.84978" lon="-0.16281">
        <ele>1592</ele>
        <time>2022-07-09T06:58:11.000Z</time>
      </trkpt>
      <trkpt lat="42.84971" lon="-0.16288">
        <ele>1591.2</ele>
        <time>2022-07-09T06:58:18.000Z</time>
      </trkpt>
      <trkpt lat="42.84964" lon="-0.16296">
        <ele>1591.2</ele>
        <time>2022-07-09T06:58:25.000Z</time>
      </trkpt>
      <trkpt lat="42.84958" lon="-0.16306">
        <ele>1591.3</ele>
        <time>2022-07-09T06:58:32.000Z</time>
      </trkpt>
      <trkpt lat="42.84954" lon="-0.16318">
        <ele>1591.3</ele>
        <time>2022-07-09T06:58:41.000Z</time>
      </trkpt>
      <trkpt lat="42.84953" lon="-0.16331">
        <ele>1591.5</ele>
        <time>2022-07-09T06:58:51.000Z</time>
      </trkpt>
      <trkpt lat="42.8495" lon="-0.16344">
        <ele>1590.7</ele>
        <time>2022-07-09T06:58:58.000Z</time>
      </trkpt>
      <trkpt lat="42.84952" lon="-0.16357">
        <ele>1590.4</ele>
        <time>2022-07-09T06:59:05.000Z</time>
      </trkpt>
      <trkpt lat="42.84953" lon="-0.16372">
        <ele>1590.6</ele>
        <time>2022-07-09T06:59:12.000Z</time>
      </trkpt>
      <trkpt lat="42.84951" lon="-0.16385">
        <ele>1590.3</ele>
        <time>2022-07-09T06:59:20.000Z</time>
      </trkpt>
      <trkpt lat="42.84948" lon="-0.16393">
        <ele>1590.1</ele>
        <time>2022-07-09T06:59:28.000Z</time>
      </trkpt>
      <trkpt lat="42.84948" lon="-0.16394">
        <ele>1590.2</ele>
        <time>2022-07-09T06:59:29.000Z</time>
      </trkpt>
      <trkpt lat="42.84944" lon="-0.16406">
        <ele>1590.3</ele>
        <time>2022-07-09T06:59:37.000Z</time>
      </trkpt>
      <trkpt lat="42.84939" lon="-0.16417">
        <ele>1590.2</ele>
        <time>2022-07-09T06:59:43.000Z</time>
      </trkpt>
      <trkpt lat="42.8493" lon="-0.16426">
        <ele>1590.2</ele>
        <time>2022-07-09T06:59:50.000Z</time>
      </trkpt>
      <trkpt lat="42.84923" lon="-0.16434">
        <ele>1590.3</ele>
        <time>2022-07-09T06:59:56.000Z</time>
      </trkpt>
      <trkpt lat="42.84917" lon="-0.16444">
        <ele>1589.9</ele>
        <time>2022-07-09T07:00:03.000Z</time>
      </trkpt>
      <trkpt lat="42.84911" lon="-0.16455">
        <ele>1589.8</ele>
        <time>2022-07-09T07:00:10.000Z</time>
      </trkpt>
      <trkpt lat="42.84903" lon="-0.16461">
        <ele>1590.1</ele>
        <time>2022-07-09T07:00:16.000Z</time>
      </trkpt>
      <trkpt lat="42.84895" lon="-0.16466">
        <ele>1590</ele>
        <time>2022-07-09T07:00:24.000Z</time>
      </trkpt>
      <trkpt lat="42.84886" lon="-0.16471">
        <ele>1590.7</ele>
        <time>2022-07-09T07:00:37.000Z</time>
      </trkpt>
      <trkpt lat="42.8488" lon="-0.1648">
        <ele>1591.8</ele>
        <time>2022-07-09T07:00:46.000Z</time>
      </trkpt>
      <trkpt lat="42.84871" lon="-0.16487">
        <ele>1592.3</ele>
        <time>2022-07-09T07:00:54.000Z</time>
      </trkpt>
      <trkpt lat="42.84861" lon="-0.16492">
        <ele>1592.7</ele>
        <time>2022-07-09T07:01:02.000Z</time>
      </trkpt>
      <trkpt lat="42.84853" lon="-0.16498">
        <ele>1593.3</ele>
        <time>2022-07-09T07:01:09.000Z</time>
      </trkpt>
      <trkpt lat="42.84843" lon="-0.165">
        <ele>1593</ele>
        <time>2022-07-09T07:01:16.000Z</time>
      </trkpt>
      <trkpt lat="42.84834" lon="-0.16507">
        <ele>1591.6</ele>
        <time>2022-07-09T07:01:29.000Z</time>
      </trkpt>
      <trkpt lat="42.84824" lon="-0.16509">
        <ele>1591.2</ele>
        <time>2022-07-09T07:01:36.000Z</time>
      </trkpt>
      <trkpt lat="42.84815" lon="-0.16511">
        <ele>1590.9</ele>
        <time>2022-07-09T07:01:43.000Z</time>
      </trkpt>
      <trkpt lat="42.84805" lon="-0.16511">
        <ele>1590.4</ele>
        <time>2022-07-09T07:01:51.000Z</time>
      </trkpt>
      <trkpt lat="42.84796" lon="-0.16513">
        <ele>1590.8</ele>
        <time>2022-07-09T07:01:57.000Z</time>
      </trkpt>
      <trkpt lat="42.84787" lon="-0.16516">
        <ele>1590.8</ele>
        <time>2022-07-09T07:02:04.000Z</time>
      </trkpt>
      <trkpt lat="42.84778" lon="-0.16522">
        <ele>1591.1</ele>
        <time>2022-07-09T07:02:12.000Z</time>
      </trkpt>
      <trkpt lat="42.8477" lon="-0.1653">
        <ele>1591.1</ele>
        <time>2022-07-09T07:02:21.000Z</time>
      </trkpt>
      <trkpt lat="42.84764" lon="-0.16539">
        <ele>1590.4</ele>
        <time>2022-07-09T07:02:29.000Z</time>
      </trkpt>
      <trkpt lat="42.84755" lon="-0.16544">
        <ele>1590.1</ele>
        <time>2022-07-09T07:02:38.000Z</time>
      </trkpt>
      <trkpt lat="42.84746" lon="-0.16547">
        <ele>1590.2</ele>
        <time>2022-07-09T07:02:46.000Z</time>
      </trkpt>
      <trkpt lat="42.84738" lon="-0.16554">
        <ele>1590.6</ele>
        <time>2022-07-09T07:02:52.000Z</time>
      </trkpt>
      <trkpt lat="42.84734" lon="-0.16565">
        <ele>1591.5</ele>
        <time>2022-07-09T07:03:02.000Z</time>
      </trkpt>
      <trkpt lat="42.84729" lon="-0.16576">
        <ele>1591.6</ele>
        <time>2022-07-09T07:03:09.000Z</time>
      </trkpt>
      <trkpt lat="42.84724" lon="-0.16587">
        <ele>1592.5</ele>
        <time>2022-07-09T07:03:16.000Z</time>
      </trkpt>
      <trkpt lat="42.8472" lon="-0.16599">
        <ele>1593.4</ele>
        <time>2022-07-09T07:03:24.000Z</time>
      </trkpt>
      <trkpt lat="42.84714" lon="-0.16609">
        <ele>1594.2</ele>
        <time>2022-07-09T07:03:33.000Z</time>
      </trkpt>
      <trkpt lat="42.84708" lon="-0.1662">
        <ele>1594.1</ele>
        <time>2022-07-09T07:03:41.000Z</time>
      </trkpt>
      <trkpt lat="42.84702" lon="-0.16631">
        <ele>1593.3</ele>
        <time>2022-07-09T07:03:48.000Z</time>
      </trkpt>
      <trkpt lat="42.84697" lon="-0.16643">
        <ele>1593</ele>
        <time>2022-07-09T07:03:56.000Z</time>
      </trkpt>
      <trkpt lat="42.84692" lon="-0.16653">
        <ele>1593</ele>
        <time>2022-07-09T07:04:03.000Z</time>
      </trkpt>
      <trkpt lat="42.84685" lon="-0.16663">
        <ele>1592.8</ele>
        <time>2022-07-09T07:04:12.000Z</time>
      </trkpt>
      <trkpt lat="42.84678" lon="-0.1667">
        <ele>1592.7</ele>
        <time>2022-07-09T07:04:18.000Z</time>
      </trkpt>
      <trkpt lat="42.84671" lon="-0.16679">
        <ele>1592.3</ele>
        <time>2022-07-09T07:04:26.000Z</time>
      </trkpt>
      <trkpt lat="42.84661" lon="-0.16686">
        <ele>1593.2</ele>
        <time>2022-07-09T07:04:34.000Z</time>
      </trkpt>
      <trkpt lat="42.84652" lon="-0.1669">
        <ele>1593.3</ele>
        <time>2022-07-09T07:04:41.000Z</time>
      </trkpt>
      <trkpt lat="42.84643" lon="-0.16696">
        <ele>1593</ele>
        <time>2022-07-09T07:04:49.000Z</time>
      </trkpt>
      <trkpt lat="42.84634" lon="-0.16703">
        <ele>1592.9</ele>
        <time>2022-07-09T07:04:57.000Z</time>
      </trkpt>
      <trkpt lat="42.84625" lon="-0.16707">
        <ele>1593</ele>
        <time>2022-07-09T07:05:04.000Z</time>
      </trkpt>
      <trkpt lat="42.84615" lon="-0.1671">
        <ele>1593.2</ele>
        <time>2022-07-09T07:05:12.000Z</time>
      </trkpt>
      <trkpt lat="42.84606" lon="-0.16713">
        <ele>1593.3</ele>
        <time>2022-07-09T07:05:20.000Z</time>
      </trkpt>
      <trkpt lat="42.84597" lon="-0.16714">
        <ele>1593.8</ele>
        <time>2022-07-09T07:05:28.000Z</time>
      </trkpt>
      <trkpt lat="42.84587" lon="-0.16718">
        <ele>1594.7</ele>
        <time>2022-07-09T07:05:37.000Z</time>
      </trkpt>
      <trkpt lat="42.84577" lon="-0.16723">
        <ele>1595.2</ele>
        <time>2022-07-09T07:05:43.000Z</time>
      </trkpt>
      <trkpt lat="42.84569" lon="-0.16728">
        <ele>1594.9</ele>
        <time>2022-07-09T07:05:50.000Z</time>
      </trkpt>
      <trkpt lat="42.84561" lon="-0.16734">
        <ele>1595.2</ele>
        <time>2022-07-09T07:05:57.000Z</time>
      </trkpt>
      <trkpt lat="42.84554" lon="-0.16742">
        <ele>1595.2</ele>
        <time>2022-07-09T07:06:04.000Z</time>
      </trkpt>
      <trkpt lat="42.84546" lon="-0.1675">
        <ele>1595.7</ele>
        <time>2022-07-09T07:06:12.000Z</time>
      </trkpt>
      <trkpt lat="42.84538" lon="-0.16757">
        <ele>1596.2</ele>
        <time>2022-07-09T07:06:20.000Z</time>
      </trkpt>
      <trkpt lat="42.8453" lon="-0.16765">
        <ele>1596.3</ele>
        <time>2022-07-09T07:06:28.000Z</time>
      </trkpt>
      <trkpt lat="42.84522" lon="-0.16768">
        <ele>1596.3</ele>
        <time>2022-07-09T07:06:34.000Z</time>
      </trkpt>
      <trkpt lat="42.84512" lon="-0.16771">
        <ele>1596.7</ele>
        <time>2022-07-09T07:06:40.000Z</time>
      </trkpt>
      <trkpt lat="42.84506" lon="-0.16781">
        <ele>1596.7</ele>
        <time>2022-07-09T07:06:49.000Z</time>
      </trkpt>
      <trkpt lat="42.84501" lon="-0.16792">
        <ele>1596.1</ele>
        <time>2022-07-09T07:06:56.000Z</time>
      </trkpt>
      <trkpt lat="42.84493" lon="-0.16799">
        <ele>1595.7</ele>
        <time>2022-07-09T07:07:03.000Z</time>
      </trkpt>
      <trkpt lat="42.84485" lon="-0.16803">
        <ele>1595.8</ele>
        <time>2022-07-09T07:07:09.000Z</time>
      </trkpt>
      <trkpt lat="42.84476" lon="-0.16808">
        <ele>1595</ele>
        <time>2022-07-09T07:07:16.000Z</time>
      </trkpt>
      <trkpt lat="42.84468" lon="-0.16815">
        <ele>1594.1</ele>
        <time>2022-07-09T07:07:23.000Z</time>
      </trkpt>
      <trkpt lat="42.84458" lon="-0.16817">
        <ele>1594</ele>
        <time>2022-07-09T07:07:30.000Z</time>
      </trkpt>
      <trkpt lat="42.84449" lon="-0.16817">
        <ele>1593.6</ele>
        <time>2022-07-09T07:07:36.000Z</time>
      </trkpt>
      <trkpt lat="42.8444" lon="-0.16816">
        <ele>1593.8</ele>
        <time>2022-07-09T07:07:42.000Z</time>
      </trkpt>
      <trkpt lat="42.8443" lon="-0.16819">
        <ele>1594</ele>
        <time>2022-07-09T07:07:49.000Z</time>
      </trkpt>
      <trkpt lat="42.8442" lon="-0.16822">
        <ele>1594.1</ele>
        <time>2022-07-09T07:07:57.000Z</time>
      </trkpt>
      <trkpt lat="42.84411" lon="-0.16824">
        <ele>1594.3</ele>
        <time>2022-07-09T07:08:03.000Z</time>
      </trkpt>
      <trkpt lat="42.84402" lon="-0.16829">
        <ele>1594.7</ele>
        <time>2022-07-09T07:08:10.000Z</time>
      </trkpt>
      <trkpt lat="42.84393" lon="-0.16834">
        <ele>1595.1</ele>
        <time>2022-07-09T07:08:17.000Z</time>
      </trkpt>
      <trkpt lat="42.84384" lon="-0.16838">
        <ele>1595.3</ele>
        <time>2022-07-09T07:08:24.000Z</time>
      </trkpt>
      <trkpt lat="42.84375" lon="-0.16841">
        <ele>1595</ele>
        <time>2022-07-09T07:08:31.000Z</time>
      </trkpt>
      <trkpt lat="42.84366" lon="-0.16848">
        <ele>1595.2</ele>
        <time>2022-07-09T07:08:39.000Z</time>
      </trkpt>
      <trkpt lat="42.84357" lon="-0.16854">
        <ele>1595.1</ele>
        <time>2022-07-09T07:08:48.000Z</time>
      </trkpt>
      <trkpt lat="42.84347" lon="-0.16856">
        <ele>1595.3</ele>
        <time>2022-07-09T07:08:56.000Z</time>
      </trkpt>
      <trkpt lat="42.84337" lon="-0.16858">
        <ele>1595.4</ele>
        <time>2022-07-09T07:09:04.000Z</time>
      </trkpt>
      <trkpt lat="42.84328" lon="-0.16862">
        <ele>1596.1</ele>
        <time>2022-07-09T07:09:11.000Z</time>
      </trkpt>
      <trkpt lat="42.84318" lon="-0.16862">
        <ele>1597.2</ele>
        <time>2022-07-09T07:09:20.000Z</time>
      </trkpt>
      <trkpt lat="42.84309" lon="-0.16864">
        <ele>1598.6</ele>
        <time>2022-07-09T07:09:27.000Z</time>
      </trkpt>
      <trkpt lat="42.843" lon="-0.16868">
        <ele>1599.2</ele>
        <time>2022-07-09T07:09:34.000Z</time>
      </trkpt>
      <trkpt lat="42.84291" lon="-0.16868">
        <ele>1599.9</ele>
        <time>2022-07-09T07:09:46.000Z</time>
      </trkpt>
      <trkpt lat="42.84283" lon="-0.16876">
        <ele>1600.6</ele>
        <time>2022-07-09T07:09:51.000Z</time>
      </trkpt>
      <trkpt lat="42.84278" lon="-0.16887">
        <ele>1601.3</ele>
        <time>2022-07-09T07:10:00.000Z</time>
      </trkpt>
      <trkpt lat="42.84269" lon="-0.16892">
        <ele>1601.5</ele>
        <time>2022-07-09T07:10:05.000Z</time>
      </trkpt>
      <trkpt lat="42.8426" lon="-0.16897">
        <ele>1602.4</ele>
        <time>2022-07-09T07:10:12.000Z</time>
      </trkpt>
      <trkpt lat="42.84251" lon="-0.16902">
        <ele>1602.6</ele>
        <time>2022-07-09T07:10:22.000Z</time>
      </trkpt>
      <trkpt lat="42.84241" lon="-0.16901">
        <ele>1601.1</ele>
        <time>2022-07-09T07:10:31.000Z</time>
      </trkpt>
      <trkpt lat="42.84231" lon="-0.16899">
        <ele>1600.7</ele>
        <time>2022-07-09T07:10:41.000Z</time>
      </trkpt>
      <trkpt lat="42.8422" lon="-0.16893">
        <ele>1600.8</ele>
        <time>2022-07-09T07:10:47.000Z</time>
      </trkpt>
      <trkpt lat="42.84216" lon="-0.16891">
        <ele>1600.3</ele>
        <time>2022-07-09T07:10:55.000Z</time>
      </trkpt>
      <trkpt lat="42.84217" lon="-0.16892">
        <ele>1600.1</ele>
        <time>2022-07-09T07:11:00.000Z</time>
      </trkpt>
      <trkpt lat="42.84218" lon="-0.16892">
        <ele>1600</ele>
        <time>2022-07-09T07:11:03.000Z</time>
      </trkpt>
      <trkpt lat="42.84218" lon="-0.16893">
        <ele>1600.1</ele>
        <time>2022-07-09T07:11:07.000Z</time>
      </trkpt>
      <trkpt lat="42.84218" lon="-0.16893">
        <ele>1600</ele>
        <time>2022-07-09T07:11:08.000Z</time>
      </trkpt>
      <trkpt lat="42.84218" lon="-0.16893">
        <ele>1600</ele>
        <time>2022-07-09T07:11:10.000Z</time>
      </trkpt>
      <trkpt lat="42.84217" lon="-0.16894">
        <ele>1600</ele>
        <time>2022-07-09T07:11:15.000Z</time>
      </trkpt>
      <trkpt lat="42.84216" lon="-0.16895">
        <ele>1600.2</ele>
        <time>2022-07-09T07:11:16.000Z</time>
      </trkpt>
      <trkpt lat="42.84208" lon="-0.169">
        <ele>1600</ele>
        <time>2022-07-09T07:11:26.000Z</time>
      </trkpt>
      <trkpt lat="42.84199" lon="-0.16899">
        <ele>1599.7</ele>
        <time>2022-07-09T07:11:36.000Z</time>
      </trkpt>
      <trkpt lat="42.84198" lon="-0.169">
        <ele>1599.6</ele>
        <time>2022-07-09T07:11:38.000Z</time>
      </trkpt>
      <trkpt lat="42.84199" lon="-0.16899">
        <ele>1599.5</ele>
        <time>2022-07-09T07:11:39.000Z</time>
      </trkpt>
      <trkpt lat="42.84199" lon="-0.16899">
        <ele>1599.7</ele>
        <time>2022-07-09T07:11:40.000Z</time>
      </trkpt>
      <trkpt lat="42.842" lon="-0.16899">
        <ele>1599.6</ele>
        <time>2022-07-09T07:11:41.000Z</time>
      </trkpt>
      <trkpt lat="42.84201" lon="-0.169">
        <ele>1599.6</ele>
        <time>2022-07-09T07:11:43.000Z</time>
      </trkpt>
      <trkpt lat="42.84201" lon="-0.169">
        <ele>1599.7</ele>
        <time>2022-07-09T07:11:44.000Z</time>
      </trkpt>
      <trkpt lat="42.84192" lon="-0.169">
        <ele>1598.3</ele>
        <time>2022-07-09T07:12:01.000Z</time>
      </trkpt>
      <trkpt lat="42.84182" lon="-0.16898">
        <ele>1598</ele>
        <time>2022-07-09T07:12:08.000Z</time>
      </trkpt>
      <trkpt lat="42.84172" lon="-0.16895">
        <ele>1597.6</ele>
        <time>2022-07-09T07:12:16.000Z</time>
      </trkpt>
      <trkpt lat="42.84163" lon="-0.16892">
        <ele>1597.6</ele>
        <time>2022-07-09T07:12:23.000Z</time>
      </trkpt>
      <trkpt lat="42.84155" lon="-0.16888">
        <ele>1597.9</ele>
        <time>2022-07-09T07:12:29.000Z</time>
      </trkpt>
      <trkpt lat="42.84145" lon="-0.16883">
        <ele>1597.7</ele>
        <time>2022-07-09T07:12:37.000Z</time>
      </trkpt>
      <trkpt lat="42.84135" lon="-0.16882">
        <ele>1597.9</ele>
        <time>2022-07-09T07:12:44.000Z</time>
      </trkpt>
      <trkpt lat="42.84126" lon="-0.16885">
        <ele>1598.2</ele>
        <time>2022-07-09T07:12:52.000Z</time>
      </trkpt>
      <trkpt lat="42.84115" lon="-0.16888">
        <ele>1598.3</ele>
        <time>2022-07-09T07:12:58.000Z</time>
      </trkpt>
      <trkpt lat="42.84105" lon="-0.16892">
        <ele>1598.7</ele>
        <time>2022-07-09T07:13:06.000Z</time>
      </trkpt>
      <trkpt lat="42.84097" lon="-0.16898">
        <ele>1598.9</ele>
        <time>2022-07-09T07:13:14.000Z</time>
      </trkpt>
      <trkpt lat="42.84088" lon="-0.16901">
        <ele>1599.3</ele>
        <time>2022-07-09T07:13:21.000Z</time>
      </trkpt>
      <trkpt lat="42.84079" lon="-0.16905">
        <ele>1599.9</ele>
        <time>2022-07-09T07:13:28.000Z</time>
      </trkpt>
      <trkpt lat="42.84073" lon="-0.16915">
        <ele>1600.5</ele>
        <time>2022-07-09T07:13:35.000Z</time>
      </trkpt>
      <trkpt lat="42.84069" lon="-0.16928">
        <ele>1601.1</ele>
        <time>2022-07-09T07:13:43.000Z</time>
      </trkpt>
      <trkpt lat="42.84061" lon="-0.16934">
        <ele>1601.1</ele>
        <time>2022-07-09T07:13:49.000Z</time>
      </trkpt>
      <trkpt lat="42.84054" lon="-0.16944">
        <ele>1601.1</ele>
        <time>2022-07-09T07:13:55.000Z</time>
      </trkpt>
      <trkpt lat="42.84047" lon="-0.16953">
        <ele>1601.6</ele>
        <time>2022-07-09T07:14:02.000Z</time>
      </trkpt>
      <trkpt lat="42.84041" lon="-0.16964">
        <ele>1602</ele>
        <time>2022-07-09T07:14:10.000Z</time>
      </trkpt>
      <trkpt lat="42.84037" lon="-0.16974">
        <ele>1602.8</ele>
        <time>2022-07-09T07:14:16.000Z</time>
      </trkpt>
      <trkpt lat="42.84029" lon="-0.16983">
        <ele>1603.3</ele>
        <time>2022-07-09T07:14:23.000Z</time>
      </trkpt>
      <trkpt lat="42.84021" lon="-0.16989">
        <ele>1603.6</ele>
        <time>2022-07-09T07:14:30.000Z</time>
      </trkpt>
      <trkpt lat="42.84013" lon="-0.16997">
        <ele>1604.6</ele>
        <time>2022-07-09T07:14:39.000Z</time>
      </trkpt>
      <trkpt lat="42.84006" lon="-0.17004">
        <ele>1605.1</ele>
        <time>2022-07-09T07:14:47.000Z</time>
      </trkpt>
      <trkpt lat="42.84002" lon="-0.17001">
        <ele>1605.7</ele>
        <time>2022-07-09T07:15:02.000Z</time>
      </trkpt>
      <trkpt lat="42.84002" lon="-0.17">
        <ele>1605.6</ele>
        <time>2022-07-09T07:15:03.000Z</time>
      </trkpt>
      <trkpt lat="42.83998" lon="-0.16988">
        <ele>1605.4</ele>
        <time>2022-07-09T07:15:20.000Z</time>
      </trkpt>
      <trkpt lat="42.8399" lon="-0.16982">
        <ele>1605</ele>
        <time>2022-07-09T07:15:29.000Z</time>
      </trkpt>
      <trkpt lat="42.83984" lon="-0.16973">
        <ele>1603.8</ele>
        <time>2022-07-09T07:15:40.000Z</time>
      </trkpt>
      <trkpt lat="42.83984" lon="-0.16958">
        <ele>1603</ele>
        <time>2022-07-09T07:15:48.000Z</time>
      </trkpt>
      <trkpt lat="42.83981" lon="-0.16946">
        <ele>1602.2</ele>
        <time>2022-07-09T07:15:54.000Z</time>
      </trkpt>
      <trkpt lat="42.83977" lon="-0.16935">
        <ele>1601.5</ele>
        <time>2022-07-09T07:16:01.000Z</time>
      </trkpt>
      <trkpt lat="42.83975" lon="-0.16923">
        <ele>1601.4</ele>
        <time>2022-07-09T07:16:07.000Z</time>
      </trkpt>
      <trkpt lat="42.83975" lon="-0.16909">
        <ele>1601</ele>
        <time>2022-07-09T07:16:15.000Z</time>
      </trkpt>
      <trkpt lat="42.83969" lon="-0.16899">
        <ele>1600.7</ele>
        <time>2022-07-09T07:16:22.000Z</time>
      </trkpt>
      <trkpt lat="42.8396" lon="-0.16892">
        <ele>1601.6</ele>
        <time>2022-07-09T07:16:28.000Z</time>
      </trkpt>
      <trkpt lat="42.83951" lon="-0.16888">
        <ele>1602.7</ele>
        <time>2022-07-09T07:16:36.000Z</time>
      </trkpt>
      <trkpt lat="42.83943" lon="-0.1688">
        <ele>1603.7</ele>
        <time>2022-07-09T07:16:46.000Z</time>
      </trkpt>
      <trkpt lat="42.8394" lon="-0.16876">
        <ele>1604.1</ele>
        <time>2022-07-09T07:16:53.000Z</time>
      </trkpt>
      <trkpt lat="42.8394" lon="-0.16876">
        <ele>1604</ele>
        <time>2022-07-09T07:16:54.000Z</time>
      </trkpt>
      <trkpt lat="42.83934" lon="-0.16866">
        <ele>1605.4</ele>
        <time>2022-07-09T07:17:04.000Z</time>
      </trkpt>
      <trkpt lat="42.83926" lon="-0.16861">
        <ele>1607</ele>
        <time>2022-07-09T07:17:11.000Z</time>
      </trkpt>
      <trkpt lat="42.83916" lon="-0.16859">
        <ele>1608.1</ele>
        <time>2022-07-09T07:17:18.000Z</time>
      </trkpt>
      <trkpt lat="42.83909" lon="-0.16847">
        <ele>1609</ele>
        <time>2022-07-09T07:17:25.000Z</time>
      </trkpt>
      <trkpt lat="42.83902" lon="-0.16839">
        <ele>1609.8</ele>
        <time>2022-07-09T07:17:31.000Z</time>
      </trkpt>
      <trkpt lat="42.83897" lon="-0.16828">
        <ele>1611.7</ele>
        <time>2022-07-09T07:17:42.000Z</time>
      </trkpt>
      <trkpt lat="42.83899" lon="-0.16816">
        <ele>1613</ele>
        <time>2022-07-09T07:17:50.000Z</time>
      </trkpt>
      <trkpt lat="42.83898" lon="-0.1681">
        <ele>1614.1</ele>
        <time>2022-07-09T07:17:56.000Z</time>
      </trkpt>
      <trkpt lat="42.83898" lon="-0.16808">
        <ele>1614.4</ele>
        <time>2022-07-09T07:17:57.000Z</time>
      </trkpt>
      <trkpt lat="42.83899" lon="-0.16795">
        <ele>1615.9</ele>
        <time>2022-07-09T07:18:08.000Z</time>
      </trkpt>
      <trkpt lat="42.839" lon="-0.16782">
        <ele>1616.2</ele>
        <time>2022-07-09T07:18:15.000Z</time>
      </trkpt>
      <trkpt lat="42.83902" lon="-0.16768">
        <ele>1616.4</ele>
        <time>2022-07-09T07:18:23.000Z</time>
      </trkpt>
      <trkpt lat="42.83898" lon="-0.16756">
        <ele>1617.4</ele>
        <time>2022-07-09T07:18:32.000Z</time>
      </trkpt>
      <trkpt lat="42.83901" lon="-0.16743">
        <ele>1618.6</ele>
        <time>2022-07-09T07:18:43.000Z</time>
      </trkpt>
      <trkpt lat="42.83897" lon="-0.16732">
        <ele>1619.4</ele>
        <time>2022-07-09T07:18:50.000Z</time>
      </trkpt>
      <trkpt lat="42.83895" lon="-0.1672">
        <ele>1621.3</ele>
        <time>2022-07-09T07:18:58.000Z</time>
      </trkpt>
      <trkpt lat="42.83891" lon="-0.16708">
        <ele>1622.4</ele>
        <time>2022-07-09T07:19:06.000Z</time>
      </trkpt>
      <trkpt lat="42.83888" lon="-0.16694">
        <ele>1622.8</ele>
        <time>2022-07-09T07:19:13.000Z</time>
      </trkpt>
      <trkpt lat="42.83884" lon="-0.16681">
        <ele>1624</ele>
        <time>2022-07-09T07:19:22.000Z</time>
      </trkpt>
      <trkpt lat="42.83882" lon="-0.16668">
        <ele>1624.8</ele>
        <time>2022-07-09T07:19:31.000Z</time>
      </trkpt>
      <trkpt lat="42.83885" lon="-0.16656">
        <ele>1626.1</ele>
        <time>2022-07-09T07:19:41.000Z</time>
      </trkpt>
      <trkpt lat="42.8389" lon="-0.16645">
        <ele>1627.5</ele>
        <time>2022-07-09T07:19:49.000Z</time>
      </trkpt>
      <trkpt lat="42.83895" lon="-0.16635">
        <ele>1628.3</ele>
        <time>2022-07-09T07:19:59.000Z</time>
      </trkpt>
      <trkpt lat="42.83898" lon="-0.16623">
        <ele>1629.6</ele>
        <time>2022-07-09T07:20:08.000Z</time>
      </trkpt>
      <trkpt lat="42.83904" lon="-0.16612">
        <ele>1631.3</ele>
        <time>2022-07-09T07:20:18.000Z</time>
      </trkpt>
      <trkpt lat="42.83909" lon="-0.16601">
        <ele>1632</ele>
        <time>2022-07-09T07:20:27.000Z</time>
      </trkpt>
      <trkpt lat="42.83917" lon="-0.16593">
        <ele>1632.8</ele>
        <time>2022-07-09T07:20:35.000Z</time>
      </trkpt>
      <trkpt lat="42.83924" lon="-0.16583">
        <ele>1633.4</ele>
        <time>2022-07-09T07:20:44.000Z</time>
      </trkpt>
      <trkpt lat="42.83931" lon="-0.16574">
        <ele>1634.5</ele>
        <time>2022-07-09T07:20:53.000Z</time>
      </trkpt>
      <trkpt lat="42.83936" lon="-0.16563">
        <ele>1636.6</ele>
        <time>2022-07-09T07:21:05.000Z</time>
      </trkpt>
      <trkpt lat="42.83927" lon="-0.16557">
        <ele>1638.1</ele>
        <time>2022-07-09T07:21:15.000Z</time>
      </trkpt>
      <trkpt lat="42.83918" lon="-0.16556">
        <ele>1639.1</ele>
        <time>2022-07-09T07:21:21.000Z</time>
      </trkpt>
      <trkpt lat="42.83909" lon="-0.16558">
        <ele>1640.7</ele>
        <time>2022-07-09T07:21:31.000Z</time>
      </trkpt>
      <trkpt lat="42.83899" lon="-0.1656">
        <ele>1641.3</ele>
        <time>2022-07-09T07:21:39.000Z</time>
      </trkpt>
      <trkpt lat="42.8389" lon="-0.16559">
        <ele>1641.9</ele>
        <time>2022-07-09T07:21:45.000Z</time>
      </trkpt>
      <trkpt lat="42.83881" lon="-0.16562">
        <ele>1642.3</ele>
        <time>2022-07-09T07:21:54.000Z</time>
      </trkpt>
      <trkpt lat="42.83872" lon="-0.16566">
        <ele>1643.1</ele>
        <time>2022-07-09T07:22:04.000Z</time>
      </trkpt>
      <trkpt lat="42.83863" lon="-0.16569">
        <ele>1643.8</ele>
        <time>2022-07-09T07:22:12.000Z</time>
      </trkpt>
      <trkpt lat="42.83853" lon="-0.16569">
        <ele>1644.9</ele>
        <time>2022-07-09T07:22:20.000Z</time>
      </trkpt>
      <trkpt lat="42.83844" lon="-0.16567">
        <ele>1646.7</ele>
        <time>2022-07-09T07:22:31.000Z</time>
      </trkpt>
      <trkpt lat="42.83836" lon="-0.16575">
        <ele>1647.9</ele>
        <time>2022-07-09T07:22:41.000Z</time>
      </trkpt>
      <trkpt lat="42.83827" lon="-0.16581">
        <ele>1648.7</ele>
        <time>2022-07-09T07:22:48.000Z</time>
      </trkpt>
      <trkpt lat="42.8382" lon="-0.1659">
        <ele>1649.7</ele>
        <time>2022-07-09T07:22:56.000Z</time>
      </trkpt>
      <trkpt lat="42.83814" lon="-0.16599">
        <ele>1651.2</ele>
        <time>2022-07-09T07:23:04.000Z</time>
      </trkpt>
      <trkpt lat="42.83806" lon="-0.16607">
        <ele>1652</ele>
        <time>2022-07-09T07:23:13.000Z</time>
      </trkpt>
      <trkpt lat="42.83801" lon="-0.16617">
        <ele>1652.4</ele>
        <time>2022-07-09T07:23:21.000Z</time>
      </trkpt>
      <trkpt lat="42.83798" lon="-0.16629">
        <ele>1654.4</ele>
        <time>2022-07-09T07:23:32.000Z</time>
      </trkpt>
      <trkpt lat="42.83795" lon="-0.16641">
        <ele>1655.4</ele>
        <time>2022-07-09T07:23:41.000Z</time>
      </trkpt>
      <trkpt lat="42.83794" lon="-0.16653">
        <ele>1656.9</ele>
        <time>2022-07-09T07:23:51.000Z</time>
      </trkpt>
      <trkpt lat="42.83792" lon="-0.16667">
        <ele>1657.2</ele>
        <time>2022-07-09T07:24:01.000Z</time>
      </trkpt>
      <trkpt lat="42.83787" lon="-0.16678">
        <ele>1657.7</ele>
        <time>2022-07-09T07:24:07.000Z</time>
      </trkpt>
      <trkpt lat="42.83779" lon="-0.16685">
        <ele>1658.6</ele>
        <time>2022-07-09T07:24:14.000Z</time>
      </trkpt>
      <trkpt lat="42.83772" lon="-0.16693">
        <ele>1659.9</ele>
        <time>2022-07-09T07:24:23.000Z</time>
      </trkpt>
      <trkpt lat="42.83763" lon="-0.16685">
        <ele>1661</ele>
        <time>2022-07-09T07:24:33.000Z</time>
      </trkpt>
      <trkpt lat="42.83755" lon="-0.16678">
        <ele>1661.4</ele>
        <time>2022-07-09T07:24:39.000Z</time>
      </trkpt>
      <trkpt lat="42.83748" lon="-0.16669">
        <ele>1662.1</ele>
        <time>2022-07-09T07:24:47.000Z</time>
      </trkpt>
      <trkpt lat="42.8374" lon="-0.16663">
        <ele>1662.6</ele>
        <time>2022-07-09T07:24:55.000Z</time>
      </trkpt>
      <trkpt lat="42.83731" lon="-0.16658">
        <ele>1664.5</ele>
        <time>2022-07-09T07:25:06.000Z</time>
      </trkpt>
      <trkpt lat="42.83724" lon="-0.16648">
        <ele>1666.1</ele>
        <time>2022-07-09T07:25:15.000Z</time>
      </trkpt>
      <trkpt lat="42.83716" lon="-0.16655">
        <ele>1667.1</ele>
        <time>2022-07-09T07:25:23.000Z</time>
      </trkpt>
      <trkpt lat="42.83717" lon="-0.16669">
        <ele>1667.3</ele>
        <time>2022-07-09T07:25:32.000Z</time>
      </trkpt>
      <trkpt lat="42.8372" lon="-0.16682">
        <ele>1667.6</ele>
        <time>2022-07-09T07:25:38.000Z</time>
      </trkpt>
      <trkpt lat="42.83723" lon="-0.16694">
        <ele>1668.5</ele>
        <time>2022-07-09T07:25:46.000Z</time>
      </trkpt>
      <trkpt lat="42.83723" lon="-0.16707">
        <ele>1670</ele>
        <time>2022-07-09T07:25:56.000Z</time>
      </trkpt>
      <trkpt lat="42.83723" lon="-0.16707">
        <ele>1670</ele>
        <time>2022-07-09T07:25:57.000Z</time>
      </trkpt>
      <trkpt lat="42.83723" lon="-0.1671">
        <ele>1670.2</ele>
        <time>2022-07-09T07:25:58.000Z</time>
      </trkpt>
      <trkpt lat="42.83729" lon="-0.16721">
        <ele>1671.7</ele>
        <time>2022-07-09T07:26:08.000Z</time>
      </trkpt>
      <trkpt lat="42.83724" lon="-0.16732">
        <ele>1672.4</ele>
        <time>2022-07-09T07:26:15.000Z</time>
      </trkpt>
      <trkpt lat="42.83716" lon="-0.16737">
        <ele>1672.8</ele>
        <time>2022-07-09T07:26:23.000Z</time>
      </trkpt>
      <trkpt lat="42.83707" lon="-0.16739">
        <ele>1672.7</ele>
        <time>2022-07-09T07:26:30.000Z</time>
      </trkpt>
      <trkpt lat="42.83702" lon="-0.1675">
        <ele>1674.2</ele>
        <time>2022-07-09T07:26:40.000Z</time>
      </trkpt>
      <trkpt lat="42.83699" lon="-0.16763">
        <ele>1675.1</ele>
        <time>2022-07-09T07:26:47.000Z</time>
      </trkpt>
      <trkpt lat="42.83698" lon="-0.16776">
        <ele>1676</ele>
        <time>2022-07-09T07:26:56.000Z</time>
      </trkpt>
      <trkpt lat="42.837" lon="-0.16788">
        <ele>1677</ele>
        <time>2022-07-09T07:27:02.000Z</time>
      </trkpt>
      <trkpt lat="42.83702" lon="-0.16801">
        <ele>1678</ele>
        <time>2022-07-09T07:27:09.000Z</time>
      </trkpt>
      <trkpt lat="42.83705" lon="-0.16813">
        <ele>1679.5</ele>
        <time>2022-07-09T07:27:20.000Z</time>
      </trkpt>
      <trkpt lat="42.8371" lon="-0.16823">
        <ele>1680.9</ele>
        <time>2022-07-09T07:27:30.000Z</time>
      </trkpt>
      <trkpt lat="42.83706" lon="-0.16835">
        <ele>1681.9</ele>
        <time>2022-07-09T07:27:39.000Z</time>
      </trkpt>
      <trkpt lat="42.83699" lon="-0.16843">
        <ele>1683</ele>
        <time>2022-07-09T07:27:50.000Z</time>
      </trkpt>
      <trkpt lat="42.83693" lon="-0.16854">
        <ele>1683</ele>
        <time>2022-07-09T07:28:01.000Z</time>
      </trkpt>
      <trkpt lat="42.83687" lon="-0.16864">
        <ele>1682.6</ele>
        <time>2022-07-09T07:28:10.000Z</time>
      </trkpt>
      <trkpt lat="42.8368" lon="-0.16872">
        <ele>1681.9</ele>
        <time>2022-07-09T07:28:18.000Z</time>
      </trkpt>
      <trkpt lat="42.83674" lon="-0.16882">
        <ele>1681.2</ele>
        <time>2022-07-09T07:28:27.000Z</time>
      </trkpt>
      <trkpt lat="42.8367" lon="-0.16895">
        <ele>1680.1</ele>
        <time>2022-07-09T07:28:36.000Z</time>
      </trkpt>
      <trkpt lat="42.83666" lon="-0.16906">
        <ele>1679.3</ele>
        <time>2022-07-09T07:28:45.000Z</time>
      </trkpt>
      <trkpt lat="42.83659" lon="-0.16914">
        <ele>1679</ele>
        <time>2022-07-09T07:28:52.000Z</time>
      </trkpt>
      <trkpt lat="42.83655" lon="-0.16927">
        <ele>1679</ele>
        <time>2022-07-09T07:29:00.000Z</time>
      </trkpt>
      <trkpt lat="42.83653" lon="-0.16941">
        <ele>1679.3</ele>
        <time>2022-07-09T07:29:10.000Z</time>
      </trkpt>
      <trkpt lat="42.83652" lon="-0.16954">
        <ele>1680.2</ele>
        <time>2022-07-09T07:29:18.000Z</time>
      </trkpt>
      <trkpt lat="42.83647" lon="-0.16966">
        <ele>1682</ele>
        <time>2022-07-09T07:29:26.000Z</time>
      </trkpt>
      <trkpt lat="42.83645" lon="-0.16979">
        <ele>1683.2</ele>
        <time>2022-07-09T07:29:33.000Z</time>
      </trkpt>
      <trkpt lat="42.83644" lon="-0.16991">
        <ele>1684.2</ele>
        <time>2022-07-09T07:29:44.000Z</time>
      </trkpt>
      <trkpt lat="42.83638" lon="-0.17002">
        <ele>1685.7</ele>
        <time>2022-07-09T07:29:56.000Z</time>
      </trkpt>
      <trkpt lat="42.83629" lon="-0.17007">
        <ele>1687.1</ele>
        <time>2022-07-09T07:30:06.000Z</time>
      </trkpt>
      <trkpt lat="42.83622" lon="-0.17016">
        <ele>1687.4</ele>
        <time>2022-07-09T07:30:15.000Z</time>
      </trkpt>
      <trkpt lat="42.83613" lon="-0.17021">
        <ele>1687.3</ele>
        <time>2022-07-09T07:30:28.000Z</time>
      </trkpt>
      <trkpt lat="42.83604" lon="-0.17023">
        <ele>1686.4</ele>
        <time>2022-07-09T07:30:37.000Z</time>
      </trkpt>
      <trkpt lat="42.83598" lon="-0.17033">
        <ele>1686</ele>
        <time>2022-07-09T07:30:49.000Z</time>
      </trkpt>
      <trkpt lat="42.83592" lon="-0.17044">
        <ele>1685.4</ele>
        <time>2022-07-09T07:30:57.000Z</time>
      </trkpt>
      <trkpt lat="42.83585" lon="-0.17054">
        <ele>1684.3</ele>
        <time>2022-07-09T07:31:06.000Z</time>
      </trkpt>
      <trkpt lat="42.83579" lon="-0.17064">
        <ele>1682.9</ele>
        <time>2022-07-09T07:31:18.000Z</time>
      </trkpt>
      <trkpt lat="42.83578" lon="-0.17077">
        <ele>1683</ele>
        <time>2022-07-09T07:31:26.000Z</time>
      </trkpt>
      <trkpt lat="42.83579" lon="-0.1709">
        <ele>1682.4</ele>
        <time>2022-07-09T07:31:32.000Z</time>
      </trkpt>
      <trkpt lat="42.83579" lon="-0.17103">
        <ele>1681.9</ele>
        <time>2022-07-09T07:31:40.000Z</time>
      </trkpt>
      <trkpt lat="42.8358" lon="-0.17115">
        <ele>1681.9</ele>
        <time>2022-07-09T07:31:48.000Z</time>
      </trkpt>
      <trkpt lat="42.83582" lon="-0.17128">
        <ele>1682.1</ele>
        <time>2022-07-09T07:31:57.000Z</time>
      </trkpt>
      <trkpt lat="42.83581" lon="-0.17141">
        <ele>1682</ele>
        <time>2022-07-09T07:32:04.000Z</time>
      </trkpt>
      <trkpt lat="42.83581" lon="-0.17154">
        <ele>1682.1</ele>
        <time>2022-07-09T07:32:12.000Z</time>
      </trkpt>
      <trkpt lat="42.8358" lon="-0.17167">
        <ele>1682.3</ele>
        <time>2022-07-09T07:32:19.000Z</time>
      </trkpt>
      <trkpt lat="42.83577" lon="-0.1718">
        <ele>1682.9</ele>
        <time>2022-07-09T07:32:26.000Z</time>
      </trkpt>
      <trkpt lat="42.83569" lon="-0.17189">
        <ele>1684.5</ele>
        <time>2022-07-09T07:32:40.000Z</time>
      </trkpt>
      <trkpt lat="42.83562" lon="-0.17197">
        <ele>1685.2</ele>
        <time>2022-07-09T07:32:48.000Z</time>
      </trkpt>
      <trkpt lat="42.83557" lon="-0.17198">
        <ele>1686</ele>
        <time>2022-07-09T07:32:55.000Z</time>
      </trkpt>
      <trkpt lat="42.83557" lon="-0.17198">
        <ele>1686</ele>
        <time>2022-07-09T07:32:56.000Z</time>
      </trkpt>
      <trkpt lat="42.83547" lon="-0.17201">
        <ele>1687.4</ele>
        <time>2022-07-09T07:33:09.000Z</time>
      </trkpt>
      <trkpt lat="42.83538" lon="-0.17203">
        <ele>1687.4</ele>
        <time>2022-07-09T07:33:15.000Z</time>
      </trkpt>
      <trkpt lat="42.83529" lon="-0.17206">
        <ele>1687.8</ele>
        <time>2022-07-09T07:33:21.000Z</time>
      </trkpt>
      <trkpt lat="42.8352" lon="-0.1721">
        <ele>1689.1</ele>
        <time>2022-07-09T07:33:32.000Z</time>
      </trkpt>
      <trkpt lat="42.83511" lon="-0.17211">
        <ele>1689.6</ele>
        <time>2022-07-09T07:33:40.000Z</time>
      </trkpt>
      <trkpt lat="42.83501" lon="-0.17214">
        <ele>1690.6</ele>
        <time>2022-07-09T07:33:50.000Z</time>
      </trkpt>
      <trkpt lat="42.83492" lon="-0.17216">
        <ele>1690.7</ele>
        <time>2022-07-09T07:33:57.000Z</time>
      </trkpt>
      <trkpt lat="42.83483" lon="-0.1722">
        <ele>1690.7</ele>
        <time>2022-07-09T07:34:05.000Z</time>
      </trkpt>
      <trkpt lat="42.83474" lon="-0.17225">
        <ele>1690.8</ele>
        <time>2022-07-09T07:34:15.000Z</time>
      </trkpt>
      <trkpt lat="42.83466" lon="-0.1723">
        <ele>1691.1</ele>
        <time>2022-07-09T07:34:21.000Z</time>
      </trkpt>
      <trkpt lat="42.83456" lon="-0.17232">
        <ele>1691.4</ele>
        <time>2022-07-09T07:34:32.000Z</time>
      </trkpt>
      <trkpt lat="42.83447" lon="-0.17234">
        <ele>1691</ele>
        <time>2022-07-09T07:34:40.000Z</time>
      </trkpt>
      <trkpt lat="42.83437" lon="-0.17238">
        <ele>1690.4</ele>
        <time>2022-07-09T07:34:50.000Z</time>
      </trkpt>
      <trkpt lat="42.83428" lon="-0.1724">
        <ele>1690.5</ele>
        <time>2022-07-09T07:35:00.000Z</time>
      </trkpt>
      <trkpt lat="42.83419" lon="-0.17244">
        <ele>1690.7</ele>
        <time>2022-07-09T07:35:08.000Z</time>
      </trkpt>
      <trkpt lat="42.83409" lon="-0.17249">
        <ele>1691.1</ele>
        <time>2022-07-09T07:35:17.000Z</time>
      </trkpt>
      <trkpt lat="42.834" lon="-0.17256">
        <ele>1691.1</ele>
        <time>2022-07-09T07:35:28.000Z</time>
      </trkpt>
      <trkpt lat="42.83393" lon="-0.17263">
        <ele>1690.8</ele>
        <time>2022-07-09T07:35:34.000Z</time>
      </trkpt>
      <trkpt lat="42.83385" lon="-0.17269">
        <ele>1690.6</ele>
        <time>2022-07-09T07:35:41.000Z</time>
      </trkpt>
      <trkpt lat="42.83376" lon="-0.17276">
        <ele>1691.6</ele>
        <time>2022-07-09T07:35:52.000Z</time>
      </trkpt>
      <trkpt lat="42.83371" lon="-0.17286">
        <ele>1691.7</ele>
        <time>2022-07-09T07:35:59.000Z</time>
      </trkpt>
      <trkpt lat="42.83362" lon="-0.17286">
        <ele>1691.9</ele>
        <time>2022-07-09T07:36:10.000Z</time>
      </trkpt>
      <trkpt lat="42.83353" lon="-0.17286">
        <ele>1692.4</ele>
        <time>2022-07-09T07:36:18.000Z</time>
      </trkpt>
      <trkpt lat="42.83344" lon="-0.17286">
        <ele>1693.3</ele>
        <time>2022-07-09T07:36:27.000Z</time>
      </trkpt>
      <trkpt lat="42.83334" lon="-0.17287">
        <ele>1693.7</ele>
        <time>2022-07-09T07:36:34.000Z</time>
      </trkpt>
      <trkpt lat="42.83324" lon="-0.17284">
        <ele>1692</ele>
        <time>2022-07-09T07:36:48.000Z</time>
      </trkpt>
      <trkpt lat="42.83315" lon="-0.17286">
        <ele>1690.9</ele>
        <time>2022-07-09T07:36:53.000Z</time>
      </trkpt>
      <trkpt lat="42.83305" lon="-0.17288">
        <ele>1689.2</ele>
        <time>2022-07-09T07:37:01.000Z</time>
      </trkpt>
      <trkpt lat="42.83297" lon="-0.17292">
        <ele>1687.4</ele>
        <time>2022-07-09T07:37:12.000Z</time>
      </trkpt>
      <trkpt lat="42.83287" lon="-0.17294">
        <ele>1685.3</ele>
        <time>2022-07-09T07:37:27.000Z</time>
      </trkpt>
      <trkpt lat="42.83278" lon="-0.17298">
        <ele>1683.8</ele>
        <time>2022-07-09T07:37:37.000Z</time>
      </trkpt>
      <trkpt lat="42.83269" lon="-0.173">
        <ele>1683</ele>
        <time>2022-07-09T07:37:45.000Z</time>
      </trkpt>
      <trkpt lat="42.83259" lon="-0.17302">
        <ele>1682.2</ele>
        <time>2022-07-09T07:37:53.000Z</time>
      </trkpt>
      <trkpt lat="42.83249" lon="-0.17304">
        <ele>1681.5</ele>
        <time>2022-07-09T07:38:02.000Z</time>
      </trkpt>
      <trkpt lat="42.83241" lon="-0.1731">
        <ele>1681.5</ele>
        <time>2022-07-09T07:38:10.000Z</time>
      </trkpt>
      <trkpt lat="42.83231" lon="-0.17312">
        <ele>1681.6</ele>
        <time>2022-07-09T07:38:18.000Z</time>
      </trkpt>
      <trkpt lat="42.83222" lon="-0.17311">
        <ele>1681.3</ele>
        <time>2022-07-09T07:38:26.000Z</time>
      </trkpt>
      <trkpt lat="42.83214" lon="-0.17318">
        <ele>1681.6</ele>
        <time>2022-07-09T07:38:35.000Z</time>
      </trkpt>
      <trkpt lat="42.83206" lon="-0.17325">
        <ele>1682</ele>
        <time>2022-07-09T07:38:44.000Z</time>
      </trkpt>
      <trkpt lat="42.83198" lon="-0.17331">
        <ele>1682</ele>
        <time>2022-07-09T07:38:53.000Z</time>
      </trkpt>
      <trkpt lat="42.83189" lon="-0.17333">
        <ele>1682.6</ele>
        <time>2022-07-09T07:39:01.000Z</time>
      </trkpt>
      <trkpt lat="42.83179" lon="-0.17335">
        <ele>1683.3</ele>
        <time>2022-07-09T07:39:11.000Z</time>
      </trkpt>
      <trkpt lat="42.8317" lon="-0.17339">
        <ele>1683.9</ele>
        <time>2022-07-09T07:39:21.000Z</time>
      </trkpt>
      <trkpt lat="42.83162" lon="-0.17345">
        <ele>1684.1</ele>
        <time>2022-07-09T07:39:30.000Z</time>
      </trkpt>
      <trkpt lat="42.83152" lon="-0.17348">
        <ele>1683.6</ele>
        <time>2022-07-09T07:39:41.000Z</time>
      </trkpt>
      <trkpt lat="42.83145" lon="-0.17357">
        <ele>1683.8</ele>
        <time>2022-07-09T07:39:49.000Z</time>
      </trkpt>
      <trkpt lat="42.83141" lon="-0.17364">
        <ele>1683.8</ele>
        <time>2022-07-09T07:40:01.000Z</time>
      </trkpt>
      <trkpt lat="42.83141" lon="-0.17365">
        <ele>1683.9</ele>
        <time>2022-07-09T07:40:02.000Z</time>
      </trkpt>
      <trkpt lat="42.83137" lon="-0.17372">
        <ele>1683.8</ele>
        <time>2022-07-09T07:40:11.000Z</time>
      </trkpt>
      <trkpt lat="42.83137" lon="-0.17373">
        <ele>1684.3</ele>
        <time>2022-07-09T07:40:14.000Z</time>
      </trkpt>
      <trkpt lat="42.83135" lon="-0.17376">
        <ele>1684.1</ele>
        <time>2022-07-09T07:40:20.000Z</time>
      </trkpt>
      <trkpt lat="42.83135" lon="-0.17377">
        <ele>1684.1</ele>
        <time>2022-07-09T07:40:21.000Z</time>
      </trkpt>
      <trkpt lat="42.83134" lon="-0.17378">
        <ele>1684.1</ele>
        <time>2022-07-09T07:40:23.000Z</time>
      </trkpt>
      <trkpt lat="42.83134" lon="-0.17379">
        <ele>1684.5</ele>
        <time>2022-07-09T07:40:25.000Z</time>
      </trkpt>
      <trkpt lat="42.83136" lon="-0.17383">
        <ele>1683.8</ele>
        <time>2022-07-09T07:40:31.000Z</time>
      </trkpt>
      <trkpt lat="42.83135" lon="-0.17383">
        <ele>1683.8</ele>
        <time>2022-07-09T07:40:33.000Z</time>
      </trkpt>
      <trkpt lat="42.83126" lon="-0.17387">
        <ele>1683.7</ele>
        <time>2022-07-09T07:40:40.000Z</time>
      </trkpt>
      <trkpt lat="42.83118" lon="-0.17394">
        <ele>1684.5</ele>
        <time>2022-07-09T07:40:47.000Z</time>
      </trkpt>
      <trkpt lat="42.83112" lon="-0.17406">
        <ele>1684.7</ele>
        <time>2022-07-09T07:40:55.000Z</time>
      </trkpt>
      <trkpt lat="42.83105" lon="-0.17414">
        <ele>1685.3</ele>
        <time>2022-07-09T07:41:04.000Z</time>
      </trkpt>
      <trkpt lat="42.83097" lon="-0.17423">
        <ele>1685.2</ele>
        <time>2022-07-09T07:41:13.000Z</time>
      </trkpt>
      <trkpt lat="42.83088" lon="-0.17432">
        <ele>1685.5</ele>
        <time>2022-07-09T07:41:18.000Z</time>
      </trkpt>
      <trkpt lat="42.83083" lon="-0.17443">
        <ele>1685.8</ele>
        <time>2022-07-09T07:41:24.000Z</time>
      </trkpt>
      <trkpt lat="42.83081" lon="-0.17457">
        <ele>1686</ele>
        <time>2022-07-09T07:41:30.000Z</time>
      </trkpt>
      <trkpt lat="42.83078" lon="-0.1747">
        <ele>1686.2</ele>
        <time>2022-07-09T07:41:37.000Z</time>
      </trkpt>
      <trkpt lat="42.83072" lon="-0.1748">
        <ele>1686.3</ele>
        <time>2022-07-09T07:41:44.000Z</time>
      </trkpt>
      <trkpt lat="42.83067" lon="-0.17491">
        <ele>1686.5</ele>
        <time>2022-07-09T07:41:52.000Z</time>
      </trkpt>
      <trkpt lat="42.83059" lon="-0.17496">
        <ele>1685.9</ele>
        <time>2022-07-09T07:41:59.000Z</time>
      </trkpt>
      <trkpt lat="42.83052" lon="-0.17507">
        <ele>1685.7</ele>
        <time>2022-07-09T07:42:05.000Z</time>
      </trkpt>
      <trkpt lat="42.83046" lon="-0.17516">
        <ele>1685.8</ele>
        <time>2022-07-09T07:42:10.000Z</time>
      </trkpt>
      <trkpt lat="42.83042" lon="-0.17528">
        <ele>1686.1</ele>
        <time>2022-07-09T07:42:16.000Z</time>
      </trkpt>
      <trkpt lat="42.83034" lon="-0.17536">
        <ele>1686</ele>
        <time>2022-07-09T07:42:23.000Z</time>
      </trkpt>
      <trkpt lat="42.83028" lon="-0.17546">
        <ele>1685.5</ele>
        <time>2022-07-09T07:42:32.000Z</time>
      </trkpt>
      <trkpt lat="42.83022" lon="-0.17556">
        <ele>1686.4</ele>
        <time>2022-07-09T07:42:41.000Z</time>
      </trkpt>
      <trkpt lat="42.83016" lon="-0.17566">
        <ele>1686.5</ele>
        <time>2022-07-09T07:42:49.000Z</time>
      </trkpt>
      <trkpt lat="42.83008" lon="-0.17571">
        <ele>1686.9</ele>
        <time>2022-07-09T07:42:58.000Z</time>
      </trkpt>
      <trkpt lat="42.82999" lon="-0.17576">
        <ele>1687</ele>
        <time>2022-07-09T07:43:05.000Z</time>
      </trkpt>
      <trkpt lat="42.8299" lon="-0.17584">
        <ele>1687.1</ele>
        <time>2022-07-09T07:43:13.000Z</time>
      </trkpt>
      <trkpt lat="42.82983" lon="-0.17592">
        <ele>1687.2</ele>
        <time>2022-07-09T07:43:20.000Z</time>
      </trkpt>
      <trkpt lat="42.82974" lon="-0.17599">
        <ele>1687.3</ele>
        <time>2022-07-09T07:43:28.000Z</time>
      </trkpt>
      <trkpt lat="42.82967" lon="-0.17607">
        <ele>1687.2</ele>
        <time>2022-07-09T07:43:36.000Z</time>
      </trkpt>
      <trkpt lat="42.82963" lon="-0.17618">
        <ele>1687</ele>
        <time>2022-07-09T07:43:43.000Z</time>
      </trkpt>
      <trkpt lat="42.82956" lon="-0.17628">
        <ele>1687.5</ele>
        <time>2022-07-09T07:43:51.000Z</time>
      </trkpt>
      <trkpt lat="42.82949" lon="-0.17636">
        <ele>1687.9</ele>
        <time>2022-07-09T07:43:59.000Z</time>
      </trkpt>
      <trkpt lat="42.82943" lon="-0.17646">
        <ele>1688</ele>
        <time>2022-07-09T07:44:07.000Z</time>
      </trkpt>
      <trkpt lat="42.82936" lon="-0.17655">
        <ele>1688.5</ele>
        <time>2022-07-09T07:44:15.000Z</time>
      </trkpt>
      <trkpt lat="42.82931" lon="-0.17666">
        <ele>1688.7</ele>
        <time>2022-07-09T07:44:22.000Z</time>
      </trkpt>
      <trkpt lat="42.82925" lon="-0.17675">
        <ele>1689.1</ele>
        <time>2022-07-09T07:44:31.000Z</time>
      </trkpt>
      <trkpt lat="42.82919" lon="-0.17685">
        <ele>1689.5</ele>
        <time>2022-07-09T07:44:41.000Z</time>
      </trkpt>
      <trkpt lat="42.82912" lon="-0.17694">
        <ele>1689.4</ele>
        <time>2022-07-09T07:44:50.000Z</time>
      </trkpt>
      <trkpt lat="42.82906" lon="-0.17702">
        <ele>1689.4</ele>
        <time>2022-07-09T07:44:58.000Z</time>
      </trkpt>
      <trkpt lat="42.82899" lon="-0.17711">
        <ele>1689.3</ele>
        <time>2022-07-09T07:45:06.000Z</time>
      </trkpt>
      <trkpt lat="42.82892" lon="-0.1772">
        <ele>1689.2</ele>
        <time>2022-07-09T07:45:15.000Z</time>
      </trkpt>
      <trkpt lat="42.82887" lon="-0.1773">
        <ele>1689.6</ele>
        <time>2022-07-09T07:45:24.000Z</time>
      </trkpt>
      <trkpt lat="42.82879" lon="-0.17736">
        <ele>1689.7</ele>
        <time>2022-07-09T07:45:32.000Z</time>
      </trkpt>
      <trkpt lat="42.82875" lon="-0.17748">
        <ele>1690</ele>
        <time>2022-07-09T07:45:41.000Z</time>
      </trkpt>
      <trkpt lat="42.82868" lon="-0.17757">
        <ele>1690.7</ele>
        <time>2022-07-09T07:45:51.000Z</time>
      </trkpt>
      <trkpt lat="42.82861" lon="-0.17766">
        <ele>1690.8</ele>
        <time>2022-07-09T07:46:01.000Z</time>
      </trkpt>
      <trkpt lat="42.82853" lon="-0.17774">
        <ele>1690.9</ele>
        <time>2022-07-09T07:46:10.000Z</time>
      </trkpt>
      <trkpt lat="42.82845" lon="-0.17781">
        <ele>1691.2</ele>
        <time>2022-07-09T07:46:20.000Z</time>
      </trkpt>
      <trkpt lat="42.8284" lon="-0.17792">
        <ele>1691.2</ele>
        <time>2022-07-09T07:46:27.000Z</time>
      </trkpt>
      <trkpt lat="42.82833" lon="-0.17801">
        <ele>1692</ele>
        <time>2022-07-09T07:46:35.000Z</time>
      </trkpt>
      <trkpt lat="42.82827" lon="-0.17813">
        <ele>1693.5</ele>
        <time>2022-07-09T07:46:45.000Z</time>
      </trkpt>
      <trkpt lat="42.82822" lon="-0.17823">
        <ele>1694.9</ele>
        <time>2022-07-09T07:46:56.000Z</time>
      </trkpt>
      <trkpt lat="42.82814" lon="-0.17832">
        <ele>1696.5</ele>
        <time>2022-07-09T07:47:08.000Z</time>
      </trkpt>
      <trkpt lat="42.82808" lon="-0.17842">
        <ele>1698.3</ele>
        <time>2022-07-09T07:47:19.000Z</time>
      </trkpt>
      <trkpt lat="42.82815" lon="-0.17853">
        <ele>1699.8</ele>
        <time>2022-07-09T07:47:31.000Z</time>
      </trkpt>
      <trkpt lat="42.82824" lon="-0.17853">
        <ele>1700.6</ele>
        <time>2022-07-09T07:47:41.000Z</time>
      </trkpt>
      <trkpt lat="42.82833" lon="-0.17858">
        <ele>1701</ele>
        <time>2022-07-09T07:47:49.000Z</time>
      </trkpt>
      <trkpt lat="42.82841" lon="-0.17865">
        <ele>1702.4</ele>
        <time>2022-07-09T07:47:58.000Z</time>
      </trkpt>
      <trkpt lat="42.82844" lon="-0.17868">
        <ele>1703.4</ele>
        <time>2022-07-09T07:48:04.000Z</time>
      </trkpt>
      <trkpt lat="42.82844" lon="-0.17867">
        <ele>1703.6</ele>
        <time>2022-07-09T07:48:05.000Z</time>
      </trkpt>
      <trkpt lat="42.82846" lon="-0.17867">
        <ele>1704.6</ele>
        <time>2022-07-09T07:48:11.000Z</time>
      </trkpt>
      <trkpt lat="42.82846" lon="-0.17867">
        <ele>1704.8</ele>
        <time>2022-07-09T07:48:12.000Z</time>
      </trkpt>
      <trkpt lat="42.82855" lon="-0.17863">
        <ele>1707</ele>
        <time>2022-07-09T07:48:26.000Z</time>
      </trkpt>
      <trkpt lat="42.82854" lon="-0.17864">
        <ele>1707.5</ele>
        <time>2022-07-09T07:48:28.000Z</time>
      </trkpt>
      <trkpt lat="42.82847" lon="-0.17872">
        <ele>1709.6</ele>
        <time>2022-07-09T07:48:42.000Z</time>
      </trkpt>
      <trkpt lat="42.82841" lon="-0.17881">
        <ele>1710.6</ele>
        <time>2022-07-09T07:48:53.000Z</time>
      </trkpt>
      <trkpt lat="42.82833" lon="-0.17889">
        <ele>1711.6</ele>
        <time>2022-07-09T07:49:03.000Z</time>
      </trkpt>
      <trkpt lat="42.82828" lon="-0.179">
        <ele>1710.2</ele>
        <time>2022-07-09T07:49:10.000Z</time>
      </trkpt>
      <trkpt lat="42.82822" lon="-0.1791">
        <ele>1712.2</ele>
        <time>2022-07-09T07:49:15.000Z</time>
      </trkpt>
      <trkpt lat="42.82813" lon="-0.17915">
        <ele>1715.1</ele>
        <time>2022-07-09T07:49:30.000Z</time>
      </trkpt>
      <trkpt lat="42.82805" lon="-0.17921">
        <ele>1716.6</ele>
        <time>2022-07-09T07:49:39.000Z</time>
      </trkpt>
      <trkpt lat="42.82796" lon="-0.17926">
        <ele>1718.6</ele>
        <time>2022-07-09T07:49:52.000Z</time>
      </trkpt>
      <trkpt lat="42.82788" lon="-0.17932">
        <ele>1720.3</ele>
        <time>2022-07-09T07:50:01.000Z</time>
      </trkpt>
      <trkpt lat="42.82779" lon="-0.17934">
        <ele>1723.4</ele>
        <time>2022-07-09T07:50:17.000Z</time>
      </trkpt>
      <trkpt lat="42.8277" lon="-0.17937">
        <ele>1725.8</ele>
        <time>2022-07-09T07:50:30.000Z</time>
      </trkpt>
      <trkpt lat="42.82763" lon="-0.17945">
        <ele>1726.9</ele>
        <time>2022-07-09T07:50:39.000Z</time>
      </trkpt>
      <trkpt lat="42.82755" lon="-0.17951">
        <ele>1728.4</ele>
        <time>2022-07-09T07:50:48.000Z</time>
      </trkpt>
      <trkpt lat="42.82752" lon="-0.17963">
        <ele>1730.6</ele>
        <time>2022-07-09T07:51:02.000Z</time>
      </trkpt>
      <trkpt lat="42.82758" lon="-0.17972">
        <ele>1732.8</ele>
        <time>2022-07-09T07:51:14.000Z</time>
      </trkpt>
      <trkpt lat="42.82754" lon="-0.17983">
        <ele>1734.7</ele>
        <time>2022-07-09T07:51:25.000Z</time>
      </trkpt>
      <trkpt lat="42.82746" lon="-0.17989">
        <ele>1735.9</ele>
        <time>2022-07-09T07:51:35.000Z</time>
      </trkpt>
      <trkpt lat="42.82737" lon="-0.17992">
        <ele>1736.9</ele>
        <time>2022-07-09T07:51:45.000Z</time>
      </trkpt>
      <trkpt lat="42.8273" lon="-0.18">
        <ele>1736.8</ele>
        <time>2022-07-09T07:51:58.000Z</time>
      </trkpt>
      <trkpt lat="42.82726" lon="-0.18007">
        <ele>1736.9</ele>
        <time>2022-07-09T07:52:31.000Z</time>
      </trkpt>
      <trkpt lat="42.82725" lon="-0.18007">
        <ele>1736.9</ele>
        <time>2022-07-09T07:52:32.000Z</time>
      </trkpt>
      <trkpt lat="42.82721" lon="-0.18011">
        <ele>1737.3</ele>
        <time>2022-07-09T07:52:41.000Z</time>
      </trkpt>
      <trkpt lat="42.8272" lon="-0.18006">
        <ele>1737.4</ele>
        <time>2022-07-09T07:52:42.000Z</time>
      </trkpt>
      <trkpt lat="42.82721" lon="-0.18009">
        <ele>1737.2</ele>
        <time>2022-07-09T07:52:52.000Z</time>
      </trkpt>
      <trkpt lat="42.82721" lon="-0.18009">
        <ele>1737.2</ele>
        <time>2022-07-09T07:52:54.000Z</time>
      </trkpt>
      <trkpt lat="42.82721" lon="-0.18011">
        <ele>1737.2</ele>
        <time>2022-07-09T07:53:01.000Z</time>
      </trkpt>
      <trkpt lat="42.82721" lon="-0.18011">
        <ele>1737.2</ele>
        <time>2022-07-09T07:53:08.000Z</time>
      </trkpt>
      <trkpt lat="42.82721" lon="-0.18011">
        <ele>1737.3</ele>
        <time>2022-07-09T07:53:09.000Z</time>
      </trkpt>
      <trkpt lat="42.82721" lon="-0.18012">
        <ele>1737.6</ele>
        <time>2022-07-09T07:53:13.000Z</time>
      </trkpt>
      <trkpt lat="42.82722" lon="-0.18015">
        <ele>1737.5</ele>
        <time>2022-07-09T07:53:20.000Z</time>
      </trkpt>
      <trkpt lat="42.82722" lon="-0.18016">
        <ele>1737.6</ele>
        <time>2022-07-09T07:53:22.000Z</time>
      </trkpt>
      <trkpt lat="42.82722" lon="-0.18016">
        <ele>1737.6</ele>
        <time>2022-07-09T07:53:23.000Z</time>
      </trkpt>
      <trkpt lat="42.82722" lon="-0.18016">
        <ele>1737.6</ele>
        <time>2022-07-09T07:53:25.000Z</time>
      </trkpt>
      <trkpt lat="42.82722" lon="-0.18016">
        <ele>1737.5</ele>
        <time>2022-07-09T07:53:26.000Z</time>
      </trkpt>
      <trkpt lat="42.82722" lon="-0.18016">
        <ele>1737.4</ele>
        <time>2022-07-09T07:53:27.000Z</time>
      </trkpt>
      <trkpt lat="42.82722" lon="-0.18016">
        <ele>1737.5</ele>
        <time>2022-07-09T07:53:28.000Z</time>
      </trkpt>
      <trkpt lat="42.82722" lon="-0.18017">
        <ele>1737.6</ele>
        <time>2022-07-09T07:53:29.000Z</time>
      </trkpt>
      <trkpt lat="42.82722" lon="-0.18017">
        <ele>1737.7</ele>
        <time>2022-07-09T07:53:30.000Z</time>
      </trkpt>
      <trkpt lat="42.82722" lon="-0.18017">
        <ele>1737.4</ele>
        <time>2022-07-09T07:53:42.000Z</time>
      </trkpt>
      <trkpt lat="42.82722" lon="-0.18018">
        <ele>1737.5</ele>
        <time>2022-07-09T07:53:46.000Z</time>
      </trkpt>
      <trkpt lat="42.82723" lon="-0.18019">
        <ele>1737.5</ele>
        <time>2022-07-09T07:53:51.000Z</time>
      </trkpt>
      <trkpt lat="42.82723" lon="-0.1802">
        <ele>1737.6</ele>
        <time>2022-07-09T07:53:53.000Z</time>
      </trkpt>
      <trkpt lat="42.82723" lon="-0.1802">
        <ele>1737.5</ele>
        <time>2022-07-09T07:54:05.000Z</time>
      </trkpt>
      <trkpt lat="42.82723" lon="-0.18021">
        <ele>1737.4</ele>
        <time>2022-07-09T07:54:07.000Z</time>
      </trkpt>
      <trkpt lat="42.82722" lon="-0.18021">
        <ele>1737.3</ele>
        <time>2022-07-09T07:54:13.000Z</time>
      </trkpt>
      <trkpt lat="42.82722" lon="-0.18021">
        <ele>1737.3</ele>
        <time>2022-07-09T07:54:14.000Z</time>
      </trkpt>
      <trkpt lat="42.82723" lon="-0.1802">
        <ele>1736.9</ele>
        <time>2022-07-09T07:54:22.000Z</time>
      </trkpt>
      <trkpt lat="42.82724" lon="-0.1802">
        <ele>1737</ele>
        <time>2022-07-09T07:54:25.000Z</time>
      </trkpt>
      <trkpt lat="42.82724" lon="-0.1802">
        <ele>1737.1</ele>
        <time>2022-07-09T07:54:37.000Z</time>
      </trkpt>
      <trkpt lat="42.82725" lon="-0.18018">
        <ele>1737.2</ele>
        <time>2022-07-09T07:54:44.000Z</time>
      </trkpt>
      <trkpt lat="42.82725" lon="-0.18018">
        <ele>1737.3</ele>
        <time>2022-07-09T07:54:45.000Z</time>
      </trkpt>
      <trkpt lat="42.82724" lon="-0.18019">
        <ele>1736.8</ele>
        <time>2022-07-09T07:54:51.000Z</time>
      </trkpt>
      <trkpt lat="42.82724" lon="-0.18019">
        <ele>1737.2</ele>
        <time>2022-07-09T07:54:57.000Z</time>
      </trkpt>
      <trkpt lat="42.82724" lon="-0.1802">
        <ele>1737</ele>
        <time>2022-07-09T07:54:59.000Z</time>
      </trkpt>
      <trkpt lat="42.82723" lon="-0.1802">
        <ele>1737.1</ele>
        <time>2022-07-09T07:55:03.000Z</time>
      </trkpt>
      <trkpt lat="42.82723" lon="-0.1802">
        <ele>1737.1</ele>
        <time>2022-07-09T07:55:04.000Z</time>
      </trkpt>
      <trkpt lat="42.82724" lon="-0.1802">
        <ele>1737.5</ele>
        <time>2022-07-09T07:55:18.000Z</time>
      </trkpt>
      <trkpt lat="42.82724" lon="-0.1802">
        <ele>1737.6</ele>
        <time>2022-07-09T07:55:19.000Z</time>
      </trkpt>
      <trkpt lat="42.82724" lon="-0.1802">
        <ele>1737.2</ele>
        <time>2022-07-09T07:55:23.000Z</time>
      </trkpt>
      <trkpt lat="42.82719" lon="-0.18031">
        <ele>1738</ele>
        <time>2022-07-09T07:55:31.000Z</time>
      </trkpt>
      <trkpt lat="42.82718" lon="-0.18043">
        <ele>1740.8</ele>
        <time>2022-07-09T07:55:45.000Z</time>
      </trkpt>
      <trkpt lat="42.82714" lon="-0.18054">
        <ele>1743.4</ele>
        <time>2022-07-09T07:56:00.000Z</time>
      </trkpt>
      <trkpt lat="42.82711" lon="-0.18067">
        <ele>1745.1</ele>
        <time>2022-07-09T07:56:13.000Z</time>
      </trkpt>
      <trkpt lat="42.82707" lon="-0.18079">
        <ele>1745.3</ele>
        <time>2022-07-09T07:56:21.000Z</time>
      </trkpt>
      <trkpt lat="42.82701" lon="-0.1809">
        <ele>1744.8</ele>
        <time>2022-07-09T07:56:28.000Z</time>
      </trkpt>
      <trkpt lat="42.82692" lon="-0.18096">
        <ele>1745.2</ele>
        <time>2022-07-09T07:56:36.000Z</time>
      </trkpt>
      <trkpt lat="42.82683" lon="-0.181">
        <ele>1745.8</ele>
        <time>2022-07-09T07:56:45.000Z</time>
      </trkpt>
      <trkpt lat="42.82674" lon="-0.18106">
        <ele>1745.8</ele>
        <time>2022-07-09T07:56:54.000Z</time>
      </trkpt>
      <trkpt lat="42.82668" lon="-0.18117">
        <ele>1746</ele>
        <time>2022-07-09T07:57:03.000Z</time>
      </trkpt>
      <trkpt lat="42.82662" lon="-0.18126">
        <ele>1746.4</ele>
        <time>2022-07-09T07:57:16.000Z</time>
      </trkpt>
      <trkpt lat="42.82654" lon="-0.18131">
        <ele>1747.1</ele>
        <time>2022-07-09T07:57:27.000Z</time>
      </trkpt>
      <trkpt lat="42.82646" lon="-0.1814">
        <ele>1748</ele>
        <time>2022-07-09T07:57:38.000Z</time>
      </trkpt>
      <trkpt lat="42.8264" lon="-0.18149">
        <ele>1749.1</ele>
        <time>2022-07-09T07:57:49.000Z</time>
      </trkpt>
      <trkpt lat="42.82635" lon="-0.1816">
        <ele>1750.3</ele>
        <time>2022-07-09T07:58:00.000Z</time>
      </trkpt>
      <trkpt lat="42.82628" lon="-0.18169">
        <ele>1751.2</ele>
        <time>2022-07-09T07:58:09.000Z</time>
      </trkpt>
      <trkpt lat="42.82621" lon="-0.18177">
        <ele>1752.9</ele>
        <time>2022-07-09T07:58:17.000Z</time>
      </trkpt>
      <trkpt lat="42.82611" lon="-0.1818">
        <ele>1754.1</ele>
        <time>2022-07-09T07:58:28.000Z</time>
      </trkpt>
      <trkpt lat="42.82603" lon="-0.18186">
        <ele>1755</ele>
        <time>2022-07-09T07:58:38.000Z</time>
      </trkpt>
      <trkpt lat="42.82597" lon="-0.18195">
        <ele>1757.4</ele>
        <time>2022-07-09T07:58:56.000Z</time>
      </trkpt>
      <trkpt lat="42.8259" lon="-0.18204">
        <ele>1758.7</ele>
        <time>2022-07-09T07:59:08.000Z</time>
      </trkpt>
      <trkpt lat="42.82582" lon="-0.18211">
        <ele>1759.2</ele>
        <time>2022-07-09T07:59:18.000Z</time>
      </trkpt>
      <trkpt lat="42.82574" lon="-0.18217">
        <ele>1757.8</ele>
        <time>2022-07-09T07:59:29.000Z</time>
      </trkpt>
      <trkpt lat="42.8257" lon="-0.18229">
        <ele>1756.6</ele>
        <time>2022-07-09T07:59:41.000Z</time>
      </trkpt>
      <trkpt lat="42.82564" lon="-0.18238">
        <ele>1755.7</ele>
        <time>2022-07-09T07:59:54.000Z</time>
      </trkpt>
      <trkpt lat="42.82557" lon="-0.18247">
        <ele>1755.6</ele>
        <time>2022-07-09T08:00:05.000Z</time>
      </trkpt>
      <trkpt lat="42.8255" lon="-0.18255">
        <ele>1756.6</ele>
        <time>2022-07-09T08:00:15.000Z</time>
      </trkpt>
      <trkpt lat="42.82541" lon="-0.18258">
        <ele>1757</ele>
        <time>2022-07-09T08:00:24.000Z</time>
      </trkpt>
      <trkpt lat="42.82537" lon="-0.1827">
        <ele>1756.9</ele>
        <time>2022-07-09T08:00:34.000Z</time>
      </trkpt>
      <trkpt lat="42.8254" lon="-0.18282">
        <ele>1756.7</ele>
        <time>2022-07-09T08:00:45.000Z</time>
      </trkpt>
      <trkpt lat="42.82539" lon="-0.18284">
        <ele>1756.4</ele>
        <time>2022-07-09T08:00:51.000Z</time>
      </trkpt>
      <trkpt lat="42.82539" lon="-0.18284">
        <ele>1756.4</ele>
        <time>2022-07-09T08:00:52.000Z</time>
      </trkpt>
      <trkpt lat="42.82532" lon="-0.18293">
        <ele>1754</ele>
        <time>2022-07-09T08:01:07.000Z</time>
      </trkpt>
      <trkpt lat="42.82524" lon="-0.183">
        <ele>1753.6</ele>
        <time>2022-07-09T08:01:16.000Z</time>
      </trkpt>
      <trkpt lat="42.82516" lon="-0.1831">
        <ele>1752.7</ele>
        <time>2022-07-09T08:01:26.000Z</time>
      </trkpt>
      <trkpt lat="42.82512" lon="-0.18321">
        <ele>1751.5</ele>
        <time>2022-07-09T08:01:35.000Z</time>
      </trkpt>
      <trkpt lat="42.82505" lon="-0.1833">
        <ele>1750.5</ele>
        <time>2022-07-09T08:01:44.000Z</time>
      </trkpt>
      <trkpt lat="42.82499" lon="-0.18339">
        <ele>1749.7</ele>
        <time>2022-07-09T08:01:54.000Z</time>
      </trkpt>
      <trkpt lat="42.82499" lon="-0.1834">
        <ele>1749.6</ele>
        <time>2022-07-09T08:01:58.000Z</time>
      </trkpt>
      <trkpt lat="42.82499" lon="-0.1834">
        <ele>1749.7</ele>
        <time>2022-07-09T08:01:59.000Z</time>
      </trkpt>
      <trkpt lat="42.82488" lon="-0.18341">
        <ele>1749.5</ele>
        <time>2022-07-09T08:02:07.000Z</time>
      </trkpt>
      <trkpt lat="42.82479" lon="-0.18343">
        <ele>1750.3</ele>
        <time>2022-07-09T08:02:13.000Z</time>
      </trkpt>
      <trkpt lat="42.8247" lon="-0.18346">
        <ele>1750.3</ele>
        <time>2022-07-09T08:02:23.000Z</time>
      </trkpt>
      <trkpt lat="42.82463" lon="-0.18353">
        <ele>1749.3</ele>
        <time>2022-07-09T08:02:31.000Z</time>
      </trkpt>
      <trkpt lat="42.82459" lon="-0.18355">
        <ele>1748.2</ele>
        <time>2022-07-09T08:02:37.000Z</time>
      </trkpt>
      <trkpt lat="42.82459" lon="-0.18355">
        <ele>1748.2</ele>
        <time>2022-07-09T08:02:38.000Z</time>
      </trkpt>
      <trkpt lat="42.82449" lon="-0.18356">
        <ele>1747.4</ele>
        <time>2022-07-09T08:02:47.000Z</time>
      </trkpt>
      <trkpt lat="42.82442" lon="-0.18363">
        <ele>1746.6</ele>
        <time>2022-07-09T08:02:59.000Z</time>
      </trkpt>
      <trkpt lat="42.82431" lon="-0.18367">
        <ele>1747.3</ele>
        <time>2022-07-09T08:03:07.000Z</time>
      </trkpt>
      <trkpt lat="42.82425" lon="-0.18376">
        <ele>1748.4</ele>
        <time>2022-07-09T08:03:16.000Z</time>
      </trkpt>
      <trkpt lat="42.82417" lon="-0.18383">
        <ele>1749.3</ele>
        <time>2022-07-09T08:03:25.000Z</time>
      </trkpt>
      <trkpt lat="42.82411" lon="-0.18395">
        <ele>1750</ele>
        <time>2022-07-09T08:03:35.000Z</time>
      </trkpt>
      <trkpt lat="42.82409" lon="-0.18407">
        <ele>1750.2</ele>
        <time>2022-07-09T08:03:42.000Z</time>
      </trkpt>
      <trkpt lat="42.82406" lon="-0.18418">
        <ele>1748.6</ele>
        <time>2022-07-09T08:03:52.000Z</time>
      </trkpt>
      <trkpt lat="42.82397" lon="-0.18424">
        <ele>1746.6</ele>
        <time>2022-07-09T08:04:00.000Z</time>
      </trkpt>
      <trkpt lat="42.82391" lon="-0.18433">
        <ele>1745.5</ele>
        <time>2022-07-09T08:04:07.000Z</time>
      </trkpt>
      <trkpt lat="42.82384" lon="-0.18443">
        <ele>1745</ele>
        <time>2022-07-09T08:04:16.000Z</time>
      </trkpt>
      <trkpt lat="42.82379" lon="-0.18452">
        <ele>1744.6</ele>
        <time>2022-07-09T08:04:27.000Z</time>
      </trkpt>
      <trkpt lat="42.82374" lon="-0.18463">
        <ele>1744.8</ele>
        <time>2022-07-09T08:04:33.000Z</time>
      </trkpt>
      <trkpt lat="42.82368" lon="-0.18474">
        <ele>1745</ele>
        <time>2022-07-09T08:04:39.000Z</time>
      </trkpt>
      <trkpt lat="42.82361" lon="-0.18482">
        <ele>1745.5</ele>
        <time>2022-07-09T08:04:48.000Z</time>
      </trkpt>
      <trkpt lat="42.82353" lon="-0.1849">
        <ele>1746.2</ele>
        <time>2022-07-09T08:04:58.000Z</time>
      </trkpt>
      <trkpt lat="42.82347" lon="-0.185">
        <ele>1746.9</ele>
        <time>2022-07-09T08:05:07.000Z</time>
      </trkpt>
      <trkpt lat="42.82338" lon="-0.18507">
        <ele>1748.3</ele>
        <time>2022-07-09T08:05:16.000Z</time>
      </trkpt>
      <trkpt lat="42.8233" lon="-0.18514">
        <ele>1749.9</ele>
        <time>2022-07-09T08:05:25.000Z</time>
      </trkpt>
      <trkpt lat="42.82321" lon="-0.18516">
        <ele>1753</ele>
        <time>2022-07-09T08:05:41.000Z</time>
      </trkpt>
      <trkpt lat="42.82314" lon="-0.18526">
        <ele>1754</ele>
        <time>2022-07-09T08:05:53.000Z</time>
      </trkpt>
      <trkpt lat="42.82304" lon="-0.18529">
        <ele>1755.4</ele>
        <time>2022-07-09T08:06:04.000Z</time>
      </trkpt>
      <trkpt lat="42.82294" lon="-0.18531">
        <ele>1757.5</ele>
        <time>2022-07-09T08:06:15.000Z</time>
      </trkpt>
      <trkpt lat="42.82284" lon="-0.18527">
        <ele>1758.6</ele>
        <time>2022-07-09T08:06:21.000Z</time>
      </trkpt>
      <trkpt lat="42.82275" lon="-0.1853">
        <ele>1759.6</ele>
        <time>2022-07-09T08:06:29.000Z</time>
      </trkpt>
      <trkpt lat="42.82266" lon="-0.18532">
        <ele>1761.6</ele>
        <time>2022-07-09T08:06:39.000Z</time>
      </trkpt>
      <trkpt lat="42.8226" lon="-0.18543">
        <ele>1762.8</ele>
        <time>2022-07-09T08:06:50.000Z</time>
      </trkpt>
      <trkpt lat="42.82254" lon="-0.18552">
        <ele>1764.2</ele>
        <time>2022-07-09T08:07:00.000Z</time>
      </trkpt>
      <trkpt lat="42.82245" lon="-0.18554">
        <ele>1765.7</ele>
        <time>2022-07-09T08:07:09.000Z</time>
      </trkpt>
      <trkpt lat="42.82236" lon="-0.18555">
        <ele>1766.9</ele>
        <time>2022-07-09T08:07:18.000Z</time>
      </trkpt>
      <trkpt lat="42.82226" lon="-0.1856">
        <ele>1768.7</ele>
        <time>2022-07-09T08:07:30.000Z</time>
      </trkpt>
      <trkpt lat="42.82226" lon="-0.1856">
        <ele>1769.3</ele>
        <time>2022-07-09T08:07:33.000Z</time>
      </trkpt>
      <trkpt lat="42.82226" lon="-0.1856">
        <ele>1768.9</ele>
        <time>2022-07-09T08:07:34.000Z</time>
      </trkpt>
      <trkpt lat="42.82225" lon="-0.1856">
        <ele>1769.1</ele>
        <time>2022-07-09T08:07:38.000Z</time>
      </trkpt>
      <trkpt lat="42.82225" lon="-0.1856">
        <ele>1769.6</ele>
        <time>2022-07-09T08:07:41.000Z</time>
      </trkpt>
      <trkpt lat="42.82225" lon="-0.1856">
        <ele>1769.5</ele>
        <time>2022-07-09T08:07:42.000Z</time>
      </trkpt>
      <trkpt lat="42.82225" lon="-0.1856">
        <ele>1769.4</ele>
        <time>2022-07-09T08:07:43.000Z</time>
      </trkpt>
      <trkpt lat="42.82225" lon="-0.1856">
        <ele>1769.4</ele>
        <time>2022-07-09T08:07:44.000Z</time>
      </trkpt>
      <trkpt lat="42.82225" lon="-0.1856">
        <ele>1769.6</ele>
        <time>2022-07-09T08:07:52.000Z</time>
      </trkpt>
      <trkpt lat="42.82225" lon="-0.18561">
        <ele>1769.5</ele>
        <time>2022-07-09T08:07:54.000Z</time>
      </trkpt>
      <trkpt lat="42.82224" lon="-0.18561">
        <ele>1769.7</ele>
        <time>2022-07-09T08:07:55.000Z</time>
      </trkpt>
      <trkpt lat="42.82215" lon="-0.18563">
        <ele>1769.1</ele>
        <time>2022-07-09T08:08:05.000Z</time>
      </trkpt>
      <trkpt lat="42.82206" lon="-0.18565">
        <ele>1768.9</ele>
        <time>2022-07-09T08:08:13.000Z</time>
      </trkpt>
      <trkpt lat="42.82196" lon="-0.18571">
        <ele>1768.4</ele>
        <time>2022-07-09T08:08:23.000Z</time>
      </trkpt>
      <trkpt lat="42.82187" lon="-0.18574">
        <ele>1768.5</ele>
        <time>2022-07-09T08:08:31.000Z</time>
      </trkpt>
      <trkpt lat="42.82178" lon="-0.18577">
        <ele>1767.7</ele>
        <time>2022-07-09T08:08:41.000Z</time>
      </trkpt>
      <trkpt lat="42.82168" lon="-0.18581">
        <ele>1768.3</ele>
        <time>2022-07-09T08:08:49.000Z</time>
      </trkpt>
      <trkpt lat="42.82162" lon="-0.18592">
        <ele>1769</ele>
        <time>2022-07-09T08:09:01.000Z</time>
      </trkpt>
      <trkpt lat="42.82154" lon="-0.18598">
        <ele>1769.7</ele>
        <time>2022-07-09T08:09:09.000Z</time>
      </trkpt>
      <trkpt lat="42.82149" lon="-0.18609">
        <ele>1770.6</ele>
        <time>2022-07-09T08:09:19.000Z</time>
      </trkpt>
      <trkpt lat="42.82143" lon="-0.18618">
        <ele>1772.4</ele>
        <time>2022-07-09T08:09:31.000Z</time>
      </trkpt>
      <trkpt lat="42.8214" lon="-0.18631">
        <ele>1774.5</ele>
        <time>2022-07-09T08:09:43.000Z</time>
      </trkpt>
      <trkpt lat="42.82138" lon="-0.18643">
        <ele>1776.4</ele>
        <time>2022-07-09T08:09:54.000Z</time>
      </trkpt>
      <trkpt lat="42.82137" lon="-0.18653">
        <ele>1778.5</ele>
        <time>2022-07-09T08:10:08.000Z</time>
      </trkpt>
      <trkpt lat="42.82137" lon="-0.18654">
        <ele>1779.1</ele>
        <time>2022-07-09T08:10:11.000Z</time>
      </trkpt>
      <trkpt lat="42.82137" lon="-0.18654">
        <ele>1779.3</ele>
        <time>2022-07-09T08:10:12.000Z</time>
      </trkpt>
      <trkpt lat="42.82137" lon="-0.18655">
        <ele>1779.4</ele>
        <time>2022-07-09T08:10:14.000Z</time>
      </trkpt>
      <trkpt lat="42.82133" lon="-0.18667">
        <ele>1781.4</ele>
        <time>2022-07-09T08:10:29.000Z</time>
      </trkpt>
      <trkpt lat="42.82128" lon="-0.18677">
        <ele>1782.6</ele>
        <time>2022-07-09T08:10:39.000Z</time>
      </trkpt>
      <trkpt lat="42.82121" lon="-0.18686">
        <ele>1782.7</ele>
        <time>2022-07-09T08:10:52.000Z</time>
      </trkpt>
      <trkpt lat="42.82116" lon="-0.18697">
        <ele>1783.4</ele>
        <time>2022-07-09T08:11:02.000Z</time>
      </trkpt>
      <trkpt lat="42.8211" lon="-0.18705">
        <ele>1783.4</ele>
        <time>2022-07-09T08:11:13.000Z</time>
      </trkpt>
      <trkpt lat="42.82111" lon="-0.18718">
        <ele>1782.7</ele>
        <time>2022-07-09T08:11:23.000Z</time>
      </trkpt>
      <trkpt lat="42.8211" lon="-0.1873">
        <ele>1782.1</ele>
        <time>2022-07-09T08:11:36.000Z</time>
      </trkpt>
      <trkpt lat="42.82104" lon="-0.1874">
        <ele>1782</ele>
        <time>2022-07-09T08:11:49.000Z</time>
      </trkpt>
      <trkpt lat="42.82096" lon="-0.18748">
        <ele>1781.9</ele>
        <time>2022-07-09T08:12:01.000Z</time>
      </trkpt>
      <trkpt lat="42.82088" lon="-0.18759">
        <ele>1782.4</ele>
        <time>2022-07-09T08:12:10.000Z</time>
      </trkpt>
      <trkpt lat="42.82079" lon="-0.18763">
        <ele>1782.7</ele>
        <time>2022-07-09T08:12:19.000Z</time>
      </trkpt>
      <trkpt lat="42.8207" lon="-0.18761">
        <ele>1783</ele>
        <time>2022-07-09T08:12:26.000Z</time>
      </trkpt>
      <trkpt lat="42.82064" lon="-0.18773">
        <ele>1783.4</ele>
        <time>2022-07-09T08:12:35.000Z</time>
      </trkpt>
      <trkpt lat="42.82058" lon="-0.18781">
        <ele>1783.2</ele>
        <time>2022-07-09T08:12:43.000Z</time>
      </trkpt>
      <trkpt lat="42.82053" lon="-0.18793">
        <ele>1783.2</ele>
        <time>2022-07-09T08:12:52.000Z</time>
      </trkpt>
      <trkpt lat="42.82049" lon="-0.18804">
        <ele>1783.3</ele>
        <time>2022-07-09T08:13:00.000Z</time>
      </trkpt>
      <trkpt lat="42.82049" lon="-0.18805">
        <ele>1783.3</ele>
        <time>2022-07-09T08:13:03.000Z</time>
      </trkpt>
      <trkpt lat="42.82049" lon="-0.18805">
        <ele>1783</ele>
        <time>2022-07-09T08:13:11.000Z</time>
      </trkpt>
      <trkpt lat="42.82049" lon="-0.18805">
        <ele>1783</ele>
        <time>2022-07-09T08:13:12.000Z</time>
      </trkpt>
      <trkpt lat="42.82049" lon="-0.18805">
        <ele>1783.1</ele>
        <time>2022-07-09T08:13:16.000Z</time>
      </trkpt>
      <trkpt lat="42.8205" lon="-0.18806">
        <ele>1783</ele>
        <time>2022-07-09T08:13:21.000Z</time>
      </trkpt>
      <trkpt lat="42.8205" lon="-0.18807">
        <ele>1783.1</ele>
        <time>2022-07-09T08:13:22.000Z</time>
      </trkpt>
      <trkpt lat="42.82048" lon="-0.18819">
        <ele>1782.5</ele>
        <time>2022-07-09T08:13:33.000Z</time>
      </trkpt>
      <trkpt lat="42.82043" lon="-0.1883">
        <ele>1782.9</ele>
        <time>2022-07-09T08:13:41.000Z</time>
      </trkpt>
      <trkpt lat="42.82043" lon="-0.1883">
        <ele>1782.7</ele>
        <time>2022-07-09T08:13:42.000Z</time>
      </trkpt>
      <trkpt lat="42.82043" lon="-0.1883">
        <ele>1782.8</ele>
        <time>2022-07-09T08:13:44.000Z</time>
      </trkpt>
      <trkpt lat="42.82035" lon="-0.18839">
        <ele>1783.3</ele>
        <time>2022-07-09T08:13:52.000Z</time>
      </trkpt>
      <trkpt lat="42.82027" lon="-0.18845">
        <ele>1783.2</ele>
        <time>2022-07-09T08:13:59.000Z</time>
      </trkpt>
      <trkpt lat="42.82019" lon="-0.18852">
        <ele>1783.5</ele>
        <time>2022-07-09T08:14:06.000Z</time>
      </trkpt>
      <trkpt lat="42.82012" lon="-0.18862">
        <ele>1783.5</ele>
        <time>2022-07-09T08:14:14.000Z</time>
      </trkpt>
      <trkpt lat="42.82006" lon="-0.18871">
        <ele>1783.4</ele>
        <time>2022-07-09T08:14:21.000Z</time>
      </trkpt>
      <trkpt lat="42.82" lon="-0.1888">
        <ele>1782.9</ele>
        <time>2022-07-09T08:14:29.000Z</time>
      </trkpt>
      <trkpt lat="42.81994" lon="-0.1889">
        <ele>1783.4</ele>
        <time>2022-07-09T08:14:37.000Z</time>
      </trkpt>
      <trkpt lat="42.81989" lon="-0.18901">
        <ele>1783.8</ele>
        <time>2022-07-09T08:14:45.000Z</time>
      </trkpt>
      <trkpt lat="42.81984" lon="-0.18912">
        <ele>1784.3</ele>
        <time>2022-07-09T08:14:54.000Z</time>
      </trkpt>
      <trkpt lat="42.81978" lon="-0.18923">
        <ele>1784.6</ele>
        <time>2022-07-09T08:15:02.000Z</time>
      </trkpt>
      <trkpt lat="42.81975" lon="-0.18936">
        <ele>1784.7</ele>
        <time>2022-07-09T08:15:11.000Z</time>
      </trkpt>
      <trkpt lat="42.81971" lon="-0.18947">
        <ele>1784.2</ele>
        <time>2022-07-09T08:15:19.000Z</time>
      </trkpt>
      <trkpt lat="42.81966" lon="-0.18958">
        <ele>1784.7</ele>
        <time>2022-07-09T08:15:27.000Z</time>
      </trkpt>
      <trkpt lat="42.81963" lon="-0.1897">
        <ele>1784.1</ele>
        <time>2022-07-09T08:15:35.000Z</time>
      </trkpt>
      <trkpt lat="42.8196" lon="-0.18981">
        <ele>1784.6</ele>
        <time>2022-07-09T08:15:43.000Z</time>
      </trkpt>
      <trkpt lat="42.81955" lon="-0.18992">
        <ele>1785.2</ele>
        <time>2022-07-09T08:15:52.000Z</time>
      </trkpt>
      <trkpt lat="42.81949" lon="-0.19001">
        <ele>1786.5</ele>
        <time>2022-07-09T08:16:03.000Z</time>
      </trkpt>
      <trkpt lat="42.81945" lon="-0.19013">
        <ele>1787</ele>
        <time>2022-07-09T08:16:13.000Z</time>
      </trkpt>
      <trkpt lat="42.81938" lon="-0.19023">
        <ele>1787.7</ele>
        <time>2022-07-09T08:16:22.000Z</time>
      </trkpt>
      <trkpt lat="42.81934" lon="-0.19034">
        <ele>1787.8</ele>
        <time>2022-07-09T08:16:32.000Z</time>
      </trkpt>
      <trkpt lat="42.81934" lon="-0.19035">
        <ele>1788.1</ele>
        <time>2022-07-09T08:16:37.000Z</time>
      </trkpt>
      <trkpt lat="42.81933" lon="-0.19036">
        <ele>1788.9</ele>
        <time>2022-07-09T08:16:41.000Z</time>
      </trkpt>
      <trkpt lat="42.81933" lon="-0.19036">
        <ele>1788.9</ele>
        <time>2022-07-09T08:16:42.000Z</time>
      </trkpt>
      <trkpt lat="42.81933" lon="-0.19036">
        <ele>1788.8</ele>
        <time>2022-07-09T08:16:45.000Z</time>
      </trkpt>
      <trkpt lat="42.81933" lon="-0.19036">
        <ele>1788.6</ele>
        <time>2022-07-09T08:16:46.000Z</time>
      </trkpt>
      <trkpt lat="42.81933" lon="-0.19037">
        <ele>1788.6</ele>
        <time>2022-07-09T08:16:47.000Z</time>
      </trkpt>
      <trkpt lat="42.81933" lon="-0.19037">
        <ele>1788.3</ele>
        <time>2022-07-09T08:16:53.000Z</time>
      </trkpt>
      <trkpt lat="42.81933" lon="-0.19037">
        <ele>1788.4</ele>
        <time>2022-07-09T08:16:55.000Z</time>
      </trkpt>
      <trkpt lat="42.81933" lon="-0.19037">
        <ele>1788.5</ele>
        <time>2022-07-09T08:16:56.000Z</time>
      </trkpt>
      <trkpt lat="42.81933" lon="-0.19038">
        <ele>1788.6</ele>
        <time>2022-07-09T08:16:57.000Z</time>
      </trkpt>
      <trkpt lat="42.81933" lon="-0.19038">
        <ele>1788.5</ele>
        <time>2022-07-09T08:16:59.000Z</time>
      </trkpt>
      <trkpt lat="42.81933" lon="-0.19037">
        <ele>1788.3</ele>
        <time>2022-07-09T08:17:02.000Z</time>
      </trkpt>
      <trkpt lat="42.81932" lon="-0.19037">
        <ele>1788</ele>
        <time>2022-07-09T08:17:06.000Z</time>
      </trkpt>
      <trkpt lat="42.81932" lon="-0.19037">
        <ele>1788</ele>
        <time>2022-07-09T08:17:07.000Z</time>
      </trkpt>
      <trkpt lat="42.81932" lon="-0.19037">
        <ele>1788.1</ele>
        <time>2022-07-09T08:17:08.000Z</time>
      </trkpt>
      <trkpt lat="42.81931" lon="-0.19038">
        <ele>1788.8</ele>
        <time>2022-07-09T08:17:18.000Z</time>
      </trkpt>
      <trkpt lat="42.81931" lon="-0.19051">
        <ele>1787.8</ele>
        <time>2022-07-09T08:17:27.000Z</time>
      </trkpt>
      <trkpt lat="42.81931" lon="-0.19065">
        <ele>1789</ele>
        <time>2022-07-09T08:17:35.000Z</time>
      </trkpt>
      <trkpt lat="42.81933" lon="-0.19077">
        <ele>1790.7</ele>
        <time>2022-07-09T08:17:43.000Z</time>
      </trkpt>
      <trkpt lat="42.81934" lon="-0.19091">
        <ele>1790.9</ele>
        <time>2022-07-09T08:17:53.000Z</time>
      </trkpt>
      <trkpt lat="42.81936" lon="-0.19104">
        <ele>1791.9</ele>
        <time>2022-07-09T08:18:02.000Z</time>
      </trkpt>
      <trkpt lat="42.81934" lon="-0.19116">
        <ele>1792</ele>
        <time>2022-07-09T08:18:10.000Z</time>
      </trkpt>
      <trkpt lat="42.81932" lon="-0.19129">
        <ele>1793.5</ele>
        <time>2022-07-09T08:18:19.000Z</time>
      </trkpt>
      <trkpt lat="42.81932" lon="-0.19141">
        <ele>1794.8</ele>
        <time>2022-07-09T08:18:29.000Z</time>
      </trkpt>
      <trkpt lat="42.81929" lon="-0.19154">
        <ele>1796.7</ele>
        <time>2022-07-09T08:18:41.000Z</time>
      </trkpt>
      <trkpt lat="42.81923" lon="-0.19164">
        <ele>1798.4</ele>
        <time>2022-07-09T08:18:52.000Z</time>
      </trkpt>
      <trkpt lat="42.81916" lon="-0.19174">
        <ele>1799.8</ele>
        <time>2022-07-09T08:19:04.000Z</time>
      </trkpt>
      <trkpt lat="42.81918" lon="-0.19186">
        <ele>1800.9</ele>
        <time>2022-07-09T08:19:20.000Z</time>
      </trkpt>
      <trkpt lat="42.81921" lon="-0.19198">
        <ele>1801.2</ele>
        <time>2022-07-09T08:19:29.000Z</time>
      </trkpt>
      <trkpt lat="42.8192" lon="-0.19202">
        <ele>1801.4</ele>
        <time>2022-07-09T08:19:34.000Z</time>
      </trkpt>
      <trkpt lat="42.81921" lon="-0.19202">
        <ele>1801.4</ele>
        <time>2022-07-09T08:19:51.000Z</time>
      </trkpt>
      <trkpt lat="42.81924" lon="-0.19202">
        <ele>1801.6</ele>
        <time>2022-07-09T08:19:54.000Z</time>
      </trkpt>
      <trkpt lat="42.81924" lon="-0.19202">
        <ele>1801</ele>
        <time>2022-07-09T08:19:58.000Z</time>
      </trkpt>
      <trkpt lat="42.81926" lon="-0.19203">
        <ele>1801.1</ele>
        <time>2022-07-09T08:20:00.000Z</time>
      </trkpt>
      <trkpt lat="42.81926" lon="-0.19203">
        <ele>1801.2</ele>
        <time>2022-07-09T08:20:01.000Z</time>
      </trkpt>
      <trkpt lat="42.81927" lon="-0.19203">
        <ele>1801.2</ele>
        <time>2022-07-09T08:20:03.000Z</time>
      </trkpt>
      <trkpt lat="42.81927" lon="-0.19204">
        <ele>1801</ele>
        <time>2022-07-09T08:20:06.000Z</time>
      </trkpt>
      <trkpt lat="42.81929" lon="-0.19217">
        <ele>1800.8</ele>
        <time>2022-07-09T08:20:19.000Z</time>
      </trkpt>
      <trkpt lat="42.81931" lon="-0.1923">
        <ele>1801.5</ele>
        <time>2022-07-09T08:20:28.000Z</time>
      </trkpt>
      <trkpt lat="42.81928" lon="-0.19243">
        <ele>1802.1</ele>
        <time>2022-07-09T08:20:37.000Z</time>
      </trkpt>
      <trkpt lat="42.81925" lon="-0.19255">
        <ele>1803</ele>
        <time>2022-07-09T08:20:43.000Z</time>
      </trkpt>
      <trkpt lat="42.81925" lon="-0.19258">
        <ele>1802.8</ele>
        <time>2022-07-09T08:20:48.000Z</time>
      </trkpt>
      <trkpt lat="42.81926" lon="-0.19259">
        <ele>1803.1</ele>
        <time>2022-07-09T08:20:49.000Z</time>
      </trkpt>
      <trkpt lat="42.81926" lon="-0.19261">
        <ele>1803.5</ele>
        <time>2022-07-09T08:20:53.000Z</time>
      </trkpt>
      <trkpt lat="42.81926" lon="-0.19262">
        <ele>1803.5</ele>
        <time>2022-07-09T08:20:54.000Z</time>
      </trkpt>
      <trkpt lat="42.81922" lon="-0.19273">
        <ele>1804.2</ele>
        <time>2022-07-09T08:21:06.000Z</time>
      </trkpt>
      <trkpt lat="42.81918" lon="-0.19278">
        <ele>1804.6</ele>
        <time>2022-07-09T08:21:15.000Z</time>
      </trkpt>
      <trkpt lat="42.81918" lon="-0.19278">
        <ele>1805.1</ele>
        <time>2022-07-09T08:21:16.000Z</time>
      </trkpt>
      <trkpt lat="42.81915" lon="-0.19291">
        <ele>1806</ele>
        <time>2022-07-09T08:21:30.000Z</time>
      </trkpt>
      <trkpt lat="42.81916" lon="-0.19304">
        <ele>1807.2</ele>
        <time>2022-07-09T08:21:38.000Z</time>
      </trkpt>
      <trkpt lat="42.81916" lon="-0.19317">
        <ele>1809.3</ele>
        <time>2022-07-09T08:21:47.000Z</time>
      </trkpt>
      <trkpt lat="42.81926" lon="-0.19323">
        <ele>1810.7</ele>
        <time>2022-07-09T08:22:01.000Z</time>
      </trkpt>
      <trkpt lat="42.81935" lon="-0.19328">
        <ele>1812</ele>
        <time>2022-07-09T08:22:14.000Z</time>
      </trkpt>
      <trkpt lat="42.81936" lon="-0.1934">
        <ele>1813.6</ele>
        <time>2022-07-09T08:22:28.000Z</time>
      </trkpt>
      <trkpt lat="42.81937" lon="-0.19344">
        <ele>1814.9</ele>
        <time>2022-07-09T08:22:55.000Z</time>
      </trkpt>
      <trkpt lat="42.81937" lon="-0.19344">
        <ele>1814.9</ele>
        <time>2022-07-09T08:22:56.000Z</time>
      </trkpt>
      <trkpt lat="42.81937" lon="-0.19344">
        <ele>1814.8</ele>
        <time>2022-07-09T08:22:57.000Z</time>
      </trkpt>
      <trkpt lat="42.81937" lon="-0.19344">
        <ele>1814.8</ele>
        <time>2022-07-09T08:22:58.000Z</time>
      </trkpt>
      <trkpt lat="42.81937" lon="-0.19344">
        <ele>1814.7</ele>
        <time>2022-07-09T08:22:59.000Z</time>
      </trkpt>
      <trkpt lat="42.81937" lon="-0.19344">
        <ele>1814.1</ele>
        <time>2022-07-09T08:23:14.000Z</time>
      </trkpt>
      <trkpt lat="42.81942" lon="-0.19354">
        <ele>1813.9</ele>
        <time>2022-07-09T08:23:36.000Z</time>
      </trkpt>
      <trkpt lat="42.81951" lon="-0.1936">
        <ele>1812.5</ele>
        <time>2022-07-09T08:23:51.000Z</time>
      </trkpt>
      <trkpt lat="42.81956" lon="-0.19371">
        <ele>1812.9</ele>
        <time>2022-07-09T08:23:59.000Z</time>
      </trkpt>
      <trkpt lat="42.81958" lon="-0.19377">
        <ele>1813</ele>
        <time>2022-07-09T08:24:07.000Z</time>
      </trkpt>
      <trkpt lat="42.81957" lon="-0.19378">
        <ele>1813.5</ele>
        <time>2022-07-09T08:24:12.000Z</time>
      </trkpt>
      <trkpt lat="42.81955" lon="-0.1938">
        <ele>1813.3</ele>
        <time>2022-07-09T08:24:16.000Z</time>
      </trkpt>
      <trkpt lat="42.81955" lon="-0.1938">
        <ele>1813.3</ele>
        <time>2022-07-09T08:24:18.000Z</time>
      </trkpt>
      <trkpt lat="42.81955" lon="-0.1938">
        <ele>1813.2</ele>
        <time>2022-07-09T08:24:20.000Z</time>
      </trkpt>
      <trkpt lat="42.81956" lon="-0.1938">
        <ele>1813.3</ele>
        <time>2022-07-09T08:24:25.000Z</time>
      </trkpt>
      <trkpt lat="42.81958" lon="-0.19389">
        <ele>1813.4</ele>
        <time>2022-07-09T08:24:35.000Z</time>
      </trkpt>
      <trkpt lat="42.81958" lon="-0.1939">
        <ele>1813.6</ele>
        <time>2022-07-09T08:24:36.000Z</time>
      </trkpt>
      <trkpt lat="42.81959" lon="-0.19403">
        <ele>1814.3</ele>
        <time>2022-07-09T08:24:48.000Z</time>
      </trkpt>
      <trkpt lat="42.81961" lon="-0.19415">
        <ele>1815.3</ele>
        <time>2022-07-09T08:25:00.000Z</time>
      </trkpt>
      <trkpt lat="42.81965" lon="-0.19427">
        <ele>1816.8</ele>
        <time>2022-07-09T08:25:11.000Z</time>
      </trkpt>
      <trkpt lat="42.81969" lon="-0.19438">
        <ele>1819</ele>
        <time>2022-07-09T08:25:24.000Z</time>
      </trkpt>
      <trkpt lat="42.81978" lon="-0.19444">
        <ele>1819.7</ele>
        <time>2022-07-09T08:25:32.000Z</time>
      </trkpt>
      <trkpt lat="42.81983" lon="-0.19454">
        <ele>1819.6</ele>
        <time>2022-07-09T08:25:40.000Z</time>
      </trkpt>
      <trkpt lat="42.81988" lon="-0.19466">
        <ele>1820.6</ele>
        <time>2022-07-09T08:25:51.000Z</time>
      </trkpt>
      <trkpt lat="42.81988" lon="-0.19478">
        <ele>1821.5</ele>
        <time>2022-07-09T08:26:00.000Z</time>
      </trkpt>
      <trkpt lat="42.8199" lon="-0.19491">
        <ele>1822.5</ele>
        <time>2022-07-09T08:26:10.000Z</time>
      </trkpt>
      <trkpt lat="42.81991" lon="-0.19503">
        <ele>1823.1</ele>
        <time>2022-07-09T08:26:20.000Z</time>
      </trkpt>
      <trkpt lat="42.81991" lon="-0.19503">
        <ele>1823</ele>
        <time>2022-07-09T08:26:22.000Z</time>
      </trkpt>
      <trkpt lat="42.81991" lon="-0.19503">
        <ele>1823.2</ele>
        <time>2022-07-09T08:26:24.000Z</time>
      </trkpt>
      <trkpt lat="42.81989" lon="-0.19506">
        <ele>1823.4</ele>
        <time>2022-07-09T08:26:30.000Z</time>
      </trkpt>
      <trkpt lat="42.81989" lon="-0.19506">
        <ele>1823.7</ele>
        <time>2022-07-09T08:26:32.000Z</time>
      </trkpt>
      <trkpt lat="42.81988" lon="-0.19506">
        <ele>1823.6</ele>
        <time>2022-07-09T08:26:35.000Z</time>
      </trkpt>
      <trkpt lat="42.81988" lon="-0.19506">
        <ele>1823.8</ele>
        <time>2022-07-09T08:26:37.000Z</time>
      </trkpt>
      <trkpt lat="42.81986" lon="-0.19507">
        <ele>1823.9</ele>
        <time>2022-07-09T08:26:43.000Z</time>
      </trkpt>
      <trkpt lat="42.81986" lon="-0.19507">
        <ele>1823.8</ele>
        <time>2022-07-09T08:26:45.000Z</time>
      </trkpt>
      <trkpt lat="42.81986" lon="-0.19507">
        <ele>1823.3</ele>
        <time>2022-07-09T08:26:46.000Z</time>
      </trkpt>
      <trkpt lat="42.81986" lon="-0.19507">
        <ele>1823.5</ele>
        <time>2022-07-09T08:26:54.000Z</time>
      </trkpt>
      <trkpt lat="42.81986" lon="-0.19507">
        <ele>1823.7</ele>
        <time>2022-07-09T08:26:55.000Z</time>
      </trkpt>
      <trkpt lat="42.81986" lon="-0.19508">
        <ele>1823.7</ele>
        <time>2022-07-09T08:26:58.000Z</time>
      </trkpt>
      <trkpt lat="42.81993" lon="-0.1951">
        <ele>1823.7</ele>
        <time>2022-07-09T08:27:09.000Z</time>
      </trkpt>
      <trkpt lat="42.81993" lon="-0.19511">
        <ele>1823.7</ele>
        <time>2022-07-09T08:27:11.000Z</time>
      </trkpt>
      <trkpt lat="42.82" lon="-0.19518">
        <ele>1823.6</ele>
        <time>2022-07-09T08:27:22.000Z</time>
      </trkpt>
      <trkpt lat="42.8201" lon="-0.19518">
        <ele>1824.9</ele>
        <time>2022-07-09T08:27:30.000Z</time>
      </trkpt>
      <trkpt lat="42.82017" lon="-0.19528">
        <ele>1826.5</ele>
        <time>2022-07-09T08:27:43.000Z</time>
      </trkpt>
      <trkpt lat="42.82019" lon="-0.19531">
        <ele>1826.7</ele>
        <time>2022-07-09T08:27:48.000Z</time>
      </trkpt>
      <trkpt lat="42.8202" lon="-0.19531">
        <ele>1826.6</ele>
        <time>2022-07-09T08:27:49.000Z</time>
      </trkpt>
      <trkpt lat="42.82027" lon="-0.19539">
        <ele>1827.4</ele>
        <time>2022-07-09T08:28:02.000Z</time>
      </trkpt>
      <trkpt lat="42.82034" lon="-0.19547">
        <ele>1828.9</ele>
        <time>2022-07-09T08:28:14.000Z</time>
      </trkpt>
      <trkpt lat="42.82042" lon="-0.19554">
        <ele>1831.5</ele>
        <time>2022-07-09T08:28:32.000Z</time>
      </trkpt>
      <trkpt lat="42.82052" lon="-0.1956">
        <ele>1832.5</ele>
        <time>2022-07-09T08:28:41.000Z</time>
      </trkpt>
      <trkpt lat="42.82053" lon="-0.19572">
        <ele>1832.7</ele>
        <time>2022-07-09T08:28:57.000Z</time>
      </trkpt>
      <trkpt lat="42.82054" lon="-0.19572">
        <ele>1832.9</ele>
        <time>2022-07-09T08:29:01.000Z</time>
      </trkpt>
      <trkpt lat="42.82061" lon="-0.19581">
        <ele>1833.3</ele>
        <time>2022-07-09T08:29:13.000Z</time>
      </trkpt>
      <trkpt lat="42.82062" lon="-0.19583">
        <ele>1833.2</ele>
        <time>2022-07-09T08:29:20.000Z</time>
      </trkpt>
      <trkpt lat="42.82062" lon="-0.19583">
        <ele>1833.2</ele>
        <time>2022-07-09T08:29:23.000Z</time>
      </trkpt>
      <trkpt lat="42.82062" lon="-0.19583">
        <ele>1833.1</ele>
        <time>2022-07-09T08:29:24.000Z</time>
      </trkpt>
      <trkpt lat="42.82062" lon="-0.19583">
        <ele>1833.2</ele>
        <time>2022-07-09T08:29:26.000Z</time>
      </trkpt>
      <trkpt lat="42.82063" lon="-0.19583">
        <ele>1833</ele>
        <time>2022-07-09T08:29:28.000Z</time>
      </trkpt>
      <trkpt lat="42.82063" lon="-0.19582">
        <ele>1832.9</ele>
        <time>2022-07-09T08:29:29.000Z</time>
      </trkpt>
      <trkpt lat="42.82064" lon="-0.19582">
        <ele>1831.4</ele>
        <time>2022-07-09T08:29:40.000Z</time>
      </trkpt>
      <trkpt lat="42.82064" lon="-0.19582">
        <ele>1831.6</ele>
        <time>2022-07-09T08:30:11.000Z</time>
      </trkpt>
      <trkpt lat="42.82064" lon="-0.19582">
        <ele>1831.6</ele>
        <time>2022-07-09T08:30:12.000Z</time>
      </trkpt>
      <trkpt lat="42.82064" lon="-0.19582">
        <ele>1831.5</ele>
        <time>2022-07-09T08:30:17.000Z</time>
      </trkpt>
      <trkpt lat="42.82064" lon="-0.19582">
        <ele>1831.6</ele>
        <time>2022-07-09T08:30:18.000Z</time>
      </trkpt>
      <trkpt lat="42.82064" lon="-0.19582">
        <ele>1831.4</ele>
        <time>2022-07-09T08:30:20.000Z</time>
      </trkpt>
      <trkpt lat="42.82064" lon="-0.19582">
        <ele>1831.5</ele>
        <time>2022-07-09T08:30:21.000Z</time>
      </trkpt>
      <trkpt lat="42.82064" lon="-0.19582">
        <ele>1830.9</ele>
        <time>2022-07-09T08:30:43.000Z</time>
      </trkpt>
      <trkpt lat="42.82064" lon="-0.19582">
        <ele>1831</ele>
        <time>2022-07-09T08:30:44.000Z</time>
      </trkpt>
      <trkpt lat="42.82064" lon="-0.19582">
        <ele>1831.1</ele>
        <time>2022-07-09T08:30:48.000Z</time>
      </trkpt>
      <trkpt lat="42.82064" lon="-0.19582">
        <ele>1831</ele>
        <time>2022-07-09T08:30:49.000Z</time>
      </trkpt>
      <trkpt lat="42.82064" lon="-0.19583">
        <ele>1830.2</ele>
        <time>2022-07-09T08:32:01.000Z</time>
      </trkpt>
      <trkpt lat="42.82064" lon="-0.19583">
        <ele>1830.3</ele>
        <time>2022-07-09T08:32:02.000Z</time>
      </trkpt>
      <trkpt lat="42.82064" lon="-0.19583">
        <ele>1830.1</ele>
        <time>2022-07-09T08:34:44.000Z</time>
      </trkpt>
      <trkpt lat="42.82064" lon="-0.19583">
        <ele>1830.1</ele>
        <time>2022-07-09T08:34:45.000Z</time>
      </trkpt>
      <trkpt lat="42.82064" lon="-0.19583">
        <ele>1829.2</ele>
        <time>2022-07-09T08:37:52.000Z</time>
      </trkpt>
      <trkpt lat="42.82064" lon="-0.19583">
        <ele>1829.2</ele>
        <time>2022-07-09T08:37:53.000Z</time>
      </trkpt>
      <trkpt lat="42.82064" lon="-0.19583">
        <ele>1831.2</ele>
        <time>2022-07-09T08:38:13.000Z</time>
      </trkpt>
      <trkpt lat="42.82064" lon="-0.19583">
        <ele>1831.6</ele>
        <time>2022-07-09T08:38:14.000Z</time>
      </trkpt>
      <trkpt lat="42.82065" lon="-0.19583">
        <ele>1831.7</ele>
        <time>2022-07-09T08:38:15.000Z</time>
      </trkpt>
      <trkpt lat="42.82065" lon="-0.19583">
        <ele>1831.8</ele>
        <time>2022-07-09T08:38:19.000Z</time>
      </trkpt>
      <trkpt lat="42.82066" lon="-0.19583">
        <ele>1831.4</ele>
        <time>2022-07-09T08:38:20.000Z</time>
      </trkpt>
      <trkpt lat="42.82066" lon="-0.19584">
        <ele>1829.1</ele>
        <time>2022-07-09T08:38:24.000Z</time>
      </trkpt>
      <trkpt lat="42.82066" lon="-0.19584">
        <ele>1830</ele>
        <time>2022-07-09T08:38:31.000Z</time>
      </trkpt>
      <trkpt lat="42.82066" lon="-0.19584">
        <ele>1830</ele>
        <time>2022-07-09T08:38:32.000Z</time>
      </trkpt>
      <trkpt lat="42.82066" lon="-0.19584">
        <ele>1830</ele>
        <time>2022-07-09T08:38:33.000Z</time>
      </trkpt>
      <trkpt lat="42.82066" lon="-0.19584">
        <ele>1830.1</ele>
        <time>2022-07-09T08:38:34.000Z</time>
      </trkpt>
      <trkpt lat="42.82066" lon="-0.19584">
        <ele>1832.3</ele>
        <time>2022-07-09T08:38:56.000Z</time>
      </trkpt>
      <trkpt lat="42.82066" lon="-0.19584">
        <ele>1833.4</ele>
        <time>2022-07-09T08:39:00.000Z</time>
      </trkpt>
      <trkpt lat="42.82066" lon="-0.19584">
        <ele>1832.3</ele>
        <time>2022-07-09T08:39:01.000Z</time>
      </trkpt>
      <trkpt lat="42.82066" lon="-0.19584">
        <ele>1831.7</ele>
        <time>2022-07-09T08:39:02.000Z</time>
      </trkpt>
      <trkpt lat="42.82066" lon="-0.19583">
        <ele>1831.4</ele>
        <time>2022-07-09T08:39:05.000Z</time>
      </trkpt>
      <trkpt lat="42.82067" lon="-0.19582">
        <ele>1831.8</ele>
        <time>2022-07-09T08:39:11.000Z</time>
      </trkpt>
      <trkpt lat="42.82067" lon="-0.19582">
        <ele>1832.3</ele>
        <time>2022-07-09T08:39:15.000Z</time>
      </trkpt>
      <trkpt lat="42.82068" lon="-0.19583">
        <ele>1832.2</ele>
        <time>2022-07-09T08:39:18.000Z</time>
      </trkpt>
      <trkpt lat="42.82068" lon="-0.19583">
        <ele>1832.1</ele>
        <time>2022-07-09T08:39:19.000Z</time>
      </trkpt>
      <trkpt lat="42.82068" lon="-0.19584">
        <ele>1832.7</ele>
        <time>2022-07-09T08:39:23.000Z</time>
      </trkpt>
      <trkpt lat="42.82067" lon="-0.19584">
        <ele>1833.2</ele>
        <time>2022-07-09T08:39:26.000Z</time>
      </trkpt>
      <trkpt lat="42.82067" lon="-0.19586">
        <ele>1833.7</ele>
        <time>2022-07-09T08:39:33.000Z</time>
      </trkpt>
      <trkpt lat="42.82066" lon="-0.19585">
        <ele>1833.8</ele>
        <time>2022-07-09T08:39:34.000Z</time>
      </trkpt>
      <trkpt lat="42.82066" lon="-0.19585">
        <ele>1833.9</ele>
        <time>2022-07-09T08:39:35.000Z</time>
      </trkpt>
      <trkpt lat="42.82066" lon="-0.19586">
        <ele>1834.1</ele>
        <time>2022-07-09T08:39:37.000Z</time>
      </trkpt>
      <trkpt lat="42.82066" lon="-0.19586">
        <ele>1834</ele>
        <time>2022-07-09T08:39:38.000Z</time>
      </trkpt>
      <trkpt lat="42.82066" lon="-0.19586">
        <ele>1834</ele>
        <time>2022-07-09T08:39:43.000Z</time>
      </trkpt>
      <trkpt lat="42.82066" lon="-0.19586">
        <ele>1834</ele>
        <time>2022-07-09T08:39:44.000Z</time>
      </trkpt>
      <trkpt lat="42.82066" lon="-0.19585">
        <ele>1834.4</ele>
        <time>2022-07-09T08:39:46.000Z</time>
      </trkpt>
      <trkpt lat="42.82066" lon="-0.19585">
        <ele>1834.5</ele>
        <time>2022-07-09T08:39:49.000Z</time>
      </trkpt>
      <trkpt lat="42.82066" lon="-0.19585">
        <ele>1834.4</ele>
        <time>2022-07-09T08:39:56.000Z</time>
      </trkpt>
      <trkpt lat="42.82068" lon="-0.19584">
        <ele>1834.3</ele>
        <time>2022-07-09T08:40:05.000Z</time>
      </trkpt>
      <trkpt lat="42.82069" lon="-0.19584">
        <ele>1834.2</ele>
        <time>2022-07-09T08:40:06.000Z</time>
      </trkpt>
      <trkpt lat="42.82067" lon="-0.19583">
        <ele>1834.3</ele>
        <time>2022-07-09T08:40:11.000Z</time>
      </trkpt>
      <trkpt lat="42.82067" lon="-0.19584">
        <ele>1834.3</ele>
        <time>2022-07-09T08:40:14.000Z</time>
      </trkpt>
      <trkpt lat="42.82077" lon="-0.19586">
        <ele>1835.1</ele>
        <time>2022-07-09T08:40:32.000Z</time>
      </trkpt>
      <trkpt lat="42.82083" lon="-0.19595">
        <ele>1838.2</ele>
        <time>2022-07-09T08:40:46.000Z</time>
      </trkpt>
      <trkpt lat="42.82088" lon="-0.19606">
        <ele>1841.5</ele>
        <time>2022-07-09T08:41:03.000Z</time>
      </trkpt>
      <trkpt lat="42.82091" lon="-0.19618">
        <ele>1843.5</ele>
        <time>2022-07-09T08:41:15.000Z</time>
      </trkpt>
      <trkpt lat="42.82095" lon="-0.19629">
        <ele>1846.5</ele>
        <time>2022-07-09T08:41:30.000Z</time>
      </trkpt>
      <trkpt lat="42.82104" lon="-0.19635">
        <ele>1848.3</ele>
        <time>2022-07-09T08:41:41.000Z</time>
      </trkpt>
      <trkpt lat="42.82105" lon="-0.19638">
        <ele>1849</ele>
        <time>2022-07-09T08:41:46.000Z</time>
      </trkpt>
      <trkpt lat="42.82105" lon="-0.19638">
        <ele>1849.2</ele>
        <time>2022-07-09T08:41:47.000Z</time>
      </trkpt>
      <trkpt lat="42.82112" lon="-0.19648">
        <ele>1851</ele>
        <time>2022-07-09T08:41:58.000Z</time>
      </trkpt>
      <trkpt lat="42.82117" lon="-0.19653">
        <ele>1853.3</ele>
        <time>2022-07-09T08:42:10.000Z</time>
      </trkpt>
      <trkpt lat="42.82118" lon="-0.19653">
        <ele>1854.1</ele>
        <time>2022-07-09T08:42:16.000Z</time>
      </trkpt>
      <trkpt lat="42.8212" lon="-0.19666">
        <ele>1854.9</ele>
        <time>2022-07-09T08:42:29.000Z</time>
      </trkpt>
      <trkpt lat="42.82127" lon="-0.19675">
        <ele>1856</ele>
        <time>2022-07-09T08:42:41.000Z</time>
      </trkpt>
      <trkpt lat="42.82134" lon="-0.19684">
        <ele>1857</ele>
        <time>2022-07-09T08:42:50.000Z</time>
      </trkpt>
      <trkpt lat="42.82139" lon="-0.19673">
        <ele>1859.7</ele>
        <time>2022-07-09T08:43:08.000Z</time>
      </trkpt>
      <trkpt lat="42.82141" lon="-0.1966">
        <ele>1861.1</ele>
        <time>2022-07-09T08:43:19.000Z</time>
      </trkpt>
      <trkpt lat="42.82141" lon="-0.19648">
        <ele>1863</ele>
        <time>2022-07-09T08:43:30.000Z</time>
      </trkpt>
      <trkpt lat="42.82146" lon="-0.19637">
        <ele>1865.8</ele>
        <time>2022-07-09T08:43:44.000Z</time>
      </trkpt>
      <trkpt lat="42.82149" lon="-0.19625">
        <ele>1867.4</ele>
        <time>2022-07-09T08:43:55.000Z</time>
      </trkpt>
      <trkpt lat="42.82157" lon="-0.19632">
        <ele>1869.2</ele>
        <time>2022-07-09T08:44:07.000Z</time>
      </trkpt>
      <trkpt lat="42.82163" lon="-0.19642">
        <ele>1871.7</ele>
        <time>2022-07-09T08:44:23.000Z</time>
      </trkpt>
      <trkpt lat="42.82165" lon="-0.19655">
        <ele>1872.9</ele>
        <time>2022-07-09T08:44:30.000Z</time>
      </trkpt>
      <trkpt lat="42.82167" lon="-0.19668">
        <ele>1873.7</ele>
        <time>2022-07-09T08:44:39.000Z</time>
      </trkpt>
      <trkpt lat="42.8217" lon="-0.1968">
        <ele>1875.5</ele>
        <time>2022-07-09T08:44:54.000Z</time>
      </trkpt>
      <trkpt lat="42.82178" lon="-0.19685">
        <ele>1877.6</ele>
        <time>2022-07-09T08:45:09.000Z</time>
      </trkpt>
      <trkpt lat="42.82182" lon="-0.19697">
        <ele>1879.2</ele>
        <time>2022-07-09T08:45:19.000Z</time>
      </trkpt>
      <trkpt lat="42.82185" lon="-0.19708">
        <ele>1880.9</ele>
        <time>2022-07-09T08:45:28.000Z</time>
      </trkpt>
      <trkpt lat="42.82192" lon="-0.19718">
        <ele>1882.3</ele>
        <time>2022-07-09T08:45:39.000Z</time>
      </trkpt>
      <trkpt lat="42.82195" lon="-0.1973">
        <ele>1883.7</ele>
        <time>2022-07-09T08:45:51.000Z</time>
      </trkpt>
      <trkpt lat="42.82199" lon="-0.19742">
        <ele>1884.5</ele>
        <time>2022-07-09T08:46:03.000Z</time>
      </trkpt>
      <trkpt lat="42.82206" lon="-0.19751">
        <ele>1886</ele>
        <time>2022-07-09T08:46:14.000Z</time>
      </trkpt>
      <trkpt lat="42.82214" lon="-0.19758">
        <ele>1888.2</ele>
        <time>2022-07-09T08:46:24.000Z</time>
      </trkpt>
      <trkpt lat="42.82221" lon="-0.19767">
        <ele>1890.7</ele>
        <time>2022-07-09T08:46:37.000Z</time>
      </trkpt>
      <trkpt lat="42.82223" lon="-0.19781">
        <ele>1892.3</ele>
        <time>2022-07-09T08:46:47.000Z</time>
      </trkpt>
      <trkpt lat="42.82231" lon="-0.19785">
        <ele>1893.4</ele>
        <time>2022-07-09T08:46:58.000Z</time>
      </trkpt>
      <trkpt lat="42.82239" lon="-0.19794">
        <ele>1894.7</ele>
        <time>2022-07-09T08:47:12.000Z</time>
      </trkpt>
      <trkpt lat="42.82244" lon="-0.19805">
        <ele>1895.7</ele>
        <time>2022-07-09T08:47:20.000Z</time>
      </trkpt>
      <trkpt lat="42.82248" lon="-0.19816">
        <ele>1897.5</ele>
        <time>2022-07-09T08:47:29.000Z</time>
      </trkpt>
      <trkpt lat="42.82254" lon="-0.19826">
        <ele>1898.9</ele>
        <time>2022-07-09T08:47:38.000Z</time>
      </trkpt>
      <trkpt lat="42.82255" lon="-0.19839">
        <ele>1901.3</ele>
        <time>2022-07-09T08:47:51.000Z</time>
      </trkpt>
      <trkpt lat="42.82258" lon="-0.19851">
        <ele>1903.3</ele>
        <time>2022-07-09T08:48:03.000Z</time>
      </trkpt>
      <trkpt lat="42.82264" lon="-0.19861">
        <ele>1904.9</ele>
        <time>2022-07-09T08:48:16.000Z</time>
      </trkpt>
      <trkpt lat="42.82265" lon="-0.19862">
        <ele>1905.1</ele>
        <time>2022-07-09T08:48:23.000Z</time>
      </trkpt>
      <trkpt lat="42.82266" lon="-0.19862">
        <ele>1905.3</ele>
        <time>2022-07-09T08:48:26.000Z</time>
      </trkpt>
      <trkpt lat="42.82266" lon="-0.19862">
        <ele>1905.4</ele>
        <time>2022-07-09T08:48:27.000Z</time>
      </trkpt>
      <trkpt lat="42.82266" lon="-0.19861">
        <ele>1905.9</ele>
        <time>2022-07-09T08:48:31.000Z</time>
      </trkpt>
      <trkpt lat="42.82275" lon="-0.19866">
        <ele>1907.1</ele>
        <time>2022-07-09T08:48:49.000Z</time>
      </trkpt>
      <trkpt lat="42.82283" lon="-0.19873">
        <ele>1907.7</ele>
        <time>2022-07-09T08:48:58.000Z</time>
      </trkpt>
      <trkpt lat="42.8229" lon="-0.19881">
        <ele>1909.5</ele>
        <time>2022-07-09T08:49:12.000Z</time>
      </trkpt>
      <trkpt lat="42.8229" lon="-0.19884">
        <ele>1909.8</ele>
        <time>2022-07-09T08:49:17.000Z</time>
      </trkpt>
      <trkpt lat="42.82291" lon="-0.19884">
        <ele>1910.1</ele>
        <time>2022-07-09T08:49:18.000Z</time>
      </trkpt>
      <trkpt lat="42.82296" lon="-0.19895">
        <ele>1911</ele>
        <time>2022-07-09T08:49:28.000Z</time>
      </trkpt>
      <trkpt lat="42.82301" lon="-0.19906">
        <ele>1912.9</ele>
        <time>2022-07-09T08:49:41.000Z</time>
      </trkpt>
      <trkpt lat="42.82302" lon="-0.1992">
        <ele>1915.2</ele>
        <time>2022-07-09T08:49:52.000Z</time>
      </trkpt>
      <trkpt lat="42.82307" lon="-0.19921">
        <ele>1917.1</ele>
        <time>2022-07-09T08:50:07.000Z</time>
      </trkpt>
      <trkpt lat="42.82306" lon="-0.19921">
        <ele>1916.9</ele>
        <time>2022-07-09T08:50:10.000Z</time>
      </trkpt>
      <trkpt lat="42.82306" lon="-0.19921">
        <ele>1917.1</ele>
        <time>2022-07-09T08:50:13.000Z</time>
      </trkpt>
      <trkpt lat="42.82305" lon="-0.19921">
        <ele>1916.7</ele>
        <time>2022-07-09T08:50:44.000Z</time>
      </trkpt>
      <trkpt lat="42.82313" lon="-0.19928">
        <ele>1916.4</ele>
        <time>2022-07-09T08:50:57.000Z</time>
      </trkpt>
      <trkpt lat="42.82323" lon="-0.19931">
        <ele>1917.8</ele>
        <time>2022-07-09T08:51:11.000Z</time>
      </trkpt>
      <trkpt lat="42.82331" lon="-0.19935">
        <ele>1920.4</ele>
        <time>2022-07-09T08:51:22.000Z</time>
      </trkpt>
      <trkpt lat="42.8234" lon="-0.19939">
        <ele>1922.4</ele>
        <time>2022-07-09T08:51:31.000Z</time>
      </trkpt>
      <trkpt lat="42.8235" lon="-0.19942">
        <ele>1924.8</ele>
        <time>2022-07-09T08:51:47.000Z</time>
      </trkpt>
      <trkpt lat="42.82359" lon="-0.19943">
        <ele>1927.1</ele>
        <time>2022-07-09T08:52:00.000Z</time>
      </trkpt>
      <trkpt lat="42.82369" lon="-0.19947">
        <ele>1929.1</ele>
        <time>2022-07-09T08:52:10.000Z</time>
      </trkpt>
      <trkpt lat="42.82378" lon="-0.19948">
        <ele>1930.4</ele>
        <time>2022-07-09T08:52:19.000Z</time>
      </trkpt>
      <trkpt lat="42.82388" lon="-0.19951">
        <ele>1932.1</ele>
        <time>2022-07-09T08:52:28.000Z</time>
      </trkpt>
      <trkpt lat="42.8239" lon="-0.19939">
        <ele>1934.9</ele>
        <time>2022-07-09T08:52:45.000Z</time>
      </trkpt>
      <trkpt lat="42.82386" lon="-0.19927">
        <ele>1936.2</ele>
        <time>2022-07-09T08:52:59.000Z</time>
      </trkpt>
      <trkpt lat="42.8238" lon="-0.19916">
        <ele>1938.2</ele>
        <time>2022-07-09T08:53:10.000Z</time>
      </trkpt>
      <trkpt lat="42.82389" lon="-0.1991">
        <ele>1945</ele>
        <time>2022-07-09T08:53:45.000Z</time>
      </trkpt>
      <trkpt lat="42.82399" lon="-0.19913">
        <ele>1951.5</ele>
        <time>2022-07-09T08:54:14.000Z</time>
      </trkpt>
      <trkpt lat="42.82408" lon="-0.19913">
        <ele>1953.7</ele>
        <time>2022-07-09T08:54:26.000Z</time>
      </trkpt>
      <trkpt lat="42.82418" lon="-0.19913">
        <ele>1955</ele>
        <time>2022-07-09T08:54:36.000Z</time>
      </trkpt>
      <trkpt lat="42.82426" lon="-0.19918">
        <ele>1956.5</ele>
        <time>2022-07-09T08:54:48.000Z</time>
      </trkpt>
      <trkpt lat="42.82435" lon="-0.19922">
        <ele>1957.7</ele>
        <time>2022-07-09T08:54:56.000Z</time>
      </trkpt>
      <trkpt lat="42.82442" lon="-0.19929">
        <ele>1959.2</ele>
        <time>2022-07-09T08:55:07.000Z</time>
      </trkpt>
      <trkpt lat="42.8245" lon="-0.19937">
        <ele>1961.2</ele>
        <time>2022-07-09T08:55:18.000Z</time>
      </trkpt>
      <trkpt lat="42.82459" lon="-0.19941">
        <ele>1963.1</ele>
        <time>2022-07-09T08:55:28.000Z</time>
      </trkpt>
      <trkpt lat="42.82466" lon="-0.19948">
        <ele>1963.7</ele>
        <time>2022-07-09T08:55:38.000Z</time>
      </trkpt>
      <trkpt lat="42.82473" lon="-0.19957">
        <ele>1965.9</ele>
        <time>2022-07-09T08:55:49.000Z</time>
      </trkpt>
      <trkpt lat="42.82481" lon="-0.19961">
        <ele>1967.6</ele>
        <time>2022-07-09T08:56:00.000Z</time>
      </trkpt>
      <trkpt lat="42.82491" lon="-0.19964">
        <ele>1969.4</ele>
        <time>2022-07-09T08:56:13.000Z</time>
      </trkpt>
      <trkpt lat="42.82497" lon="-0.19973">
        <ele>1971.1</ele>
        <time>2022-07-09T08:56:25.000Z</time>
      </trkpt>
      <trkpt lat="42.82497" lon="-0.19973">
        <ele>1972.3</ele>
        <time>2022-07-09T08:56:33.000Z</time>
      </trkpt>
      <trkpt lat="42.82497" lon="-0.19974">
        <ele>1972.1</ele>
        <time>2022-07-09T08:56:34.000Z</time>
      </trkpt>
      <trkpt lat="42.82498" lon="-0.19973">
        <ele>1972.4</ele>
        <time>2022-07-09T08:56:36.000Z</time>
      </trkpt>
      <trkpt lat="42.82498" lon="-0.19974">
        <ele>1972.5</ele>
        <time>2022-07-09T08:56:37.000Z</time>
      </trkpt>
      <trkpt lat="42.82507" lon="-0.1998">
        <ele>1973.2</ele>
        <time>2022-07-09T08:56:47.000Z</time>
      </trkpt>
      <trkpt lat="42.82512" lon="-0.19991">
        <ele>1974.5</ele>
        <time>2022-07-09T08:56:59.000Z</time>
      </trkpt>
      <trkpt lat="42.82518" lon="-0.20001">
        <ele>1975.7</ele>
        <time>2022-07-09T08:57:11.000Z</time>
      </trkpt>
      <trkpt lat="42.82526" lon="-0.20009">
        <ele>1976.7</ele>
        <time>2022-07-09T08:57:23.000Z</time>
      </trkpt>
      <trkpt lat="42.82533" lon="-0.20017">
        <ele>1978.8</ele>
        <time>2022-07-09T08:57:35.000Z</time>
      </trkpt>
      <trkpt lat="42.82538" lon="-0.20027">
        <ele>1980.4</ele>
        <time>2022-07-09T08:57:45.000Z</time>
      </trkpt>
      <trkpt lat="42.82543" lon="-0.20034">
        <ele>1982.4</ele>
        <time>2022-07-09T08:57:57.000Z</time>
      </trkpt>
      <trkpt lat="42.82543" lon="-0.20034">
        <ele>1982.4</ele>
        <time>2022-07-09T08:57:58.000Z</time>
      </trkpt>
      <trkpt lat="42.82553" lon="-0.20034">
        <ele>1984.2</ele>
        <time>2022-07-09T08:58:10.000Z</time>
      </trkpt>
      <trkpt lat="42.82562" lon="-0.20037">
        <ele>1985.3</ele>
        <time>2022-07-09T08:58:19.000Z</time>
      </trkpt>
      <trkpt lat="42.8257" lon="-0.20038">
        <ele>1986.9</ele>
        <time>2022-07-09T08:58:31.000Z</time>
      </trkpt>
      <trkpt lat="42.8257" lon="-0.20039">
        <ele>1987.1</ele>
        <time>2022-07-09T08:58:33.000Z</time>
      </trkpt>
      <trkpt lat="42.82573" lon="-0.20051">
        <ele>1987.8</ele>
        <time>2022-07-09T08:58:44.000Z</time>
      </trkpt>
      <trkpt lat="42.82578" lon="-0.20061">
        <ele>1988.9</ele>
        <time>2022-07-09T08:58:55.000Z</time>
      </trkpt>
      <trkpt lat="42.8258" lon="-0.20074">
        <ele>1990.3</ele>
        <time>2022-07-09T08:59:06.000Z</time>
      </trkpt>
      <trkpt lat="42.82582" lon="-0.20086">
        <ele>1991.7</ele>
        <time>2022-07-09T08:59:20.000Z</time>
      </trkpt>
      <trkpt lat="42.82581" lon="-0.20097">
        <ele>1992.5</ele>
        <time>2022-07-09T08:59:35.000Z</time>
      </trkpt>
      <trkpt lat="42.8258" lon="-0.20097">
        <ele>1993</ele>
        <time>2022-07-09T08:59:47.000Z</time>
      </trkpt>
      <trkpt lat="42.82587" lon="-0.20107">
        <ele>1994.4</ele>
        <time>2022-07-09T09:00:07.000Z</time>
      </trkpt>
      <trkpt lat="42.8259" lon="-0.20117">
        <ele>1995.5</ele>
        <time>2022-07-09T09:00:21.000Z</time>
      </trkpt>
      <trkpt lat="42.8259" lon="-0.20117">
        <ele>1996</ele>
        <time>2022-07-09T09:00:27.000Z</time>
      </trkpt>
      <trkpt lat="42.82592" lon="-0.20121">
        <ele>1995.4</ele>
        <time>2022-07-09T09:00:34.000Z</time>
      </trkpt>
      <trkpt lat="42.82592" lon="-0.20121">
        <ele>1995.5</ele>
        <time>2022-07-09T09:00:35.000Z</time>
      </trkpt>
      <trkpt lat="42.82593" lon="-0.20122">
        <ele>1995</ele>
        <time>2022-07-09T09:00:40.000Z</time>
      </trkpt>
      <trkpt lat="42.82593" lon="-0.20123">
        <ele>1995</ele>
        <time>2022-07-09T09:00:41.000Z</time>
      </trkpt>
      <trkpt lat="42.826" lon="-0.20132">
        <ele>1996.1</ele>
        <time>2022-07-09T09:00:55.000Z</time>
      </trkpt>
      <trkpt lat="42.826" lon="-0.20132">
        <ele>1995.9</ele>
        <time>2022-07-09T09:00:58.000Z</time>
      </trkpt>
      <trkpt lat="42.826" lon="-0.20132">
        <ele>1996</ele>
        <time>2022-07-09T09:00:59.000Z</time>
      </trkpt>
      <trkpt lat="42.82603" lon="-0.20133">
        <ele>1995.8</ele>
        <time>2022-07-09T09:01:07.000Z</time>
      </trkpt>
      <trkpt lat="42.82603" lon="-0.20133">
        <ele>1995.9</ele>
        <time>2022-07-09T09:01:12.000Z</time>
      </trkpt>
      <trkpt lat="42.82604" lon="-0.20134">
        <ele>1995.9</ele>
        <time>2022-07-09T09:01:15.000Z</time>
      </trkpt>
      <trkpt lat="42.82604" lon="-0.20134">
        <ele>1995.7</ele>
        <time>2022-07-09T09:01:16.000Z</time>
      </trkpt>
      <trkpt lat="42.82605" lon="-0.20135">
        <ele>1996.1</ele>
        <time>2022-07-09T09:01:21.000Z</time>
      </trkpt>
      <trkpt lat="42.82606" lon="-0.20135">
        <ele>1996</ele>
        <time>2022-07-09T09:01:22.000Z</time>
      </trkpt>
      <trkpt lat="42.82607" lon="-0.20137">
        <ele>1996.1</ele>
        <time>2022-07-09T09:01:31.000Z</time>
      </trkpt>
      <trkpt lat="42.82607" lon="-0.20137">
        <ele>1996</ele>
        <time>2022-07-09T09:01:34.000Z</time>
      </trkpt>
      <trkpt lat="42.82607" lon="-0.20137">
        <ele>1995.8</ele>
        <time>2022-07-09T09:01:35.000Z</time>
      </trkpt>
      <trkpt lat="42.82608" lon="-0.20137">
        <ele>1996.4</ele>
        <time>2022-07-09T09:01:46.000Z</time>
      </trkpt>
      <trkpt lat="42.82617" lon="-0.20141">
        <ele>1996.9</ele>
        <time>2022-07-09T09:01:56.000Z</time>
      </trkpt>
      <trkpt lat="42.82626" lon="-0.20141">
        <ele>1998</ele>
        <time>2022-07-09T09:02:06.000Z</time>
      </trkpt>
      <trkpt lat="42.82634" lon="-0.20134">
        <ele>1999.9</ele>
        <time>2022-07-09T09:02:19.000Z</time>
      </trkpt>
      <trkpt lat="42.82641" lon="-0.20126">
        <ele>2001.5</ele>
        <time>2022-07-09T09:02:31.000Z</time>
      </trkpt>
      <trkpt lat="42.82642" lon="-0.20117">
        <ele>2002.6</ele>
        <time>2022-07-09T09:02:41.000Z</time>
      </trkpt>
      <trkpt lat="42.82642" lon="-0.20117">
        <ele>2003</ele>
        <time>2022-07-09T09:02:44.000Z</time>
      </trkpt>
      <trkpt lat="42.82643" lon="-0.20104">
        <ele>2004.2</ele>
        <time>2022-07-09T09:02:53.000Z</time>
      </trkpt>
      <trkpt lat="42.82644" lon="-0.20091">
        <ele>2005</ele>
        <time>2022-07-09T09:03:01.000Z</time>
      </trkpt>
      <trkpt lat="42.82646" lon="-0.20082">
        <ele>2005.8</ele>
        <time>2022-07-09T09:03:11.000Z</time>
      </trkpt>
      <trkpt lat="42.82646" lon="-0.20082">
        <ele>2006.1</ele>
        <time>2022-07-09T09:03:13.000Z</time>
      </trkpt>
      <trkpt lat="42.82649" lon="-0.20075">
        <ele>2005.9</ele>
        <time>2022-07-09T09:03:23.000Z</time>
      </trkpt>
      <trkpt lat="42.82649" lon="-0.20074">
        <ele>2006.5</ele>
        <time>2022-07-09T09:03:25.000Z</time>
      </trkpt>
      <trkpt lat="42.82654" lon="-0.20063">
        <ele>2007.7</ele>
        <time>2022-07-09T09:03:34.000Z</time>
      </trkpt>
      <trkpt lat="42.82659" lon="-0.20052">
        <ele>2008.5</ele>
        <time>2022-07-09T09:03:42.000Z</time>
      </trkpt>
      <trkpt lat="42.82661" lon="-0.20039">
        <ele>2009.1</ele>
        <time>2022-07-09T09:03:52.000Z</time>
      </trkpt>
      <trkpt lat="42.82662" lon="-0.20026">
        <ele>2010.1</ele>
        <time>2022-07-09T09:04:02.000Z</time>
      </trkpt>
      <trkpt lat="42.82662" lon="-0.20027">
        <ele>2010.3</ele>
        <time>2022-07-09T09:04:04.000Z</time>
      </trkpt>
      <trkpt lat="42.82662" lon="-0.20026">
        <ele>2010.5</ele>
        <time>2022-07-09T09:04:05.000Z</time>
      </trkpt>
      <trkpt lat="42.82662" lon="-0.20013">
        <ele>2011.6</ele>
        <time>2022-07-09T09:04:14.000Z</time>
      </trkpt>
      <trkpt lat="42.82661" lon="-0.2">
        <ele>2012.9</ele>
        <time>2022-07-09T09:04:23.000Z</time>
      </trkpt>
      <trkpt lat="42.82661" lon="-0.20001">
        <ele>2013</ele>
        <time>2022-07-09T09:04:25.000Z</time>
      </trkpt>
      <trkpt lat="42.82661" lon="-0.2">
        <ele>2013.5</ele>
        <time>2022-07-09T09:04:26.000Z</time>
      </trkpt>
      <trkpt lat="42.82663" lon="-0.19988">
        <ele>2014.9</ele>
        <time>2022-07-09T09:04:35.000Z</time>
      </trkpt>
      <trkpt lat="42.82664" lon="-0.19976">
        <ele>2017</ele>
        <time>2022-07-09T09:04:46.000Z</time>
      </trkpt>
      <trkpt lat="42.82664" lon="-0.19976">
        <ele>2017.4</ele>
        <time>2022-07-09T09:04:48.000Z</time>
      </trkpt>
      <trkpt lat="42.82664" lon="-0.19975">
        <ele>2017.8</ele>
        <time>2022-07-09T09:04:52.000Z</time>
      </trkpt>
      <trkpt lat="42.82664" lon="-0.19975">
        <ele>2017.7</ele>
        <time>2022-07-09T09:04:54.000Z</time>
      </trkpt>
      <trkpt lat="42.82664" lon="-0.19974">
        <ele>2018.1</ele>
        <time>2022-07-09T09:04:57.000Z</time>
      </trkpt>
      <trkpt lat="42.82664" lon="-0.19974">
        <ele>2018.1</ele>
        <time>2022-07-09T09:04:58.000Z</time>
      </trkpt>
      <trkpt lat="42.82664" lon="-0.19974">
        <ele>2018.3</ele>
        <time>2022-07-09T09:05:01.000Z</time>
      </trkpt>
      <trkpt lat="42.82673" lon="-0.19979">
        <ele>2019.3</ele>
        <time>2022-07-09T09:05:16.000Z</time>
      </trkpt>
      <trkpt lat="42.82681" lon="-0.19985">
        <ele>2020.5</ele>
        <time>2022-07-09T09:05:27.000Z</time>
      </trkpt>
      <trkpt lat="42.82689" lon="-0.19991">
        <ele>2023.1</ele>
        <time>2022-07-09T09:05:41.000Z</time>
      </trkpt>
      <trkpt lat="42.82697" lon="-0.19997">
        <ele>2025.4</ele>
        <time>2022-07-09T09:05:53.000Z</time>
      </trkpt>
      <trkpt lat="42.82705" lon="-0.20003">
        <ele>2027.4</ele>
        <time>2022-07-09T09:06:06.000Z</time>
      </trkpt>
      <trkpt lat="42.82713" lon="-0.20009">
        <ele>2029.1</ele>
        <time>2022-07-09T09:06:16.000Z</time>
      </trkpt>
      <trkpt lat="42.82721" lon="-0.20015">
        <ele>2030.8</ele>
        <time>2022-07-09T09:06:28.000Z</time>
      </trkpt>
      <trkpt lat="42.82729" lon="-0.20022">
        <ele>2032.1</ele>
        <time>2022-07-09T09:06:37.000Z</time>
      </trkpt>
      <trkpt lat="42.82736" lon="-0.2003">
        <ele>2033.8</ele>
        <time>2022-07-09T09:06:50.000Z</time>
      </trkpt>
      <trkpt lat="42.82744" lon="-0.20036">
        <ele>2036.4</ele>
        <time>2022-07-09T09:07:05.000Z</time>
      </trkpt>
      <trkpt lat="42.82746" lon="-0.20034">
        <ele>2039.9</ele>
        <time>2022-07-09T09:07:30.000Z</time>
      </trkpt>
      <trkpt lat="42.82746" lon="-0.20034">
        <ele>2040.3</ele>
        <time>2022-07-09T09:07:34.000Z</time>
      </trkpt>
      <trkpt lat="42.82746" lon="-0.20034">
        <ele>2040.4</ele>
        <time>2022-07-09T09:07:35.000Z</time>
      </trkpt>
      <trkpt lat="42.82745" lon="-0.20033">
        <ele>2040.2</ele>
        <time>2022-07-09T09:07:39.000Z</time>
      </trkpt>
      <trkpt lat="42.82742" lon="-0.20022">
        <ele>2041.8</ele>
        <time>2022-07-09T09:07:51.000Z</time>
      </trkpt>
      <trkpt lat="42.82738" lon="-0.2001">
        <ele>2043.1</ele>
        <time>2022-07-09T09:08:02.000Z</time>
      </trkpt>
      <trkpt lat="42.82736" lon="-0.20001">
        <ele>2047</ele>
        <time>2022-07-09T09:08:21.000Z</time>
      </trkpt>
      <trkpt lat="42.82737" lon="-0.2">
        <ele>2047.2</ele>
        <time>2022-07-09T09:08:22.000Z</time>
      </trkpt>
      <trkpt lat="42.82745" lon="-0.20005">
        <ele>2049.8</ele>
        <time>2022-07-09T09:08:34.000Z</time>
      </trkpt>
      <trkpt lat="42.82754" lon="-0.20009">
        <ele>2052.6</ele>
        <time>2022-07-09T09:08:46.000Z</time>
      </trkpt>
      <trkpt lat="42.82762" lon="-0.20015">
        <ele>2054.3</ele>
        <time>2022-07-09T09:08:57.000Z</time>
      </trkpt>
      <trkpt lat="42.82769" lon="-0.20019">
        <ele>2056.5</ele>
        <time>2022-07-09T09:09:10.000Z</time>
      </trkpt>
      <trkpt lat="42.82769" lon="-0.2002">
        <ele>2056.8</ele>
        <time>2022-07-09T09:09:12.000Z</time>
      </trkpt>
      <trkpt lat="42.82766" lon="-0.20008">
        <ele>2060.8</ele>
        <time>2022-07-09T09:09:37.000Z</time>
      </trkpt>
      <trkpt lat="42.82762" lon="-0.19997">
        <ele>2061.5</ele>
        <time>2022-07-09T09:09:48.000Z</time>
      </trkpt>
      <trkpt lat="42.8277" lon="-0.20003">
        <ele>2063.7</ele>
        <time>2022-07-09T09:10:06.000Z</time>
      </trkpt>
      <trkpt lat="42.82779" lon="-0.20008">
        <ele>2066.8</ele>
        <time>2022-07-09T09:10:23.000Z</time>
      </trkpt>
      <trkpt lat="42.82788" lon="-0.20011">
        <ele>2068.1</ele>
        <time>2022-07-09T09:10:31.000Z</time>
      </trkpt>
      <trkpt lat="42.8279" lon="-0.20011">
        <ele>2067.3</ele>
        <time>2022-07-09T09:10:36.000Z</time>
      </trkpt>
      <trkpt lat="42.8279" lon="-0.20012">
        <ele>2067.3</ele>
        <time>2022-07-09T09:10:37.000Z</time>
      </trkpt>
      <trkpt lat="42.82799" lon="-0.20013">
        <ele>2069</ele>
        <time>2022-07-09T09:10:52.000Z</time>
      </trkpt>
      <trkpt lat="42.82808" lon="-0.20019">
        <ele>2070</ele>
        <time>2022-07-09T09:11:04.000Z</time>
      </trkpt>
      <trkpt lat="42.82814" lon="-0.20028">
        <ele>2073.1</ele>
        <time>2022-07-09T09:11:17.000Z</time>
      </trkpt>
      <trkpt lat="42.82821" lon="-0.20035">
        <ele>2074.7</ele>
        <time>2022-07-09T09:11:30.000Z</time>
      </trkpt>
      <trkpt lat="42.82821" lon="-0.20035">
        <ele>2075.1</ele>
        <time>2022-07-09T09:11:31.000Z</time>
      </trkpt>
      <trkpt lat="42.82822" lon="-0.20035">
        <ele>2075.3</ele>
        <time>2022-07-09T09:11:35.000Z</time>
      </trkpt>
      <trkpt lat="42.82822" lon="-0.20035">
        <ele>2075.6</ele>
        <time>2022-07-09T09:11:36.000Z</time>
      </trkpt>
      <trkpt lat="42.82832" lon="-0.20039">
        <ele>2077.8</ele>
        <time>2022-07-09T09:11:49.000Z</time>
      </trkpt>
      <trkpt lat="42.82838" lon="-0.20042">
        <ele>2078.6</ele>
        <time>2022-07-09T09:12:01.000Z</time>
      </trkpt>
      <trkpt lat="42.82838" lon="-0.20042">
        <ele>2078.7</ele>
        <time>2022-07-09T09:12:06.000Z</time>
      </trkpt>
      <trkpt lat="42.82838" lon="-0.20042">
        <ele>2078.8</ele>
        <time>2022-07-09T09:12:08.000Z</time>
      </trkpt>
      <trkpt lat="42.82838" lon="-0.20042">
        <ele>2079.2</ele>
        <time>2022-07-09T09:12:09.000Z</time>
      </trkpt>
      <trkpt lat="42.82847" lon="-0.20047">
        <ele>2079.6</ele>
        <time>2022-07-09T09:12:21.000Z</time>
      </trkpt>
      <trkpt lat="42.82856" lon="-0.20047">
        <ele>2081.3</ele>
        <time>2022-07-09T09:12:33.000Z</time>
      </trkpt>
      <trkpt lat="42.82866" lon="-0.20044">
        <ele>2082.5</ele>
        <time>2022-07-09T09:12:42.000Z</time>
      </trkpt>
      <trkpt lat="42.82875" lon="-0.20042">
        <ele>2083.6</ele>
        <time>2022-07-09T09:12:56.000Z</time>
      </trkpt>
      <trkpt lat="42.82878" lon="-0.20042">
        <ele>2084.3</ele>
        <time>2022-07-09T09:13:03.000Z</time>
      </trkpt>
      <trkpt lat="42.82879" lon="-0.20042">
        <ele>2084.4</ele>
        <time>2022-07-09T09:13:04.000Z</time>
      </trkpt>
      <trkpt lat="42.82884" lon="-0.20044">
        <ele>2085.1</ele>
        <time>2022-07-09T09:13:11.000Z</time>
      </trkpt>
      <trkpt lat="42.82885" lon="-0.20044">
        <ele>2085.2</ele>
        <time>2022-07-09T09:13:12.000Z</time>
      </trkpt>
      <trkpt lat="42.82894" lon="-0.20046">
        <ele>2086.4</ele>
        <time>2022-07-09T09:13:20.000Z</time>
      </trkpt>
      <trkpt lat="42.82903" lon="-0.20048">
        <ele>2089.7</ele>
        <time>2022-07-09T09:13:36.000Z</time>
      </trkpt>
      <trkpt lat="42.82902" lon="-0.20042">
        <ele>2091.2</ele>
        <time>2022-07-09T09:13:47.000Z</time>
      </trkpt>
      <trkpt lat="42.82902" lon="-0.20042">
        <ele>2091.9</ele>
        <time>2022-07-09T09:13:51.000Z</time>
      </trkpt>
      <trkpt lat="42.82901" lon="-0.20041">
        <ele>2092.4</ele>
        <time>2022-07-09T09:13:56.000Z</time>
      </trkpt>
      <trkpt lat="42.82901" lon="-0.2004">
        <ele>2092.5</ele>
        <time>2022-07-09T09:13:57.000Z</time>
      </trkpt>
      <trkpt lat="42.82895" lon="-0.2003">
        <ele>2093.1</ele>
        <time>2022-07-09T09:14:08.000Z</time>
      </trkpt>
      <trkpt lat="42.82902" lon="-0.20021">
        <ele>2096.3</ele>
        <time>2022-07-09T09:14:29.000Z</time>
      </trkpt>
      <trkpt lat="42.82908" lon="-0.20021">
        <ele>2097.6</ele>
        <time>2022-07-09T09:14:39.000Z</time>
      </trkpt>
      <trkpt lat="42.82908" lon="-0.20021">
        <ele>2097.9</ele>
        <time>2022-07-09T09:14:40.000Z</time>
      </trkpt>
      <trkpt lat="42.82917" lon="-0.20022">
        <ele>2099.8</ele>
        <time>2022-07-09T09:14:56.000Z</time>
      </trkpt>
      <trkpt lat="42.82922" lon="-0.20025">
        <ele>2100.7</ele>
        <time>2022-07-09T09:15:05.000Z</time>
      </trkpt>
      <trkpt lat="42.82922" lon="-0.20025">
        <ele>2100.9</ele>
        <time>2022-07-09T09:15:07.000Z</time>
      </trkpt>
      <trkpt lat="42.82931" lon="-0.20027">
        <ele>2102.2</ele>
        <time>2022-07-09T09:15:18.000Z</time>
      </trkpt>
      <trkpt lat="42.82939" lon="-0.20033">
        <ele>2103.8</ele>
        <time>2022-07-09T09:15:30.000Z</time>
      </trkpt>
      <trkpt lat="42.82947" lon="-0.20039">
        <ele>2105</ele>
        <time>2022-07-09T09:15:42.000Z</time>
      </trkpt>
      <trkpt lat="42.8295" lon="-0.20042">
        <ele>2106</ele>
        <time>2022-07-09T09:15:49.000Z</time>
      </trkpt>
      <trkpt lat="42.82951" lon="-0.20043">
        <ele>2106.3</ele>
        <time>2022-07-09T09:15:50.000Z</time>
      </trkpt>
      <trkpt lat="42.82957" lon="-0.20052">
        <ele>2108</ele>
        <time>2022-07-09T09:16:03.000Z</time>
      </trkpt>
      <trkpt lat="42.82958" lon="-0.20064">
        <ele>2109.8</ele>
        <time>2022-07-09T09:16:20.000Z</time>
      </trkpt>
      <trkpt lat="42.82955" lon="-0.20076">
        <ele>2111.1</ele>
        <time>2022-07-09T09:16:32.000Z</time>
      </trkpt>
      <trkpt lat="42.82959" lon="-0.20088">
        <ele>2112.8</ele>
        <time>2022-07-09T09:16:45.000Z</time>
      </trkpt>
      <trkpt lat="42.82961" lon="-0.20088">
        <ele>2113.2</ele>
        <time>2022-07-09T09:16:49.000Z</time>
      </trkpt>
      <trkpt lat="42.82961" lon="-0.20087">
        <ele>2113.3</ele>
        <time>2022-07-09T09:16:50.000Z</time>
      </trkpt>
      <trkpt lat="42.8297" lon="-0.20088">
        <ele>2114.6</ele>
        <time>2022-07-09T09:17:04.000Z</time>
      </trkpt>
      <trkpt lat="42.8298" lon="-0.20086">
        <ele>2116.3</ele>
        <time>2022-07-09T09:17:16.000Z</time>
      </trkpt>
      <trkpt lat="42.82984" lon="-0.20098">
        <ele>2117.8</ele>
        <time>2022-07-09T09:17:30.000Z</time>
      </trkpt>
      <trkpt lat="42.82988" lon="-0.20109">
        <ele>2119.4</ele>
        <time>2022-07-09T09:17:41.000Z</time>
      </trkpt>
      <trkpt lat="42.82998" lon="-0.20108">
        <ele>2120.8</ele>
        <time>2022-07-09T09:17:53.000Z</time>
      </trkpt>
      <trkpt lat="42.83007" lon="-0.20105">
        <ele>2121.5</ele>
        <time>2022-07-09T09:18:02.000Z</time>
      </trkpt>
      <trkpt lat="42.83016" lon="-0.20102">
        <ele>2123</ele>
        <time>2022-07-09T09:18:15.000Z</time>
      </trkpt>
      <trkpt lat="42.83025" lon="-0.20097">
        <ele>2124.4</ele>
        <time>2022-07-09T09:18:29.000Z</time>
      </trkpt>
      <trkpt lat="42.83034" lon="-0.20095">
        <ele>2125.7</ele>
        <time>2022-07-09T09:18:39.000Z</time>
      </trkpt>
      <trkpt lat="42.83044" lon="-0.20094">
        <ele>2126.2</ele>
        <time>2022-07-09T09:18:49.000Z</time>
      </trkpt>
      <trkpt lat="42.83054" lon="-0.20093">
        <ele>2126.4</ele>
        <time>2022-07-09T09:18:57.000Z</time>
      </trkpt>
      <trkpt lat="42.83063" lon="-0.2009">
        <ele>2127.2</ele>
        <time>2022-07-09T09:19:08.000Z</time>
      </trkpt>
      <trkpt lat="42.83073" lon="-0.20089">
        <ele>2128.2</ele>
        <time>2022-07-09T09:19:19.000Z</time>
      </trkpt>
      <trkpt lat="42.83082" lon="-0.20086">
        <ele>2129.8</ele>
        <time>2022-07-09T09:19:32.000Z</time>
      </trkpt>
      <trkpt lat="42.83092" lon="-0.20083">
        <ele>2130.1</ele>
        <time>2022-07-09T09:19:41.000Z</time>
      </trkpt>
      <trkpt lat="42.831" lon="-0.2008">
        <ele>2130.1</ele>
        <time>2022-07-09T09:19:49.000Z</time>
      </trkpt>
      <trkpt lat="42.83109" lon="-0.20077">
        <ele>2130.4</ele>
        <time>2022-07-09T09:19:59.000Z</time>
      </trkpt>
      <trkpt lat="42.83119" lon="-0.20074">
        <ele>2130.8</ele>
        <time>2022-07-09T09:20:08.000Z</time>
      </trkpt>
      <trkpt lat="42.83128" lon="-0.20075">
        <ele>2132.2</ele>
        <time>2022-07-09T09:20:21.000Z</time>
      </trkpt>
      <trkpt lat="42.83137" lon="-0.20073">
        <ele>2133.7</ele>
        <time>2022-07-09T09:20:33.000Z</time>
      </trkpt>
      <trkpt lat="42.83146" lon="-0.20072">
        <ele>2134.4</ele>
        <time>2022-07-09T09:20:44.000Z</time>
      </trkpt>
      <trkpt lat="42.83156" lon="-0.20074">
        <ele>2136</ele>
        <time>2022-07-09T09:20:56.000Z</time>
      </trkpt>
      <trkpt lat="42.83162" lon="-0.20083">
        <ele>2137.1</ele>
        <time>2022-07-09T09:21:08.000Z</time>
      </trkpt>
      <trkpt lat="42.83169" lon="-0.20092">
        <ele>2136.4</ele>
        <time>2022-07-09T09:21:20.000Z</time>
      </trkpt>
      <trkpt lat="42.83176" lon="-0.20101">
        <ele>2139.2</ele>
        <time>2022-07-09T09:21:30.000Z</time>
      </trkpt>
      <trkpt lat="42.83181" lon="-0.20112">
        <ele>2139.9</ele>
        <time>2022-07-09T09:21:41.000Z</time>
      </trkpt>
      <trkpt lat="42.83189" lon="-0.20118">
        <ele>2141.1</ele>
        <time>2022-07-09T09:21:50.000Z</time>
      </trkpt>
      <trkpt lat="42.83195" lon="-0.20127">
        <ele>2142.4</ele>
        <time>2022-07-09T09:22:05.000Z</time>
      </trkpt>
      <trkpt lat="42.83196" lon="-0.20128">
        <ele>2143.1</ele>
        <time>2022-07-09T09:22:09.000Z</time>
      </trkpt>
      <trkpt lat="42.83196" lon="-0.20128">
        <ele>2143.2</ele>
        <time>2022-07-09T09:22:10.000Z</time>
      </trkpt>
      <trkpt lat="42.83201" lon="-0.20137">
        <ele>2145.3</ele>
        <time>2022-07-09T09:22:23.000Z</time>
      </trkpt>
      <trkpt lat="42.83201" lon="-0.20137">
        <ele>2145.4</ele>
        <time>2022-07-09T09:22:24.000Z</time>
      </trkpt>
      <trkpt lat="42.83206" lon="-0.20148">
        <ele>2147.2</ele>
        <time>2022-07-09T09:22:37.000Z</time>
      </trkpt>
      <trkpt lat="42.83197" lon="-0.2015">
        <ele>2149.4</ele>
        <time>2022-07-09T09:22:54.000Z</time>
      </trkpt>
      <trkpt lat="42.83189" lon="-0.20155">
        <ele>2150.7</ele>
        <time>2022-07-09T09:23:05.000Z</time>
      </trkpt>
      <trkpt lat="42.83183" lon="-0.20166">
        <ele>2152.4</ele>
        <time>2022-07-09T09:23:18.000Z</time>
      </trkpt>
      <trkpt lat="42.83178" lon="-0.20177">
        <ele>2154.3</ele>
        <time>2022-07-09T09:23:29.000Z</time>
      </trkpt>
      <trkpt lat="42.83178" lon="-0.20191">
        <ele>2156.5</ele>
        <time>2022-07-09T09:23:40.000Z</time>
      </trkpt>
      <trkpt lat="42.83176" lon="-0.20204">
        <ele>2157.7</ele>
        <time>2022-07-09T09:23:54.000Z</time>
      </trkpt>
      <trkpt lat="42.83175" lon="-0.20216">
        <ele>2158.3</ele>
        <time>2022-07-09T09:24:04.000Z</time>
      </trkpt>
      <trkpt lat="42.83181" lon="-0.20225">
        <ele>2159.2</ele>
        <time>2022-07-09T09:24:17.000Z</time>
      </trkpt>
      <trkpt lat="42.83189" lon="-0.20232">
        <ele>2160.8</ele>
        <time>2022-07-09T09:24:28.000Z</time>
      </trkpt>
      <trkpt lat="42.83196" lon="-0.20239">
        <ele>2163.3</ele>
        <time>2022-07-09T09:24:43.000Z</time>
      </trkpt>
      <trkpt lat="42.83196" lon="-0.20239">
        <ele>2163.6</ele>
        <time>2022-07-09T09:24:45.000Z</time>
      </trkpt>
      <trkpt lat="42.83198" lon="-0.20252">
        <ele>2166</ele>
        <time>2022-07-09T09:25:01.000Z</time>
      </trkpt>
      <trkpt lat="42.83206" lon="-0.20257">
        <ele>2167.1</ele>
        <time>2022-07-09T09:25:14.000Z</time>
      </trkpt>
      <trkpt lat="42.83208" lon="-0.20256">
        <ele>2167.2</ele>
        <time>2022-07-09T09:25:18.000Z</time>
      </trkpt>
      <trkpt lat="42.83208" lon="-0.20256">
        <ele>2167.1</ele>
        <time>2022-07-09T09:25:20.000Z</time>
      </trkpt>
      <trkpt lat="42.83214" lon="-0.20246">
        <ele>2167.6</ele>
        <time>2022-07-09T09:25:30.000Z</time>
      </trkpt>
      <trkpt lat="42.83223" lon="-0.20242">
        <ele>2169.8</ele>
        <time>2022-07-09T09:25:45.000Z</time>
      </trkpt>
      <trkpt lat="42.83224" lon="-0.20254">
        <ele>2172.6</ele>
        <time>2022-07-09T09:26:01.000Z</time>
      </trkpt>
      <trkpt lat="42.83224" lon="-0.20257">
        <ele>2173.3</ele>
        <time>2022-07-09T09:26:07.000Z</time>
      </trkpt>
      <trkpt lat="42.83224" lon="-0.20257">
        <ele>2173.6</ele>
        <time>2022-07-09T09:26:09.000Z</time>
      </trkpt>
      <trkpt lat="42.83224" lon="-0.20257">
        <ele>2173.6</ele>
        <time>2022-07-09T09:26:10.000Z</time>
      </trkpt>
      <trkpt lat="42.83225" lon="-0.20257">
        <ele>2173.9</ele>
        <time>2022-07-09T09:26:12.000Z</time>
      </trkpt>
      <trkpt lat="42.83225" lon="-0.2027">
        <ele>2175.1</ele>
        <time>2022-07-09T09:26:27.000Z</time>
      </trkpt>
      <trkpt lat="42.83223" lon="-0.20282">
        <ele>2176.4</ele>
        <time>2022-07-09T09:26:38.000Z</time>
      </trkpt>
      <trkpt lat="42.83226" lon="-0.20294">
        <ele>2180.4</ele>
        <time>2022-07-09T09:27:02.000Z</time>
      </trkpt>
      <trkpt lat="42.83236" lon="-0.20294">
        <ele>2182.7</ele>
        <time>2022-07-09T09:27:15.000Z</time>
      </trkpt>
      <trkpt lat="42.83237" lon="-0.20294">
        <ele>2182.4</ele>
        <time>2022-07-09T09:27:17.000Z</time>
      </trkpt>
      <trkpt lat="42.83237" lon="-0.20294">
        <ele>2182.6</ele>
        <time>2022-07-09T09:27:18.000Z</time>
      </trkpt>
      <trkpt lat="42.83243" lon="-0.2029">
        <ele>2185</ele>
        <time>2022-07-09T09:27:31.000Z</time>
      </trkpt>
      <trkpt lat="42.83243" lon="-0.2029">
        <ele>2185.1</ele>
        <time>2022-07-09T09:27:32.000Z</time>
      </trkpt>
      <trkpt lat="42.83242" lon="-0.20295">
        <ele>2185.7</ele>
        <time>2022-07-09T09:27:40.000Z</time>
      </trkpt>
      <trkpt lat="42.83242" lon="-0.20295">
        <ele>2185.4</ele>
        <time>2022-07-09T09:27:41.000Z</time>
      </trkpt>
      <trkpt lat="42.83235" lon="-0.20303">
        <ele>2186.9</ele>
        <time>2022-07-09T09:27:56.000Z</time>
      </trkpt>
      <trkpt lat="42.83227" lon="-0.20308">
        <ele>2189</ele>
        <time>2022-07-09T09:28:11.000Z</time>
      </trkpt>
      <trkpt lat="42.83224" lon="-0.20308">
        <ele>2189.7</ele>
        <time>2022-07-09T09:28:17.000Z</time>
      </trkpt>
      <trkpt lat="42.83224" lon="-0.20308">
        <ele>2189.8</ele>
        <time>2022-07-09T09:28:18.000Z</time>
      </trkpt>
      <trkpt lat="42.83215" lon="-0.20314">
        <ele>2190.4</ele>
        <time>2022-07-09T09:28:29.000Z</time>
      </trkpt>
      <trkpt lat="42.83207" lon="-0.20321">
        <ele>2193.1</ele>
        <time>2022-07-09T09:28:41.000Z</time>
      </trkpt>
      <trkpt lat="42.83206" lon="-0.20325">
        <ele>2193.1</ele>
        <time>2022-07-09T09:28:45.000Z</time>
      </trkpt>
      <trkpt lat="42.83206" lon="-0.20326">
        <ele>2193.5</ele>
        <time>2022-07-09T09:28:48.000Z</time>
      </trkpt>
      <trkpt lat="42.83206" lon="-0.20327">
        <ele>2193</ele>
        <time>2022-07-09T09:28:51.000Z</time>
      </trkpt>
      <trkpt lat="42.83206" lon="-0.20327">
        <ele>2192.8</ele>
        <time>2022-07-09T09:28:52.000Z</time>
      </trkpt>
      <trkpt lat="42.83206" lon="-0.20327">
        <ele>2192.9</ele>
        <time>2022-07-09T09:28:53.000Z</time>
      </trkpt>
      <trkpt lat="42.83207" lon="-0.20327">
        <ele>2193</ele>
        <time>2022-07-09T09:28:55.000Z</time>
      </trkpt>
      <trkpt lat="42.83207" lon="-0.20327">
        <ele>2193.1</ele>
        <time>2022-07-09T09:28:56.000Z</time>
      </trkpt>
      <trkpt lat="42.83207" lon="-0.20327">
        <ele>2193.3</ele>
        <time>2022-07-09T09:28:58.000Z</time>
      </trkpt>
      <trkpt lat="42.83207" lon="-0.20327">
        <ele>2193.4</ele>
        <time>2022-07-09T09:28:59.000Z</time>
      </trkpt>
      <trkpt lat="42.83206" lon="-0.20328">
        <ele>2193.5</ele>
        <time>2022-07-09T09:29:24.000Z</time>
      </trkpt>
      <trkpt lat="42.83206" lon="-0.2033">
        <ele>2193.4</ele>
        <time>2022-07-09T09:29:29.000Z</time>
      </trkpt>
      <trkpt lat="42.83206" lon="-0.2033">
        <ele>2193.8</ele>
        <time>2022-07-09T09:29:39.000Z</time>
      </trkpt>
      <trkpt lat="42.83205" lon="-0.20343">
        <ele>2194.8</ele>
        <time>2022-07-09T09:29:50.000Z</time>
      </trkpt>
      <trkpt lat="42.8321" lon="-0.20354">
        <ele>2196.1</ele>
        <time>2022-07-09T09:30:01.000Z</time>
      </trkpt>
      <trkpt lat="42.83216" lon="-0.20356">
        <ele>2197.1</ele>
        <time>2022-07-09T09:30:10.000Z</time>
      </trkpt>
      <trkpt lat="42.83216" lon="-0.20355">
        <ele>2197.2</ele>
        <time>2022-07-09T09:30:11.000Z</time>
      </trkpt>
      <trkpt lat="42.83215" lon="-0.20355">
        <ele>2197.5</ele>
        <time>2022-07-09T09:30:14.000Z</time>
      </trkpt>
      <trkpt lat="42.83215" lon="-0.20355">
        <ele>2197.7</ele>
        <time>2022-07-09T09:30:15.000Z</time>
      </trkpt>
      <trkpt lat="42.83217" lon="-0.20355">
        <ele>2197.6</ele>
        <time>2022-07-09T09:30:23.000Z</time>
      </trkpt>
      <trkpt lat="42.83217" lon="-0.20355">
        <ele>2197.6</ele>
        <time>2022-07-09T09:30:24.000Z</time>
      </trkpt>
      <trkpt lat="42.83216" lon="-0.20355">
        <ele>2197.9</ele>
        <time>2022-07-09T09:30:27.000Z</time>
      </trkpt>
      <trkpt lat="42.83216" lon="-0.20355">
        <ele>2198</ele>
        <time>2022-07-09T09:30:28.000Z</time>
      </trkpt>
      <trkpt lat="42.83216" lon="-0.20355">
        <ele>2198.2</ele>
        <time>2022-07-09T09:30:29.000Z</time>
      </trkpt>
      <trkpt lat="42.83216" lon="-0.20354">
        <ele>2198.1</ele>
        <time>2022-07-09T09:30:45.000Z</time>
      </trkpt>
      <trkpt lat="42.83216" lon="-0.20354">
        <ele>2198.2</ele>
        <time>2022-07-09T09:30:46.000Z</time>
      </trkpt>
      <trkpt lat="42.83216" lon="-0.20354">
        <ele>2198.4</ele>
        <time>2022-07-09T09:31:02.000Z</time>
      </trkpt>
      <trkpt lat="42.83216" lon="-0.20354">
        <ele>2198.1</ele>
        <time>2022-07-09T09:31:04.000Z</time>
      </trkpt>
      <trkpt lat="42.83215" lon="-0.20354">
        <ele>2199.1</ele>
        <time>2022-07-09T09:31:30.000Z</time>
      </trkpt>
      <trkpt lat="42.83215" lon="-0.20354">
        <ele>2199.1</ele>
        <time>2022-07-09T09:31:31.000Z</time>
      </trkpt>
      <trkpt lat="42.83216" lon="-0.20354">
        <ele>2199</ele>
        <time>2022-07-09T09:31:32.000Z</time>
      </trkpt>
      <trkpt lat="42.83216" lon="-0.20354">
        <ele>2199.1</ele>
        <time>2022-07-09T09:31:33.000Z</time>
      </trkpt>
      <trkpt lat="42.83215" lon="-0.20353">
        <ele>2200.1</ele>
        <time>2022-07-09T09:31:54.000Z</time>
      </trkpt>
      <trkpt lat="42.83215" lon="-0.20353">
        <ele>2200.1</ele>
        <time>2022-07-09T09:31:55.000Z</time>
      </trkpt>
      <trkpt lat="42.83215" lon="-0.20353">
        <ele>2200.1</ele>
        <time>2022-07-09T09:31:56.000Z</time>
      </trkpt>
      <trkpt lat="42.83215" lon="-0.20353">
        <ele>2200</ele>
        <time>2022-07-09T09:31:57.000Z</time>
      </trkpt>
      <trkpt lat="42.83216" lon="-0.20354">
        <ele>2200.2</ele>
        <time>2022-07-09T09:32:00.000Z</time>
      </trkpt>
      <trkpt lat="42.83216" lon="-0.20354">
        <ele>2200.3</ele>
        <time>2022-07-09T09:32:02.000Z</time>
      </trkpt>
      <trkpt lat="42.83216" lon="-0.20354">
        <ele>2200.5</ele>
        <time>2022-07-09T09:32:04.000Z</time>
      </trkpt>
      <trkpt lat="42.83225" lon="-0.20358">
        <ele>2203.4</ele>
        <time>2022-07-09T09:32:23.000Z</time>
      </trkpt>
      <trkpt lat="42.83234" lon="-0.20359">
        <ele>2205.3</ele>
        <time>2022-07-09T09:32:31.000Z</time>
      </trkpt>
      <trkpt lat="42.83243" lon="-0.20362">
        <ele>2207.1</ele>
        <time>2022-07-09T09:32:41.000Z</time>
      </trkpt>
      <trkpt lat="42.83246" lon="-0.2036">
        <ele>2208</ele>
        <time>2022-07-09T09:32:48.000Z</time>
      </trkpt>
      <trkpt lat="42.83246" lon="-0.2036">
        <ele>2207.9</ele>
        <time>2022-07-09T09:32:49.000Z</time>
      </trkpt>
      <trkpt lat="42.83246" lon="-0.2036">
        <ele>2207.8</ele>
        <time>2022-07-09T09:32:50.000Z</time>
      </trkpt>
      <trkpt lat="42.83246" lon="-0.2036">
        <ele>2207.5</ele>
        <time>2022-07-09T09:32:51.000Z</time>
      </trkpt>
      <trkpt lat="42.83246" lon="-0.2036">
        <ele>2207.4</ele>
        <time>2022-07-09T09:32:52.000Z</time>
      </trkpt>
      <trkpt lat="42.83246" lon="-0.20359">
        <ele>2208.2</ele>
        <time>2022-07-09T09:32:58.000Z</time>
      </trkpt>
      <trkpt lat="42.83246" lon="-0.20359">
        <ele>2208.1</ele>
        <time>2022-07-09T09:32:59.000Z</time>
      </trkpt>
      <trkpt lat="42.83246" lon="-0.20359">
        <ele>2208.1</ele>
        <time>2022-07-09T09:33:02.000Z</time>
      </trkpt>
      <trkpt lat="42.83246" lon="-0.2036">
        <ele>2208.1</ele>
        <time>2022-07-09T09:33:11.000Z</time>
      </trkpt>
      <trkpt lat="42.83246" lon="-0.2036">
        <ele>2208.5</ele>
        <time>2022-07-09T09:33:14.000Z</time>
      </trkpt>
      <trkpt lat="42.83253" lon="-0.20371">
        <ele>2209.4</ele>
        <time>2022-07-09T09:33:26.000Z</time>
      </trkpt>
      <trkpt lat="42.83257" lon="-0.20383">
        <ele>2210.9</ele>
        <time>2022-07-09T09:33:33.000Z</time>
      </trkpt>
      <trkpt lat="42.83257" lon="-0.20396">
        <ele>2213.6</ele>
        <time>2022-07-09T09:33:42.000Z</time>
      </trkpt>
      <trkpt lat="42.83258" lon="-0.20406">
        <ele>2216.5</ele>
        <time>2022-07-09T09:33:58.000Z</time>
      </trkpt>
      <trkpt lat="42.83258" lon="-0.20405">
        <ele>2216.8</ele>
        <time>2022-07-09T09:34:00.000Z</time>
      </trkpt>
      <trkpt lat="42.83263" lon="-0.20393">
        <ele>2218.6</ele>
        <time>2022-07-09T09:34:10.000Z</time>
      </trkpt>
      <trkpt lat="42.83268" lon="-0.20382">
        <ele>2220.1</ele>
        <time>2022-07-09T09:34:21.000Z</time>
      </trkpt>
      <trkpt lat="42.83271" lon="-0.20375">
        <ele>2220.9</ele>
        <time>2022-07-09T09:34:31.000Z</time>
      </trkpt>
      <trkpt lat="42.83271" lon="-0.20375">
        <ele>2221.5</ele>
        <time>2022-07-09T09:34:36.000Z</time>
      </trkpt>
      <trkpt lat="42.83271" lon="-0.20372">
        <ele>2221.9</ele>
        <time>2022-07-09T09:34:42.000Z</time>
      </trkpt>
      <trkpt lat="42.83272" lon="-0.20373">
        <ele>2222.4</ele>
        <time>2022-07-09T09:34:45.000Z</time>
      </trkpt>
      <trkpt lat="42.83275" lon="-0.20373">
        <ele>2222.4</ele>
        <time>2022-07-09T09:34:55.000Z</time>
      </trkpt>
      <trkpt lat="42.83274" lon="-0.20374">
        <ele>2222.5</ele>
        <time>2022-07-09T09:34:57.000Z</time>
      </trkpt>
      <trkpt lat="42.83274" lon="-0.20374">
        <ele>2222.6</ele>
        <time>2022-07-09T09:34:58.000Z</time>
      </trkpt>
      <trkpt lat="42.83275" lon="-0.20374">
        <ele>2223</ele>
        <time>2022-07-09T09:35:00.000Z</time>
      </trkpt>
      <trkpt lat="42.83275" lon="-0.20386">
        <ele>2225.6</ele>
        <time>2022-07-09T09:35:15.000Z</time>
      </trkpt>
      <trkpt lat="42.83274" lon="-0.204">
        <ele>2226.9</ele>
        <time>2022-07-09T09:35:22.000Z</time>
      </trkpt>
      <trkpt lat="42.83278" lon="-0.20388">
        <ele>2229.7</ele>
        <time>2022-07-09T09:35:41.000Z</time>
      </trkpt>
      <trkpt lat="42.83279" lon="-0.20384">
        <ele>2229.6</ele>
        <time>2022-07-09T09:35:49.000Z</time>
      </trkpt>
      <trkpt lat="42.8328" lon="-0.20383">
        <ele>2230.5</ele>
        <time>2022-07-09T09:35:54.000Z</time>
      </trkpt>
      <trkpt lat="42.8328" lon="-0.20383">
        <ele>2230.4</ele>
        <time>2022-07-09T09:35:56.000Z</time>
      </trkpt>
      <trkpt lat="42.8328" lon="-0.20382">
        <ele>2230.8</ele>
        <time>2022-07-09T09:35:58.000Z</time>
      </trkpt>
      <trkpt lat="42.83281" lon="-0.20374">
        <ele>2232.4</ele>
        <time>2022-07-09T09:36:08.000Z</time>
      </trkpt>
      <trkpt lat="42.83281" lon="-0.20374">
        <ele>2232.7</ele>
        <time>2022-07-09T09:36:09.000Z</time>
      </trkpt>
      <trkpt lat="42.83286" lon="-0.20364">
        <ele>2237.1</ele>
        <time>2022-07-09T09:36:24.000Z</time>
      </trkpt>
      <trkpt lat="42.83294" lon="-0.20356">
        <ele>2240.6</ele>
        <time>2022-07-09T09:36:39.000Z</time>
      </trkpt>
      <trkpt lat="42.83294" lon="-0.20369">
        <ele>2244.2</ele>
        <time>2022-07-09T09:36:57.000Z</time>
      </trkpt>
      <trkpt lat="42.83298" lon="-0.2038">
        <ele>2246.4</ele>
        <time>2022-07-09T09:37:08.000Z</time>
      </trkpt>
      <trkpt lat="42.83298" lon="-0.20382">
        <ele>2246.5</ele>
        <time>2022-07-09T09:37:12.000Z</time>
      </trkpt>
      <trkpt lat="42.83298" lon="-0.20383">
        <ele>2247.1</ele>
        <time>2022-07-09T09:37:14.000Z</time>
      </trkpt>
      <trkpt lat="42.833" lon="-0.20382">
        <ele>2248.8</ele>
        <time>2022-07-09T09:37:23.000Z</time>
      </trkpt>
      <trkpt lat="42.833" lon="-0.20381">
        <ele>2249</ele>
        <time>2022-07-09T09:37:24.000Z</time>
      </trkpt>
      <trkpt lat="42.83302" lon="-0.2038">
        <ele>2250.1</ele>
        <time>2022-07-09T09:37:31.000Z</time>
      </trkpt>
      <trkpt lat="42.83302" lon="-0.20379">
        <ele>2250.4</ele>
        <time>2022-07-09T09:37:32.000Z</time>
      </trkpt>
      <trkpt lat="42.83308" lon="-0.2037">
        <ele>2253.2</ele>
        <time>2022-07-09T09:37:49.000Z</time>
      </trkpt>
      <trkpt lat="42.83315" lon="-0.20362">
        <ele>2254.5</ele>
        <time>2022-07-09T09:38:07.000Z</time>
      </trkpt>
      <trkpt lat="42.83323" lon="-0.20356">
        <ele>2257.7</ele>
        <time>2022-07-09T09:38:24.000Z</time>
      </trkpt>
      <trkpt lat="42.83329" lon="-0.20346">
        <ele>2261.5</ele>
        <time>2022-07-09T09:38:38.000Z</time>
      </trkpt>
      <trkpt lat="42.83331" lon="-0.20342">
        <ele>2262.3</ele>
        <time>2022-07-09T09:38:46.000Z</time>
      </trkpt>
      <trkpt lat="42.83331" lon="-0.20342">
        <ele>2262.8</ele>
        <time>2022-07-09T09:38:54.000Z</time>
      </trkpt>
      <trkpt lat="42.83331" lon="-0.20342">
        <ele>2262.8</ele>
        <time>2022-07-09T09:38:55.000Z</time>
      </trkpt>
      <trkpt lat="42.83332" lon="-0.20341">
        <ele>2263.1</ele>
        <time>2022-07-09T09:38:57.000Z</time>
      </trkpt>
      <trkpt lat="42.83332" lon="-0.2034">
        <ele>2262.9</ele>
        <time>2022-07-09T09:39:00.000Z</time>
      </trkpt>
      <trkpt lat="42.83332" lon="-0.2034">
        <ele>2263.2</ele>
        <time>2022-07-09T09:39:03.000Z</time>
      </trkpt>
      <trkpt lat="42.8334" lon="-0.20334">
        <ele>2263.4</ele>
        <time>2022-07-09T09:39:18.000Z</time>
      </trkpt>
      <trkpt lat="42.8334" lon="-0.20334">
        <ele>2263.5</ele>
        <time>2022-07-09T09:39:19.000Z</time>
      </trkpt>
      <trkpt lat="42.8334" lon="-0.20333">
        <ele>2264.2</ele>
        <time>2022-07-09T09:39:25.000Z</time>
      </trkpt>
      <trkpt lat="42.83345" lon="-0.20322">
        <ele>2265.2</ele>
        <time>2022-07-09T09:39:34.000Z</time>
      </trkpt>
      <trkpt lat="42.83345" lon="-0.20319">
        <ele>2265.4</ele>
        <time>2022-07-09T09:39:41.000Z</time>
      </trkpt>
      <trkpt lat="42.83345" lon="-0.20319">
        <ele>2265</ele>
        <time>2022-07-09T09:39:42.000Z</time>
      </trkpt>
      <trkpt lat="42.83345" lon="-0.20319">
        <ele>2265</ele>
        <time>2022-07-09T09:39:44.000Z</time>
      </trkpt>
      <trkpt lat="42.83345" lon="-0.20318">
        <ele>2267.2</ele>
        <time>2022-07-09T09:39:48.000Z</time>
      </trkpt>
      <trkpt lat="42.83349" lon="-0.20315">
        <ele>2267.1</ele>
        <time>2022-07-09T09:39:58.000Z</time>
      </trkpt>
      <trkpt lat="42.83349" lon="-0.20315">
        <ele>2267.1</ele>
        <time>2022-07-09T09:40:01.000Z</time>
      </trkpt>
      <trkpt lat="42.83358" lon="-0.20312">
        <ele>2266.8</ele>
        <time>2022-07-09T09:40:12.000Z</time>
      </trkpt>
      <trkpt lat="42.83363" lon="-0.20312">
        <ele>2265.8</ele>
        <time>2022-07-09T09:40:21.000Z</time>
      </trkpt>
      <trkpt lat="42.83363" lon="-0.20312">
        <ele>2265.9</ele>
        <time>2022-07-09T09:40:23.000Z</time>
      </trkpt>
      <trkpt lat="42.83367" lon="-0.20299">
        <ele>2268.2</ele>
        <time>2022-07-09T09:40:37.000Z</time>
      </trkpt>
      <trkpt lat="42.83362" lon="-0.20288">
        <ele>2271.1</ele>
        <time>2022-07-09T09:40:51.000Z</time>
      </trkpt>
      <trkpt lat="42.8336" lon="-0.20287">
        <ele>2272.4</ele>
        <time>2022-07-09T09:40:57.000Z</time>
      </trkpt>
      <trkpt lat="42.8336" lon="-0.20286">
        <ele>2272.6</ele>
        <time>2022-07-09T09:40:58.000Z</time>
      </trkpt>
      <trkpt lat="42.83358" lon="-0.20274">
        <ele>2275.2</ele>
        <time>2022-07-09T09:41:14.000Z</time>
      </trkpt>
      <trkpt lat="42.83366" lon="-0.2027">
        <ele>2277.5</ele>
        <time>2022-07-09T09:41:28.000Z</time>
      </trkpt>
      <trkpt lat="42.83376" lon="-0.20268">
        <ele>2280</ele>
        <time>2022-07-09T09:41:43.000Z</time>
      </trkpt>
      <trkpt lat="42.8338" lon="-0.20263">
        <ele>2280.6</ele>
        <time>2022-07-09T09:41:51.000Z</time>
      </trkpt>
      <trkpt lat="42.8338" lon="-0.20263">
        <ele>2281.6</ele>
        <time>2022-07-09T09:41:57.000Z</time>
      </trkpt>
      <trkpt lat="42.83388" lon="-0.20256">
        <ele>2280.8</ele>
        <time>2022-07-09T09:42:07.000Z</time>
      </trkpt>
      <trkpt lat="42.83389" lon="-0.20254">
        <ele>2281.1</ele>
        <time>2022-07-09T09:42:15.000Z</time>
      </trkpt>
      <trkpt lat="42.83389" lon="-0.20254">
        <ele>2281.3</ele>
        <time>2022-07-09T09:42:19.000Z</time>
      </trkpt>
      <trkpt lat="42.83389" lon="-0.20254">
        <ele>2281.1</ele>
        <time>2022-07-09T09:42:20.000Z</time>
      </trkpt>
      <trkpt lat="42.83389" lon="-0.20253">
        <ele>2281.1</ele>
        <time>2022-07-09T09:42:21.000Z</time>
      </trkpt>
      <trkpt lat="42.83396" lon="-0.20244">
        <ele>2281.9</ele>
        <time>2022-07-09T09:42:32.000Z</time>
      </trkpt>
      <trkpt lat="42.83401" lon="-0.20242">
        <ele>2281.8</ele>
        <time>2022-07-09T09:42:43.000Z</time>
      </trkpt>
      <trkpt lat="42.83401" lon="-0.20242">
        <ele>2281.8</ele>
        <time>2022-07-09T09:42:44.000Z</time>
      </trkpt>
      <trkpt lat="42.83408" lon="-0.20233">
        <ele>2281.5</ele>
        <time>2022-07-09T09:42:53.000Z</time>
      </trkpt>
      <trkpt lat="42.83413" lon="-0.20224">
        <ele>2282.5</ele>
        <time>2022-07-09T09:43:02.000Z</time>
      </trkpt>
      <trkpt lat="42.83413" lon="-0.20224">
        <ele>2282.7</ele>
        <time>2022-07-09T09:43:04.000Z</time>
      </trkpt>
      <trkpt lat="42.83414" lon="-0.20212">
        <ele>2283</ele>
        <time>2022-07-09T09:43:23.000Z</time>
      </trkpt>
      <trkpt lat="42.83421" lon="-0.20203">
        <ele>2283.1</ele>
        <time>2022-07-09T09:43:38.000Z</time>
      </trkpt>
      <trkpt lat="42.83426" lon="-0.20193">
        <ele>2283.2</ele>
        <time>2022-07-09T09:43:50.000Z</time>
      </trkpt>
      <trkpt lat="42.83436" lon="-0.20189">
        <ele>2286.1</ele>
        <time>2022-07-09T09:44:08.000Z</time>
      </trkpt>
      <trkpt lat="42.83435" lon="-0.20189">
        <ele>2286.6</ele>
        <time>2022-07-09T09:44:10.000Z</time>
      </trkpt>
      <trkpt lat="42.83436" lon="-0.20189">
        <ele>2287.2</ele>
        <time>2022-07-09T09:44:12.000Z</time>
      </trkpt>
      <trkpt lat="42.83445" lon="-0.20186">
        <ele>2288.4</ele>
        <time>2022-07-09T09:44:22.000Z</time>
      </trkpt>
      <trkpt lat="42.83454" lon="-0.20181">
        <ele>2289</ele>
        <time>2022-07-09T09:44:34.000Z</time>
      </trkpt>
      <trkpt lat="42.83461" lon="-0.20173">
        <ele>2289.8</ele>
        <time>2022-07-09T09:44:50.000Z</time>
      </trkpt>
      <trkpt lat="42.83469" lon="-0.20169">
        <ele>2287.7</ele>
        <time>2022-07-09T09:45:09.000Z</time>
      </trkpt>
      <trkpt lat="42.83471" lon="-0.20166">
        <ele>2286.2</ele>
        <time>2022-07-09T09:45:18.000Z</time>
      </trkpt>
      <trkpt lat="42.83471" lon="-0.20166">
        <ele>2286.3</ele>
        <time>2022-07-09T09:45:19.000Z</time>
      </trkpt>
      <trkpt lat="42.8348" lon="-0.2017">
        <ele>2286.8</ele>
        <time>2022-07-09T09:45:30.000Z</time>
      </trkpt>
      <trkpt lat="42.83489" lon="-0.20172">
        <ele>2287.6</ele>
        <time>2022-07-09T09:45:41.000Z</time>
      </trkpt>
      <trkpt lat="42.83497" lon="-0.20179">
        <ele>2288</ele>
        <time>2022-07-09T09:45:55.000Z</time>
      </trkpt>
      <trkpt lat="42.83507" lon="-0.2018">
        <ele>2288</ele>
        <time>2022-07-09T09:46:05.000Z</time>
      </trkpt>
      <trkpt lat="42.83511" lon="-0.2018">
        <ele>2288.1</ele>
        <time>2022-07-09T09:46:14.000Z</time>
      </trkpt>
      <trkpt lat="42.83511" lon="-0.2018">
        <ele>2288.1</ele>
        <time>2022-07-09T09:46:15.000Z</time>
      </trkpt>
      <trkpt lat="42.83516" lon="-0.20181">
        <ele>2289.2</ele>
        <time>2022-07-09T09:46:24.000Z</time>
      </trkpt>
      <trkpt lat="42.83515" lon="-0.20181">
        <ele>2289.5</ele>
        <time>2022-07-09T09:46:31.000Z</time>
      </trkpt>
      <trkpt lat="42.83515" lon="-0.20181">
        <ele>2289.4</ele>
        <time>2022-07-09T09:46:32.000Z</time>
      </trkpt>
      <trkpt lat="42.83516" lon="-0.2018">
        <ele>2289.5</ele>
        <time>2022-07-09T09:46:33.000Z</time>
      </trkpt>
      <trkpt lat="42.83515" lon="-0.2018">
        <ele>2289.6</ele>
        <time>2022-07-09T09:46:35.000Z</time>
      </trkpt>
      <trkpt lat="42.83516" lon="-0.2018">
        <ele>2289.4</ele>
        <time>2022-07-09T09:46:55.000Z</time>
      </trkpt>
      <trkpt lat="42.83516" lon="-0.20179">
        <ele>2289.8</ele>
        <time>2022-07-09T09:46:58.000Z</time>
      </trkpt>
      <trkpt lat="42.83516" lon="-0.20179">
        <ele>2289.8</ele>
        <time>2022-07-09T09:47:01.000Z</time>
      </trkpt>
      <trkpt lat="42.83516" lon="-0.20179">
        <ele>2290</ele>
        <time>2022-07-09T09:47:04.000Z</time>
      </trkpt>
      <trkpt lat="42.83516" lon="-0.20179">
        <ele>2289.8</ele>
        <time>2022-07-09T09:47:15.000Z</time>
      </trkpt>
      <trkpt lat="42.83516" lon="-0.20179">
        <ele>2290.1</ele>
        <time>2022-07-09T09:47:16.000Z</time>
      </trkpt>
      <trkpt lat="42.83516" lon="-0.20179">
        <ele>2290.4</ele>
        <time>2022-07-09T09:47:30.000Z</time>
      </trkpt>
      <trkpt lat="42.83516" lon="-0.20179">
        <ele>2290.5</ele>
        <time>2022-07-09T09:47:31.000Z</time>
      </trkpt>
      <trkpt lat="42.83516" lon="-0.20179">
        <ele>2291.2</ele>
        <time>2022-07-09T09:47:59.000Z</time>
      </trkpt>
      <trkpt lat="42.83516" lon="-0.20179">
        <ele>2291.2</ele>
        <time>2022-07-09T09:48:00.000Z</time>
      </trkpt>
      <trkpt lat="42.83516" lon="-0.20179">
        <ele>2291.7</ele>
        <time>2022-07-09T09:48:26.000Z</time>
      </trkpt>
      <trkpt lat="42.83516" lon="-0.20178">
        <ele>2291.8</ele>
        <time>2022-07-09T09:48:28.000Z</time>
      </trkpt>
      <trkpt lat="42.83517" lon="-0.20179">
        <ele>2292.2</ele>
        <time>2022-07-09T09:48:33.000Z</time>
      </trkpt>
      <trkpt lat="42.83522" lon="-0.20177">
        <ele>2293.1</ele>
        <time>2022-07-09T09:48:44.000Z</time>
      </trkpt>
      <trkpt lat="42.83522" lon="-0.20177">
        <ele>2293.4</ele>
        <time>2022-07-09T09:48:49.000Z</time>
      </trkpt>
      <trkpt lat="42.83532" lon="-0.20172">
        <ele>2295.7</ele>
        <time>2022-07-09T09:49:06.000Z</time>
      </trkpt>
      <trkpt lat="42.83541" lon="-0.2017">
        <ele>2298.1</ele>
        <time>2022-07-09T09:49:17.000Z</time>
      </trkpt>
      <trkpt lat="42.8355" lon="-0.20169">
        <ele>2298.9</ele>
        <time>2022-07-09T09:49:28.000Z</time>
      </trkpt>
      <trkpt lat="42.8356" lon="-0.20166">
        <ele>2301</ele>
        <time>2022-07-09T09:49:40.000Z</time>
      </trkpt>
      <trkpt lat="42.83565" lon="-0.20165">
        <ele>2304.2</ele>
        <time>2022-07-09T09:49:52.000Z</time>
      </trkpt>
      <trkpt lat="42.83566" lon="-0.20165">
        <ele>2304.5</ele>
        <time>2022-07-09T09:49:53.000Z</time>
      </trkpt>
      <trkpt lat="42.83566" lon="-0.20165">
        <ele>2304.8</ele>
        <time>2022-07-09T09:49:54.000Z</time>
      </trkpt>
      <trkpt lat="42.83565" lon="-0.20166">
        <ele>2304.9</ele>
        <time>2022-07-09T09:49:56.000Z</time>
      </trkpt>
      <trkpt lat="42.83575" lon="-0.20165">
        <ele>2306.5</ele>
        <time>2022-07-09T09:50:14.000Z</time>
      </trkpt>
      <trkpt lat="42.83577" lon="-0.20163">
        <ele>2306.8</ele>
        <time>2022-07-09T09:50:18.000Z</time>
      </trkpt>
      <trkpt lat="42.83577" lon="-0.20162">
        <ele>2306.7</ele>
        <time>2022-07-09T09:50:19.000Z</time>
      </trkpt>
      <trkpt lat="42.83585" lon="-0.20156">
        <ele>2307.6</ele>
        <time>2022-07-09T09:50:28.000Z</time>
      </trkpt>
      <trkpt lat="42.83594" lon="-0.20153">
        <ele>2307.6</ele>
        <time>2022-07-09T09:50:38.000Z</time>
      </trkpt>
      <trkpt lat="42.83598" lon="-0.20151">
        <ele>2307.7</ele>
        <time>2022-07-09T09:50:45.000Z</time>
      </trkpt>
      <trkpt lat="42.83598" lon="-0.20151">
        <ele>2307.9</ele>
        <time>2022-07-09T09:50:46.000Z</time>
      </trkpt>
      <trkpt lat="42.83602" lon="-0.20149">
        <ele>2308.2</ele>
        <time>2022-07-09T09:50:53.000Z</time>
      </trkpt>
      <trkpt lat="42.83602" lon="-0.20149">
        <ele>2308.1</ele>
        <time>2022-07-09T09:50:55.000Z</time>
      </trkpt>
      <trkpt lat="42.83603" lon="-0.20149">
        <ele>2307.9</ele>
        <time>2022-07-09T09:51:02.000Z</time>
      </trkpt>
      <trkpt lat="42.83604" lon="-0.20149">
        <ele>2308.3</ele>
        <time>2022-07-09T09:51:03.000Z</time>
      </trkpt>
      <trkpt lat="42.83613" lon="-0.20145">
        <ele>2307.5</ele>
        <time>2022-07-09T09:51:23.000Z</time>
      </trkpt>
      <trkpt lat="42.83622" lon="-0.20144">
        <ele>2308.9</ele>
        <time>2022-07-09T09:51:31.000Z</time>
      </trkpt>
      <trkpt lat="42.83631" lon="-0.20145">
        <ele>2310.4</ele>
        <time>2022-07-09T09:51:41.000Z</time>
      </trkpt>
      <trkpt lat="42.83641" lon="-0.20147">
        <ele>2310.7</ele>
        <time>2022-07-09T09:51:50.000Z</time>
      </trkpt>
      <trkpt lat="42.83649" lon="-0.20142">
        <ele>2310.8</ele>
        <time>2022-07-09T09:52:00.000Z</time>
      </trkpt>
      <trkpt lat="42.83658" lon="-0.20137">
        <ele>2310.2</ele>
        <time>2022-07-09T09:52:09.000Z</time>
      </trkpt>
      <trkpt lat="42.83657" lon="-0.20137">
        <ele>2310.3</ele>
        <time>2022-07-09T09:52:12.000Z</time>
      </trkpt>
      <trkpt lat="42.83658" lon="-0.20137">
        <ele>2310.1</ele>
        <time>2022-07-09T09:52:13.000Z</time>
      </trkpt>
      <trkpt lat="42.83667" lon="-0.20137">
        <ele>2309.5</ele>
        <time>2022-07-09T09:52:24.000Z</time>
      </trkpt>
      <trkpt lat="42.83676" lon="-0.20137">
        <ele>2310</ele>
        <time>2022-07-09T09:52:41.000Z</time>
      </trkpt>
      <trkpt lat="42.83685" lon="-0.2014">
        <ele>2310.7</ele>
        <time>2022-07-09T09:52:50.000Z</time>
      </trkpt>
      <trkpt lat="42.83694" lon="-0.20142">
        <ele>2312.8</ele>
        <time>2022-07-09T09:53:07.000Z</time>
      </trkpt>
      <trkpt lat="42.83703" lon="-0.20139">
        <ele>2314.5</ele>
        <time>2022-07-09T09:53:23.000Z</time>
      </trkpt>
      <trkpt lat="42.83711" lon="-0.20138">
        <ele>2317.5</ele>
        <time>2022-07-09T09:53:39.000Z</time>
      </trkpt>
      <trkpt lat="42.83711" lon="-0.20138">
        <ele>2317.5</ele>
        <time>2022-07-09T09:53:40.000Z</time>
      </trkpt>
      <trkpt lat="42.83719" lon="-0.20144">
        <ele>2320.1</ele>
        <time>2022-07-09T09:53:59.000Z</time>
      </trkpt>
      <trkpt lat="42.83718" lon="-0.20132">
        <ele>2322.9</ele>
        <time>2022-07-09T09:54:19.000Z</time>
      </trkpt>
      <trkpt lat="42.83718" lon="-0.20129">
        <ele>2323.6</ele>
        <time>2022-07-09T09:54:25.000Z</time>
      </trkpt>
      <trkpt lat="42.83718" lon="-0.20129">
        <ele>2324.1</ele>
        <time>2022-07-09T09:54:30.000Z</time>
      </trkpt>
      <trkpt lat="42.8372" lon="-0.20129">
        <ele>2325.3</ele>
        <time>2022-07-09T09:54:41.000Z</time>
      </trkpt>
      <trkpt lat="42.8372" lon="-0.20129">
        <ele>2325.8</ele>
        <time>2022-07-09T09:54:45.000Z</time>
      </trkpt>
      <trkpt lat="42.8372" lon="-0.20129">
        <ele>2325.9</ele>
        <time>2022-07-09T09:54:46.000Z</time>
      </trkpt>
      <trkpt lat="42.8372" lon="-0.20129">
        <ele>2325.9</ele>
        <time>2022-07-09T09:54:47.000Z</time>
      </trkpt>
      <trkpt lat="42.83728" lon="-0.20136">
        <ele>2328</ele>
        <time>2022-07-09T09:55:02.000Z</time>
      </trkpt>
      <trkpt lat="42.83736" lon="-0.20142">
        <ele>2329.8</ele>
        <time>2022-07-09T09:55:11.000Z</time>
      </trkpt>
      <trkpt lat="42.83744" lon="-0.2015">
        <ele>2331.6</ele>
        <time>2022-07-09T09:55:25.000Z</time>
      </trkpt>
      <trkpt lat="42.83752" lon="-0.20155">
        <ele>2333.9</ele>
        <time>2022-07-09T09:55:39.000Z</time>
      </trkpt>
      <trkpt lat="42.83758" lon="-0.20165">
        <ele>2335.3</ele>
        <time>2022-07-09T09:55:53.000Z</time>
      </trkpt>
      <trkpt lat="42.83764" lon="-0.20175">
        <ele>2336.5</ele>
        <time>2022-07-09T09:56:04.000Z</time>
      </trkpt>
      <trkpt lat="42.83772" lon="-0.20182">
        <ele>2339.8</ele>
        <time>2022-07-09T09:56:27.000Z</time>
      </trkpt>
      <trkpt lat="42.83775" lon="-0.2017">
        <ele>2342.8</ele>
        <time>2022-07-09T09:56:46.000Z</time>
      </trkpt>
      <trkpt lat="42.83771" lon="-0.20157">
        <ele>2344.1</ele>
        <time>2022-07-09T09:56:57.000Z</time>
      </trkpt>
      <trkpt lat="42.83771" lon="-0.20148">
        <ele>2346.3</ele>
        <time>2022-07-09T09:57:11.000Z</time>
      </trkpt>
      <trkpt lat="42.83771" lon="-0.20148">
        <ele>2346.8</ele>
        <time>2022-07-09T09:57:13.000Z</time>
      </trkpt>
      <trkpt lat="42.83771" lon="-0.20147">
        <ele>2346.9</ele>
        <time>2022-07-09T09:57:14.000Z</time>
      </trkpt>
      <trkpt lat="42.83771" lon="-0.20148">
        <ele>2347</ele>
        <time>2022-07-09T09:57:15.000Z</time>
      </trkpt>
      <trkpt lat="42.83771" lon="-0.20148">
        <ele>2346.8</ele>
        <time>2022-07-09T09:57:19.000Z</time>
      </trkpt>
      <trkpt lat="42.83771" lon="-0.20148">
        <ele>2347</ele>
        <time>2022-07-09T09:57:20.000Z</time>
      </trkpt>
      <trkpt lat="42.83771" lon="-0.20148">
        <ele>2347.1</ele>
        <time>2022-07-09T09:57:21.000Z</time>
      </trkpt>
      <trkpt lat="42.83771" lon="-0.20148">
        <ele>2347.8</ele>
        <time>2022-07-09T09:57:25.000Z</time>
      </trkpt>
      <trkpt lat="42.83779" lon="-0.20156">
        <ele>2349.2</ele>
        <time>2022-07-09T09:57:39.000Z</time>
      </trkpt>
      <trkpt lat="42.8378" lon="-0.20157">
        <ele>2349.8</ele>
        <time>2022-07-09T09:57:45.000Z</time>
      </trkpt>
      <trkpt lat="42.83781" lon="-0.20157">
        <ele>2350.2</ele>
        <time>2022-07-09T09:57:46.000Z</time>
      </trkpt>
      <trkpt lat="42.8378" lon="-0.20144">
        <ele>2350.3</ele>
        <time>2022-07-09T09:57:59.000Z</time>
      </trkpt>
      <trkpt lat="42.83779" lon="-0.20135">
        <ele>2352.3</ele>
        <time>2022-07-09T09:58:12.000Z</time>
      </trkpt>
      <trkpt lat="42.83779" lon="-0.20135">
        <ele>2352.1</ele>
        <time>2022-07-09T09:58:13.000Z</time>
      </trkpt>
      <trkpt lat="42.83782" lon="-0.20123">
        <ele>2353.7</ele>
        <time>2022-07-09T09:58:26.000Z</time>
      </trkpt>
      <trkpt lat="42.83785" lon="-0.2011">
        <ele>2354.9</ele>
        <time>2022-07-09T09:58:39.000Z</time>
      </trkpt>
      <trkpt lat="42.83786" lon="-0.20097">
        <ele>2357.7</ele>
        <time>2022-07-09T09:58:51.000Z</time>
      </trkpt>
      <trkpt lat="42.83792" lon="-0.20087">
        <ele>2358.9</ele>
        <time>2022-07-09T09:59:04.000Z</time>
      </trkpt>
      <trkpt lat="42.83801" lon="-0.20083">
        <ele>2360.9</ele>
        <time>2022-07-09T09:59:18.000Z</time>
      </trkpt>
      <trkpt lat="42.8381" lon="-0.2008">
        <ele>2362.8</ele>
        <time>2022-07-09T09:59:31.000Z</time>
      </trkpt>
      <trkpt lat="42.8381" lon="-0.2008">
        <ele>2363</ele>
        <time>2022-07-09T09:59:33.000Z</time>
      </trkpt>
      <trkpt lat="42.8381" lon="-0.2008">
        <ele>2363.3</ele>
        <time>2022-07-09T09:59:34.000Z</time>
      </trkpt>
      <trkpt lat="42.83817" lon="-0.20072">
        <ele>2366.4</ele>
        <time>2022-07-09T09:59:52.000Z</time>
      </trkpt>
      <trkpt lat="42.83824" lon="-0.20063">
        <ele>2369</ele>
        <time>2022-07-09T10:00:10.000Z</time>
      </trkpt>
      <trkpt lat="42.83833" lon="-0.20058">
        <ele>2371.6</ele>
        <time>2022-07-09T10:00:27.000Z</time>
      </trkpt>
      <trkpt lat="42.8384" lon="-0.20051">
        <ele>2373.5</ele>
        <time>2022-07-09T10:00:43.000Z</time>
      </trkpt>
      <trkpt lat="42.83848" lon="-0.20051">
        <ele>2375.2</ele>
        <time>2022-07-09T10:00:59.000Z</time>
      </trkpt>
      <trkpt lat="42.83848" lon="-0.20051">
        <ele>2375.1</ele>
        <time>2022-07-09T10:01:00.000Z</time>
      </trkpt>
      <trkpt lat="42.83857" lon="-0.20053">
        <ele>2376.6</ele>
        <time>2022-07-09T10:01:16.000Z</time>
      </trkpt>
      <trkpt lat="42.83866" lon="-0.20047">
        <ele>2377.8</ele>
        <time>2022-07-09T10:01:30.000Z</time>
      </trkpt>
      <trkpt lat="42.83875" lon="-0.20041">
        <ele>2378.4</ele>
        <time>2022-07-09T10:01:40.000Z</time>
      </trkpt>
      <trkpt lat="42.83884" lon="-0.20039">
        <ele>2378.8</ele>
        <time>2022-07-09T10:01:52.000Z</time>
      </trkpt>
      <trkpt lat="42.83892" lon="-0.20044">
        <ele>2379.3</ele>
        <time>2022-07-09T10:02:00.000Z</time>
      </trkpt>
      <trkpt lat="42.839" lon="-0.20045">
        <ele>2379.8</ele>
        <time>2022-07-09T10:02:13.000Z</time>
      </trkpt>
      <trkpt lat="42.83901" lon="-0.20045">
        <ele>2379.8</ele>
        <time>2022-07-09T10:02:14.000Z</time>
      </trkpt>
      <trkpt lat="42.8391" lon="-0.20046">
        <ele>2379.3</ele>
        <time>2022-07-09T10:02:28.000Z</time>
      </trkpt>
      <trkpt lat="42.8392" lon="-0.20044">
        <ele>2378.7</ele>
        <time>2022-07-09T10:02:36.000Z</time>
      </trkpt>
      <trkpt lat="42.8393" lon="-0.20043">
        <ele>2379.5</ele>
        <time>2022-07-09T10:02:47.000Z</time>
      </trkpt>
      <trkpt lat="42.83939" lon="-0.2004">
        <ele>2380.2</ele>
        <time>2022-07-09T10:02:57.000Z</time>
      </trkpt>
      <trkpt lat="42.83948" lon="-0.20037">
        <ele>2380.7</ele>
        <time>2022-07-09T10:03:07.000Z</time>
      </trkpt>
      <trkpt lat="42.83949" lon="-0.20037">
        <ele>2380.8</ele>
        <time>2022-07-09T10:03:11.000Z</time>
      </trkpt>
      <trkpt lat="42.8395" lon="-0.20037">
        <ele>2380.9</ele>
        <time>2022-07-09T10:03:12.000Z</time>
      </trkpt>
      <trkpt lat="42.83958" lon="-0.20038">
        <ele>2382.3</ele>
        <time>2022-07-09T10:03:27.000Z</time>
      </trkpt>
      <trkpt lat="42.83959" lon="-0.20038">
        <ele>2382.4</ele>
        <time>2022-07-09T10:03:28.000Z</time>
      </trkpt>
      <trkpt lat="42.83967" lon="-0.20033">
        <ele>2383</ele>
        <time>2022-07-09T10:03:37.000Z</time>
      </trkpt>
      <trkpt lat="42.83976" lon="-0.20034">
        <ele>2384.2</ele>
        <time>2022-07-09T10:03:46.000Z</time>
      </trkpt>
      <trkpt lat="42.83979" lon="-0.20035">
        <ele>2384.1</ele>
        <time>2022-07-09T10:03:52.000Z</time>
      </trkpt>
      <trkpt lat="42.83979" lon="-0.20035">
        <ele>2384.4</ele>
        <time>2022-07-09T10:03:53.000Z</time>
      </trkpt>
      <trkpt lat="42.83989" lon="-0.20034">
        <ele>2385.4</ele>
        <time>2022-07-09T10:04:03.000Z</time>
      </trkpt>
      <trkpt lat="42.83998" lon="-0.20033">
        <ele>2386.1</ele>
        <time>2022-07-09T10:04:14.000Z</time>
      </trkpt>
      <trkpt lat="42.84008" lon="-0.20032">
        <ele>2387.6</ele>
        <time>2022-07-09T10:04:28.000Z</time>
      </trkpt>
      <trkpt lat="42.84015" lon="-0.20032">
        <ele>2388.5</ele>
        <time>2022-07-09T10:04:40.000Z</time>
      </trkpt>
      <trkpt lat="42.84016" lon="-0.20032">
        <ele>2388.5</ele>
        <time>2022-07-09T10:04:41.000Z</time>
      </trkpt>
      <trkpt lat="42.84025" lon="-0.20033">
        <ele>2390.3</ele>
        <time>2022-07-09T10:04:55.000Z</time>
      </trkpt>
      <trkpt lat="42.84035" lon="-0.20033">
        <ele>2391.2</ele>
        <time>2022-07-09T10:05:08.000Z</time>
      </trkpt>
      <trkpt lat="42.84043" lon="-0.2004">
        <ele>2391.6</ele>
        <time>2022-07-09T10:05:19.000Z</time>
      </trkpt>
      <trkpt lat="42.84052" lon="-0.20044">
        <ele>2392.2</ele>
        <time>2022-07-09T10:05:31.000Z</time>
      </trkpt>
      <trkpt lat="42.84061" lon="-0.20049">
        <ele>2393.1</ele>
        <time>2022-07-09T10:05:40.000Z</time>
      </trkpt>
      <trkpt lat="42.84066" lon="-0.20052">
        <ele>2394.4</ele>
        <time>2022-07-09T10:05:50.000Z</time>
      </trkpt>
      <trkpt lat="42.84066" lon="-0.20052">
        <ele>2394.6</ele>
        <time>2022-07-09T10:05:51.000Z</time>
      </trkpt>
      <trkpt lat="42.84076" lon="-0.20054">
        <ele>2394.6</ele>
        <time>2022-07-09T10:06:01.000Z</time>
      </trkpt>
      <trkpt lat="42.84085" lon="-0.20058">
        <ele>2395.5</ele>
        <time>2022-07-09T10:06:11.000Z</time>
      </trkpt>
      <trkpt lat="42.84093" lon="-0.20065">
        <ele>2396.9</ele>
        <time>2022-07-09T10:06:24.000Z</time>
      </trkpt>
      <trkpt lat="42.84101" lon="-0.20071">
        <ele>2398.5</ele>
        <time>2022-07-09T10:06:40.000Z</time>
      </trkpt>
      <trkpt lat="42.84106" lon="-0.20073">
        <ele>2399.3</ele>
        <time>2022-07-09T10:06:49.000Z</time>
      </trkpt>
      <trkpt lat="42.84107" lon="-0.20072">
        <ele>2399.6</ele>
        <time>2022-07-09T10:06:50.000Z</time>
      </trkpt>
      <trkpt lat="42.84116" lon="-0.20075">
        <ele>2401.1</ele>
        <time>2022-07-09T10:07:02.000Z</time>
      </trkpt>
      <trkpt lat="42.84125" lon="-0.20079">
        <ele>2403</ele>
        <time>2022-07-09T10:07:17.000Z</time>
      </trkpt>
      <trkpt lat="42.84133" lon="-0.20085">
        <ele>2405.1</ele>
        <time>2022-07-09T10:07:37.000Z</time>
      </trkpt>
      <trkpt lat="42.84131" lon="-0.20097">
        <ele>2406.7</ele>
        <time>2022-07-09T10:07:51.000Z</time>
      </trkpt>
      <trkpt lat="42.8413" lon="-0.20111">
        <ele>2408.7</ele>
        <time>2022-07-09T10:08:08.000Z</time>
      </trkpt>
      <trkpt lat="42.84129" lon="-0.20115">
        <ele>2409.3</ele>
        <time>2022-07-09T10:08:15.000Z</time>
      </trkpt>
      <trkpt lat="42.84129" lon="-0.20115">
        <ele>2409.4</ele>
        <time>2022-07-09T10:08:19.000Z</time>
      </trkpt>
      <trkpt lat="42.8413" lon="-0.20115">
        <ele>2409.4</ele>
        <time>2022-07-09T10:08:21.000Z</time>
      </trkpt>
      <trkpt lat="42.8413" lon="-0.20115">
        <ele>2409.8</ele>
        <time>2022-07-09T10:08:24.000Z</time>
      </trkpt>
      <trkpt lat="42.8413" lon="-0.20115">
        <ele>2409.8</ele>
        <time>2022-07-09T10:08:25.000Z</time>
      </trkpt>
      <trkpt lat="42.8413" lon="-0.20115">
        <ele>2409.6</ele>
        <time>2022-07-09T10:08:27.000Z</time>
      </trkpt>
      <trkpt lat="42.8413" lon="-0.20115">
        <ele>2409.7</ele>
        <time>2022-07-09T10:08:28.000Z</time>
      </trkpt>
      <trkpt lat="42.8413" lon="-0.20115">
        <ele>2410.3</ele>
        <time>2022-07-09T10:08:43.000Z</time>
      </trkpt>
      <trkpt lat="42.84129" lon="-0.20115">
        <ele>2410</ele>
        <time>2022-07-09T10:08:46.000Z</time>
      </trkpt>
      <trkpt lat="42.84129" lon="-0.20115">
        <ele>2410.2</ele>
        <time>2022-07-09T10:08:50.000Z</time>
      </trkpt>
      <trkpt lat="42.84129" lon="-0.20115">
        <ele>2410.4</ele>
        <time>2022-07-09T10:08:51.000Z</time>
      </trkpt>
      <trkpt lat="42.84129" lon="-0.20115">
        <ele>2410.4</ele>
        <time>2022-07-09T10:08:52.000Z</time>
      </trkpt>
      <trkpt lat="42.84129" lon="-0.20116">
        <ele>2410.2</ele>
        <time>2022-07-09T10:08:54.000Z</time>
      </trkpt>
      <trkpt lat="42.8413" lon="-0.20116">
        <ele>2410</ele>
        <time>2022-07-09T10:08:55.000Z</time>
      </trkpt>
      <trkpt lat="42.8413" lon="-0.20116">
        <ele>2410</ele>
        <time>2022-07-09T10:08:56.000Z</time>
      </trkpt>
      <trkpt lat="42.8413" lon="-0.20116">
        <ele>2410.2</ele>
        <time>2022-07-09T10:08:59.000Z</time>
      </trkpt>
      <trkpt lat="42.8413" lon="-0.20116">
        <ele>2410.1</ele>
        <time>2022-07-09T10:09:00.000Z</time>
      </trkpt>
      <trkpt lat="42.8413" lon="-0.20115">
        <ele>2409.7</ele>
        <time>2022-07-09T10:09:02.000Z</time>
      </trkpt>
      <trkpt lat="42.8414" lon="-0.20112">
        <ele>2409.9</ele>
        <time>2022-07-09T10:09:20.000Z</time>
      </trkpt>
      <trkpt lat="42.84148" lon="-0.20114">
        <ele>2409.8</ele>
        <time>2022-07-09T10:09:34.000Z</time>
      </trkpt>
      <trkpt lat="42.84156" lon="-0.20121">
        <ele>2409.6</ele>
        <time>2022-07-09T10:09:44.000Z</time>
      </trkpt>
      <trkpt lat="42.84162" lon="-0.20125">
        <ele>2409.5</ele>
        <time>2022-07-09T10:09:54.000Z</time>
      </trkpt>
      <trkpt lat="42.84161" lon="-0.20125">
        <ele>2409.6</ele>
        <time>2022-07-09T10:09:55.000Z</time>
      </trkpt>
      <trkpt lat="42.84161" lon="-0.20126">
        <ele>2410.1</ele>
        <time>2022-07-09T10:10:00.000Z</time>
      </trkpt>
      <trkpt lat="42.84161" lon="-0.20126">
        <ele>2410</ele>
        <time>2022-07-09T10:10:02.000Z</time>
      </trkpt>
      <trkpt lat="42.84159" lon="-0.20127">
        <ele>2409.8</ele>
        <time>2022-07-09T10:10:08.000Z</time>
      </trkpt>
      <trkpt lat="42.84159" lon="-0.20128">
        <ele>2409.7</ele>
        <time>2022-07-09T10:10:09.000Z</time>
      </trkpt>
      <trkpt lat="42.84159" lon="-0.20128">
        <ele>2409.1</ele>
        <time>2022-07-09T10:10:12.000Z</time>
      </trkpt>
      <trkpt lat="42.8416" lon="-0.20128">
        <ele>2408.9</ele>
        <time>2022-07-09T10:11:01.000Z</time>
      </trkpt>
      <trkpt lat="42.8416" lon="-0.20128">
        <ele>2409</ele>
        <time>2022-07-09T10:11:02.000Z</time>
      </trkpt>
      <trkpt lat="42.8416" lon="-0.20128">
        <ele>2409.1</ele>
        <time>2022-07-09T10:11:04.000Z</time>
      </trkpt>
      <trkpt lat="42.8416" lon="-0.20128">
        <ele>2409.1</ele>
        <time>2022-07-09T10:11:05.000Z</time>
      </trkpt>
      <trkpt lat="42.8416" lon="-0.20128">
        <ele>2407.5</ele>
        <time>2022-07-09T10:11:18.000Z</time>
      </trkpt>
      <trkpt lat="42.8416" lon="-0.20129">
        <ele>2407.7</ele>
        <time>2022-07-09T10:11:20.000Z</time>
      </trkpt>
      <trkpt lat="42.84161" lon="-0.20128">
        <ele>2408.8</ele>
        <time>2022-07-09T10:11:24.000Z</time>
      </trkpt>
      <trkpt lat="42.84161" lon="-0.20127">
        <ele>2407.6</ele>
        <time>2022-07-09T10:11:29.000Z</time>
      </trkpt>
      <trkpt lat="42.84162" lon="-0.20128">
        <ele>2407.7</ele>
        <time>2022-07-09T10:11:47.000Z</time>
      </trkpt>
      <trkpt lat="42.84162" lon="-0.20128">
        <ele>2407.7</ele>
        <time>2022-07-09T10:11:48.000Z</time>
      </trkpt>
      <trkpt lat="42.84162" lon="-0.20128">
        <ele>2408.7</ele>
        <time>2022-07-09T10:11:58.000Z</time>
      </trkpt>
      <trkpt lat="42.84162" lon="-0.20128">
        <ele>2409.1</ele>
        <time>2022-07-09T10:12:00.000Z</time>
      </trkpt>
      <trkpt lat="42.84162" lon="-0.20127">
        <ele>2408.6</ele>
        <time>2022-07-09T10:12:08.000Z</time>
      </trkpt>
      <trkpt lat="42.84163" lon="-0.20126">
        <ele>2409.1</ele>
        <time>2022-07-09T10:12:13.000Z</time>
      </trkpt>
      <trkpt lat="42.84163" lon="-0.20125">
        <ele>2408.8</ele>
        <time>2022-07-09T10:12:21.000Z</time>
      </trkpt>
      <trkpt lat="42.84163" lon="-0.20125">
        <ele>2408.9</ele>
        <time>2022-07-09T10:12:22.000Z</time>
      </trkpt>
      <trkpt lat="42.84163" lon="-0.20125">
        <ele>2409.1</ele>
        <time>2022-07-09T10:12:41.000Z</time>
      </trkpt>
      <trkpt lat="42.84163" lon="-0.20125">
        <ele>2409</ele>
        <time>2022-07-09T10:12:42.000Z</time>
      </trkpt>
      <trkpt lat="42.84163" lon="-0.20125">
        <ele>2409.2</ele>
        <time>2022-07-09T10:12:45.000Z</time>
      </trkpt>
      <trkpt lat="42.84163" lon="-0.20125">
        <ele>2409.3</ele>
        <time>2022-07-09T10:12:46.000Z</time>
      </trkpt>
      <trkpt lat="42.84163" lon="-0.20126">
        <ele>2409.2</ele>
        <time>2022-07-09T10:12:54.000Z</time>
      </trkpt>
      <trkpt lat="42.84164" lon="-0.20128">
        <ele>2408.8</ele>
        <time>2022-07-09T10:13:01.000Z</time>
      </trkpt>
      <trkpt lat="42.84164" lon="-0.20128">
        <ele>2409</ele>
        <time>2022-07-09T10:13:18.000Z</time>
      </trkpt>
      <trkpt lat="42.84164" lon="-0.20127">
        <ele>2409.1</ele>
        <time>2022-07-09T10:13:21.000Z</time>
      </trkpt>
      <trkpt lat="42.84164" lon="-0.20128">
        <ele>2409.1</ele>
        <time>2022-07-09T10:13:23.000Z</time>
      </trkpt>
      <trkpt lat="42.84172" lon="-0.20133">
        <ele>2409.4</ele>
        <time>2022-07-09T10:13:39.000Z</time>
      </trkpt>
      <trkpt lat="42.8418" lon="-0.20139">
        <ele>2409.6</ele>
        <time>2022-07-09T10:13:49.000Z</time>
      </trkpt>
      <trkpt lat="42.84188" lon="-0.20146">
        <ele>2409.4</ele>
        <time>2022-07-09T10:14:00.000Z</time>
      </trkpt>
      <trkpt lat="42.84196" lon="-0.20153">
        <ele>2409.5</ele>
        <time>2022-07-09T10:14:14.000Z</time>
      </trkpt>
      <trkpt lat="42.84204" lon="-0.20159">
        <ele>2410.2</ele>
        <time>2022-07-09T10:14:26.000Z</time>
      </trkpt>
      <trkpt lat="42.84212" lon="-0.20166">
        <ele>2411</ele>
        <time>2022-07-09T10:14:39.000Z</time>
      </trkpt>
      <trkpt lat="42.8422" lon="-0.20172">
        <ele>2411.4</ele>
        <time>2022-07-09T10:14:50.000Z</time>
      </trkpt>
      <trkpt lat="42.84221" lon="-0.20172">
        <ele>2411.9</ele>
        <time>2022-07-09T10:14:55.000Z</time>
      </trkpt>
      <trkpt lat="42.84221" lon="-0.20172">
        <ele>2412.1</ele>
        <time>2022-07-09T10:14:56.000Z</time>
      </trkpt>
      <trkpt lat="42.84231" lon="-0.20175">
        <ele>2412.8</ele>
        <time>2022-07-09T10:15:07.000Z</time>
      </trkpt>
      <trkpt lat="42.8424" lon="-0.20178">
        <ele>2413.7</ele>
        <time>2022-07-09T10:15:18.000Z</time>
      </trkpt>
      <trkpt lat="42.84249" lon="-0.20183">
        <ele>2413.4</ele>
        <time>2022-07-09T10:15:32.000Z</time>
      </trkpt>
      <trkpt lat="42.8425" lon="-0.20183">
        <ele>2413.5</ele>
        <time>2022-07-09T10:15:37.000Z</time>
      </trkpt>
      <trkpt lat="42.8425" lon="-0.20183">
        <ele>2413.4</ele>
        <time>2022-07-09T10:15:45.000Z</time>
      </trkpt>
      <trkpt lat="42.8426" lon="-0.20188">
        <ele>2411.5</ele>
        <time>2022-07-09T10:15:57.000Z</time>
      </trkpt>
      <trkpt lat="42.84269" lon="-0.20188">
        <ele>2413.1</ele>
        <time>2022-07-09T10:16:10.000Z</time>
      </trkpt>
      <trkpt lat="42.8427" lon="-0.20188">
        <ele>2413.3</ele>
        <time>2022-07-09T10:16:15.000Z</time>
      </trkpt>
      <trkpt lat="42.8427" lon="-0.20188">
        <ele>2413.4</ele>
        <time>2022-07-09T10:16:16.000Z</time>
      </trkpt>
      <trkpt lat="42.8427" lon="-0.20189">
        <ele>2413.3</ele>
        <time>2022-07-09T10:16:19.000Z</time>
      </trkpt>
      <trkpt lat="42.8427" lon="-0.20189">
        <ele>2413.6</ele>
        <time>2022-07-09T10:16:22.000Z</time>
      </trkpt>
      <trkpt lat="42.8427" lon="-0.20189">
        <ele>2413.8</ele>
        <time>2022-07-09T10:16:24.000Z</time>
      </trkpt>
      <trkpt lat="42.8427" lon="-0.2019">
        <ele>2413.7</ele>
        <time>2022-07-09T10:16:25.000Z</time>
      </trkpt>
      <trkpt lat="42.8427" lon="-0.20186">
        <ele>2412.2</ele>
        <time>2022-07-09T10:16:37.000Z</time>
      </trkpt>
      <trkpt lat="42.84269" lon="-0.20185">
        <ele>2412.3</ele>
        <time>2022-07-09T10:16:38.000Z</time>
      </trkpt>
      <trkpt lat="42.84274" lon="-0.20174">
        <ele>2411.8</ele>
        <time>2022-07-09T10:16:54.000Z</time>
      </trkpt>
      <trkpt lat="42.84283" lon="-0.20169">
        <ele>2411.4</ele>
        <time>2022-07-09T10:17:03.000Z</time>
      </trkpt>
      <trkpt lat="42.84286" lon="-0.20167">
        <ele>2410</ele>
        <time>2022-07-09T10:17:11.000Z</time>
      </trkpt>
      <trkpt lat="42.84286" lon="-0.20167">
        <ele>2409.8</ele>
        <time>2022-07-09T10:17:13.000Z</time>
      </trkpt>
      <trkpt lat="42.84291" lon="-0.20163">
        <ele>2408.3</ele>
        <time>2022-07-09T10:17:25.000Z</time>
      </trkpt>
      <trkpt lat="42.84291" lon="-0.20163">
        <ele>2408.6</ele>
        <time>2022-07-09T10:17:32.000Z</time>
      </trkpt>
      <trkpt lat="42.84291" lon="-0.20163">
        <ele>2408.5</ele>
        <time>2022-07-09T10:17:33.000Z</time>
      </trkpt>
      <trkpt lat="42.84292" lon="-0.20163">
        <ele>2409.5</ele>
        <time>2022-07-09T10:17:37.000Z</time>
      </trkpt>
      <trkpt lat="42.84292" lon="-0.20163">
        <ele>2409.4</ele>
        <time>2022-07-09T10:17:39.000Z</time>
      </trkpt>
      <trkpt lat="42.84292" lon="-0.20163">
        <ele>2409</ele>
        <time>2022-07-09T10:17:41.000Z</time>
      </trkpt>
      <trkpt lat="42.84292" lon="-0.20163">
        <ele>2408.8</ele>
        <time>2022-07-09T10:17:42.000Z</time>
      </trkpt>
      <trkpt lat="42.84292" lon="-0.20163">
        <ele>2409</ele>
        <time>2022-07-09T10:17:49.000Z</time>
      </trkpt>
      <trkpt lat="42.84295" lon="-0.20167">
        <ele>2407.9</ele>
        <time>2022-07-09T10:18:01.000Z</time>
      </trkpt>
      <trkpt lat="42.84296" lon="-0.20167">
        <ele>2407.7</ele>
        <time>2022-07-09T10:18:02.000Z</time>
      </trkpt>
      <trkpt lat="42.84304" lon="-0.20173">
        <ele>2405.8</ele>
        <time>2022-07-09T10:18:14.000Z</time>
      </trkpt>
      <trkpt lat="42.84305" lon="-0.20172">
        <ele>2405.9</ele>
        <time>2022-07-09T10:18:18.000Z</time>
      </trkpt>
      <trkpt lat="42.84306" lon="-0.20172">
        <ele>2406.2</ele>
        <time>2022-07-09T10:18:20.000Z</time>
      </trkpt>
      <trkpt lat="42.84307" lon="-0.20173">
        <ele>2406.7</ele>
        <time>2022-07-09T10:18:25.000Z</time>
      </trkpt>
      <trkpt lat="42.84307" lon="-0.20173">
        <ele>2407.1</ele>
        <time>2022-07-09T10:18:43.000Z</time>
      </trkpt>
      <trkpt lat="42.84307" lon="-0.20173">
        <ele>2407.1</ele>
        <time>2022-07-09T10:18:44.000Z</time>
      </trkpt>
      <trkpt lat="42.84308" lon="-0.20173">
        <ele>2407.1</ele>
        <time>2022-07-09T10:18:50.000Z</time>
      </trkpt>
      <trkpt lat="42.84317" lon="-0.20173">
        <ele>2407.2</ele>
        <time>2022-07-09T10:18:59.000Z</time>
      </trkpt>
      <trkpt lat="42.84325" lon="-0.20169">
        <ele>2406.5</ele>
        <time>2022-07-09T10:19:14.000Z</time>
      </trkpt>
      <trkpt lat="42.84325" lon="-0.20169">
        <ele>2406.3</ele>
        <time>2022-07-09T10:19:15.000Z</time>
      </trkpt>
      <trkpt lat="42.84325" lon="-0.20169">
        <ele>2406.3</ele>
        <time>2022-07-09T10:19:16.000Z</time>
      </trkpt>
      <trkpt lat="42.84326" lon="-0.20169">
        <ele>2406</ele>
        <time>2022-07-09T10:19:19.000Z</time>
      </trkpt>
      <trkpt lat="42.84335" lon="-0.20167">
        <ele>2405.8</ele>
        <time>2022-07-09T10:19:30.000Z</time>
      </trkpt>
      <trkpt lat="42.84335" lon="-0.20167">
        <ele>2405.4</ele>
        <time>2022-07-09T10:19:32.000Z</time>
      </trkpt>
      <trkpt lat="42.84335" lon="-0.20167">
        <ele>2405.5</ele>
        <time>2022-07-09T10:19:33.000Z</time>
      </trkpt>
      <trkpt lat="42.84335" lon="-0.20167">
        <ele>2405.7</ele>
        <time>2022-07-09T10:19:34.000Z</time>
      </trkpt>
      <trkpt lat="42.84335" lon="-0.20167">
        <ele>2406.4</ele>
        <time>2022-07-09T10:19:41.000Z</time>
      </trkpt>
      <trkpt lat="42.84335" lon="-0.20167">
        <ele>2406.3</ele>
        <time>2022-07-09T10:19:42.000Z</time>
      </trkpt>
      <trkpt lat="42.84335" lon="-0.20167">
        <ele>2406.5</ele>
        <time>2022-07-09T10:20:17.000Z</time>
      </trkpt>
      <trkpt lat="42.84341" lon="-0.20167">
        <ele>2407.7</ele>
        <time>2022-07-09T10:20:32.000Z</time>
      </trkpt>
      <trkpt lat="42.84341" lon="-0.20167">
        <ele>2407.4</ele>
        <time>2022-07-09T10:20:34.000Z</time>
      </trkpt>
      <trkpt lat="42.84341" lon="-0.20167">
        <ele>2407.2</ele>
        <time>2022-07-09T10:20:37.000Z</time>
      </trkpt>
      <trkpt lat="42.84341" lon="-0.20167">
        <ele>2407.3</ele>
        <time>2022-07-09T10:20:44.000Z</time>
      </trkpt>
      <trkpt lat="42.84341" lon="-0.20167">
        <ele>2407.5</ele>
        <time>2022-07-09T10:20:45.000Z</time>
      </trkpt>
      <trkpt lat="42.84341" lon="-0.20167">
        <ele>2407.3</ele>
        <time>2022-07-09T10:20:53.000Z</time>
      </trkpt>
      <trkpt lat="42.84331" lon="-0.20164">
        <ele>2407.4</ele>
        <time>2022-07-09T10:21:05.000Z</time>
      </trkpt>
      <trkpt lat="42.8433" lon="-0.20152">
        <ele>2405.9</ele>
        <time>2022-07-09T10:21:17.000Z</time>
      </trkpt>
      <trkpt lat="42.84329" lon="-0.20145">
        <ele>2405.5</ele>
        <time>2022-07-09T10:21:27.000Z</time>
      </trkpt>
      <trkpt lat="42.84329" lon="-0.20145">
        <ele>2405.9</ele>
        <time>2022-07-09T10:21:30.000Z</time>
      </trkpt>
      <trkpt lat="42.84329" lon="-0.20149">
        <ele>2405.9</ele>
        <time>2022-07-09T10:21:39.000Z</time>
      </trkpt>
      <trkpt lat="42.84329" lon="-0.2015">
        <ele>2406.3</ele>
        <time>2022-07-09T10:21:41.000Z</time>
      </trkpt>
      <trkpt lat="42.84329" lon="-0.20162">
        <ele>2407.2</ele>
        <time>2022-07-09T10:21:55.000Z</time>
      </trkpt>
      <trkpt lat="42.84327" lon="-0.20172">
        <ele>2406.5</ele>
        <time>2022-07-09T10:22:18.000Z</time>
      </trkpt>
      <trkpt lat="42.84327" lon="-0.20172">
        <ele>2406.4</ele>
        <time>2022-07-09T10:22:22.000Z</time>
      </trkpt>
      <trkpt lat="42.84327" lon="-0.20172">
        <ele>2406.6</ele>
        <time>2022-07-09T10:22:23.000Z</time>
      </trkpt>
      <trkpt lat="42.84327" lon="-0.20172">
        <ele>2406.7</ele>
        <time>2022-07-09T10:22:24.000Z</time>
      </trkpt>
      <trkpt lat="42.84327" lon="-0.20172">
        <ele>2406.3</ele>
        <time>2022-07-09T10:22:25.000Z</time>
      </trkpt>
      <trkpt lat="42.84327" lon="-0.20173">
        <ele>2406.4</ele>
        <time>2022-07-09T10:22:29.000Z</time>
      </trkpt>
      <trkpt lat="42.84327" lon="-0.20173">
        <ele>2406</ele>
        <time>2022-07-09T10:22:32.000Z</time>
      </trkpt>
      <trkpt lat="42.84327" lon="-0.20173">
        <ele>2404.8</ele>
        <time>2022-07-09T10:22:35.000Z</time>
      </trkpt>
      <trkpt lat="42.84327" lon="-0.20173">
        <ele>2405.3</ele>
        <time>2022-07-09T10:22:36.000Z</time>
      </trkpt>
      <trkpt lat="42.84327" lon="-0.20173">
        <ele>2405.7</ele>
        <time>2022-07-09T10:22:37.000Z</time>
      </trkpt>
      <trkpt lat="42.84327" lon="-0.20173">
        <ele>2407.4</ele>
        <time>2022-07-09T10:22:42.000Z</time>
      </trkpt>
      <trkpt lat="42.84328" lon="-0.20173">
        <ele>2406.5</ele>
        <time>2022-07-09T10:22:45.000Z</time>
      </trkpt>
      <trkpt lat="42.84328" lon="-0.20174">
        <ele>2405.5</ele>
        <time>2022-07-09T10:22:53.000Z</time>
      </trkpt>
      <trkpt lat="42.84328" lon="-0.20173">
        <ele>2405.4</ele>
        <time>2022-07-09T10:22:54.000Z</time>
      </trkpt>
      <trkpt lat="42.84329" lon="-0.20173">
        <ele>2405</ele>
        <time>2022-07-09T10:22:58.000Z</time>
      </trkpt>
      <trkpt lat="42.84329" lon="-0.20173">
        <ele>2405.7</ele>
        <time>2022-07-09T10:26:02.000Z</time>
      </trkpt>
      <trkpt lat="42.84329" lon="-0.20173">
        <ele>2405.7</ele>
        <time>2022-07-09T10:26:03.000Z</time>
      </trkpt>
      <trkpt lat="42.84329" lon="-0.20173">
        <ele>2405.7</ele>
        <time>2022-07-09T10:28:23.000Z</time>
      </trkpt>
      <trkpt lat="42.84329" lon="-0.20173">
        <ele>2405.6</ele>
        <time>2022-07-09T10:28:24.000Z</time>
      </trkpt>
      <trkpt lat="42.8433" lon="-0.20173">
        <ele>2405.2</ele>
        <time>2022-07-09T10:31:42.000Z</time>
      </trkpt>
      <trkpt lat="42.8433" lon="-0.20173">
        <ele>2405.1</ele>
        <time>2022-07-09T10:31:43.000Z</time>
      </trkpt>
      <trkpt lat="42.8433" lon="-0.20173">
        <ele>2405.3</ele>
        <time>2022-07-09T10:38:53.000Z</time>
      </trkpt>
      <trkpt lat="42.8433" lon="-0.20173">
        <ele>2405.3</ele>
        <time>2022-07-09T10:38:54.000Z</time>
      </trkpt>
      <trkpt lat="42.8433" lon="-0.20173">
        <ele>2405.2</ele>
        <time>2022-07-09T10:48:54.000Z</time>
      </trkpt>
      <trkpt lat="42.8433" lon="-0.20173">
        <ele>2405.2</ele>
        <time>2022-07-09T10:48:55.000Z</time>
      </trkpt>
      <trkpt lat="42.8433" lon="-0.20174">
        <ele>2404.1</ele>
        <time>2022-07-09T10:56:25.000Z</time>
      </trkpt>
      <trkpt lat="42.8433" lon="-0.20174">
        <ele>2404.2</ele>
        <time>2022-07-09T10:56:26.000Z</time>
      </trkpt>
      <trkpt lat="42.8433" lon="-0.20174">
        <ele>2402.9</ele>
        <time>2022-07-09T11:03:43.000Z</time>
      </trkpt>
      <trkpt lat="42.8433" lon="-0.20173">
        <ele>2402.9</ele>
        <time>2022-07-09T11:03:45.000Z</time>
      </trkpt>
      <trkpt lat="42.8433" lon="-0.20172">
        <ele>2403.2</ele>
        <time>2022-07-09T11:03:54.000Z</time>
      </trkpt>
      <trkpt lat="42.8433" lon="-0.20172">
        <ele>2402.6</ele>
        <time>2022-07-09T11:03:56.000Z</time>
      </trkpt>
      <trkpt lat="42.8433" lon="-0.20171">
        <ele>2403.3</ele>
        <time>2022-07-09T11:04:01.000Z</time>
      </trkpt>
      <trkpt lat="42.84331" lon="-0.20159">
        <ele>2403.7</ele>
        <time>2022-07-09T11:04:16.000Z</time>
      </trkpt>
      <trkpt lat="42.8433" lon="-0.20147">
        <ele>2403</ele>
        <time>2022-07-09T11:04:33.000Z</time>
      </trkpt>
      <trkpt lat="42.8433" lon="-0.20148">
        <ele>2403.7</ele>
        <time>2022-07-09T11:04:42.000Z</time>
      </trkpt>
      <trkpt lat="42.84329" lon="-0.20147">
        <ele>2403.5</ele>
        <time>2022-07-09T11:04:47.000Z</time>
      </trkpt>
      <trkpt lat="42.84329" lon="-0.20147">
        <ele>2403.5</ele>
        <time>2022-07-09T11:04:49.000Z</time>
      </trkpt>
      <trkpt lat="42.84329" lon="-0.20147">
        <ele>2403.3</ele>
        <time>2022-07-09T11:04:50.000Z</time>
      </trkpt>
      <trkpt lat="42.84329" lon="-0.20146">
        <ele>2403</ele>
        <time>2022-07-09T11:04:51.000Z</time>
      </trkpt>
      <trkpt lat="42.84327" lon="-0.20137">
        <ele>2399.3</ele>
        <time>2022-07-09T11:05:15.000Z</time>
      </trkpt>
      <trkpt lat="42.84326" lon="-0.20137">
        <ele>2398.9</ele>
        <time>2022-07-09T11:05:16.000Z</time>
      </trkpt>
      <trkpt lat="42.84324" lon="-0.20126">
        <ele>2394.6</ele>
        <time>2022-07-09T11:05:42.000Z</time>
      </trkpt>
      <trkpt lat="42.84324" lon="-0.20126">
        <ele>2395.1</ele>
        <time>2022-07-09T11:05:47.000Z</time>
      </trkpt>
      <trkpt lat="42.84316" lon="-0.20118">
        <ele>2392.9</ele>
        <time>2022-07-09T11:06:02.000Z</time>
      </trkpt>
      <trkpt lat="42.84318" lon="-0.20116">
        <ele>2392.2</ele>
        <time>2022-07-09T11:06:13.000Z</time>
      </trkpt>
      <trkpt lat="42.84318" lon="-0.20116">
        <ele>2391.5</ele>
        <time>2022-07-09T11:06:15.000Z</time>
      </trkpt>
      <trkpt lat="42.84321" lon="-0.2012">
        <ele>2390.2</ele>
        <time>2022-07-09T11:06:27.000Z</time>
      </trkpt>
      <trkpt lat="42.84322" lon="-0.2012">
        <ele>2389.6</ele>
        <time>2022-07-09T11:06:31.000Z</time>
      </trkpt>
      <trkpt lat="42.84331" lon="-0.20124">
        <ele>2389</ele>
        <time>2022-07-09T11:06:41.000Z</time>
      </trkpt>
      <trkpt lat="42.84333" lon="-0.20126">
        <ele>2388.7</ele>
        <time>2022-07-09T11:06:45.000Z</time>
      </trkpt>
      <trkpt lat="42.84332" lon="-0.20126">
        <ele>2388.6</ele>
        <time>2022-07-09T11:06:47.000Z</time>
      </trkpt>
      <trkpt lat="42.84332" lon="-0.20126">
        <ele>2388.5</ele>
        <time>2022-07-09T11:06:49.000Z</time>
      </trkpt>
      <trkpt lat="42.84332" lon="-0.20126">
        <ele>2388.4</ele>
        <time>2022-07-09T11:06:50.000Z</time>
      </trkpt>
      <trkpt lat="42.84339" lon="-0.20125">
        <ele>2386.9</ele>
        <time>2022-07-09T11:07:04.000Z</time>
      </trkpt>
      <trkpt lat="42.84339" lon="-0.20125">
        <ele>2386.9</ele>
        <time>2022-07-09T11:07:11.000Z</time>
      </trkpt>
      <trkpt lat="42.84346" lon="-0.20125">
        <ele>2384.5</ele>
        <time>2022-07-09T11:07:25.000Z</time>
      </trkpt>
      <trkpt lat="42.84346" lon="-0.20125">
        <ele>2384.7</ele>
        <time>2022-07-09T11:07:26.000Z</time>
      </trkpt>
      <trkpt lat="42.8435" lon="-0.20127">
        <ele>2383.4</ele>
        <time>2022-07-09T11:07:33.000Z</time>
      </trkpt>
      <trkpt lat="42.84349" lon="-0.20127">
        <ele>2383.3</ele>
        <time>2022-07-09T11:07:34.000Z</time>
      </trkpt>
      <trkpt lat="42.84349" lon="-0.20127">
        <ele>2383.4</ele>
        <time>2022-07-09T11:07:35.000Z</time>
      </trkpt>
      <trkpt lat="42.84349" lon="-0.20127">
        <ele>2383.4</ele>
        <time>2022-07-09T11:07:36.000Z</time>
      </trkpt>
      <trkpt lat="42.84349" lon="-0.20127">
        <ele>2383.2</ele>
        <time>2022-07-09T11:07:38.000Z</time>
      </trkpt>
      <trkpt lat="42.84349" lon="-0.20127">
        <ele>2383.1</ele>
        <time>2022-07-09T11:07:39.000Z</time>
      </trkpt>
      <trkpt lat="42.84349" lon="-0.20127">
        <ele>2383</ele>
        <time>2022-07-09T11:07:40.000Z</time>
      </trkpt>
      <trkpt lat="42.84348" lon="-0.20127">
        <ele>2383.3</ele>
        <time>2022-07-09T11:07:45.000Z</time>
      </trkpt>
      <trkpt lat="42.84349" lon="-0.20127">
        <ele>2383.2</ele>
        <time>2022-07-09T11:07:48.000Z</time>
      </trkpt>
      <trkpt lat="42.84349" lon="-0.20127">
        <ele>2383.3</ele>
        <time>2022-07-09T11:07:50.000Z</time>
      </trkpt>
      <trkpt lat="42.84349" lon="-0.20127">
        <ele>2383.2</ele>
        <time>2022-07-09T11:07:51.000Z</time>
      </trkpt>
      <trkpt lat="42.84349" lon="-0.20127">
        <ele>2383</ele>
        <time>2022-07-09T11:07:52.000Z</time>
      </trkpt>
      <trkpt lat="42.84347" lon="-0.20126">
        <ele>2383</ele>
        <time>2022-07-09T11:07:57.000Z</time>
      </trkpt>
      <trkpt lat="42.84347" lon="-0.20125">
        <ele>2383</ele>
        <time>2022-07-09T11:07:58.000Z</time>
      </trkpt>
      <trkpt lat="42.84346" lon="-0.20125">
        <ele>2382.7</ele>
        <time>2022-07-09T11:08:00.000Z</time>
      </trkpt>
      <trkpt lat="42.84346" lon="-0.20125">
        <ele>2382.5</ele>
        <time>2022-07-09T11:08:01.000Z</time>
      </trkpt>
      <trkpt lat="42.84355" lon="-0.20122">
        <ele>2381.5</ele>
        <time>2022-07-09T11:08:16.000Z</time>
      </trkpt>
      <trkpt lat="42.84363" lon="-0.20118">
        <ele>2380.5</ele>
        <time>2022-07-09T11:08:29.000Z</time>
      </trkpt>
      <trkpt lat="42.84364" lon="-0.20117">
        <ele>2380.2</ele>
        <time>2022-07-09T11:08:32.000Z</time>
      </trkpt>
      <trkpt lat="42.84368" lon="-0.20114">
        <ele>2379.2</ele>
        <time>2022-07-09T11:08:41.000Z</time>
      </trkpt>
      <trkpt lat="42.84368" lon="-0.20113">
        <ele>2379.1</ele>
        <time>2022-07-09T11:08:44.000Z</time>
      </trkpt>
      <trkpt lat="42.84368" lon="-0.20113">
        <ele>2379.3</ele>
        <time>2022-07-09T11:08:45.000Z</time>
      </trkpt>
      <trkpt lat="42.84368" lon="-0.20113">
        <ele>2378.9</ele>
        <time>2022-07-09T11:08:49.000Z</time>
      </trkpt>
      <trkpt lat="42.84368" lon="-0.20113">
        <ele>2378.9</ele>
        <time>2022-07-09T11:08:51.000Z</time>
      </trkpt>
      <trkpt lat="42.84368" lon="-0.20113">
        <ele>2378.9</ele>
        <time>2022-07-09T11:08:52.000Z</time>
      </trkpt>
      <trkpt lat="42.84377" lon="-0.20109">
        <ele>2376.2</ele>
        <time>2022-07-09T11:09:11.000Z</time>
      </trkpt>
      <trkpt lat="42.84384" lon="-0.201">
        <ele>2373.2</ele>
        <time>2022-07-09T11:09:26.000Z</time>
      </trkpt>
      <trkpt lat="42.84388" lon="-0.20094">
        <ele>2370.4</ele>
        <time>2022-07-09T11:09:47.000Z</time>
      </trkpt>
      <trkpt lat="42.84389" lon="-0.20092">
        <ele>2370.3</ele>
        <time>2022-07-09T11:09:50.000Z</time>
      </trkpt>
      <trkpt lat="42.84395" lon="-0.20083">
        <ele>2369</ele>
        <time>2022-07-09T11:10:02.000Z</time>
      </trkpt>
      <trkpt lat="42.84402" lon="-0.20075">
        <ele>2367</ele>
        <time>2022-07-09T11:10:17.000Z</time>
      </trkpt>
      <trkpt lat="42.84408" lon="-0.20066">
        <ele>2364.6</ele>
        <time>2022-07-09T11:10:39.000Z</time>
      </trkpt>
      <trkpt lat="42.84409" lon="-0.20065">
        <ele>2364.6</ele>
        <time>2022-07-09T11:10:43.000Z</time>
      </trkpt>
      <trkpt lat="42.84409" lon="-0.20065">
        <ele>2364.2</ele>
        <time>2022-07-09T11:10:44.000Z</time>
      </trkpt>
      <trkpt lat="42.8441" lon="-0.20062">
        <ele>2363.7</ele>
        <time>2022-07-09T11:10:49.000Z</time>
      </trkpt>
      <trkpt lat="42.8441" lon="-0.20062">
        <ele>2363.4</ele>
        <time>2022-07-09T11:10:50.000Z</time>
      </trkpt>
      <trkpt lat="42.84412" lon="-0.2005">
        <ele>2361.3</ele>
        <time>2022-07-09T11:11:02.000Z</time>
      </trkpt>
      <trkpt lat="42.84412" lon="-0.2005">
        <ele>2361.3</ele>
        <time>2022-07-09T11:11:03.000Z</time>
      </trkpt>
      <trkpt lat="42.84412" lon="-0.2005">
        <ele>2361.2</ele>
        <time>2022-07-09T11:11:05.000Z</time>
      </trkpt>
      <trkpt lat="42.84417" lon="-0.20039">
        <ele>2358.8</ele>
        <time>2022-07-09T11:11:21.000Z</time>
      </trkpt>
      <trkpt lat="42.8442" lon="-0.2003">
        <ele>2357.2</ele>
        <time>2022-07-09T11:11:33.000Z</time>
      </trkpt>
      <trkpt lat="42.8442" lon="-0.20029">
        <ele>2357.2</ele>
        <time>2022-07-09T11:11:34.000Z</time>
      </trkpt>
      <trkpt lat="42.84422" lon="-0.20017">
        <ele>2355.5</ele>
        <time>2022-07-09T11:11:47.000Z</time>
      </trkpt>
      <trkpt lat="42.84424" lon="-0.20005">
        <ele>2354</ele>
        <time>2022-07-09T11:11:57.000Z</time>
      </trkpt>
      <trkpt lat="42.84428" lon="-0.19993">
        <ele>2352.2</ele>
        <time>2022-07-09T11:12:10.000Z</time>
      </trkpt>
      <trkpt lat="42.8442" lon="-0.19997">
        <ele>2350.5</ele>
        <time>2022-07-09T11:12:23.000Z</time>
      </trkpt>
      <trkpt lat="42.84412" lon="-0.20005">
        <ele>2348.5</ele>
        <time>2022-07-09T11:12:36.000Z</time>
      </trkpt>
      <trkpt lat="42.84409" lon="-0.20009">
        <ele>2346.9</ele>
        <time>2022-07-09T11:12:45.000Z</time>
      </trkpt>
      <trkpt lat="42.84409" lon="-0.20009">
        <ele>2346.5</ele>
        <time>2022-07-09T11:12:46.000Z</time>
      </trkpt>
      <trkpt lat="42.84401" lon="-0.20016">
        <ele>2345.3</ele>
        <time>2022-07-09T11:12:56.000Z</time>
      </trkpt>
      <trkpt lat="42.84393" lon="-0.20021">
        <ele>2344.3</ele>
        <time>2022-07-09T11:13:06.000Z</time>
      </trkpt>
      <trkpt lat="42.84389" lon="-0.20018">
        <ele>2342</ele>
        <time>2022-07-09T11:13:20.000Z</time>
      </trkpt>
      <trkpt lat="42.84389" lon="-0.20018">
        <ele>2341.9</ele>
        <time>2022-07-09T11:13:21.000Z</time>
      </trkpt>
      <trkpt lat="42.84393" lon="-0.20006">
        <ele>2340.2</ele>
        <time>2022-07-09T11:13:36.000Z</time>
      </trkpt>
      <trkpt lat="42.84395" lon="-0.19994">
        <ele>2338.4</ele>
        <time>2022-07-09T11:13:50.000Z</time>
      </trkpt>
      <trkpt lat="42.84397" lon="-0.19981">
        <ele>2336.6</ele>
        <time>2022-07-09T11:14:05.000Z</time>
      </trkpt>
      <trkpt lat="42.84398" lon="-0.19973">
        <ele>2335.7</ele>
        <time>2022-07-09T11:14:15.000Z</time>
      </trkpt>
      <trkpt lat="42.84399" lon="-0.19973">
        <ele>2335.4</ele>
        <time>2022-07-09T11:14:17.000Z</time>
      </trkpt>
      <trkpt lat="42.84399" lon="-0.19972">
        <ele>2335.3</ele>
        <time>2022-07-09T11:14:20.000Z</time>
      </trkpt>
      <trkpt lat="42.84399" lon="-0.19971">
        <ele>2335</ele>
        <time>2022-07-09T11:14:21.000Z</time>
      </trkpt>
      <trkpt lat="42.84401" lon="-0.19963">
        <ele>2333.6</ele>
        <time>2022-07-09T11:14:35.000Z</time>
      </trkpt>
      <trkpt lat="42.84401" lon="-0.19961">
        <ele>2333.4</ele>
        <time>2022-07-09T11:14:36.000Z</time>
      </trkpt>
      <trkpt lat="42.844" lon="-0.1996">
        <ele>2333</ele>
        <time>2022-07-09T11:14:40.000Z</time>
      </trkpt>
      <trkpt lat="42.844" lon="-0.1996">
        <ele>2332.9</ele>
        <time>2022-07-09T11:14:41.000Z</time>
      </trkpt>
      <trkpt lat="42.84404" lon="-0.19948">
        <ele>2330.5</ele>
        <time>2022-07-09T11:15:00.000Z</time>
      </trkpt>
      <trkpt lat="42.84404" lon="-0.19948">
        <ele>2330.4</ele>
        <time>2022-07-09T11:15:01.000Z</time>
      </trkpt>
      <trkpt lat="42.84404" lon="-0.19948">
        <ele>2330</ele>
        <time>2022-07-09T11:15:04.000Z</time>
      </trkpt>
      <trkpt lat="42.84402" lon="-0.19935">
        <ele>2328.3</ele>
        <time>2022-07-09T11:15:17.000Z</time>
      </trkpt>
      <trkpt lat="42.84403" lon="-0.19944">
        <ele>2327</ele>
        <time>2022-07-09T11:15:26.000Z</time>
      </trkpt>
      <trkpt lat="42.84403" lon="-0.19944">
        <ele>2326.9</ele>
        <time>2022-07-09T11:15:27.000Z</time>
      </trkpt>
      <trkpt lat="42.84403" lon="-0.19944">
        <ele>2326.8</ele>
        <time>2022-07-09T11:15:28.000Z</time>
      </trkpt>
      <trkpt lat="42.84404" lon="-0.19944">
        <ele>2326.8</ele>
        <time>2022-07-09T11:15:30.000Z</time>
      </trkpt>
      <trkpt lat="42.84404" lon="-0.19944">
        <ele>2326.5</ele>
        <time>2022-07-09T11:15:32.000Z</time>
      </trkpt>
      <trkpt lat="42.84404" lon="-0.19945">
        <ele>2326.8</ele>
        <time>2022-07-09T11:15:39.000Z</time>
      </trkpt>
      <trkpt lat="42.84404" lon="-0.19945">
        <ele>2326.8</ele>
        <time>2022-07-09T11:15:40.000Z</time>
      </trkpt>
      <trkpt lat="42.84404" lon="-0.19945">
        <ele>2326.5</ele>
        <time>2022-07-09T11:15:44.000Z</time>
      </trkpt>
      <trkpt lat="42.84396" lon="-0.19951">
        <ele>2324.9</ele>
        <time>2022-07-09T11:15:58.000Z</time>
      </trkpt>
      <trkpt lat="42.84394" lon="-0.19952">
        <ele>2325.1</ele>
        <time>2022-07-09T11:16:03.000Z</time>
      </trkpt>
      <trkpt lat="42.84394" lon="-0.19952">
        <ele>2324.7</ele>
        <time>2022-07-09T11:16:09.000Z</time>
      </trkpt>
      <trkpt lat="42.84395" lon="-0.1995">
        <ele>2324.7</ele>
        <time>2022-07-09T11:16:17.000Z</time>
      </trkpt>
      <trkpt lat="42.84395" lon="-0.1995">
        <ele>2324.5</ele>
        <time>2022-07-09T11:16:19.000Z</time>
      </trkpt>
      <trkpt lat="42.84395" lon="-0.1995">
        <ele>2324.8</ele>
        <time>2022-07-09T11:16:22.000Z</time>
      </trkpt>
      <trkpt lat="42.84395" lon="-0.1995">
        <ele>2324.8</ele>
        <time>2022-07-09T11:16:23.000Z</time>
      </trkpt>
      <trkpt lat="42.84395" lon="-0.1995">
        <ele>2324.8</ele>
        <time>2022-07-09T11:16:24.000Z</time>
      </trkpt>
      <trkpt lat="42.84395" lon="-0.19949">
        <ele>2324.7</ele>
        <time>2022-07-09T11:16:25.000Z</time>
      </trkpt>
      <trkpt lat="42.84395" lon="-0.1995">
        <ele>2324.5</ele>
        <time>2022-07-09T11:16:27.000Z</time>
      </trkpt>
      <trkpt lat="42.84396" lon="-0.1995">
        <ele>2324.7</ele>
        <time>2022-07-09T11:16:28.000Z</time>
      </trkpt>
      <trkpt lat="42.84388" lon="-0.19955">
        <ele>2324.4</ele>
        <time>2022-07-09T11:16:39.000Z</time>
      </trkpt>
      <trkpt lat="42.84385" lon="-0.19952">
        <ele>2323.2</ele>
        <time>2022-07-09T11:16:46.000Z</time>
      </trkpt>
      <trkpt lat="42.84385" lon="-0.19953">
        <ele>2322.9</ele>
        <time>2022-07-09T11:16:47.000Z</time>
      </trkpt>
      <trkpt lat="42.84391" lon="-0.19945">
        <ele>2321.4</ele>
        <time>2022-07-09T11:17:03.000Z</time>
      </trkpt>
      <trkpt lat="42.84391" lon="-0.19944">
        <ele>2321.4</ele>
        <time>2022-07-09T11:17:05.000Z</time>
      </trkpt>
      <trkpt lat="42.84393" lon="-0.19932">
        <ele>2320</ele>
        <time>2022-07-09T11:17:19.000Z</time>
      </trkpt>
      <trkpt lat="42.84392" lon="-0.1992">
        <ele>2318.1</ele>
        <time>2022-07-09T11:17:30.000Z</time>
      </trkpt>
      <trkpt lat="42.84391" lon="-0.19909">
        <ele>2316.9</ele>
        <time>2022-07-09T11:17:42.000Z</time>
      </trkpt>
      <trkpt lat="42.84391" lon="-0.19908">
        <ele>2316.5</ele>
        <time>2022-07-09T11:17:44.000Z</time>
      </trkpt>
      <trkpt lat="42.84391" lon="-0.19907">
        <ele>2316</ele>
        <time>2022-07-09T11:17:46.000Z</time>
      </trkpt>
      <trkpt lat="42.84391" lon="-0.19906">
        <ele>2315.9</ele>
        <time>2022-07-09T11:17:47.000Z</time>
      </trkpt>
      <trkpt lat="42.8439" lon="-0.19897">
        <ele>2314.2</ele>
        <time>2022-07-09T11:17:59.000Z</time>
      </trkpt>
      <trkpt lat="42.8439" lon="-0.19897">
        <ele>2314.2</ele>
        <time>2022-07-09T11:18:00.000Z</time>
      </trkpt>
      <trkpt lat="42.84389" lon="-0.19884">
        <ele>2311.1</ele>
        <time>2022-07-09T11:18:16.000Z</time>
      </trkpt>
      <trkpt lat="42.84388" lon="-0.19871">
        <ele>2308.9</ele>
        <time>2022-07-09T11:18:30.000Z</time>
      </trkpt>
      <trkpt lat="42.84386" lon="-0.19868">
        <ele>2307.7</ele>
        <time>2022-07-09T11:18:39.000Z</time>
      </trkpt>
      <trkpt lat="42.84386" lon="-0.19868">
        <ele>2307.7</ele>
        <time>2022-07-09T11:18:40.000Z</time>
      </trkpt>
      <trkpt lat="42.84385" lon="-0.19865">
        <ele>2306.5</ele>
        <time>2022-07-09T11:18:53.000Z</time>
      </trkpt>
      <trkpt lat="42.84385" lon="-0.19866">
        <ele>2306.3</ele>
        <time>2022-07-09T11:19:00.000Z</time>
      </trkpt>
      <trkpt lat="42.84385" lon="-0.19866">
        <ele>2306.4</ele>
        <time>2022-07-09T11:19:01.000Z</time>
      </trkpt>
      <trkpt lat="42.84385" lon="-0.19867">
        <ele>2306.4</ele>
        <time>2022-07-09T11:19:10.000Z</time>
      </trkpt>
      <trkpt lat="42.84385" lon="-0.19867">
        <ele>2306.4</ele>
        <time>2022-07-09T11:19:11.000Z</time>
      </trkpt>
      <trkpt lat="42.84385" lon="-0.19867">
        <ele>2306.3</ele>
        <time>2022-07-09T11:19:13.000Z</time>
      </trkpt>
      <trkpt lat="42.84385" lon="-0.19867">
        <ele>2306.2</ele>
        <time>2022-07-09T11:19:14.000Z</time>
      </trkpt>
      <trkpt lat="42.84385" lon="-0.19867">
        <ele>2305.4</ele>
        <time>2022-07-09T11:19:51.000Z</time>
      </trkpt>
      <trkpt lat="42.84385" lon="-0.19868">
        <ele>2305.5</ele>
        <time>2022-07-09T11:19:52.000Z</time>
      </trkpt>
      <trkpt lat="42.84385" lon="-0.19868">
        <ele>2305.5</ele>
        <time>2022-07-09T11:19:58.000Z</time>
      </trkpt>
      <trkpt lat="42.84385" lon="-0.19869">
        <ele>2305.5</ele>
        <time>2022-07-09T11:20:00.000Z</time>
      </trkpt>
      <trkpt lat="42.84385" lon="-0.19869">
        <ele>2305.6</ele>
        <time>2022-07-09T11:20:08.000Z</time>
      </trkpt>
      <trkpt lat="42.84384" lon="-0.1987">
        <ele>2305.4</ele>
        <time>2022-07-09T11:20:13.000Z</time>
      </trkpt>
      <trkpt lat="42.84384" lon="-0.1987">
        <ele>2305.4</ele>
        <time>2022-07-09T11:20:14.000Z</time>
      </trkpt>
      <trkpt lat="42.84384" lon="-0.1987">
        <ele>2305.5</ele>
        <time>2022-07-09T11:20:16.000Z</time>
      </trkpt>
      <trkpt lat="42.84384" lon="-0.1987">
        <ele>2305.4</ele>
        <time>2022-07-09T11:20:20.000Z</time>
      </trkpt>
      <trkpt lat="42.84384" lon="-0.1987">
        <ele>2305.4</ele>
        <time>2022-07-09T11:20:22.000Z</time>
      </trkpt>
      <trkpt lat="42.84384" lon="-0.19869">
        <ele>2305.2</ele>
        <time>2022-07-09T11:20:26.000Z</time>
      </trkpt>
      <trkpt lat="42.8438" lon="-0.19857">
        <ele>2304.4</ele>
        <time>2022-07-09T11:20:37.000Z</time>
      </trkpt>
      <trkpt lat="42.84378" lon="-0.19845">
        <ele>2303.4</ele>
        <time>2022-07-09T11:20:49.000Z</time>
      </trkpt>
      <trkpt lat="42.84378" lon="-0.19845">
        <ele>2303.6</ele>
        <time>2022-07-09T11:20:52.000Z</time>
      </trkpt>
      <trkpt lat="42.84376" lon="-0.19832">
        <ele>2302.7</ele>
        <time>2022-07-09T11:21:05.000Z</time>
      </trkpt>
      <trkpt lat="42.84376" lon="-0.19832">
        <ele>2302.7</ele>
        <time>2022-07-09T11:21:08.000Z</time>
      </trkpt>
      <trkpt lat="42.84376" lon="-0.19831">
        <ele>2302.5</ele>
        <time>2022-07-09T11:21:24.000Z</time>
      </trkpt>
      <trkpt lat="42.84377" lon="-0.1983">
        <ele>2302.3</ele>
        <time>2022-07-09T11:21:28.000Z</time>
      </trkpt>
      <trkpt lat="42.84377" lon="-0.19831">
        <ele>2302.5</ele>
        <time>2022-07-09T11:21:41.000Z</time>
      </trkpt>
      <trkpt lat="42.84377" lon="-0.19831">
        <ele>2302.6</ele>
        <time>2022-07-09T11:21:42.000Z</time>
      </trkpt>
      <trkpt lat="42.84377" lon="-0.19832">
        <ele>2302.6</ele>
        <time>2022-07-09T11:21:43.000Z</time>
      </trkpt>
      <trkpt lat="42.84377" lon="-0.19832">
        <ele>2302.5</ele>
        <time>2022-07-09T11:21:44.000Z</time>
      </trkpt>
      <trkpt lat="42.84377" lon="-0.19832">
        <ele>2302.6</ele>
        <time>2022-07-09T11:21:45.000Z</time>
      </trkpt>
      <trkpt lat="42.84377" lon="-0.19832">
        <ele>2302.8</ele>
        <time>2022-07-09T11:21:46.000Z</time>
      </trkpt>
      <trkpt lat="42.84377" lon="-0.19833">
        <ele>2302.4</ele>
        <time>2022-07-09T11:21:49.000Z</time>
      </trkpt>
      <trkpt lat="42.84377" lon="-0.19833">
        <ele>2302.6</ele>
        <time>2022-07-09T11:21:50.000Z</time>
      </trkpt>
      <trkpt lat="42.84377" lon="-0.19833">
        <ele>2302.7</ele>
        <time>2022-07-09T11:21:51.000Z</time>
      </trkpt>
      <trkpt lat="42.84377" lon="-0.19833">
        <ele>2302.6</ele>
        <time>2022-07-09T11:21:52.000Z</time>
      </trkpt>
      <trkpt lat="42.84377" lon="-0.19833">
        <ele>2302.5</ele>
        <time>2022-07-09T11:21:54.000Z</time>
      </trkpt>
      <trkpt lat="42.84377" lon="-0.19833">
        <ele>2302.5</ele>
        <time>2022-07-09T11:21:55.000Z</time>
      </trkpt>
      <trkpt lat="42.84377" lon="-0.19834">
        <ele>2302.6</ele>
        <time>2022-07-09T11:21:56.000Z</time>
      </trkpt>
      <trkpt lat="42.84377" lon="-0.19821">
        <ele>2300.9</ele>
        <time>2022-07-09T11:22:11.000Z</time>
      </trkpt>
      <trkpt lat="42.84376" lon="-0.19808">
        <ele>2300.5</ele>
        <time>2022-07-09T11:22:24.000Z</time>
      </trkpt>
      <trkpt lat="42.84377" lon="-0.19801">
        <ele>2300.9</ele>
        <time>2022-07-09T11:22:35.000Z</time>
      </trkpt>
      <trkpt lat="42.84377" lon="-0.198">
        <ele>2300.9</ele>
        <time>2022-07-09T11:22:36.000Z</time>
      </trkpt>
      <trkpt lat="42.84375" lon="-0.19787">
        <ele>2300.6</ele>
        <time>2022-07-09T11:22:48.000Z</time>
      </trkpt>
      <trkpt lat="42.84372" lon="-0.19776">
        <ele>2300.5</ele>
        <time>2022-07-09T11:22:59.000Z</time>
      </trkpt>
      <trkpt lat="42.84372" lon="-0.19768">
        <ele>2301.2</ele>
        <time>2022-07-09T11:23:10.000Z</time>
      </trkpt>
      <trkpt lat="42.84372" lon="-0.19766">
        <ele>2301.5</ele>
        <time>2022-07-09T11:23:12.000Z</time>
      </trkpt>
      <trkpt lat="42.84369" lon="-0.19754">
        <ele>2301.3</ele>
        <time>2022-07-09T11:23:26.000Z</time>
      </trkpt>
      <trkpt lat="42.84366" lon="-0.19743">
        <ele>2301.1</ele>
        <time>2022-07-09T11:23:39.000Z</time>
      </trkpt>
      <trkpt lat="42.84364" lon="-0.1973">
        <ele>2299.6</ele>
        <time>2022-07-09T11:23:53.000Z</time>
      </trkpt>
      <trkpt lat="42.84364" lon="-0.19718">
        <ele>2299</ele>
        <time>2022-07-09T11:24:09.000Z</time>
      </trkpt>
      <trkpt lat="42.84364" lon="-0.19714">
        <ele>2298.9</ele>
        <time>2022-07-09T11:24:16.000Z</time>
      </trkpt>
      <trkpt lat="42.84364" lon="-0.19714">
        <ele>2299</ele>
        <time>2022-07-09T11:24:17.000Z</time>
      </trkpt>
      <trkpt lat="42.84358" lon="-0.19704">
        <ele>2298.6</ele>
        <time>2022-07-09T11:24:32.000Z</time>
      </trkpt>
      <trkpt lat="42.84356" lon="-0.19691">
        <ele>2298.9</ele>
        <time>2022-07-09T11:24:49.000Z</time>
      </trkpt>
      <trkpt lat="42.84353" lon="-0.19679">
        <ele>2299</ele>
        <time>2022-07-09T11:25:03.000Z</time>
      </trkpt>
      <trkpt lat="42.84349" lon="-0.19667">
        <ele>2299</ele>
        <time>2022-07-09T11:25:17.000Z</time>
      </trkpt>
      <trkpt lat="42.84347" lon="-0.19654">
        <ele>2298</ele>
        <time>2022-07-09T11:25:32.000Z</time>
      </trkpt>
      <trkpt lat="42.84348" lon="-0.19642">
        <ele>2295.8</ele>
        <time>2022-07-09T11:25:49.000Z</time>
      </trkpt>
      <trkpt lat="42.84346" lon="-0.19629">
        <ele>2293.1</ele>
        <time>2022-07-09T11:26:08.000Z</time>
      </trkpt>
      <trkpt lat="42.84346" lon="-0.19617">
        <ele>2289.7</ele>
        <time>2022-07-09T11:26:30.000Z</time>
      </trkpt>
      <trkpt lat="42.84348" lon="-0.19604">
        <ele>2288.4</ele>
        <time>2022-07-09T11:26:43.000Z</time>
      </trkpt>
      <trkpt lat="42.84348" lon="-0.19591">
        <ele>2287</ele>
        <time>2022-07-09T11:26:55.000Z</time>
      </trkpt>
      <trkpt lat="42.84347" lon="-0.19579">
        <ele>2284.9</ele>
        <time>2022-07-09T11:27:10.000Z</time>
      </trkpt>
      <trkpt lat="42.84347" lon="-0.19566">
        <ele>2282.8</ele>
        <time>2022-07-09T11:27:23.000Z</time>
      </trkpt>
      <trkpt lat="42.84347" lon="-0.19553">
        <ele>2281.4</ele>
        <time>2022-07-09T11:27:32.000Z</time>
      </trkpt>
      <trkpt lat="42.84348" lon="-0.19541">
        <ele>2280.2</ele>
        <time>2022-07-09T11:27:46.000Z</time>
      </trkpt>
      <trkpt lat="42.84348" lon="-0.19541">
        <ele>2279.8</ele>
        <time>2022-07-09T11:27:47.000Z</time>
      </trkpt>
      <trkpt lat="42.8435" lon="-0.19532">
        <ele>2277.3</ele>
        <time>2022-07-09T11:28:03.000Z</time>
      </trkpt>
      <trkpt lat="42.8435" lon="-0.19532">
        <ele>2277.1</ele>
        <time>2022-07-09T11:28:04.000Z</time>
      </trkpt>
      <trkpt lat="42.8435" lon="-0.19532">
        <ele>2277</ele>
        <time>2022-07-09T11:28:06.000Z</time>
      </trkpt>
      <trkpt lat="42.8435" lon="-0.19532">
        <ele>2276.9</ele>
        <time>2022-07-09T11:28:07.000Z</time>
      </trkpt>
      <trkpt lat="42.84349" lon="-0.19519">
        <ele>2274.2</ele>
        <time>2022-07-09T11:28:26.000Z</time>
      </trkpt>
      <trkpt lat="42.84347" lon="-0.19506">
        <ele>2272.7</ele>
        <time>2022-07-09T11:28:41.000Z</time>
      </trkpt>
      <trkpt lat="42.84343" lon="-0.19494">
        <ele>2271.5</ele>
        <time>2022-07-09T11:28:54.000Z</time>
      </trkpt>
      <trkpt lat="42.84339" lon="-0.19483">
        <ele>2270.2</ele>
        <time>2022-07-09T11:29:05.000Z</time>
      </trkpt>
      <trkpt lat="42.84334" lon="-0.19472">
        <ele>2268.8</ele>
        <time>2022-07-09T11:29:18.000Z</time>
      </trkpt>
      <trkpt lat="42.84333" lon="-0.19464">
        <ele>2268.3</ele>
        <time>2022-07-09T11:29:29.000Z</time>
      </trkpt>
      <trkpt lat="42.84333" lon="-0.19464">
        <ele>2267.9</ele>
        <time>2022-07-09T11:29:34.000Z</time>
      </trkpt>
      <trkpt lat="42.84332" lon="-0.19452">
        <ele>2265.9</ele>
        <time>2022-07-09T11:29:52.000Z</time>
      </trkpt>
      <trkpt lat="42.84332" lon="-0.19451">
        <ele>2265.9</ele>
        <time>2022-07-09T11:29:54.000Z</time>
      </trkpt>
      <trkpt lat="42.8433" lon="-0.19438">
        <ele>2263.2</ele>
        <time>2022-07-09T11:30:08.000Z</time>
      </trkpt>
      <trkpt lat="42.84329" lon="-0.19426">
        <ele>2261.8</ele>
        <time>2022-07-09T11:30:21.000Z</time>
      </trkpt>
      <trkpt lat="42.8433" lon="-0.19416">
        <ele>2258.8</ele>
        <time>2022-07-09T11:30:37.000Z</time>
      </trkpt>
      <trkpt lat="42.8433" lon="-0.19416">
        <ele>2258.6</ele>
        <time>2022-07-09T11:30:39.000Z</time>
      </trkpt>
      <trkpt lat="42.84329" lon="-0.19414">
        <ele>2257.5</ele>
        <time>2022-07-09T11:30:47.000Z</time>
      </trkpt>
      <trkpt lat="42.84329" lon="-0.19414">
        <ele>2256.3</ele>
        <time>2022-07-09T11:31:08.000Z</time>
      </trkpt>
      <trkpt lat="42.84329" lon="-0.19414">
        <ele>2257.1</ele>
        <time>2022-07-09T11:31:10.000Z</time>
      </trkpt>
      <trkpt lat="42.84329" lon="-0.19414">
        <ele>2256.7</ele>
        <time>2022-07-09T11:31:18.000Z</time>
      </trkpt>
      <trkpt lat="42.84329" lon="-0.19414">
        <ele>2256.6</ele>
        <time>2022-07-09T11:31:19.000Z</time>
      </trkpt>
      <trkpt lat="42.84329" lon="-0.19415">
        <ele>2256.3</ele>
        <time>2022-07-09T11:31:22.000Z</time>
      </trkpt>
      <trkpt lat="42.84328" lon="-0.19416">
        <ele>2256.3</ele>
        <time>2022-07-09T11:31:26.000Z</time>
      </trkpt>
      <trkpt lat="42.84329" lon="-0.19416">
        <ele>2256.3</ele>
        <time>2022-07-09T11:31:27.000Z</time>
      </trkpt>
      <trkpt lat="42.84329" lon="-0.19416">
        <ele>2256.5</ele>
        <time>2022-07-09T11:31:28.000Z</time>
      </trkpt>
      <trkpt lat="42.84328" lon="-0.19415">
        <ele>2256.3</ele>
        <time>2022-07-09T11:31:29.000Z</time>
      </trkpt>
      <trkpt lat="42.84329" lon="-0.19414">
        <ele>2256.1</ele>
        <time>2022-07-09T11:31:34.000Z</time>
      </trkpt>
      <trkpt lat="42.84329" lon="-0.19414">
        <ele>2256</ele>
        <time>2022-07-09T11:31:35.000Z</time>
      </trkpt>
      <trkpt lat="42.84329" lon="-0.19414">
        <ele>2255.9</ele>
        <time>2022-07-09T11:31:36.000Z</time>
      </trkpt>
      <trkpt lat="42.84329" lon="-0.19414">
        <ele>2256.5</ele>
        <time>2022-07-09T11:31:43.000Z</time>
      </trkpt>
      <trkpt lat="42.84323" lon="-0.19404">
        <ele>2252.3</ele>
        <time>2022-07-09T11:32:03.000Z</time>
      </trkpt>
      <trkpt lat="42.84326" lon="-0.1939">
        <ele>2249.8</ele>
        <time>2022-07-09T11:32:13.000Z</time>
      </trkpt>
      <trkpt lat="42.84326" lon="-0.19376">
        <ele>2247.1</ele>
        <time>2022-07-09T11:32:23.000Z</time>
      </trkpt>
      <trkpt lat="42.84325" lon="-0.19364">
        <ele>2244.9</ele>
        <time>2022-07-09T11:32:33.000Z</time>
      </trkpt>
      <trkpt lat="42.84325" lon="-0.19361">
        <ele>2244</ele>
        <time>2022-07-09T11:32:37.000Z</time>
      </trkpt>
      <trkpt lat="42.84325" lon="-0.19361">
        <ele>2243.9</ele>
        <time>2022-07-09T11:32:39.000Z</time>
      </trkpt>
      <trkpt lat="42.84325" lon="-0.19361">
        <ele>2243.8</ele>
        <time>2022-07-09T11:32:40.000Z</time>
      </trkpt>
      <trkpt lat="42.84325" lon="-0.19361">
        <ele>2243.8</ele>
        <time>2022-07-09T11:32:42.000Z</time>
      </trkpt>
      <trkpt lat="42.84326" lon="-0.19348">
        <ele>2242.7</ele>
        <time>2022-07-09T11:32:51.000Z</time>
      </trkpt>
      <trkpt lat="42.84328" lon="-0.19335">
        <ele>2241.9</ele>
        <time>2022-07-09T11:33:00.000Z</time>
      </trkpt>
      <trkpt lat="42.84331" lon="-0.19322">
        <ele>2241.6</ele>
        <time>2022-07-09T11:33:08.000Z</time>
      </trkpt>
      <trkpt lat="42.84335" lon="-0.19311">
        <ele>2241.6</ele>
        <time>2022-07-09T11:33:20.000Z</time>
      </trkpt>
      <trkpt lat="42.84336" lon="-0.19298">
        <ele>2241.3</ele>
        <time>2022-07-09T11:33:29.000Z</time>
      </trkpt>
      <trkpt lat="42.84334" lon="-0.19286">
        <ele>2241.3</ele>
        <time>2022-07-09T11:33:40.000Z</time>
      </trkpt>
      <trkpt lat="42.84335" lon="-0.19284">
        <ele>2241.7</ele>
        <time>2022-07-09T11:33:48.000Z</time>
      </trkpt>
      <trkpt lat="42.84335" lon="-0.19284">
        <ele>2242.6</ele>
        <time>2022-07-09T11:34:14.000Z</time>
      </trkpt>
      <trkpt lat="42.84341" lon="-0.19275">
        <ele>2241.1</ele>
        <time>2022-07-09T11:34:31.000Z</time>
      </trkpt>
      <trkpt lat="42.84341" lon="-0.19275">
        <ele>2241.2</ele>
        <time>2022-07-09T11:34:33.000Z</time>
      </trkpt>
      <trkpt lat="42.84342" lon="-0.19276">
        <ele>2241.5</ele>
        <time>2022-07-09T11:34:42.000Z</time>
      </trkpt>
      <trkpt lat="42.84342" lon="-0.19275">
        <ele>2241.2</ele>
        <time>2022-07-09T11:34:47.000Z</time>
      </trkpt>
      <trkpt lat="42.84342" lon="-0.19275">
        <ele>2241.3</ele>
        <time>2022-07-09T11:34:48.000Z</time>
      </trkpt>
      <trkpt lat="42.84342" lon="-0.19275">
        <ele>2241.5</ele>
        <time>2022-07-09T11:34:49.000Z</time>
      </trkpt>
      <trkpt lat="42.84342" lon="-0.19275">
        <ele>2241</ele>
        <time>2022-07-09T11:35:00.000Z</time>
      </trkpt>
      <trkpt lat="42.84346" lon="-0.19264">
        <ele>2240</ele>
        <time>2022-07-09T11:35:19.000Z</time>
      </trkpt>
      <trkpt lat="42.84354" lon="-0.19258">
        <ele>2238.4</ele>
        <time>2022-07-09T11:35:35.000Z</time>
      </trkpt>
      <trkpt lat="42.84357" lon="-0.19257">
        <ele>2237.6</ele>
        <time>2022-07-09T11:35:42.000Z</time>
      </trkpt>
      <trkpt lat="42.84358" lon="-0.19257">
        <ele>2237.4</ele>
        <time>2022-07-09T11:35:43.000Z</time>
      </trkpt>
      <trkpt lat="42.84366" lon="-0.19254">
        <ele>2236.3</ele>
        <time>2022-07-09T11:35:53.000Z</time>
      </trkpt>
      <trkpt lat="42.8437" lon="-0.19248">
        <ele>2235.2</ele>
        <time>2022-07-09T11:36:04.000Z</time>
      </trkpt>
      <trkpt lat="42.8437" lon="-0.19248">
        <ele>2235.7</ele>
        <time>2022-07-09T11:36:13.000Z</time>
      </trkpt>
      <trkpt lat="42.84372" lon="-0.19235">
        <ele>2233.4</ele>
        <time>2022-07-09T11:36:25.000Z</time>
      </trkpt>
      <trkpt lat="42.84373" lon="-0.19223">
        <ele>2232.2</ele>
        <time>2022-07-09T11:36:38.000Z</time>
      </trkpt>
      <trkpt lat="42.84374" lon="-0.1922">
        <ele>2230.9</ele>
        <time>2022-07-09T11:36:44.000Z</time>
      </trkpt>
      <trkpt lat="42.84374" lon="-0.1922">
        <ele>2231.4</ele>
        <time>2022-07-09T11:36:51.000Z</time>
      </trkpt>
      <trkpt lat="42.84374" lon="-0.1922">
        <ele>2231.3</ele>
        <time>2022-07-09T11:36:52.000Z</time>
      </trkpt>
      <trkpt lat="42.84374" lon="-0.19219">
        <ele>2231.4</ele>
        <time>2022-07-09T11:36:54.000Z</time>
      </trkpt>
      <trkpt lat="42.84376" lon="-0.19207">
        <ele>2229.8</ele>
        <time>2022-07-09T11:37:03.000Z</time>
      </trkpt>
      <trkpt lat="42.84379" lon="-0.19195">
        <ele>2228</ele>
        <time>2022-07-09T11:37:12.000Z</time>
      </trkpt>
      <trkpt lat="42.8438" lon="-0.19183">
        <ele>2226.2</ele>
        <time>2022-07-09T11:37:20.000Z</time>
      </trkpt>
      <trkpt lat="42.84382" lon="-0.1917">
        <ele>2224.6</ele>
        <time>2022-07-09T11:37:30.000Z</time>
      </trkpt>
      <trkpt lat="42.84384" lon="-0.19158">
        <ele>2222.2</ele>
        <time>2022-07-09T11:37:46.000Z</time>
      </trkpt>
      <trkpt lat="42.84385" lon="-0.19145">
        <ele>2220.4</ele>
        <time>2022-07-09T11:38:00.000Z</time>
      </trkpt>
      <trkpt lat="42.84386" lon="-0.19141">
        <ele>2219.5</ele>
        <time>2022-07-09T11:38:07.000Z</time>
      </trkpt>
      <trkpt lat="42.84386" lon="-0.19141">
        <ele>2219.1</ele>
        <time>2022-07-09T11:38:08.000Z</time>
      </trkpt>
      <trkpt lat="42.84388" lon="-0.19128">
        <ele>2217.3</ele>
        <time>2022-07-09T11:38:21.000Z</time>
      </trkpt>
      <trkpt lat="42.8439" lon="-0.19115">
        <ele>2215.4</ele>
        <time>2022-07-09T11:38:34.000Z</time>
      </trkpt>
      <trkpt lat="42.84393" lon="-0.19102">
        <ele>2212.7</ele>
        <time>2022-07-09T11:38:48.000Z</time>
      </trkpt>
      <trkpt lat="42.84396" lon="-0.19093">
        <ele>2211.5</ele>
        <time>2022-07-09T11:39:00.000Z</time>
      </trkpt>
      <trkpt lat="42.84396" lon="-0.19093">
        <ele>2211</ele>
        <time>2022-07-09T11:39:01.000Z</time>
      </trkpt>
      <trkpt lat="42.84399" lon="-0.19081">
        <ele>2209.1</ele>
        <time>2022-07-09T11:39:18.000Z</time>
      </trkpt>
      <trkpt lat="42.84405" lon="-0.19072">
        <ele>2207.6</ele>
        <time>2022-07-09T11:39:37.000Z</time>
      </trkpt>
      <trkpt lat="42.84405" lon="-0.19072">
        <ele>2207.1</ele>
        <time>2022-07-09T11:39:48.000Z</time>
      </trkpt>
      <trkpt lat="42.84405" lon="-0.19071">
        <ele>2207.1</ele>
        <time>2022-07-09T11:39:51.000Z</time>
      </trkpt>
      <trkpt lat="42.84405" lon="-0.19071">
        <ele>2207</ele>
        <time>2022-07-09T11:39:53.000Z</time>
      </trkpt>
      <trkpt lat="42.84405" lon="-0.19071">
        <ele>2207.1</ele>
        <time>2022-07-09T11:39:54.000Z</time>
      </trkpt>
      <trkpt lat="42.84404" lon="-0.19072">
        <ele>2207.3</ele>
        <time>2022-07-09T11:39:58.000Z</time>
      </trkpt>
      <trkpt lat="42.84395" lon="-0.19074">
        <ele>2205</ele>
        <time>2022-07-09T11:40:12.000Z</time>
      </trkpt>
      <trkpt lat="42.84387" lon="-0.19077">
        <ele>2203.6</ele>
        <time>2022-07-09T11:40:25.000Z</time>
      </trkpt>
      <trkpt lat="42.84379" lon="-0.19083">
        <ele>2202</ele>
        <time>2022-07-09T11:40:39.000Z</time>
      </trkpt>
      <trkpt lat="42.84371" lon="-0.1909">
        <ele>2199.7</ele>
        <time>2022-07-09T11:40:52.000Z</time>
      </trkpt>
      <trkpt lat="42.84365" lon="-0.19099">
        <ele>2198</ele>
        <time>2022-07-09T11:41:08.000Z</time>
      </trkpt>
      <trkpt lat="42.84358" lon="-0.19107">
        <ele>2196.5</ele>
        <time>2022-07-09T11:41:20.000Z</time>
      </trkpt>
      <trkpt lat="42.8435" lon="-0.19115">
        <ele>2194.3</ele>
        <time>2022-07-09T11:41:33.000Z</time>
      </trkpt>
      <trkpt lat="42.84344" lon="-0.19123">
        <ele>2192.9</ele>
        <time>2022-07-09T11:41:46.000Z</time>
      </trkpt>
      <trkpt lat="42.84347" lon="-0.19112">
        <ele>2189</ele>
        <time>2022-07-09T11:42:06.000Z</time>
      </trkpt>
      <trkpt lat="42.84348" lon="-0.19099">
        <ele>2187</ele>
        <time>2022-07-09T11:42:20.000Z</time>
      </trkpt>
      <trkpt lat="42.8435" lon="-0.19087">
        <ele>2185.3</ele>
        <time>2022-07-09T11:42:33.000Z</time>
      </trkpt>
      <trkpt lat="42.84351" lon="-0.19073">
        <ele>2183.4</ele>
        <time>2022-07-09T11:42:46.000Z</time>
      </trkpt>
      <trkpt lat="42.84353" lon="-0.1906">
        <ele>2182.1</ele>
        <time>2022-07-09T11:42:59.000Z</time>
      </trkpt>
      <trkpt lat="42.84353" lon="-0.19048">
        <ele>2180.8</ele>
        <time>2022-07-09T11:43:15.000Z</time>
      </trkpt>
      <trkpt lat="42.84353" lon="-0.1904">
        <ele>2179.5</ele>
        <time>2022-07-09T11:43:26.000Z</time>
      </trkpt>
      <trkpt lat="42.84353" lon="-0.1904">
        <ele>2179.1</ele>
        <time>2022-07-09T11:43:31.000Z</time>
      </trkpt>
      <trkpt lat="42.84354" lon="-0.19027">
        <ele>2177.6</ele>
        <time>2022-07-09T11:43:44.000Z</time>
      </trkpt>
      <trkpt lat="42.84353" lon="-0.19015">
        <ele>2175.9</ele>
        <time>2022-07-09T11:44:01.000Z</time>
      </trkpt>
      <trkpt lat="42.84352" lon="-0.19003">
        <ele>2174.8</ele>
        <time>2022-07-09T11:44:15.000Z</time>
      </trkpt>
      <trkpt lat="42.84349" lon="-0.1899">
        <ele>2173.2</ele>
        <time>2022-07-09T11:44:29.000Z</time>
      </trkpt>
      <trkpt lat="42.84346" lon="-0.18978">
        <ele>2171.6</ele>
        <time>2022-07-09T11:44:45.000Z</time>
      </trkpt>
      <trkpt lat="42.84343" lon="-0.18966">
        <ele>2170.5</ele>
        <time>2022-07-09T11:45:00.000Z</time>
      </trkpt>
      <trkpt lat="42.8434" lon="-0.18954">
        <ele>2168.8</ele>
        <time>2022-07-09T11:45:15.000Z</time>
      </trkpt>
      <trkpt lat="42.84336" lon="-0.18942">
        <ele>2167.3</ele>
        <time>2022-07-09T11:45:29.000Z</time>
      </trkpt>
      <trkpt lat="42.84335" lon="-0.18933">
        <ele>2165.6</ele>
        <time>2022-07-09T11:45:45.000Z</time>
      </trkpt>
      <trkpt lat="42.84335" lon="-0.18933">
        <ele>2165.6</ele>
        <time>2022-07-09T11:46:00.000Z</time>
      </trkpt>
      <trkpt lat="42.84331" lon="-0.18921">
        <ele>2164.2</ele>
        <time>2022-07-09T11:46:13.000Z</time>
      </trkpt>
      <trkpt lat="42.8433" lon="-0.18908">
        <ele>2162.3</ele>
        <time>2022-07-09T11:46:29.000Z</time>
      </trkpt>
      <trkpt lat="42.84328" lon="-0.18896">
        <ele>2160.1</ele>
        <time>2022-07-09T11:46:43.000Z</time>
      </trkpt>
      <trkpt lat="42.84328" lon="-0.18884">
        <ele>2158.5</ele>
        <time>2022-07-09T11:46:57.000Z</time>
      </trkpt>
      <trkpt lat="42.84328" lon="-0.18881">
        <ele>2158</ele>
        <time>2022-07-09T11:47:02.000Z</time>
      </trkpt>
      <trkpt lat="42.84327" lon="-0.1888">
        <ele>2157.8</ele>
        <time>2022-07-09T11:47:04.000Z</time>
      </trkpt>
      <trkpt lat="42.84325" lon="-0.18868">
        <ele>2154.6</ele>
        <time>2022-07-09T11:47:16.000Z</time>
      </trkpt>
      <trkpt lat="42.84323" lon="-0.18856">
        <ele>2154.3</ele>
        <time>2022-07-09T11:47:27.000Z</time>
      </trkpt>
      <trkpt lat="42.84321" lon="-0.18844">
        <ele>2151.9</ele>
        <time>2022-07-09T11:47:41.000Z</time>
      </trkpt>
      <trkpt lat="42.84319" lon="-0.18831">
        <ele>2150.5</ele>
        <time>2022-07-09T11:47:53.000Z</time>
      </trkpt>
      <trkpt lat="42.84316" lon="-0.18819">
        <ele>2148.3</ele>
        <time>2022-07-09T11:48:06.000Z</time>
      </trkpt>
      <trkpt lat="42.84311" lon="-0.18809">
        <ele>2147.3</ele>
        <time>2022-07-09T11:48:20.000Z</time>
      </trkpt>
      <trkpt lat="42.84304" lon="-0.18801">
        <ele>2146.1</ele>
        <time>2022-07-09T11:48:32.000Z</time>
      </trkpt>
      <trkpt lat="42.84298" lon="-0.18792">
        <ele>2145.2</ele>
        <time>2022-07-09T11:48:43.000Z</time>
      </trkpt>
      <trkpt lat="42.84292" lon="-0.18781">
        <ele>2144.7</ele>
        <time>2022-07-09T11:48:53.000Z</time>
      </trkpt>
      <trkpt lat="42.84285" lon="-0.18772">
        <ele>2144</ele>
        <time>2022-07-09T11:49:04.000Z</time>
      </trkpt>
      <trkpt lat="42.84279" lon="-0.18762">
        <ele>2143.3</ele>
        <time>2022-07-09T11:49:16.000Z</time>
      </trkpt>
      <trkpt lat="42.84274" lon="-0.18752">
        <ele>2143.2</ele>
        <time>2022-07-09T11:49:28.000Z</time>
      </trkpt>
      <trkpt lat="42.84268" lon="-0.18742">
        <ele>2142.9</ele>
        <time>2022-07-09T11:49:40.000Z</time>
      </trkpt>
      <trkpt lat="42.84264" lon="-0.1873">
        <ele>2141.5</ele>
        <time>2022-07-09T11:49:51.000Z</time>
      </trkpt>
      <trkpt lat="42.84264" lon="-0.18726">
        <ele>2141.8</ele>
        <time>2022-07-09T11:50:03.000Z</time>
      </trkpt>
      <trkpt lat="42.84264" lon="-0.18726">
        <ele>2142.1</ele>
        <time>2022-07-09T11:50:16.000Z</time>
      </trkpt>
      <trkpt lat="42.84264" lon="-0.18726">
        <ele>2141.8</ele>
        <time>2022-07-09T11:50:17.000Z</time>
      </trkpt>
      <trkpt lat="42.84264" lon="-0.18726">
        <ele>2141.9</ele>
        <time>2022-07-09T11:50:26.000Z</time>
      </trkpt>
      <trkpt lat="42.84265" lon="-0.18726">
        <ele>2141.7</ele>
        <time>2022-07-09T11:50:31.000Z</time>
      </trkpt>
      <trkpt lat="42.84265" lon="-0.18725">
        <ele>2141.5</ele>
        <time>2022-07-09T11:50:35.000Z</time>
      </trkpt>
      <trkpt lat="42.84267" lon="-0.18713">
        <ele>2141.4</ele>
        <time>2022-07-09T11:50:48.000Z</time>
      </trkpt>
      <trkpt lat="42.84266" lon="-0.187">
        <ele>2139.9</ele>
        <time>2022-07-09T11:50:57.000Z</time>
      </trkpt>
      <trkpt lat="42.84266" lon="-0.18687">
        <ele>2139.9</ele>
        <time>2022-07-09T11:51:05.000Z</time>
      </trkpt>
      <trkpt lat="42.84263" lon="-0.18675">
        <ele>2139.1</ele>
        <time>2022-07-09T11:51:12.000Z</time>
      </trkpt>
      <trkpt lat="42.84261" lon="-0.18663">
        <ele>2138.9</ele>
        <time>2022-07-09T11:51:21.000Z</time>
      </trkpt>
      <trkpt lat="42.84261" lon="-0.18654">
        <ele>2140.2</ele>
        <time>2022-07-09T11:51:29.000Z</time>
      </trkpt>
      <trkpt lat="42.84261" lon="-0.18654">
        <ele>2138.5</ele>
        <time>2022-07-09T11:51:35.000Z</time>
      </trkpt>
      <trkpt lat="42.84261" lon="-0.18654">
        <ele>2138.5</ele>
        <time>2022-07-09T11:51:36.000Z</time>
      </trkpt>
      <trkpt lat="42.84261" lon="-0.18654">
        <ele>2138.7</ele>
        <time>2022-07-09T11:51:37.000Z</time>
      </trkpt>
      <trkpt lat="42.84261" lon="-0.18654">
        <ele>2138.9</ele>
        <time>2022-07-09T11:51:38.000Z</time>
      </trkpt>
      <trkpt lat="42.84261" lon="-0.18653">
        <ele>2139.7</ele>
        <time>2022-07-09T11:51:44.000Z</time>
      </trkpt>
      <trkpt lat="42.84265" lon="-0.18643">
        <ele>2139.8</ele>
        <time>2022-07-09T11:51:57.000Z</time>
      </trkpt>
      <trkpt lat="42.84265" lon="-0.18643">
        <ele>2139.7</ele>
        <time>2022-07-09T11:51:58.000Z</time>
      </trkpt>
      <trkpt lat="42.84262" lon="-0.18655">
        <ele>2139.9</ele>
        <time>2022-07-09T11:52:10.000Z</time>
      </trkpt>
      <trkpt lat="42.84262" lon="-0.18668">
        <ele>2136.9</ele>
        <time>2022-07-09T11:52:21.000Z</time>
      </trkpt>
      <trkpt lat="42.84258" lon="-0.18679">
        <ele>2135.9</ele>
        <time>2022-07-09T11:52:35.000Z</time>
      </trkpt>
      <trkpt lat="42.8425" lon="-0.18674">
        <ele>2130.5</ele>
        <time>2022-07-09T11:53:05.000Z</time>
      </trkpt>
      <trkpt lat="42.84242" lon="-0.18667">
        <ele>2127.3</ele>
        <time>2022-07-09T11:53:21.000Z</time>
      </trkpt>
      <trkpt lat="42.84243" lon="-0.18665">
        <ele>2126.4</ele>
        <time>2022-07-09T11:53:26.000Z</time>
      </trkpt>
      <trkpt lat="42.84243" lon="-0.18665">
        <ele>2126.6</ele>
        <time>2022-07-09T11:53:36.000Z</time>
      </trkpt>
      <trkpt lat="42.84238" lon="-0.18653">
        <ele>2123.6</ele>
        <time>2022-07-09T11:53:49.000Z</time>
      </trkpt>
      <trkpt lat="42.84235" lon="-0.1864">
        <ele>2121.3</ele>
        <time>2022-07-09T11:54:02.000Z</time>
      </trkpt>
      <trkpt lat="42.84233" lon="-0.18628">
        <ele>2118.1</ele>
        <time>2022-07-09T11:54:14.000Z</time>
      </trkpt>
      <trkpt lat="42.8423" lon="-0.18616">
        <ele>2115.1</ele>
        <time>2022-07-09T11:54:26.000Z</time>
      </trkpt>
      <trkpt lat="42.84228" lon="-0.18603">
        <ele>2111.7</ele>
        <time>2022-07-09T11:54:40.000Z</time>
      </trkpt>
      <trkpt lat="42.84229" lon="-0.1859">
        <ele>2109.7</ele>
        <time>2022-07-09T11:54:52.000Z</time>
      </trkpt>
      <trkpt lat="42.84226" lon="-0.18577">
        <ele>2107.9</ele>
        <time>2022-07-09T11:55:02.000Z</time>
      </trkpt>
      <trkpt lat="42.84224" lon="-0.18565">
        <ele>2106.5</ele>
        <time>2022-07-09T11:55:15.000Z</time>
      </trkpt>
      <trkpt lat="42.84224" lon="-0.18565">
        <ele>2106.5</ele>
        <time>2022-07-09T11:55:18.000Z</time>
      </trkpt>
      <trkpt lat="42.84224" lon="-0.18564">
        <ele>2106.6</ele>
        <time>2022-07-09T11:55:19.000Z</time>
      </trkpt>
      <trkpt lat="42.84221" lon="-0.18552">
        <ele>2104.8</ele>
        <time>2022-07-09T11:55:32.000Z</time>
      </trkpt>
      <trkpt lat="42.84217" lon="-0.18541">
        <ele>2104.4</ele>
        <time>2022-07-09T11:55:42.000Z</time>
      </trkpt>
      <trkpt lat="42.84211" lon="-0.18531">
        <ele>2103.4</ele>
        <time>2022-07-09T11:55:51.000Z</time>
      </trkpt>
      <trkpt lat="42.84208" lon="-0.18519">
        <ele>2102.1</ele>
        <time>2022-07-09T11:56:00.000Z</time>
      </trkpt>
      <trkpt lat="42.84207" lon="-0.18507">
        <ele>2100.3</ele>
        <time>2022-07-09T11:56:11.000Z</time>
      </trkpt>
      <trkpt lat="42.84203" lon="-0.18495">
        <ele>2099.3</ele>
        <time>2022-07-09T11:56:22.000Z</time>
      </trkpt>
      <trkpt lat="42.84201" lon="-0.18483">
        <ele>2098.3</ele>
        <time>2022-07-09T11:56:32.000Z</time>
      </trkpt>
      <trkpt lat="42.84198" lon="-0.1847">
        <ele>2095.6</ele>
        <time>2022-07-09T11:56:45.000Z</time>
      </trkpt>
      <trkpt lat="42.84195" lon="-0.18459">
        <ele>2093.8</ele>
        <time>2022-07-09T11:56:57.000Z</time>
      </trkpt>
      <trkpt lat="42.8419" lon="-0.18448">
        <ele>2091.6</ele>
        <time>2022-07-09T11:57:08.000Z</time>
      </trkpt>
      <trkpt lat="42.84183" lon="-0.18439">
        <ele>2091.2</ele>
        <time>2022-07-09T11:57:17.000Z</time>
      </trkpt>
      <trkpt lat="42.84177" lon="-0.18429">
        <ele>2090.1</ele>
        <time>2022-07-09T11:57:26.000Z</time>
      </trkpt>
      <trkpt lat="42.84172" lon="-0.18417">
        <ele>2088.8</ele>
        <time>2022-07-09T11:57:36.000Z</time>
      </trkpt>
      <trkpt lat="42.84168" lon="-0.18406">
        <ele>2087.7</ele>
        <time>2022-07-09T11:57:46.000Z</time>
      </trkpt>
      <trkpt lat="42.84163" lon="-0.18395">
        <ele>2086.9</ele>
        <time>2022-07-09T11:57:55.000Z</time>
      </trkpt>
      <trkpt lat="42.84158" lon="-0.18385">
        <ele>2086.2</ele>
        <time>2022-07-09T11:58:03.000Z</time>
      </trkpt>
      <trkpt lat="42.84153" lon="-0.18373">
        <ele>2085.8</ele>
        <time>2022-07-09T11:58:13.000Z</time>
      </trkpt>
      <trkpt lat="42.84148" lon="-0.18362">
        <ele>2085.5</ele>
        <time>2022-07-09T11:58:22.000Z</time>
      </trkpt>
      <trkpt lat="42.8414" lon="-0.18353">
        <ele>2084.8</ele>
        <time>2022-07-09T11:58:31.000Z</time>
      </trkpt>
      <trkpt lat="42.84133" lon="-0.18345">
        <ele>2084.4</ele>
        <time>2022-07-09T11:58:39.000Z</time>
      </trkpt>
      <trkpt lat="42.84127" lon="-0.18335">
        <ele>2082.7</ele>
        <time>2022-07-09T11:58:48.000Z</time>
      </trkpt>
      <trkpt lat="42.8412" lon="-0.18325">
        <ele>2082</ele>
        <time>2022-07-09T11:58:56.000Z</time>
      </trkpt>
      <trkpt lat="42.84112" lon="-0.18318">
        <ele>2082.5</ele>
        <time>2022-07-09T11:59:08.000Z</time>
      </trkpt>
      <trkpt lat="42.84109" lon="-0.18323">
        <ele>2082.9</ele>
        <time>2022-07-09T11:59:19.000Z</time>
      </trkpt>
      <trkpt lat="42.84109" lon="-0.18324">
        <ele>2082.7</ele>
        <time>2022-07-09T11:59:44.000Z</time>
      </trkpt>
      <trkpt lat="42.84109" lon="-0.18324">
        <ele>2082.6</ele>
        <time>2022-07-09T11:59:46.000Z</time>
      </trkpt>
      <trkpt lat="42.84109" lon="-0.18325">
        <ele>2082.7</ele>
        <time>2022-07-09T11:59:56.000Z</time>
      </trkpt>
      <trkpt lat="42.84109" lon="-0.18326">
        <ele>2083</ele>
        <time>2022-07-09T11:59:58.000Z</time>
      </trkpt>
      <trkpt lat="42.8411" lon="-0.18326">
        <ele>2082.5</ele>
        <time>2022-07-09T11:59:59.000Z</time>
      </trkpt>
      <trkpt lat="42.84109" lon="-0.18327">
        <ele>2082.5</ele>
        <time>2022-07-09T12:00:03.000Z</time>
      </trkpt>
      <trkpt lat="42.8411" lon="-0.18326">
        <ele>2082.8</ele>
        <time>2022-07-09T12:00:04.000Z</time>
      </trkpt>
      <trkpt lat="42.84109" lon="-0.18326">
        <ele>2082.4</ele>
        <time>2022-07-09T12:00:10.000Z</time>
      </trkpt>
      <trkpt lat="42.84109" lon="-0.18327">
        <ele>2082.6</ele>
        <time>2022-07-09T12:00:35.000Z</time>
      </trkpt>
      <trkpt lat="42.84109" lon="-0.18327">
        <ele>2082.8</ele>
        <time>2022-07-09T12:00:36.000Z</time>
      </trkpt>
      <trkpt lat="42.84109" lon="-0.18327">
        <ele>2082.7</ele>
        <time>2022-07-09T12:00:40.000Z</time>
      </trkpt>
      <trkpt lat="42.84109" lon="-0.18327">
        <ele>2082.6</ele>
        <time>2022-07-09T12:00:42.000Z</time>
      </trkpt>
      <trkpt lat="42.84109" lon="-0.18327">
        <ele>2082.5</ele>
        <time>2022-07-09T12:00:43.000Z</time>
      </trkpt>
      <trkpt lat="42.84109" lon="-0.18319">
        <ele>2083</ele>
        <time>2022-07-09T12:00:54.000Z</time>
      </trkpt>
      <trkpt lat="42.84109" lon="-0.18318">
        <ele>2083.6</ele>
        <time>2022-07-09T12:01:23.000Z</time>
      </trkpt>
      <trkpt lat="42.84109" lon="-0.18319">
        <ele>2083.4</ele>
        <time>2022-07-09T12:01:26.000Z</time>
      </trkpt>
      <trkpt lat="42.84109" lon="-0.18319">
        <ele>2084.4</ele>
        <time>2022-07-09T12:01:35.000Z</time>
      </trkpt>
      <trkpt lat="42.8411" lon="-0.18319">
        <ele>2084.1</ele>
        <time>2022-07-09T12:01:39.000Z</time>
      </trkpt>
      <trkpt lat="42.8411" lon="-0.1832">
        <ele>2084</ele>
        <time>2022-07-09T12:01:40.000Z</time>
      </trkpt>
      <trkpt lat="42.8411" lon="-0.1832">
        <ele>2083.9</ele>
        <time>2022-07-09T12:01:41.000Z</time>
      </trkpt>
      <trkpt lat="42.8411" lon="-0.1832">
        <ele>2084.3</ele>
        <time>2022-07-09T12:01:44.000Z</time>
      </trkpt>
      <trkpt lat="42.8411" lon="-0.1832">
        <ele>2084.4</ele>
        <time>2022-07-09T12:01:45.000Z</time>
      </trkpt>
      <trkpt lat="42.8411" lon="-0.1832">
        <ele>2084.2</ele>
        <time>2022-07-09T12:01:46.000Z</time>
      </trkpt>
      <trkpt lat="42.8411" lon="-0.1832">
        <ele>2084.1</ele>
        <time>2022-07-09T12:01:47.000Z</time>
      </trkpt>
      <trkpt lat="42.84109" lon="-0.1832">
        <ele>2083.9</ele>
        <time>2022-07-09T12:01:59.000Z</time>
      </trkpt>
      <trkpt lat="42.84109" lon="-0.1832">
        <ele>2083.9</ele>
        <time>2022-07-09T12:02:00.000Z</time>
      </trkpt>
      <trkpt lat="42.84109" lon="-0.1832">
        <ele>2084.2</ele>
        <time>2022-07-09T12:02:08.000Z</time>
      </trkpt>
      <trkpt lat="42.84109" lon="-0.1832">
        <ele>2084.2</ele>
        <time>2022-07-09T12:02:10.000Z</time>
      </trkpt>
      <trkpt lat="42.84109" lon="-0.18321">
        <ele>2083.3</ele>
        <time>2022-07-09T12:02:24.000Z</time>
      </trkpt>
      <trkpt lat="42.84109" lon="-0.18321">
        <ele>2083.5</ele>
        <time>2022-07-09T12:02:27.000Z</time>
      </trkpt>
      <trkpt lat="42.84109" lon="-0.18321">
        <ele>2083.3</ele>
        <time>2022-07-09T12:02:38.000Z</time>
      </trkpt>
      <trkpt lat="42.84103" lon="-0.18318">
        <ele>2082</ele>
        <time>2022-07-09T12:02:50.000Z</time>
      </trkpt>
      <trkpt lat="42.84102" lon="-0.18317">
        <ele>2082.2</ele>
        <time>2022-07-09T12:02:54.000Z</time>
      </trkpt>
      <trkpt lat="42.841" lon="-0.18312">
        <ele>2082.1</ele>
        <time>2022-07-09T12:03:03.000Z</time>
      </trkpt>
      <trkpt lat="42.841" lon="-0.18312">
        <ele>2082.1</ele>
        <time>2022-07-09T12:03:09.000Z</time>
      </trkpt>
      <trkpt lat="42.84097" lon="-0.183">
        <ele>2081.2</ele>
        <time>2022-07-09T12:03:20.000Z</time>
      </trkpt>
      <trkpt lat="42.841" lon="-0.18287">
        <ele>2081.3</ele>
        <time>2022-07-09T12:03:31.000Z</time>
      </trkpt>
      <trkpt lat="42.84105" lon="-0.18276">
        <ele>2080.7</ele>
        <time>2022-07-09T12:03:42.000Z</time>
      </trkpt>
      <trkpt lat="42.84107" lon="-0.18263">
        <ele>2080.8</ele>
        <time>2022-07-09T12:03:52.000Z</time>
      </trkpt>
      <trkpt lat="42.84105" lon="-0.18251">
        <ele>2079.9</ele>
        <time>2022-07-09T12:04:03.000Z</time>
      </trkpt>
      <trkpt lat="42.84106" lon="-0.18238">
        <ele>2079.7</ele>
        <time>2022-07-09T12:04:13.000Z</time>
      </trkpt>
      <trkpt lat="42.84103" lon="-0.18225">
        <ele>2079.4</ele>
        <time>2022-07-09T12:04:23.000Z</time>
      </trkpt>
      <trkpt lat="42.84103" lon="-0.18212">
        <ele>2079.7</ele>
        <time>2022-07-09T12:04:31.000Z</time>
      </trkpt>
      <trkpt lat="42.84099" lon="-0.182">
        <ele>2080</ele>
        <time>2022-07-09T12:04:41.000Z</time>
      </trkpt>
      <trkpt lat="42.84101" lon="-0.18188">
        <ele>2079.6</ele>
        <time>2022-07-09T12:04:52.000Z</time>
      </trkpt>
      <trkpt lat="42.841" lon="-0.18175">
        <ele>2077.8</ele>
        <time>2022-07-09T12:05:08.000Z</time>
      </trkpt>
      <trkpt lat="42.84098" lon="-0.18163">
        <ele>2076.5</ele>
        <time>2022-07-09T12:05:22.000Z</time>
      </trkpt>
      <trkpt lat="42.84097" lon="-0.1815">
        <ele>2075.1</ele>
        <time>2022-07-09T12:05:34.000Z</time>
      </trkpt>
      <trkpt lat="42.84097" lon="-0.18137">
        <ele>2074.8</ele>
        <time>2022-07-09T12:05:44.000Z</time>
      </trkpt>
      <trkpt lat="42.84095" lon="-0.18124">
        <ele>2074</ele>
        <time>2022-07-09T12:05:56.000Z</time>
      </trkpt>
      <trkpt lat="42.84095" lon="-0.18111">
        <ele>2073.4</ele>
        <time>2022-07-09T12:06:08.000Z</time>
      </trkpt>
      <trkpt lat="42.84097" lon="-0.18098">
        <ele>2074.1</ele>
        <time>2022-07-09T12:06:22.000Z</time>
      </trkpt>
      <trkpt lat="42.84098" lon="-0.18095">
        <ele>2074.5</ele>
        <time>2022-07-09T12:06:29.000Z</time>
      </trkpt>
      <trkpt lat="42.84098" lon="-0.18095">
        <ele>2074.5</ele>
        <time>2022-07-09T12:06:30.000Z</time>
      </trkpt>
      <trkpt lat="42.84097" lon="-0.18082">
        <ele>2072.3</ele>
        <time>2022-07-09T12:06:44.000Z</time>
      </trkpt>
      <trkpt lat="42.84092" lon="-0.18072">
        <ele>2070.6</ele>
        <time>2022-07-09T12:06:58.000Z</time>
      </trkpt>
      <trkpt lat="42.84096" lon="-0.18059">
        <ele>2070</ele>
        <time>2022-07-09T12:07:11.000Z</time>
      </trkpt>
      <trkpt lat="42.84105" lon="-0.18054">
        <ele>2069.8</ele>
        <time>2022-07-09T12:07:21.000Z</time>
      </trkpt>
      <trkpt lat="42.84112" lon="-0.18047">
        <ele>2069.6</ele>
        <time>2022-07-09T12:07:35.000Z</time>
      </trkpt>
      <trkpt lat="42.84121" lon="-0.18044">
        <ele>2068.6</ele>
        <time>2022-07-09T12:07:51.000Z</time>
      </trkpt>
      <trkpt lat="42.84125" lon="-0.18041">
        <ele>2068.6</ele>
        <time>2022-07-09T12:08:00.000Z</time>
      </trkpt>
      <trkpt lat="42.84125" lon="-0.18041">
        <ele>2068.8</ele>
        <time>2022-07-09T12:08:01.000Z</time>
      </trkpt>
      <trkpt lat="42.84123" lon="-0.18029">
        <ele>2068.5</ele>
        <time>2022-07-09T12:08:11.000Z</time>
      </trkpt>
      <trkpt lat="42.84122" lon="-0.18015">
        <ele>2068.6</ele>
        <time>2022-07-09T12:08:22.000Z</time>
      </trkpt>
      <trkpt lat="42.84124" lon="-0.18003">
        <ele>2068.6</ele>
        <time>2022-07-09T12:08:35.000Z</time>
      </trkpt>
      <trkpt lat="42.84132" lon="-0.17997">
        <ele>2068</ele>
        <time>2022-07-09T12:08:47.000Z</time>
      </trkpt>
      <trkpt lat="42.84138" lon="-0.17987">
        <ele>2066.9</ele>
        <time>2022-07-09T12:08:58.000Z</time>
      </trkpt>
      <trkpt lat="42.84138" lon="-0.17986">
        <ele>2067.2</ele>
        <time>2022-07-09T12:09:02.000Z</time>
      </trkpt>
      <trkpt lat="42.84139" lon="-0.17987">
        <ele>2067.3</ele>
        <time>2022-07-09T12:09:14.000Z</time>
      </trkpt>
      <trkpt lat="42.8414" lon="-0.17984">
        <ele>2067</ele>
        <time>2022-07-09T12:09:19.000Z</time>
      </trkpt>
      <trkpt lat="42.8414" lon="-0.17984">
        <ele>2066.9</ele>
        <time>2022-07-09T12:09:23.000Z</time>
      </trkpt>
      <trkpt lat="42.8414" lon="-0.17984">
        <ele>2066.8</ele>
        <time>2022-07-09T12:09:24.000Z</time>
      </trkpt>
      <trkpt lat="42.8414" lon="-0.17983">
        <ele>2066.8</ele>
        <time>2022-07-09T12:09:25.000Z</time>
      </trkpt>
      <trkpt lat="42.84143" lon="-0.17971">
        <ele>2065.5</ele>
        <time>2022-07-09T12:09:38.000Z</time>
      </trkpt>
      <trkpt lat="42.84148" lon="-0.1796">
        <ele>2064.4</ele>
        <time>2022-07-09T12:09:50.000Z</time>
      </trkpt>
      <trkpt lat="42.84149" lon="-0.17956">
        <ele>2063.6</ele>
        <time>2022-07-09T12:10:00.000Z</time>
      </trkpt>
      <trkpt lat="42.84149" lon="-0.17956">
        <ele>2063.7</ele>
        <time>2022-07-09T12:10:01.000Z</time>
      </trkpt>
      <trkpt lat="42.84156" lon="-0.17949">
        <ele>2060.5</ele>
        <time>2022-07-09T12:10:28.000Z</time>
      </trkpt>
      <trkpt lat="42.8416" lon="-0.17945">
        <ele>2059.5</ele>
        <time>2022-07-09T12:10:36.000Z</time>
      </trkpt>
      <trkpt lat="42.8416" lon="-0.17945">
        <ele>2059.7</ele>
        <time>2022-07-09T12:10:49.000Z</time>
      </trkpt>
      <trkpt lat="42.8416" lon="-0.17945">
        <ele>2059.7</ele>
        <time>2022-07-09T12:10:52.000Z</time>
      </trkpt>
      <trkpt lat="42.8416" lon="-0.17946">
        <ele>2059.8</ele>
        <time>2022-07-09T12:10:53.000Z</time>
      </trkpt>
      <trkpt lat="42.84169" lon="-0.17951">
        <ele>2054.5</ele>
        <time>2022-07-09T12:11:21.000Z</time>
      </trkpt>
      <trkpt lat="42.84171" lon="-0.17945">
        <ele>2053.7</ele>
        <time>2022-07-09T12:11:33.000Z</time>
      </trkpt>
      <trkpt lat="42.84171" lon="-0.17945">
        <ele>2053.1</ele>
        <time>2022-07-09T12:11:37.000Z</time>
      </trkpt>
      <trkpt lat="42.84174" lon="-0.17946">
        <ele>2051.8</ele>
        <time>2022-07-09T12:11:46.000Z</time>
      </trkpt>
      <trkpt lat="42.84174" lon="-0.17946">
        <ele>2051.7</ele>
        <time>2022-07-09T12:11:47.000Z</time>
      </trkpt>
      <trkpt lat="42.84174" lon="-0.17946">
        <ele>2051.7</ele>
        <time>2022-07-09T12:11:48.000Z</time>
      </trkpt>
      <trkpt lat="42.84174" lon="-0.17946">
        <ele>2051.5</ele>
        <time>2022-07-09T12:11:53.000Z</time>
      </trkpt>
      <trkpt lat="42.84174" lon="-0.17946">
        <ele>2051.5</ele>
        <time>2022-07-09T12:11:54.000Z</time>
      </trkpt>
      <trkpt lat="42.84174" lon="-0.17946">
        <ele>2051.3</ele>
        <time>2022-07-09T12:12:01.000Z</time>
      </trkpt>
      <trkpt lat="42.84174" lon="-0.17946">
        <ele>2051.3</ele>
        <time>2022-07-09T12:12:02.000Z</time>
      </trkpt>
      <trkpt lat="42.84174" lon="-0.17946">
        <ele>2051.6</ele>
        <time>2022-07-09T12:12:04.000Z</time>
      </trkpt>
      <trkpt lat="42.84175" lon="-0.17959">
        <ele>2050.7</ele>
        <time>2022-07-09T12:12:17.000Z</time>
      </trkpt>
      <trkpt lat="42.84169" lon="-0.17969">
        <ele>2049.6</ele>
        <time>2022-07-09T12:12:33.000Z</time>
      </trkpt>
      <trkpt lat="42.84171" lon="-0.17981">
        <ele>2046.9</ele>
        <time>2022-07-09T12:12:55.000Z</time>
      </trkpt>
      <trkpt lat="42.8418" lon="-0.17988">
        <ele>2045</ele>
        <time>2022-07-09T12:13:11.000Z</time>
      </trkpt>
      <trkpt lat="42.8418" lon="-0.17975">
        <ele>2042</ele>
        <time>2022-07-09T12:13:35.000Z</time>
      </trkpt>
      <trkpt lat="42.84185" lon="-0.17985">
        <ele>2038.7</ele>
        <time>2022-07-09T12:13:57.000Z</time>
      </trkpt>
      <trkpt lat="42.84187" lon="-0.1799">
        <ele>2037.3</ele>
        <time>2022-07-09T12:14:09.000Z</time>
      </trkpt>
      <trkpt lat="42.84187" lon="-0.1799">
        <ele>2037.2</ele>
        <time>2022-07-09T12:14:10.000Z</time>
      </trkpt>
      <trkpt lat="42.84195" lon="-0.17999">
        <ele>2034</ele>
        <time>2022-07-09T12:14:29.000Z</time>
      </trkpt>
      <trkpt lat="42.84199" lon="-0.1801">
        <ele>2031</ele>
        <time>2022-07-09T12:14:48.000Z</time>
      </trkpt>
      <trkpt lat="42.84201" lon="-0.18012">
        <ele>2029.6</ele>
        <time>2022-07-09T12:14:55.000Z</time>
      </trkpt>
      <trkpt lat="42.84202" lon="-0.18013">
        <ele>2029.3</ele>
        <time>2022-07-09T12:14:56.000Z</time>
      </trkpt>
      <trkpt lat="42.84207" lon="-0.18023">
        <ele>2028</ele>
        <time>2022-07-09T12:15:10.000Z</time>
      </trkpt>
      <trkpt lat="42.84215" lon="-0.18029">
        <ele>2026.4</ele>
        <time>2022-07-09T12:15:22.000Z</time>
      </trkpt>
      <trkpt lat="42.84224" lon="-0.18036">
        <ele>2023.8</ele>
        <time>2022-07-09T12:15:38.000Z</time>
      </trkpt>
      <trkpt lat="42.84224" lon="-0.18038">
        <ele>2023.2</ele>
        <time>2022-07-09T12:15:44.000Z</time>
      </trkpt>
      <trkpt lat="42.84225" lon="-0.18038">
        <ele>2022.6</ele>
        <time>2022-07-09T12:15:47.000Z</time>
      </trkpt>
      <trkpt lat="42.84233" lon="-0.1804">
        <ele>2020.8</ele>
        <time>2022-07-09T12:16:01.000Z</time>
      </trkpt>
      <trkpt lat="42.84233" lon="-0.1804">
        <ele>2020.9</ele>
        <time>2022-07-09T12:16:02.000Z</time>
      </trkpt>
      <trkpt lat="42.84242" lon="-0.18042">
        <ele>2019.5</ele>
        <time>2022-07-09T12:16:15.000Z</time>
      </trkpt>
      <trkpt lat="42.84252" lon="-0.18041">
        <ele>2017.7</ele>
        <time>2022-07-09T12:16:32.000Z</time>
      </trkpt>
      <trkpt lat="42.84253" lon="-0.1804">
        <ele>2017.6</ele>
        <time>2022-07-09T12:16:36.000Z</time>
      </trkpt>
      <trkpt lat="42.84253" lon="-0.1804">
        <ele>2017.6</ele>
        <time>2022-07-09T12:16:37.000Z</time>
      </trkpt>
      <trkpt lat="42.84256" lon="-0.1804">
        <ele>2017.5</ele>
        <time>2022-07-09T12:16:44.000Z</time>
      </trkpt>
      <trkpt lat="42.84256" lon="-0.1804">
        <ele>2017.4</ele>
        <time>2022-07-09T12:16:45.000Z</time>
      </trkpt>
      <trkpt lat="42.84263" lon="-0.18031">
        <ele>2015.6</ele>
        <time>2022-07-09T12:16:59.000Z</time>
      </trkpt>
      <trkpt lat="42.84265" lon="-0.18019">
        <ele>2013.5</ele>
        <time>2022-07-09T12:17:11.000Z</time>
      </trkpt>
      <trkpt lat="42.84268" lon="-0.18007">
        <ele>2010.9</ele>
        <time>2022-07-09T12:17:33.000Z</time>
      </trkpt>
      <trkpt lat="42.84261" lon="-0.17999">
        <ele>2008.9</ele>
        <time>2022-07-09T12:17:47.000Z</time>
      </trkpt>
      <trkpt lat="42.84259" lon="-0.17988">
        <ele>2006.5</ele>
        <time>2022-07-09T12:18:02.000Z</time>
      </trkpt>
      <trkpt lat="42.84259" lon="-0.17989">
        <ele>2006.3</ele>
        <time>2022-07-09T12:18:03.000Z</time>
      </trkpt>
      <trkpt lat="42.84268" lon="-0.17986">
        <ele>2003.8</ele>
        <time>2022-07-09T12:18:21.000Z</time>
      </trkpt>
      <trkpt lat="42.84277" lon="-0.17985">
        <ele>2002</ele>
        <time>2022-07-09T12:18:37.000Z</time>
      </trkpt>
      <trkpt lat="42.84286" lon="-0.1798">
        <ele>2000.3</ele>
        <time>2022-07-09T12:18:55.000Z</time>
      </trkpt>
      <trkpt lat="42.84293" lon="-0.17972">
        <ele>1999</ele>
        <time>2022-07-09T12:19:10.000Z</time>
      </trkpt>
      <trkpt lat="42.84299" lon="-0.17963">
        <ele>1997.3</ele>
        <time>2022-07-09T12:19:26.000Z</time>
      </trkpt>
      <trkpt lat="42.84305" lon="-0.17953">
        <ele>1996.4</ele>
        <time>2022-07-09T12:19:41.000Z</time>
      </trkpt>
      <trkpt lat="42.84311" lon="-0.17943">
        <ele>1995.7</ele>
        <time>2022-07-09T12:19:56.000Z</time>
      </trkpt>
      <trkpt lat="42.84316" lon="-0.17932">
        <ele>1995</ele>
        <time>2022-07-09T12:20:08.000Z</time>
      </trkpt>
      <trkpt lat="42.84319" lon="-0.1792">
        <ele>1994</ele>
        <time>2022-07-09T12:20:23.000Z</time>
      </trkpt>
      <trkpt lat="42.84319" lon="-0.1792">
        <ele>1993.6</ele>
        <time>2022-07-09T12:20:25.000Z</time>
      </trkpt>
      <trkpt lat="42.84319" lon="-0.1792">
        <ele>1993.6</ele>
        <time>2022-07-09T12:20:27.000Z</time>
      </trkpt>
      <trkpt lat="42.84318" lon="-0.17907">
        <ele>1991.6</ele>
        <time>2022-07-09T12:20:44.000Z</time>
      </trkpt>
      <trkpt lat="42.84319" lon="-0.17894">
        <ele>1990.6</ele>
        <time>2022-07-09T12:20:56.000Z</time>
      </trkpt>
      <trkpt lat="42.84319" lon="-0.17882">
        <ele>1989.6</ele>
        <time>2022-07-09T12:21:07.000Z</time>
      </trkpt>
      <trkpt lat="42.84321" lon="-0.1787">
        <ele>1988.1</ele>
        <time>2022-07-09T12:21:21.000Z</time>
      </trkpt>
      <trkpt lat="42.84324" lon="-0.17858">
        <ele>1987.6</ele>
        <time>2022-07-09T12:21:34.000Z</time>
      </trkpt>
      <trkpt lat="42.84325" lon="-0.17845">
        <ele>1987</ele>
        <time>2022-07-09T12:21:47.000Z</time>
      </trkpt>
      <trkpt lat="42.84327" lon="-0.17833">
        <ele>1986.1</ele>
        <time>2022-07-09T12:22:00.000Z</time>
      </trkpt>
      <trkpt lat="42.84332" lon="-0.17823">
        <ele>1984.9</ele>
        <time>2022-07-09T12:22:17.000Z</time>
      </trkpt>
      <trkpt lat="42.84331" lon="-0.1781">
        <ele>1983.9</ele>
        <time>2022-07-09T12:22:32.000Z</time>
      </trkpt>
      <trkpt lat="42.84333" lon="-0.17798">
        <ele>1981.5</ele>
        <time>2022-07-09T12:22:50.000Z</time>
      </trkpt>
      <trkpt lat="42.84334" lon="-0.17785">
        <ele>1979.1</ele>
        <time>2022-07-09T12:23:05.000Z</time>
      </trkpt>
      <trkpt lat="42.84334" lon="-0.17772">
        <ele>1977.3</ele>
        <time>2022-07-09T12:23:21.000Z</time>
      </trkpt>
      <trkpt lat="42.84334" lon="-0.1776">
        <ele>1976.2</ele>
        <time>2022-07-09T12:23:34.000Z</time>
      </trkpt>
      <trkpt lat="42.84332" lon="-0.17747">
        <ele>1974.5</ele>
        <time>2022-07-09T12:23:51.000Z</time>
      </trkpt>
      <trkpt lat="42.84333" lon="-0.17734">
        <ele>1973.3</ele>
        <time>2022-07-09T12:24:03.000Z</time>
      </trkpt>
      <trkpt lat="42.84334" lon="-0.17732">
        <ele>1973.3</ele>
        <time>2022-07-09T12:24:07.000Z</time>
      </trkpt>
      <trkpt lat="42.84334" lon="-0.17732">
        <ele>1973.4</ele>
        <time>2022-07-09T12:24:08.000Z</time>
      </trkpt>
      <trkpt lat="42.84335" lon="-0.1772">
        <ele>1971.7</ele>
        <time>2022-07-09T12:24:22.000Z</time>
      </trkpt>
      <trkpt lat="42.8434" lon="-0.17709">
        <ele>1970.9</ele>
        <time>2022-07-09T12:24:33.000Z</time>
      </trkpt>
      <trkpt lat="42.84347" lon="-0.17701">
        <ele>1970.1</ele>
        <time>2022-07-09T12:24:52.000Z</time>
      </trkpt>
      <trkpt lat="42.84355" lon="-0.17695">
        <ele>1969.2</ele>
        <time>2022-07-09T12:25:07.000Z</time>
      </trkpt>
      <trkpt lat="42.84362" lon="-0.17687">
        <ele>1968.6</ele>
        <time>2022-07-09T12:25:18.000Z</time>
      </trkpt>
      <trkpt lat="42.84366" lon="-0.17675">
        <ele>1968</ele>
        <time>2022-07-09T12:25:31.000Z</time>
      </trkpt>
      <trkpt lat="42.8437" lon="-0.17664">
        <ele>1966.2</ele>
        <time>2022-07-09T12:25:44.000Z</time>
      </trkpt>
      <trkpt lat="42.84373" lon="-0.17652">
        <ele>1965.3</ele>
        <time>2022-07-09T12:25:58.000Z</time>
      </trkpt>
      <trkpt lat="42.84374" lon="-0.17649">
        <ele>1964.6</ele>
        <time>2022-07-09T12:26:06.000Z</time>
      </trkpt>
      <trkpt lat="42.84374" lon="-0.17648">
        <ele>1964.4</ele>
        <time>2022-07-09T12:26:07.000Z</time>
      </trkpt>
      <trkpt lat="42.84374" lon="-0.17649">
        <ele>1964.3</ele>
        <time>2022-07-09T12:26:08.000Z</time>
      </trkpt>
      <trkpt lat="42.84374" lon="-0.17648">
        <ele>1964</ele>
        <time>2022-07-09T12:26:10.000Z</time>
      </trkpt>
      <trkpt lat="42.84374" lon="-0.17635">
        <ele>1962.8</ele>
        <time>2022-07-09T12:26:22.000Z</time>
      </trkpt>
      <trkpt lat="42.84379" lon="-0.17625">
        <ele>1961.6</ele>
        <time>2022-07-09T12:26:34.000Z</time>
      </trkpt>
      <trkpt lat="42.84382" lon="-0.17613">
        <ele>1959.8</ele>
        <time>2022-07-09T12:26:53.000Z</time>
      </trkpt>
      <trkpt lat="42.84385" lon="-0.17609">
        <ele>1958.5</ele>
        <time>2022-07-09T12:27:03.000Z</time>
      </trkpt>
      <trkpt lat="42.84385" lon="-0.17608">
        <ele>1958.3</ele>
        <time>2022-07-09T12:27:04.000Z</time>
      </trkpt>
      <trkpt lat="42.84386" lon="-0.17595">
        <ele>1956.6</ele>
        <time>2022-07-09T12:27:20.000Z</time>
      </trkpt>
      <trkpt lat="42.84387" lon="-0.17593">
        <ele>1955.8</ele>
        <time>2022-07-09T12:27:26.000Z</time>
      </trkpt>
      <trkpt lat="42.84387" lon="-0.17592">
        <ele>1956</ele>
        <time>2022-07-09T12:27:28.000Z</time>
      </trkpt>
      <trkpt lat="42.84389" lon="-0.17579">
        <ele>1953.8</ele>
        <time>2022-07-09T12:27:40.000Z</time>
      </trkpt>
      <trkpt lat="42.8439" lon="-0.17566">
        <ele>1952.9</ele>
        <time>2022-07-09T12:27:54.000Z</time>
      </trkpt>
      <trkpt lat="42.84394" lon="-0.17555">
        <ele>1952.2</ele>
        <time>2022-07-09T12:28:06.000Z</time>
      </trkpt>
      <trkpt lat="42.84394" lon="-0.17549">
        <ele>1951.8</ele>
        <time>2022-07-09T12:28:13.000Z</time>
      </trkpt>
      <trkpt lat="42.84395" lon="-0.17549">
        <ele>1951.6</ele>
        <time>2022-07-09T12:28:14.000Z</time>
      </trkpt>
      <trkpt lat="42.84398" lon="-0.17537">
        <ele>1949.7</ele>
        <time>2022-07-09T12:28:28.000Z</time>
      </trkpt>
      <trkpt lat="42.84398" lon="-0.17534">
        <ele>1949.6</ele>
        <time>2022-07-09T12:28:33.000Z</time>
      </trkpt>
      <trkpt lat="42.84399" lon="-0.17534">
        <ele>1949.2</ele>
        <time>2022-07-09T12:28:34.000Z</time>
      </trkpt>
      <trkpt lat="42.84399" lon="-0.17534">
        <ele>1949.1</ele>
        <time>2022-07-09T12:28:35.000Z</time>
      </trkpt>
      <trkpt lat="42.84398" lon="-0.17533">
        <ele>1949</ele>
        <time>2022-07-09T12:28:36.000Z</time>
      </trkpt>
      <trkpt lat="42.84399" lon="-0.1753">
        <ele>1948.5</ele>
        <time>2022-07-09T12:28:46.000Z</time>
      </trkpt>
      <trkpt lat="42.84399" lon="-0.1753">
        <ele>1948.2</ele>
        <time>2022-07-09T12:28:48.000Z</time>
      </trkpt>
      <trkpt lat="42.84399" lon="-0.17532">
        <ele>1947.9</ele>
        <time>2022-07-09T12:28:55.000Z</time>
      </trkpt>
      <trkpt lat="42.84399" lon="-0.17532">
        <ele>1947.9</ele>
        <time>2022-07-09T12:28:56.000Z</time>
      </trkpt>
      <trkpt lat="42.84399" lon="-0.17532">
        <ele>1947.8</ele>
        <time>2022-07-09T12:28:57.000Z</time>
      </trkpt>
      <trkpt lat="42.84399" lon="-0.17532">
        <ele>1947.5</ele>
        <time>2022-07-09T12:28:58.000Z</time>
      </trkpt>
      <trkpt lat="42.84399" lon="-0.17534">
        <ele>1947.3</ele>
        <time>2022-07-09T12:29:10.000Z</time>
      </trkpt>
      <trkpt lat="42.84399" lon="-0.17533">
        <ele>1947.4</ele>
        <time>2022-07-09T12:29:12.000Z</time>
      </trkpt>
      <trkpt lat="42.84402" lon="-0.17521">
        <ele>1946.1</ele>
        <time>2022-07-09T12:29:23.000Z</time>
      </trkpt>
      <trkpt lat="42.84404" lon="-0.17508">
        <ele>1944.3</ele>
        <time>2022-07-09T12:29:33.000Z</time>
      </trkpt>
      <trkpt lat="42.84406" lon="-0.17496">
        <ele>1942.8</ele>
        <time>2022-07-09T12:29:46.000Z</time>
      </trkpt>
      <trkpt lat="42.8441" lon="-0.17485">
        <ele>1941.5</ele>
        <time>2022-07-09T12:29:56.000Z</time>
      </trkpt>
      <trkpt lat="42.84401" lon="-0.17484">
        <ele>1937.1</ele>
        <time>2022-07-09T12:30:22.000Z</time>
      </trkpt>
      <trkpt lat="42.84401" lon="-0.17484">
        <ele>1936.9</ele>
        <time>2022-07-09T12:30:23.000Z</time>
      </trkpt>
      <trkpt lat="42.844" lon="-0.17485">
        <ele>1936.6</ele>
        <time>2022-07-09T12:30:24.000Z</time>
      </trkpt>
      <trkpt lat="42.84394" lon="-0.17476">
        <ele>1931.9</ele>
        <time>2022-07-09T12:30:53.000Z</time>
      </trkpt>
      <trkpt lat="42.84396" lon="-0.17463">
        <ele>1928.7</ele>
        <time>2022-07-09T12:31:14.000Z</time>
      </trkpt>
      <trkpt lat="42.84399" lon="-0.17451">
        <ele>1926.1</ele>
        <time>2022-07-09T12:31:27.000Z</time>
      </trkpt>
      <trkpt lat="42.84406" lon="-0.17443">
        <ele>1924.4</ele>
        <time>2022-07-09T12:31:39.000Z</time>
      </trkpt>
      <trkpt lat="42.84409" lon="-0.17431">
        <ele>1923.5</ele>
        <time>2022-07-09T12:31:48.000Z</time>
      </trkpt>
      <trkpt lat="42.8441" lon="-0.17426">
        <ele>1923.5</ele>
        <time>2022-07-09T12:31:55.000Z</time>
      </trkpt>
      <trkpt lat="42.8441" lon="-0.17426">
        <ele>1923.6</ele>
        <time>2022-07-09T12:31:58.000Z</time>
      </trkpt>
      <trkpt lat="42.84418" lon="-0.17419">
        <ele>1922.3</ele>
        <time>2022-07-09T12:32:12.000Z</time>
      </trkpt>
      <trkpt lat="42.84427" lon="-0.17414">
        <ele>1920.2</ele>
        <time>2022-07-09T12:32:27.000Z</time>
      </trkpt>
      <trkpt lat="42.84434" lon="-0.17423">
        <ele>1918.8</ele>
        <time>2022-07-09T12:32:40.000Z</time>
      </trkpt>
      <trkpt lat="42.84435" lon="-0.17423">
        <ele>1918.4</ele>
        <time>2022-07-09T12:32:47.000Z</time>
      </trkpt>
      <trkpt lat="42.84435" lon="-0.17423">
        <ele>1918.4</ele>
        <time>2022-07-09T12:32:59.000Z</time>
      </trkpt>
      <trkpt lat="42.84435" lon="-0.17423">
        <ele>1918.7</ele>
        <time>2022-07-09T12:33:00.000Z</time>
      </trkpt>
      <trkpt lat="42.84435" lon="-0.17423">
        <ele>1918.6</ele>
        <time>2022-07-09T12:33:03.000Z</time>
      </trkpt>
      <trkpt lat="42.84443" lon="-0.17417">
        <ele>1917.2</ele>
        <time>2022-07-09T12:33:16.000Z</time>
      </trkpt>
      <trkpt lat="42.84448" lon="-0.17405">
        <ele>1914.7</ele>
        <time>2022-07-09T12:33:29.000Z</time>
      </trkpt>
      <trkpt lat="42.84452" lon="-0.17394">
        <ele>1912.6</ele>
        <time>2022-07-09T12:33:41.000Z</time>
      </trkpt>
      <trkpt lat="42.84458" lon="-0.17383">
        <ele>1911.1</ele>
        <time>2022-07-09T12:33:55.000Z</time>
      </trkpt>
      <trkpt lat="42.8446" lon="-0.17378">
        <ele>1909.8</ele>
        <time>2022-07-09T12:34:07.000Z</time>
      </trkpt>
      <trkpt lat="42.8446" lon="-0.17378">
        <ele>1909.4</ele>
        <time>2022-07-09T12:34:14.000Z</time>
      </trkpt>
      <trkpt lat="42.84461" lon="-0.17375">
        <ele>1908.7</ele>
        <time>2022-07-09T12:34:24.000Z</time>
      </trkpt>
      <trkpt lat="42.8446" lon="-0.17375">
        <ele>1908.6</ele>
        <time>2022-07-09T12:34:25.000Z</time>
      </trkpt>
      <trkpt lat="42.84452" lon="-0.17382">
        <ele>1905.5</ele>
        <time>2022-07-09T12:34:43.000Z</time>
      </trkpt>
      <trkpt lat="42.84444" lon="-0.17387">
        <ele>1905.1</ele>
        <time>2022-07-09T12:34:55.000Z</time>
      </trkpt>
      <trkpt lat="42.84439" lon="-0.17391">
        <ele>1904</ele>
        <time>2022-07-09T12:35:04.000Z</time>
      </trkpt>
      <trkpt lat="42.84439" lon="-0.17391">
        <ele>1904</ele>
        <time>2022-07-09T12:35:06.000Z</time>
      </trkpt>
      <trkpt lat="42.84436" lon="-0.17393">
        <ele>1903.5</ele>
        <time>2022-07-09T12:35:20.000Z</time>
      </trkpt>
      <trkpt lat="42.84436" lon="-0.17392">
        <ele>1903.6</ele>
        <time>2022-07-09T12:35:24.000Z</time>
      </trkpt>
      <trkpt lat="42.84432" lon="-0.1739">
        <ele>1902.3</ele>
        <time>2022-07-09T12:35:41.000Z</time>
      </trkpt>
      <trkpt lat="42.84432" lon="-0.17389">
        <ele>1902.3</ele>
        <time>2022-07-09T12:35:42.000Z</time>
      </trkpt>
      <trkpt lat="42.84439" lon="-0.1738">
        <ele>1900.6</ele>
        <time>2022-07-09T12:35:58.000Z</time>
      </trkpt>
      <trkpt lat="42.84439" lon="-0.17378">
        <ele>1900.1</ele>
        <time>2022-07-09T12:36:02.000Z</time>
      </trkpt>
      <trkpt lat="42.8444" lon="-0.17377">
        <ele>1900</ele>
        <time>2022-07-09T12:36:03.000Z</time>
      </trkpt>
      <trkpt lat="42.84444" lon="-0.17366">
        <ele>1897.9</ele>
        <time>2022-07-09T12:36:18.000Z</time>
      </trkpt>
      <trkpt lat="42.84447" lon="-0.17354">
        <ele>1895</ele>
        <time>2022-07-09T12:36:34.000Z</time>
      </trkpt>
      <trkpt lat="42.84452" lon="-0.17345">
        <ele>1892.4</ele>
        <time>2022-07-09T12:36:52.000Z</time>
      </trkpt>
      <trkpt lat="42.84452" lon="-0.17345">
        <ele>1892.2</ele>
        <time>2022-07-09T12:36:53.000Z</time>
      </trkpt>
      <trkpt lat="42.84457" lon="-0.17335">
        <ele>1889.8</ele>
        <time>2022-07-09T12:37:10.000Z</time>
      </trkpt>
      <trkpt lat="42.84453" lon="-0.17324">
        <ele>1886.1</ele>
        <time>2022-07-09T12:37:33.000Z</time>
      </trkpt>
      <trkpt lat="42.84444" lon="-0.17324">
        <ele>1883.3</ele>
        <time>2022-07-09T12:37:51.000Z</time>
      </trkpt>
      <trkpt lat="42.84452" lon="-0.17316">
        <ele>1881.4</ele>
        <time>2022-07-09T12:38:03.000Z</time>
      </trkpt>
      <trkpt lat="42.84455" lon="-0.17312">
        <ele>1880</ele>
        <time>2022-07-09T12:38:14.000Z</time>
      </trkpt>
      <trkpt lat="42.84455" lon="-0.17311">
        <ele>1879.8</ele>
        <time>2022-07-09T12:38:15.000Z</time>
      </trkpt>
      <trkpt lat="42.8445" lon="-0.17309">
        <ele>1876.1</ele>
        <time>2022-07-09T12:38:39.000Z</time>
      </trkpt>
      <trkpt lat="42.8445" lon="-0.1731">
        <ele>1876.3</ele>
        <time>2022-07-09T12:38:40.000Z</time>
      </trkpt>
      <trkpt lat="42.8444" lon="-0.17311">
        <ele>1873.8</ele>
        <time>2022-07-09T12:38:58.000Z</time>
      </trkpt>
      <trkpt lat="42.84431" lon="-0.17313">
        <ele>1871.7</ele>
        <time>2022-07-09T12:39:15.000Z</time>
      </trkpt>
      <trkpt lat="42.84424" lon="-0.17319">
        <ele>1870.5</ele>
        <time>2022-07-09T12:39:28.000Z</time>
      </trkpt>
      <trkpt lat="42.84417" lon="-0.17321">
        <ele>1867.1</ele>
        <time>2022-07-09T12:39:49.000Z</time>
      </trkpt>
      <trkpt lat="42.84418" lon="-0.17321">
        <ele>1867.5</ele>
        <time>2022-07-09T12:39:56.000Z</time>
      </trkpt>
      <trkpt lat="42.84408" lon="-0.17323">
        <ele>1864.5</ele>
        <time>2022-07-09T12:40:11.000Z</time>
      </trkpt>
      <trkpt lat="42.84399" lon="-0.17322">
        <ele>1860.9</ele>
        <time>2022-07-09T12:40:31.000Z</time>
      </trkpt>
      <trkpt lat="42.84389" lon="-0.17323">
        <ele>1859.6</ele>
        <time>2022-07-09T12:40:48.000Z</time>
      </trkpt>
      <trkpt lat="42.8438" lon="-0.17325">
        <ele>1857.5</ele>
        <time>2022-07-09T12:41:04.000Z</time>
      </trkpt>
      <trkpt lat="42.84371" lon="-0.17328">
        <ele>1854.6</ele>
        <time>2022-07-09T12:41:18.000Z</time>
      </trkpt>
      <trkpt lat="42.84363" lon="-0.17333">
        <ele>1852.7</ele>
        <time>2022-07-09T12:41:35.000Z</time>
      </trkpt>
      <trkpt lat="42.8436" lon="-0.17334">
        <ele>1851.5</ele>
        <time>2022-07-09T12:41:42.000Z</time>
      </trkpt>
      <trkpt lat="42.8436" lon="-0.17333">
        <ele>1851.5</ele>
        <time>2022-07-09T12:41:43.000Z</time>
      </trkpt>
      <trkpt lat="42.8435" lon="-0.17336">
        <ele>1850.1</ele>
        <time>2022-07-09T12:41:55.000Z</time>
      </trkpt>
      <trkpt lat="42.84341" lon="-0.17338">
        <ele>1847.4</ele>
        <time>2022-07-09T12:42:12.000Z</time>
      </trkpt>
      <trkpt lat="42.84332" lon="-0.1734">
        <ele>1845.9</ele>
        <time>2022-07-09T12:42:24.000Z</time>
      </trkpt>
      <trkpt lat="42.84324" lon="-0.17347">
        <ele>1844.5</ele>
        <time>2022-07-09T12:42:33.000Z</time>
      </trkpt>
      <trkpt lat="42.84315" lon="-0.17349">
        <ele>1843.2</ele>
        <time>2022-07-09T12:42:47.000Z</time>
      </trkpt>
      <trkpt lat="42.84306" lon="-0.17352">
        <ele>1842.3</ele>
        <time>2022-07-09T12:43:01.000Z</time>
      </trkpt>
      <trkpt lat="42.84297" lon="-0.1735">
        <ele>1841.1</ele>
        <time>2022-07-09T12:43:12.000Z</time>
      </trkpt>
      <trkpt lat="42.84287" lon="-0.17348">
        <ele>1840.4</ele>
        <time>2022-07-09T12:43:22.000Z</time>
      </trkpt>
      <trkpt lat="42.8428" lon="-0.17341">
        <ele>1839.8</ele>
        <time>2022-07-09T12:43:36.000Z</time>
      </trkpt>
      <trkpt lat="42.84271" lon="-0.17334">
        <ele>1838.1</ele>
        <time>2022-07-09T12:43:54.000Z</time>
      </trkpt>
      <trkpt lat="42.84265" lon="-0.17325">
        <ele>1837.8</ele>
        <time>2022-07-09T12:44:08.000Z</time>
      </trkpt>
      <trkpt lat="42.84256" lon="-0.17322">
        <ele>1837.6</ele>
        <time>2022-07-09T12:44:20.000Z</time>
      </trkpt>
      <trkpt lat="42.84247" lon="-0.1732">
        <ele>1834.8</ele>
        <time>2022-07-09T12:44:36.000Z</time>
      </trkpt>
      <trkpt lat="42.84238" lon="-0.17321">
        <ele>1834</ele>
        <time>2022-07-09T12:44:46.000Z</time>
      </trkpt>
      <trkpt lat="42.84232" lon="-0.17318">
        <ele>1831.8</ele>
        <time>2022-07-09T12:45:06.000Z</time>
      </trkpt>
      <trkpt lat="42.84232" lon="-0.17317">
        <ele>1831.8</ele>
        <time>2022-07-09T12:45:07.000Z</time>
      </trkpt>
      <trkpt lat="42.84229" lon="-0.17307">
        <ele>1829.9</ele>
        <time>2022-07-09T12:45:22.000Z</time>
      </trkpt>
      <trkpt lat="42.84229" lon="-0.17307">
        <ele>1829.9</ele>
        <time>2022-07-09T12:45:23.000Z</time>
      </trkpt>
      <trkpt lat="42.84229" lon="-0.17312">
        <ele>1828.7</ele>
        <time>2022-07-09T12:45:33.000Z</time>
      </trkpt>
      <trkpt lat="42.84228" lon="-0.17312">
        <ele>1828.8</ele>
        <time>2022-07-09T12:45:35.000Z</time>
      </trkpt>
      <trkpt lat="42.84228" lon="-0.17312">
        <ele>1828.9</ele>
        <time>2022-07-09T12:45:36.000Z</time>
      </trkpt>
      <trkpt lat="42.84228" lon="-0.17312">
        <ele>1828.9</ele>
        <time>2022-07-09T12:45:37.000Z</time>
      </trkpt>
      <trkpt lat="42.84228" lon="-0.17312">
        <ele>1828.7</ele>
        <time>2022-07-09T12:45:38.000Z</time>
      </trkpt>
      <trkpt lat="42.84227" lon="-0.17312">
        <ele>1828.8</ele>
        <time>2022-07-09T12:45:39.000Z</time>
      </trkpt>
      <trkpt lat="42.84217" lon="-0.17313">
        <ele>1826.9</ele>
        <time>2022-07-09T12:45:51.000Z</time>
      </trkpt>
      <trkpt lat="42.84211" lon="-0.17322">
        <ele>1825.5</ele>
        <time>2022-07-09T12:46:02.000Z</time>
      </trkpt>
      <trkpt lat="42.84202" lon="-0.17324">
        <ele>1823.9</ele>
        <time>2022-07-09T12:46:10.000Z</time>
      </trkpt>
      <trkpt lat="42.84193" lon="-0.17323">
        <ele>1822.4</ele>
        <time>2022-07-09T12:46:18.000Z</time>
      </trkpt>
      <trkpt lat="42.84183" lon="-0.17328">
        <ele>1821</ele>
        <time>2022-07-09T12:46:29.000Z</time>
      </trkpt>
      <trkpt lat="42.84182" lon="-0.17329">
        <ele>1820.3</ele>
        <time>2022-07-09T12:46:32.000Z</time>
      </trkpt>
      <trkpt lat="42.84181" lon="-0.17329">
        <ele>1820.1</ele>
        <time>2022-07-09T12:46:34.000Z</time>
      </trkpt>
      <trkpt lat="42.84172" lon="-0.17333">
        <ele>1819.2</ele>
        <time>2022-07-09T12:46:44.000Z</time>
      </trkpt>
      <trkpt lat="42.84163" lon="-0.17334">
        <ele>1817.1</ele>
        <time>2022-07-09T12:46:56.000Z</time>
      </trkpt>
      <trkpt lat="42.84153" lon="-0.17334">
        <ele>1814.8</ele>
        <time>2022-07-09T12:47:10.000Z</time>
      </trkpt>
      <trkpt lat="42.84143" lon="-0.17334">
        <ele>1813.2</ele>
        <time>2022-07-09T12:47:24.000Z</time>
      </trkpt>
      <trkpt lat="42.84134" lon="-0.17333">
        <ele>1812.1</ele>
        <time>2022-07-09T12:47:32.000Z</time>
      </trkpt>
      <trkpt lat="42.84125" lon="-0.17334">
        <ele>1813.2</ele>
        <time>2022-07-09T12:47:42.000Z</time>
      </trkpt>
      <trkpt lat="42.84115" lon="-0.17331">
        <ele>1813.3</ele>
        <time>2022-07-09T12:47:49.000Z</time>
      </trkpt>
      <trkpt lat="42.84105" lon="-0.17331">
        <ele>1812.7</ele>
        <time>2022-07-09T12:47:57.000Z</time>
      </trkpt>
      <trkpt lat="42.84095" lon="-0.17333">
        <ele>1812.3</ele>
        <time>2022-07-09T12:48:08.000Z</time>
      </trkpt>
      <trkpt lat="42.84089" lon="-0.17343">
        <ele>1812.1</ele>
        <time>2022-07-09T12:48:14.000Z</time>
      </trkpt>
      <trkpt lat="42.8408" lon="-0.17344">
        <ele>1810.3</ele>
        <time>2022-07-09T12:48:29.000Z</time>
      </trkpt>
      <trkpt lat="42.84071" lon="-0.17345">
        <ele>1809.3</ele>
        <time>2022-07-09T12:48:39.000Z</time>
      </trkpt>
      <trkpt lat="42.84067" lon="-0.17347">
        <ele>1809</ele>
        <time>2022-07-09T12:48:49.000Z</time>
      </trkpt>
      <trkpt lat="42.84066" lon="-0.17348">
        <ele>1808.7</ele>
        <time>2022-07-09T12:48:50.000Z</time>
      </trkpt>
      <trkpt lat="42.8406" lon="-0.17359">
        <ele>1806.6</ele>
        <time>2022-07-09T12:49:05.000Z</time>
      </trkpt>
      <trkpt lat="42.84051" lon="-0.17361">
        <ele>1803.9</ele>
        <time>2022-07-09T12:49:18.000Z</time>
      </trkpt>
      <trkpt lat="42.84043" lon="-0.17367">
        <ele>1801.9</ele>
        <time>2022-07-09T12:49:32.000Z</time>
      </trkpt>
      <trkpt lat="42.84033" lon="-0.1737">
        <ele>1801</ele>
        <time>2022-07-09T12:49:43.000Z</time>
      </trkpt>
      <trkpt lat="42.84029" lon="-0.17373">
        <ele>1800.7</ele>
        <time>2022-07-09T12:49:49.000Z</time>
      </trkpt>
      <trkpt lat="42.84029" lon="-0.17373">
        <ele>1800.6</ele>
        <time>2022-07-09T12:49:51.000Z</time>
      </trkpt>
      <trkpt lat="42.84029" lon="-0.17373">
        <ele>1800.6</ele>
        <time>2022-07-09T12:49:52.000Z</time>
      </trkpt>
      <trkpt lat="42.84029" lon="-0.17373">
        <ele>1800.5</ele>
        <time>2022-07-09T12:49:54.000Z</time>
      </trkpt>
      <trkpt lat="42.84029" lon="-0.17373">
        <ele>1800.3</ele>
        <time>2022-07-09T12:49:55.000Z</time>
      </trkpt>
      <trkpt lat="42.84029" lon="-0.17374">
        <ele>1800.1</ele>
        <time>2022-07-09T12:49:57.000Z</time>
      </trkpt>
      <trkpt lat="42.84028" lon="-0.17374">
        <ele>1800.5</ele>
        <time>2022-07-09T12:50:01.000Z</time>
      </trkpt>
      <trkpt lat="42.84028" lon="-0.17374">
        <ele>1800.6</ele>
        <time>2022-07-09T12:50:07.000Z</time>
      </trkpt>
      <trkpt lat="42.84028" lon="-0.17374">
        <ele>1800.6</ele>
        <time>2022-07-09T12:50:09.000Z</time>
      </trkpt>
      <trkpt lat="42.84028" lon="-0.17374">
        <ele>1800.5</ele>
        <time>2022-07-09T12:50:10.000Z</time>
      </trkpt>
      <trkpt lat="42.84029" lon="-0.17371">
        <ele>1800.5</ele>
        <time>2022-07-09T12:50:12.000Z</time>
      </trkpt>
      <trkpt lat="42.84029" lon="-0.17371">
        <ele>1800.2</ele>
        <time>2022-07-09T12:50:18.000Z</time>
      </trkpt>
      <trkpt lat="42.84029" lon="-0.1737">
        <ele>1800.1</ele>
        <time>2022-07-09T12:50:20.000Z</time>
      </trkpt>
      <trkpt lat="42.8403" lon="-0.1737">
        <ele>1800.1</ele>
        <time>2022-07-09T12:50:21.000Z</time>
      </trkpt>
      <trkpt lat="42.84029" lon="-0.17369">
        <ele>1800.3</ele>
        <time>2022-07-09T12:50:28.000Z</time>
      </trkpt>
      <trkpt lat="42.84029" lon="-0.1737">
        <ele>1800.3</ele>
        <time>2022-07-09T12:50:30.000Z</time>
      </trkpt>
      <trkpt lat="42.84031" lon="-0.17369">
        <ele>1800.2</ele>
        <time>2022-07-09T12:50:39.000Z</time>
      </trkpt>
      <trkpt lat="42.84031" lon="-0.17369">
        <ele>1800.1</ele>
        <time>2022-07-09T12:50:46.000Z</time>
      </trkpt>
      <trkpt lat="42.84029" lon="-0.17373">
        <ele>1800.2</ele>
        <time>2022-07-09T12:50:49.000Z</time>
      </trkpt>
      <trkpt lat="42.84029" lon="-0.17374">
        <ele>1800.4</ele>
        <time>2022-07-09T12:50:53.000Z</time>
      </trkpt>
      <trkpt lat="42.84028" lon="-0.17375">
        <ele>1800.2</ele>
        <time>2022-07-09T12:50:55.000Z</time>
      </trkpt>
      <trkpt lat="42.84029" lon="-0.17375">
        <ele>1800</ele>
        <time>2022-07-09T12:50:56.000Z</time>
      </trkpt>
      <trkpt lat="42.84028" lon="-0.17374">
        <ele>1799.7</ele>
        <time>2022-07-09T12:50:58.000Z</time>
      </trkpt>
      <trkpt lat="42.84028" lon="-0.17374">
        <ele>1799.7</ele>
        <time>2022-07-09T12:50:59.000Z</time>
      </trkpt>
      <trkpt lat="42.84034" lon="-0.17363">
        <ele>1798.2</ele>
        <time>2022-07-09T12:51:12.000Z</time>
      </trkpt>
      <trkpt lat="42.8404" lon="-0.17353">
        <ele>1796.7</ele>
        <time>2022-07-09T12:51:23.000Z</time>
      </trkpt>
      <trkpt lat="42.84031" lon="-0.17348">
        <ele>1791.1</ele>
        <time>2022-07-09T12:52:08.000Z</time>
      </trkpt>
      <trkpt lat="42.84039" lon="-0.17341">
        <ele>1788.2</ele>
        <time>2022-07-09T12:52:27.000Z</time>
      </trkpt>
      <trkpt lat="42.84044" lon="-0.17333">
        <ele>1785.8</ele>
        <time>2022-07-09T12:52:41.000Z</time>
      </trkpt>
      <trkpt lat="42.84045" lon="-0.17333">
        <ele>1785.8</ele>
        <time>2022-07-09T12:52:42.000Z</time>
      </trkpt>
      <trkpt lat="42.84035" lon="-0.17336">
        <ele>1780.2</ele>
        <time>2022-07-09T12:53:23.000Z</time>
      </trkpt>
      <trkpt lat="42.84025" lon="-0.17339">
        <ele>1777.9</ele>
        <time>2022-07-09T12:53:36.000Z</time>
      </trkpt>
      <trkpt lat="42.84022" lon="-0.17342">
        <ele>1777.4</ele>
        <time>2022-07-09T12:53:43.000Z</time>
      </trkpt>
      <trkpt lat="42.84022" lon="-0.17342">
        <ele>1777.2</ele>
        <time>2022-07-09T12:53:44.000Z</time>
      </trkpt>
      <trkpt lat="42.84014" lon="-0.17349">
        <ele>1775.7</ele>
        <time>2022-07-09T12:53:59.000Z</time>
      </trkpt>
      <trkpt lat="42.84005" lon="-0.17351">
        <ele>1774.3</ele>
        <time>2022-07-09T12:54:11.000Z</time>
      </trkpt>
      <trkpt lat="42.8401" lon="-0.1734">
        <ele>1770.8</ele>
        <time>2022-07-09T12:54:37.000Z</time>
      </trkpt>
      <trkpt lat="42.84017" lon="-0.17332">
        <ele>1769.6</ele>
        <time>2022-07-09T12:54:48.000Z</time>
      </trkpt>
      <trkpt lat="42.84023" lon="-0.17322">
        <ele>1767.4</ele>
        <time>2022-07-09T12:55:03.000Z</time>
      </trkpt>
      <trkpt lat="42.84029" lon="-0.17313">
        <ele>1765.6</ele>
        <time>2022-07-09T12:55:19.000Z</time>
      </trkpt>
      <trkpt lat="42.84036" lon="-0.17304">
        <ele>1763.2</ele>
        <time>2022-07-09T12:55:33.000Z</time>
      </trkpt>
      <trkpt lat="42.84038" lon="-0.173">
        <ele>1762.1</ele>
        <time>2022-07-09T12:55:41.000Z</time>
      </trkpt>
      <trkpt lat="42.84038" lon="-0.173">
        <ele>1762.1</ele>
        <time>2022-07-09T12:55:42.000Z</time>
      </trkpt>
      <trkpt lat="42.84039" lon="-0.17298">
        <ele>1761.2</ele>
        <time>2022-07-09T12:55:47.000Z</time>
      </trkpt>
      <trkpt lat="42.84038" lon="-0.17297">
        <ele>1761.1</ele>
        <time>2022-07-09T12:55:48.000Z</time>
      </trkpt>
      <trkpt lat="42.8403" lon="-0.17299">
        <ele>1760.2</ele>
        <time>2022-07-09T12:56:01.000Z</time>
      </trkpt>
      <trkpt lat="42.8403" lon="-0.17299">
        <ele>1760.2</ele>
        <time>2022-07-09T12:56:04.000Z</time>
      </trkpt>
      <trkpt lat="42.84021" lon="-0.173">
        <ele>1759</ele>
        <time>2022-07-09T12:56:15.000Z</time>
      </trkpt>
      <trkpt lat="42.84011" lon="-0.17302">
        <ele>1756.8</ele>
        <time>2022-07-09T12:56:27.000Z</time>
      </trkpt>
      <trkpt lat="42.84002" lon="-0.17306">
        <ele>1754.8</ele>
        <time>2022-07-09T12:56:39.000Z</time>
      </trkpt>
      <trkpt lat="42.83999" lon="-0.17311">
        <ele>1754.7</ele>
        <time>2022-07-09T12:56:47.000Z</time>
      </trkpt>
      <trkpt lat="42.83999" lon="-0.17311">
        <ele>1754.4</ele>
        <time>2022-07-09T12:56:48.000Z</time>
      </trkpt>
      <trkpt lat="42.83998" lon="-0.17312">
        <ele>1754</ele>
        <time>2022-07-09T12:56:51.000Z</time>
      </trkpt>
      <trkpt lat="42.83998" lon="-0.17312">
        <ele>1754.2</ele>
        <time>2022-07-09T12:56:57.000Z</time>
      </trkpt>
      <trkpt lat="42.83996" lon="-0.17313">
        <ele>1753.6</ele>
        <time>2022-07-09T12:57:05.000Z</time>
      </trkpt>
      <trkpt lat="42.83996" lon="-0.17313">
        <ele>1753.8</ele>
        <time>2022-07-09T12:57:14.000Z</time>
      </trkpt>
      <trkpt lat="42.83996" lon="-0.17313">
        <ele>1753.5</ele>
        <time>2022-07-09T12:57:15.000Z</time>
      </trkpt>
      <trkpt lat="42.83996" lon="-0.17313">
        <ele>1753.5</ele>
        <time>2022-07-09T12:57:17.000Z</time>
      </trkpt>
      <trkpt lat="42.83996" lon="-0.17313">
        <ele>1753.6</ele>
        <time>2022-07-09T12:57:18.000Z</time>
      </trkpt>
      <trkpt lat="42.83996" lon="-0.17314">
        <ele>1753.7</ele>
        <time>2022-07-09T12:57:23.000Z</time>
      </trkpt>
      <trkpt lat="42.83995" lon="-0.17315">
        <ele>1753.4</ele>
        <time>2022-07-09T12:57:26.000Z</time>
      </trkpt>
      <trkpt lat="42.83995" lon="-0.17314">
        <ele>1753.4</ele>
        <time>2022-07-09T12:57:27.000Z</time>
      </trkpt>
      <trkpt lat="42.83998" lon="-0.17304">
        <ele>1749.7</ele>
        <time>2022-07-09T12:57:43.000Z</time>
      </trkpt>
      <trkpt lat="42.83998" lon="-0.17305">
        <ele>1749.7</ele>
        <time>2022-07-09T12:57:44.000Z</time>
      </trkpt>
      <trkpt lat="42.84004" lon="-0.17295">
        <ele>1748.3</ele>
        <time>2022-07-09T12:57:55.000Z</time>
      </trkpt>
      <trkpt lat="42.84011" lon="-0.17285">
        <ele>1746</ele>
        <time>2022-07-09T12:58:04.000Z</time>
      </trkpt>
      <trkpt lat="42.84018" lon="-0.17276">
        <ele>1744.2</ele>
        <time>2022-07-09T12:58:11.000Z</time>
      </trkpt>
      <trkpt lat="42.84026" lon="-0.17269">
        <ele>1742.6</ele>
        <time>2022-07-09T12:58:18.000Z</time>
      </trkpt>
      <trkpt lat="42.84035" lon="-0.17262">
        <ele>1741.1</ele>
        <time>2022-07-09T12:58:25.000Z</time>
      </trkpt>
      <trkpt lat="42.8404" lon="-0.17258">
        <ele>1739.7</ele>
        <time>2022-07-09T12:58:32.000Z</time>
      </trkpt>
      <trkpt lat="42.84039" lon="-0.17257">
        <ele>1739.4</ele>
        <time>2022-07-09T12:58:34.000Z</time>
      </trkpt>
      <trkpt lat="42.8403" lon="-0.17253">
        <ele>1738.2</ele>
        <time>2022-07-09T12:58:45.000Z</time>
      </trkpt>
      <trkpt lat="42.84021" lon="-0.17252">
        <ele>1735.9</ele>
        <time>2022-07-09T12:59:00.000Z</time>
      </trkpt>
      <trkpt lat="42.84011" lon="-0.17248">
        <ele>1734.6</ele>
        <time>2022-07-09T12:59:10.000Z</time>
      </trkpt>
      <trkpt lat="42.84017" lon="-0.17238">
        <ele>1731.2</ele>
        <time>2022-07-09T12:59:32.000Z</time>
      </trkpt>
      <trkpt lat="42.84024" lon="-0.17231">
        <ele>1729.4</ele>
        <time>2022-07-09T12:59:42.000Z</time>
      </trkpt>
      <trkpt lat="42.84027" lon="-0.17227">
        <ele>1728.3</ele>
        <time>2022-07-09T12:59:49.000Z</time>
      </trkpt>
      <trkpt lat="42.84027" lon="-0.17227">
        <ele>1728.1</ele>
        <time>2022-07-09T12:59:50.000Z</time>
      </trkpt>
      <trkpt lat="42.84033" lon="-0.17227">
        <ele>1726.9</ele>
        <time>2022-07-09T13:00:01.000Z</time>
      </trkpt>
      <trkpt lat="42.84033" lon="-0.17227">
        <ele>1726.7</ele>
        <time>2022-07-09T13:00:04.000Z</time>
      </trkpt>
      <trkpt lat="42.84043" lon="-0.17225">
        <ele>1725.6</ele>
        <time>2022-07-09T13:00:14.000Z</time>
      </trkpt>
      <trkpt lat="42.84044" lon="-0.17226">
        <ele>1725.2</ele>
        <time>2022-07-09T13:00:18.000Z</time>
      </trkpt>
      <trkpt lat="42.84044" lon="-0.17227">
        <ele>1725.2</ele>
        <time>2022-07-09T13:00:23.000Z</time>
      </trkpt>
      <trkpt lat="42.84051" lon="-0.17218">
        <ele>1722.9</ele>
        <time>2022-07-09T13:00:36.000Z</time>
      </trkpt>
      <trkpt lat="42.84054" lon="-0.17207">
        <ele>1720.3</ele>
        <time>2022-07-09T13:00:54.000Z</time>
      </trkpt>
      <trkpt lat="42.84059" lon="-0.17203">
        <ele>1718.7</ele>
        <time>2022-07-09T13:01:07.000Z</time>
      </trkpt>
      <trkpt lat="42.84059" lon="-0.17202">
        <ele>1718.7</ele>
        <time>2022-07-09T13:01:08.000Z</time>
      </trkpt>
      <trkpt lat="42.84063" lon="-0.1719">
        <ele>1716.3</ele>
        <time>2022-07-09T13:01:26.000Z</time>
      </trkpt>
      <trkpt lat="42.84068" lon="-0.1718">
        <ele>1714.8</ele>
        <time>2022-07-09T13:01:40.000Z</time>
      </trkpt>
      <trkpt lat="42.84075" lon="-0.17171">
        <ele>1712.3</ele>
        <time>2022-07-09T13:01:57.000Z</time>
      </trkpt>
      <trkpt lat="42.84071" lon="-0.1717">
        <ele>1709.7</ele>
        <time>2022-07-09T13:02:22.000Z</time>
      </trkpt>
      <trkpt lat="42.84071" lon="-0.1717">
        <ele>1709.4</ele>
        <time>2022-07-09T13:02:23.000Z</time>
      </trkpt>
      <trkpt lat="42.84061" lon="-0.17169">
        <ele>1708.8</ele>
        <time>2022-07-09T13:02:33.000Z</time>
      </trkpt>
      <trkpt lat="42.84053" lon="-0.17175">
        <ele>1706.8</ele>
        <time>2022-07-09T13:02:44.000Z</time>
      </trkpt>
      <trkpt lat="42.84053" lon="-0.17162">
        <ele>1704</ele>
        <time>2022-07-09T13:03:08.000Z</time>
      </trkpt>
      <trkpt lat="42.84059" lon="-0.17153">
        <ele>1703.3</ele>
        <time>2022-07-09T13:03:19.000Z</time>
      </trkpt>
      <trkpt lat="42.84065" lon="-0.17142">
        <ele>1701.3</ele>
        <time>2022-07-09T13:03:33.000Z</time>
      </trkpt>
      <trkpt lat="42.8407" lon="-0.17141">
        <ele>1700.6</ele>
        <time>2022-07-09T13:03:43.000Z</time>
      </trkpt>
      <trkpt lat="42.84071" lon="-0.17141">
        <ele>1700.4</ele>
        <time>2022-07-09T13:03:44.000Z</time>
      </trkpt>
      <trkpt lat="42.8408" lon="-0.17139">
        <ele>1699</ele>
        <time>2022-07-09T13:04:00.000Z</time>
      </trkpt>
      <trkpt lat="42.84087" lon="-0.17134">
        <ele>1696.9</ele>
        <time>2022-07-09T13:04:17.000Z</time>
      </trkpt>
      <trkpt lat="42.84089" lon="-0.17133">
        <ele>1696.8</ele>
        <time>2022-07-09T13:04:18.000Z</time>
      </trkpt>
      <trkpt lat="42.84092" lon="-0.17129">
        <ele>1695.9</ele>
        <time>2022-07-09T13:04:29.000Z</time>
      </trkpt>
      <trkpt lat="42.84092" lon="-0.17128">
        <ele>1696</ele>
        <time>2022-07-09T13:04:30.000Z</time>
      </trkpt>
      <trkpt lat="42.84098" lon="-0.17119">
        <ele>1693.2</ele>
        <time>2022-07-09T13:04:48.000Z</time>
      </trkpt>
      <trkpt lat="42.84107" lon="-0.17115">
        <ele>1692.9</ele>
        <time>2022-07-09T13:04:56.000Z</time>
      </trkpt>
      <trkpt lat="42.84099" lon="-0.17108">
        <ele>1690.9</ele>
        <time>2022-07-09T13:05:13.000Z</time>
      </trkpt>
      <trkpt lat="42.8409" lon="-0.17105">
        <ele>1688.5</ele>
        <time>2022-07-09T13:05:26.000Z</time>
      </trkpt>
      <trkpt lat="42.8408" lon="-0.17105">
        <ele>1687.3</ele>
        <time>2022-07-09T13:05:37.000Z</time>
      </trkpt>
      <trkpt lat="42.84071" lon="-0.17101">
        <ele>1686.1</ele>
        <time>2022-07-09T13:05:47.000Z</time>
      </trkpt>
      <trkpt lat="42.84063" lon="-0.17095">
        <ele>1684.6</ele>
        <time>2022-07-09T13:05:58.000Z</time>
      </trkpt>
      <trkpt lat="42.84056" lon="-0.17087">
        <ele>1683.1</ele>
        <time>2022-07-09T13:06:09.000Z</time>
      </trkpt>
      <trkpt lat="42.84047" lon="-0.17081">
        <ele>1680.1</ele>
        <time>2022-07-09T13:06:32.000Z</time>
      </trkpt>
      <trkpt lat="42.84038" lon="-0.17077">
        <ele>1678.6</ele>
        <time>2022-07-09T13:06:43.000Z</time>
      </trkpt>
      <trkpt lat="42.84029" lon="-0.17074">
        <ele>1677.2</ele>
        <time>2022-07-09T13:06:53.000Z</time>
      </trkpt>
      <trkpt lat="42.84022" lon="-0.17065">
        <ele>1675.5</ele>
        <time>2022-07-09T13:07:01.000Z</time>
      </trkpt>
      <trkpt lat="42.84012" lon="-0.17068">
        <ele>1674.6</ele>
        <time>2022-07-09T13:07:11.000Z</time>
      </trkpt>
      <trkpt lat="42.84002" lon="-0.17069">
        <ele>1674.3</ele>
        <time>2022-07-09T13:07:17.000Z</time>
      </trkpt>
      <trkpt lat="42.83992" lon="-0.17067">
        <ele>1673.4</ele>
        <time>2022-07-09T13:07:27.000Z</time>
      </trkpt>
      <trkpt lat="42.83983" lon="-0.17063">
        <ele>1672.1</ele>
        <time>2022-07-09T13:07:39.000Z</time>
      </trkpt>
      <trkpt lat="42.83978" lon="-0.17064">
        <ele>1670.9</ele>
        <time>2022-07-09T13:07:50.000Z</time>
      </trkpt>
      <trkpt lat="42.83978" lon="-0.17063">
        <ele>1670.7</ele>
        <time>2022-07-09T13:07:51.000Z</time>
      </trkpt>
      <trkpt lat="42.8398" lon="-0.17051">
        <ele>1667.7</ele>
        <time>2022-07-09T13:08:11.000Z</time>
      </trkpt>
      <trkpt lat="42.83978" lon="-0.17038">
        <ele>1666.7</ele>
        <time>2022-07-09T13:08:22.000Z</time>
      </trkpt>
      <trkpt lat="42.83984" lon="-0.17028">
        <ele>1664.7</ele>
        <time>2022-07-09T13:08:36.000Z</time>
      </trkpt>
      <trkpt lat="42.83992" lon="-0.17022">
        <ele>1663.6</ele>
        <time>2022-07-09T13:08:48.000Z</time>
      </trkpt>
      <trkpt lat="42.84" lon="-0.17015">
        <ele>1661.9</ele>
        <time>2022-07-09T13:09:00.000Z</time>
      </trkpt>
      <trkpt lat="42.84" lon="-0.17003">
        <ele>1659.9</ele>
        <time>2022-07-09T13:09:16.000Z</time>
      </trkpt>
      <trkpt lat="42.84005" lon="-0.16992">
        <ele>1658.4</ele>
        <time>2022-07-09T13:09:28.000Z</time>
      </trkpt>
      <trkpt lat="42.84005" lon="-0.16992">
        <ele>1658.2</ele>
        <time>2022-07-09T13:09:29.000Z</time>
      </trkpt>
      <trkpt lat="42.84005" lon="-0.16992">
        <ele>1657.9</ele>
        <time>2022-07-09T13:09:30.000Z</time>
      </trkpt>
      <trkpt lat="42.84006" lon="-0.16997">
        <ele>1658.3</ele>
        <time>2022-07-09T13:09:39.000Z</time>
      </trkpt>
      <trkpt lat="42.84006" lon="-0.16997">
        <ele>1658.2</ele>
        <time>2022-07-09T13:09:41.000Z</time>
      </trkpt>
      <trkpt lat="42.84008" lon="-0.17">
        <ele>1658</ele>
        <time>2022-07-09T13:09:48.000Z</time>
      </trkpt>
      <trkpt lat="42.84009" lon="-0.16999">
        <ele>1658.2</ele>
        <time>2022-07-09T13:09:49.000Z</time>
      </trkpt>
      <trkpt lat="42.84017" lon="-0.16994">
        <ele>1657.5</ele>
        <time>2022-07-09T13:09:59.000Z</time>
      </trkpt>
      <trkpt lat="42.84026" lon="-0.16985">
        <ele>1656.7</ele>
        <time>2022-07-09T13:10:06.000Z</time>
      </trkpt>
      <trkpt lat="42.84033" lon="-0.16977">
        <ele>1656.5</ele>
        <time>2022-07-09T13:10:11.000Z</time>
      </trkpt>
      <trkpt lat="42.84042" lon="-0.16968">
        <ele>1655.3</ele>
        <time>2022-07-09T13:10:17.000Z</time>
      </trkpt>
      <trkpt lat="42.84049" lon="-0.16958">
        <ele>1654.6</ele>
        <time>2022-07-09T13:10:25.000Z</time>
      </trkpt>
      <trkpt lat="42.84053" lon="-0.16945">
        <ele>1654.1</ele>
        <time>2022-07-09T13:10:32.000Z</time>
      </trkpt>
      <trkpt lat="42.8406" lon="-0.16935">
        <ele>1653.6</ele>
        <time>2022-07-09T13:10:40.000Z</time>
      </trkpt>
      <trkpt lat="42.84067" lon="-0.16929">
        <ele>1652.6</ele>
        <time>2022-07-09T13:10:47.000Z</time>
      </trkpt>
      <trkpt lat="42.84073" lon="-0.16919">
        <ele>1652.5</ele>
        <time>2022-07-09T13:10:54.000Z</time>
      </trkpt>
      <trkpt lat="42.84078" lon="-0.16908">
        <ele>1652.9</ele>
        <time>2022-07-09T13:11:00.000Z</time>
      </trkpt>
      <trkpt lat="42.84084" lon="-0.16899">
        <ele>1651.9</ele>
        <time>2022-07-09T13:11:07.000Z</time>
      </trkpt>
      <trkpt lat="42.84093" lon="-0.16893">
        <ele>1651.2</ele>
        <time>2022-07-09T13:11:15.000Z</time>
      </trkpt>
      <trkpt lat="42.84102" lon="-0.1689">
        <ele>1649.3</ele>
        <time>2022-07-09T13:11:23.000Z</time>
      </trkpt>
      <trkpt lat="42.84111" lon="-0.16885">
        <ele>1650.1</ele>
        <time>2022-07-09T13:11:30.000Z</time>
      </trkpt>
      <trkpt lat="42.8412" lon="-0.16882">
        <ele>1651.8</ele>
        <time>2022-07-09T13:11:37.000Z</time>
      </trkpt>
      <trkpt lat="42.84129" lon="-0.16879">
        <ele>1651.1</ele>
        <time>2022-07-09T13:11:45.000Z</time>
      </trkpt>
      <trkpt lat="42.84139" lon="-0.16877">
        <ele>1650.5</ele>
        <time>2022-07-09T13:11:53.000Z</time>
      </trkpt>
      <trkpt lat="42.84148" lon="-0.16879">
        <ele>1650.2</ele>
        <time>2022-07-09T13:12:00.000Z</time>
      </trkpt>
      <trkpt lat="42.84157" lon="-0.16882">
        <ele>1650.1</ele>
        <time>2022-07-09T13:12:07.000Z</time>
      </trkpt>
      <trkpt lat="42.84164" lon="-0.16887">
        <ele>1650</ele>
        <time>2022-07-09T13:12:16.000Z</time>
      </trkpt>
      <trkpt lat="42.84165" lon="-0.16887">
        <ele>1650.1</ele>
        <time>2022-07-09T13:12:18.000Z</time>
      </trkpt>
      <trkpt lat="42.84174" lon="-0.16891">
        <ele>1650.1</ele>
        <time>2022-07-09T13:12:27.000Z</time>
      </trkpt>
      <trkpt lat="42.84184" lon="-0.16893">
        <ele>1650.5</ele>
        <time>2022-07-09T13:12:35.000Z</time>
      </trkpt>
      <trkpt lat="42.84194" lon="-0.16895">
        <ele>1650.6</ele>
        <time>2022-07-09T13:12:43.000Z</time>
      </trkpt>
      <trkpt lat="42.84203" lon="-0.16897">
        <ele>1651</ele>
        <time>2022-07-09T13:12:50.000Z</time>
      </trkpt>
      <trkpt lat="42.84214" lon="-0.16898">
        <ele>1651.3</ele>
        <time>2022-07-09T13:12:58.000Z</time>
      </trkpt>
      <trkpt lat="42.84224" lon="-0.16898">
        <ele>1651.7</ele>
        <time>2022-07-09T13:13:06.000Z</time>
      </trkpt>
      <trkpt lat="42.84235" lon="-0.16898">
        <ele>1651</ele>
        <time>2022-07-09T13:13:16.000Z</time>
      </trkpt>
      <trkpt lat="42.84244" lon="-0.16901">
        <ele>1652.2</ele>
        <time>2022-07-09T13:13:23.000Z</time>
      </trkpt>
      <trkpt lat="42.84254" lon="-0.169">
        <ele>1652.6</ele>
        <time>2022-07-09T13:13:31.000Z</time>
      </trkpt>
      <trkpt lat="42.84263" lon="-0.16899">
        <ele>1652.9</ele>
        <time>2022-07-09T13:13:38.000Z</time>
      </trkpt>
      <trkpt lat="42.8427" lon="-0.16892">
        <ele>1653.1</ele>
        <time>2022-07-09T13:13:46.000Z</time>
      </trkpt>
      <trkpt lat="42.84277" lon="-0.16884">
        <ele>1652.7</ele>
        <time>2022-07-09T13:13:56.000Z</time>
      </trkpt>
      <trkpt lat="42.84285" lon="-0.16877">
        <ele>1651.8</ele>
        <time>2022-07-09T13:14:05.000Z</time>
      </trkpt>
      <trkpt lat="42.84295" lon="-0.16875">
        <ele>1651.5</ele>
        <time>2022-07-09T13:14:14.000Z</time>
      </trkpt>
      <trkpt lat="42.84304" lon="-0.1687">
        <ele>1650.3</ele>
        <time>2022-07-09T13:14:24.000Z</time>
      </trkpt>
      <trkpt lat="42.84313" lon="-0.16867">
        <ele>1649.4</ele>
        <time>2022-07-09T13:14:31.000Z</time>
      </trkpt>
      <trkpt lat="42.84322" lon="-0.16862">
        <ele>1648.3</ele>
        <time>2022-07-09T13:14:39.000Z</time>
      </trkpt>
      <trkpt lat="42.84331" lon="-0.16859">
        <ele>1647.5</ele>
        <time>2022-07-09T13:14:46.000Z</time>
      </trkpt>
      <trkpt lat="42.84341" lon="-0.16855">
        <ele>1646.9</ele>
        <time>2022-07-09T13:14:55.000Z</time>
      </trkpt>
      <trkpt lat="42.8435" lon="-0.16854">
        <ele>1646.4</ele>
        <time>2022-07-09T13:15:01.000Z</time>
      </trkpt>
      <trkpt lat="42.84359" lon="-0.16852">
        <ele>1646</ele>
        <time>2022-07-09T13:15:08.000Z</time>
      </trkpt>
      <trkpt lat="42.84369" lon="-0.1685">
        <ele>1646</ele>
        <time>2022-07-09T13:15:14.000Z</time>
      </trkpt>
      <trkpt lat="42.84379" lon="-0.16847">
        <ele>1646.1</ele>
        <time>2022-07-09T13:15:21.000Z</time>
      </trkpt>
      <trkpt lat="42.84388" lon="-0.16842">
        <ele>1646.2</ele>
        <time>2022-07-09T13:15:28.000Z</time>
      </trkpt>
      <trkpt lat="42.84396" lon="-0.16837">
        <ele>1646.1</ele>
        <time>2022-07-09T13:15:36.000Z</time>
      </trkpt>
      <trkpt lat="42.84404" lon="-0.16831">
        <ele>1646.1</ele>
        <time>2022-07-09T13:15:43.000Z</time>
      </trkpt>
      <trkpt lat="42.84412" lon="-0.16824">
        <ele>1645.9</ele>
        <time>2022-07-09T13:15:51.000Z</time>
      </trkpt>
      <trkpt lat="42.84421" lon="-0.1682">
        <ele>1645.7</ele>
        <time>2022-07-09T13:15:59.000Z</time>
      </trkpt>
      <trkpt lat="42.8443" lon="-0.16818">
        <ele>1645.7</ele>
        <time>2022-07-09T13:16:07.000Z</time>
      </trkpt>
      <trkpt lat="42.8444" lon="-0.16816">
        <ele>1645.3</ele>
        <time>2022-07-09T13:16:14.000Z</time>
      </trkpt>
      <trkpt lat="42.84449" lon="-0.16813">
        <ele>1645.6</ele>
        <time>2022-07-09T13:16:24.000Z</time>
      </trkpt>
      <trkpt lat="42.84459" lon="-0.16811">
        <ele>1645.6</ele>
        <time>2022-07-09T13:16:33.000Z</time>
      </trkpt>
      <trkpt lat="42.84469" lon="-0.16809">
        <ele>1645.6</ele>
        <time>2022-07-09T13:16:42.000Z</time>
      </trkpt>
      <trkpt lat="42.84478" lon="-0.16806">
        <ele>1645.4</ele>
        <time>2022-07-09T13:16:48.000Z</time>
      </trkpt>
      <trkpt lat="42.84486" lon="-0.16801">
        <ele>1646.2</ele>
        <time>2022-07-09T13:16:55.000Z</time>
      </trkpt>
      <trkpt lat="42.84494" lon="-0.16794">
        <ele>1646.2</ele>
        <time>2022-07-09T13:17:04.000Z</time>
      </trkpt>
      <trkpt lat="42.84502" lon="-0.16787">
        <ele>1646.6</ele>
        <time>2022-07-09T13:17:12.000Z</time>
      </trkpt>
      <trkpt lat="42.84508" lon="-0.16778">
        <ele>1647</ele>
        <time>2022-07-09T13:17:21.000Z</time>
      </trkpt>
      <trkpt lat="42.84517" lon="-0.1677">
        <ele>1647.5</ele>
        <time>2022-07-09T13:17:30.000Z</time>
      </trkpt>
      <trkpt lat="42.84525" lon="-0.16765">
        <ele>1647.2</ele>
        <time>2022-07-09T13:17:37.000Z</time>
      </trkpt>
      <trkpt lat="42.84535" lon="-0.1676">
        <ele>1646.8</ele>
        <time>2022-07-09T13:17:45.000Z</time>
      </trkpt>
      <trkpt lat="42.84543" lon="-0.16753">
        <ele>1647</ele>
        <time>2022-07-09T13:17:54.000Z</time>
      </trkpt>
      <trkpt lat="42.84551" lon="-0.16746">
        <ele>1646.8</ele>
        <time>2022-07-09T13:18:02.000Z</time>
      </trkpt>
      <trkpt lat="42.84558" lon="-0.16738">
        <ele>1647</ele>
        <time>2022-07-09T13:18:10.000Z</time>
      </trkpt>
      <trkpt lat="42.84565" lon="-0.16731">
        <ele>1646.4</ele>
        <time>2022-07-09T13:18:17.000Z</time>
      </trkpt>
      <trkpt lat="42.84573" lon="-0.16725">
        <ele>1646.1</ele>
        <time>2022-07-09T13:18:25.000Z</time>
      </trkpt>
      <trkpt lat="42.84582" lon="-0.16718">
        <ele>1646</ele>
        <time>2022-07-09T13:18:33.000Z</time>
      </trkpt>
      <trkpt lat="42.84591" lon="-0.16711">
        <ele>1646.6</ele>
        <time>2022-07-09T13:18:40.000Z</time>
      </trkpt>
      <trkpt lat="42.846" lon="-0.16709">
        <ele>1646.3</ele>
        <time>2022-07-09T13:18:48.000Z</time>
      </trkpt>
      <trkpt lat="42.8461" lon="-0.16707">
        <ele>1645.5</ele>
        <time>2022-07-09T13:18:57.000Z</time>
      </trkpt>
      <trkpt lat="42.84619" lon="-0.16704">
        <ele>1645.1</ele>
        <time>2022-07-09T13:19:06.000Z</time>
      </trkpt>
      <trkpt lat="42.84628" lon="-0.16701">
        <ele>1645</ele>
        <time>2022-07-09T13:19:14.000Z</time>
      </trkpt>
      <trkpt lat="42.84638" lon="-0.16698">
        <ele>1644.4</ele>
        <time>2022-07-09T13:19:22.000Z</time>
      </trkpt>
      <trkpt lat="42.84647" lon="-0.16693">
        <ele>1644.3</ele>
        <time>2022-07-09T13:19:30.000Z</time>
      </trkpt>
      <trkpt lat="42.84655" lon="-0.16686">
        <ele>1644.8</ele>
        <time>2022-07-09T13:19:38.000Z</time>
      </trkpt>
      <trkpt lat="42.84663" lon="-0.1668">
        <ele>1644.5</ele>
        <time>2022-07-09T13:19:47.000Z</time>
      </trkpt>
      <trkpt lat="42.84672" lon="-0.16675">
        <ele>1644.3</ele>
        <time>2022-07-09T13:19:54.000Z</time>
      </trkpt>
      <trkpt lat="42.8468" lon="-0.16669">
        <ele>1644.3</ele>
        <time>2022-07-09T13:20:02.000Z</time>
      </trkpt>
      <trkpt lat="42.84688" lon="-0.16663">
        <ele>1643.8</ele>
        <time>2022-07-09T13:20:10.000Z</time>
      </trkpt>
      <trkpt lat="42.84694" lon="-0.16653">
        <ele>1643.8</ele>
        <time>2022-07-09T13:20:19.000Z</time>
      </trkpt>
      <trkpt lat="42.847" lon="-0.16644">
        <ele>1644</ele>
        <time>2022-07-09T13:20:27.000Z</time>
      </trkpt>
      <trkpt lat="42.84706" lon="-0.16633">
        <ele>1644.4</ele>
        <time>2022-07-09T13:20:35.000Z</time>
      </trkpt>
      <trkpt lat="42.84711" lon="-0.16622">
        <ele>1644.7</ele>
        <time>2022-07-09T13:20:44.000Z</time>
      </trkpt>
      <trkpt lat="42.84714" lon="-0.1661">
        <ele>1645.1</ele>
        <time>2022-07-09T13:20:52.000Z</time>
      </trkpt>
      <trkpt lat="42.84717" lon="-0.16598">
        <ele>1645</ele>
        <time>2022-07-09T13:21:01.000Z</time>
      </trkpt>
      <trkpt lat="42.84723" lon="-0.16587">
        <ele>1645.2</ele>
        <time>2022-07-09T13:21:12.000Z</time>
      </trkpt>
      <trkpt lat="42.8473" lon="-0.16577">
        <ele>1644.3</ele>
        <time>2022-07-09T13:21:20.000Z</time>
      </trkpt>
      <trkpt lat="42.84736" lon="-0.16566">
        <ele>1643.7</ele>
        <time>2022-07-09T13:21:27.000Z</time>
      </trkpt>
      <trkpt lat="42.84738" lon="-0.16552">
        <ele>1642.8</ele>
        <time>2022-07-09T13:21:35.000Z</time>
      </trkpt>
      <trkpt lat="42.84741" lon="-0.1654">
        <ele>1642.3</ele>
        <time>2022-07-09T13:21:43.000Z</time>
      </trkpt>
      <trkpt lat="42.84748" lon="-0.16531">
        <ele>1641.6</ele>
        <time>2022-07-09T13:21:53.000Z</time>
      </trkpt>
      <trkpt lat="42.84753" lon="-0.16541">
        <ele>1642</ele>
        <time>2022-07-09T13:22:02.000Z</time>
      </trkpt>
      <trkpt lat="42.84762" lon="-0.16541">
        <ele>1641.7</ele>
        <time>2022-07-09T13:22:13.000Z</time>
      </trkpt>
      <trkpt lat="42.8477" lon="-0.16532">
        <ele>1642.8</ele>
        <time>2022-07-09T13:22:21.000Z</time>
      </trkpt>
      <trkpt lat="42.84778" lon="-0.16524">
        <ele>1642.6</ele>
        <time>2022-07-09T13:22:29.000Z</time>
      </trkpt>
      <trkpt lat="42.84786" lon="-0.16519">
        <ele>1641.9</ele>
        <time>2022-07-09T13:22:37.000Z</time>
      </trkpt>
      <trkpt lat="42.84795" lon="-0.16516">
        <ele>1641.8</ele>
        <time>2022-07-09T13:22:44.000Z</time>
      </trkpt>
      <trkpt lat="42.84804" lon="-0.16513">
        <ele>1641.4</ele>
        <time>2022-07-09T13:22:51.000Z</time>
      </trkpt>
      <trkpt lat="42.84814" lon="-0.16513">
        <ele>1641.8</ele>
        <time>2022-07-09T13:22:59.000Z</time>
      </trkpt>
      <trkpt lat="42.84823" lon="-0.16512">
        <ele>1641.6</ele>
        <time>2022-07-09T13:23:07.000Z</time>
      </trkpt>
      <trkpt lat="42.84833" lon="-0.16508">
        <ele>1642</ele>
        <time>2022-07-09T13:23:15.000Z</time>
      </trkpt>
      <trkpt lat="42.84841" lon="-0.16503">
        <ele>1642.9</ele>
        <time>2022-07-09T13:23:23.000Z</time>
      </trkpt>
      <trkpt lat="42.8485" lon="-0.16501">
        <ele>1643.5</ele>
        <time>2022-07-09T13:23:34.000Z</time>
      </trkpt>
      <trkpt lat="42.84858" lon="-0.16493">
        <ele>1644</ele>
        <time>2022-07-09T13:23:45.000Z</time>
      </trkpt>
      <trkpt lat="42.84867" lon="-0.16488">
        <ele>1643.8</ele>
        <time>2022-07-09T13:23:53.000Z</time>
      </trkpt>
      <trkpt lat="42.84875" lon="-0.16482">
        <ele>1643.2</ele>
        <time>2022-07-09T13:24:00.000Z</time>
      </trkpt>
      <trkpt lat="42.84884" lon="-0.16477">
        <ele>1643.1</ele>
        <time>2022-07-09T13:24:09.000Z</time>
      </trkpt>
      <trkpt lat="42.84892" lon="-0.1647">
        <ele>1642</ele>
        <time>2022-07-09T13:24:17.000Z</time>
      </trkpt>
      <trkpt lat="42.84901" lon="-0.16466">
        <ele>1640.8</ele>
        <time>2022-07-09T13:24:25.000Z</time>
      </trkpt>
      <trkpt lat="42.84911" lon="-0.16462">
        <ele>1639.9</ele>
        <time>2022-07-09T13:24:33.000Z</time>
      </trkpt>
      <trkpt lat="42.84917" lon="-0.16452">
        <ele>1640.6</ele>
        <time>2022-07-09T13:24:41.000Z</time>
      </trkpt>
      <trkpt lat="42.84923" lon="-0.16441">
        <ele>1640.9</ele>
        <time>2022-07-09T13:24:49.000Z</time>
      </trkpt>
      <trkpt lat="42.84928" lon="-0.16431">
        <ele>1641.1</ele>
        <time>2022-07-09T13:24:56.000Z</time>
      </trkpt>
      <trkpt lat="42.84935" lon="-0.16422">
        <ele>1641.3</ele>
        <time>2022-07-09T13:25:04.000Z</time>
      </trkpt>
      <trkpt lat="42.84943" lon="-0.16414">
        <ele>1641.3</ele>
        <time>2022-07-09T13:25:13.000Z</time>
      </trkpt>
      <trkpt lat="42.84948" lon="-0.16403">
        <ele>1641.5</ele>
        <time>2022-07-09T13:25:20.000Z</time>
      </trkpt>
      <trkpt lat="42.8495" lon="-0.16389">
        <ele>1641.2</ele>
        <time>2022-07-09T13:25:28.000Z</time>
      </trkpt>
      <trkpt lat="42.84952" lon="-0.16377">
        <ele>1639.2</ele>
        <time>2022-07-09T13:25:36.000Z</time>
      </trkpt>
      <trkpt lat="42.84953" lon="-0.16365">
        <ele>1639.2</ele>
        <time>2022-07-09T13:25:44.000Z</time>
      </trkpt>
      <trkpt lat="42.84953" lon="-0.16352">
        <ele>1639</ele>
        <time>2022-07-09T13:25:52.000Z</time>
      </trkpt>
      <trkpt lat="42.84951" lon="-0.16339">
        <ele>1640.2</ele>
        <time>2022-07-09T13:26:00.000Z</time>
      </trkpt>
      <trkpt lat="42.84952" lon="-0.16326">
        <ele>1640.5</ele>
        <time>2022-07-09T13:26:08.000Z</time>
      </trkpt>
      <trkpt lat="42.84956" lon="-0.16314">
        <ele>1641.2</ele>
        <time>2022-07-09T13:26:17.000Z</time>
      </trkpt>
      <trkpt lat="42.8496" lon="-0.16304">
        <ele>1640.9</ele>
        <time>2022-07-09T13:26:24.000Z</time>
      </trkpt>
      <trkpt lat="42.84967" lon="-0.16293">
        <ele>1641.3</ele>
        <time>2022-07-09T13:26:32.000Z</time>
      </trkpt>
      <trkpt lat="42.84974" lon="-0.16285">
        <ele>1641.5</ele>
        <time>2022-07-09T13:26:40.000Z</time>
      </trkpt>
      <trkpt lat="42.84982" lon="-0.16278">
        <ele>1642.3</ele>
        <time>2022-07-09T13:26:49.000Z</time>
      </trkpt>
      <trkpt lat="42.8499" lon="-0.16272">
        <ele>1642.9</ele>
        <time>2022-07-09T13:26:58.000Z</time>
      </trkpt>
      <trkpt lat="42.84999" lon="-0.16269">
        <ele>1643.7</ele>
        <time>2022-07-09T13:27:06.000Z</time>
      </trkpt>
      <trkpt lat="42.85008" lon="-0.16266">
        <ele>1643.7</ele>
        <time>2022-07-09T13:27:16.000Z</time>
      </trkpt>
      <trkpt lat="42.85017" lon="-0.16262">
        <ele>1643.2</ele>
        <time>2022-07-09T13:27:25.000Z</time>
      </trkpt>
      <trkpt lat="42.85027" lon="-0.16259">
        <ele>1642.9</ele>
        <time>2022-07-09T13:27:34.000Z</time>
      </trkpt>
      <trkpt lat="42.85036" lon="-0.16256">
        <ele>1641.4</ele>
        <time>2022-07-09T13:27:43.000Z</time>
      </trkpt>
      <trkpt lat="42.85046" lon="-0.16253">
        <ele>1640.2</ele>
        <time>2022-07-09T13:27:53.000Z</time>
      </trkpt>
      <trkpt lat="42.85054" lon="-0.16248">
        <ele>1639.2</ele>
        <time>2022-07-09T13:28:02.000Z</time>
      </trkpt>
      <trkpt lat="42.85061" lon="-0.1624">
        <ele>1637.9</ele>
        <time>2022-07-09T13:28:09.000Z</time>
      </trkpt>
      <trkpt lat="42.85069" lon="-0.1623">
        <ele>1637.8</ele>
        <time>2022-07-09T13:28:18.000Z</time>
      </trkpt>
      <trkpt lat="42.85075" lon="-0.1622">
        <ele>1638.2</ele>
        <time>2022-07-09T13:28:26.000Z</time>
      </trkpt>
      <trkpt lat="42.85082" lon="-0.16211">
        <ele>1638.2</ele>
        <time>2022-07-09T13:28:34.000Z</time>
      </trkpt>
      <trkpt lat="42.85088" lon="-0.162">
        <ele>1637.6</ele>
        <time>2022-07-09T13:28:43.000Z</time>
      </trkpt>
      <trkpt lat="42.85091" lon="-0.16187">
        <ele>1638</ele>
        <time>2022-07-09T13:28:51.000Z</time>
      </trkpt>
      <trkpt lat="42.85094" lon="-0.16174">
        <ele>1637.9</ele>
        <time>2022-07-09T13:29:00.000Z</time>
      </trkpt>
      <trkpt lat="42.85099" lon="-0.16162">
        <ele>1637</ele>
        <time>2022-07-09T13:29:08.000Z</time>
      </trkpt>
      <trkpt lat="42.85106" lon="-0.16152">
        <ele>1636</ele>
        <time>2022-07-09T13:29:17.000Z</time>
      </trkpt>
      <trkpt lat="42.85112" lon="-0.16142">
        <ele>1634.1</ele>
        <time>2022-07-09T13:29:26.000Z</time>
      </trkpt>
      <trkpt lat="42.85118" lon="-0.16133">
        <ele>1633.2</ele>
        <time>2022-07-09T13:29:34.000Z</time>
      </trkpt>
      <trkpt lat="42.85123" lon="-0.16121">
        <ele>1632.5</ele>
        <time>2022-07-09T13:29:42.000Z</time>
      </trkpt>
      <trkpt lat="42.85127" lon="-0.1611">
        <ele>1631.8</ele>
        <time>2022-07-09T13:29:49.000Z</time>
      </trkpt>
      <trkpt lat="42.85132" lon="-0.16099">
        <ele>1631.3</ele>
        <time>2022-07-09T13:29:57.000Z</time>
      </trkpt>
      <trkpt lat="42.85135" lon="-0.16086">
        <ele>1630.7</ele>
        <time>2022-07-09T13:30:05.000Z</time>
      </trkpt>
      <trkpt lat="42.8514" lon="-0.16075">
        <ele>1629.1</ele>
        <time>2022-07-09T13:30:14.000Z</time>
      </trkpt>
      <trkpt lat="42.85147" lon="-0.16065">
        <ele>1629.4</ele>
        <time>2022-07-09T13:30:23.000Z</time>
      </trkpt>
      <trkpt lat="42.85152" lon="-0.16053">
        <ele>1629</ele>
        <time>2022-07-09T13:30:32.000Z</time>
      </trkpt>
      <trkpt lat="42.85155" lon="-0.16041">
        <ele>1628.1</ele>
        <time>2022-07-09T13:30:40.000Z</time>
      </trkpt>
      <trkpt lat="42.8516" lon="-0.16029">
        <ele>1627.5</ele>
        <time>2022-07-09T13:30:50.000Z</time>
      </trkpt>
      <trkpt lat="42.85161" lon="-0.16016">
        <ele>1627.3</ele>
        <time>2022-07-09T13:30:57.000Z</time>
      </trkpt>
      <trkpt lat="42.85164" lon="-0.16004">
        <ele>1627.4</ele>
        <time>2022-07-09T13:31:06.000Z</time>
      </trkpt>
      <trkpt lat="42.85167" lon="-0.15991">
        <ele>1626.4</ele>
        <time>2022-07-09T13:31:14.000Z</time>
      </trkpt>
      <trkpt lat="42.85169" lon="-0.15978">
        <ele>1625.4</ele>
        <time>2022-07-09T13:31:22.000Z</time>
      </trkpt>
      <trkpt lat="42.85172" lon="-0.15965">
        <ele>1625.8</ele>
        <time>2022-07-09T13:31:30.000Z</time>
      </trkpt>
      <trkpt lat="42.85172" lon="-0.15952">
        <ele>1626.5</ele>
        <time>2022-07-09T13:31:39.000Z</time>
      </trkpt>
      <trkpt lat="42.85172" lon="-0.15939">
        <ele>1626.5</ele>
        <time>2022-07-09T13:31:47.000Z</time>
      </trkpt>
      <trkpt lat="42.85176" lon="-0.15927">
        <ele>1626.3</ele>
        <time>2022-07-09T13:31:57.000Z</time>
      </trkpt>
      <trkpt lat="42.8518" lon="-0.15916">
        <ele>1625.4</ele>
        <time>2022-07-09T13:32:07.000Z</time>
      </trkpt>
      <trkpt lat="42.85185" lon="-0.15905">
        <ele>1624.7</ele>
        <time>2022-07-09T13:32:16.000Z</time>
      </trkpt>
      <trkpt lat="42.85188" lon="-0.15893">
        <ele>1623.7</ele>
        <time>2022-07-09T13:32:25.000Z</time>
      </trkpt>
      <trkpt lat="42.85195" lon="-0.15885">
        <ele>1622.8</ele>
        <time>2022-07-09T13:32:34.000Z</time>
      </trkpt>
      <trkpt lat="42.85203" lon="-0.15877">
        <ele>1621.9</ele>
        <time>2022-07-09T13:32:43.000Z</time>
      </trkpt>
      <trkpt lat="42.8521" lon="-0.15868">
        <ele>1620.4</ele>
        <time>2022-07-09T13:32:52.000Z</time>
      </trkpt>
      <trkpt lat="42.85217" lon="-0.15858">
        <ele>1619.8</ele>
        <time>2022-07-09T13:33:01.000Z</time>
      </trkpt>
      <trkpt lat="42.8522" lon="-0.15846">
        <ele>1619</ele>
        <time>2022-07-09T13:33:09.000Z</time>
      </trkpt>
      <trkpt lat="42.85221" lon="-0.15833">
        <ele>1617.5</ele>
        <time>2022-07-09T13:33:18.000Z</time>
      </trkpt>
      <trkpt lat="42.8522" lon="-0.15819">
        <ele>1616.7</ele>
        <time>2022-07-09T13:33:25.000Z</time>
      </trkpt>
      <trkpt lat="42.85217" lon="-0.15807">
        <ele>1616.9</ele>
        <time>2022-07-09T13:33:32.000Z</time>
      </trkpt>
      <trkpt lat="42.85213" lon="-0.15794">
        <ele>1617</ele>
        <time>2022-07-09T13:33:40.000Z</time>
      </trkpt>
      <trkpt lat="42.85209" lon="-0.15783">
        <ele>1617.1</ele>
        <time>2022-07-09T13:33:48.000Z</time>
      </trkpt>
      <trkpt lat="42.85207" lon="-0.15769">
        <ele>1617.3</ele>
        <time>2022-07-09T13:33:57.000Z</time>
      </trkpt>
      <trkpt lat="42.85207" lon="-0.15756">
        <ele>1617.3</ele>
        <time>2022-07-09T13:34:07.000Z</time>
      </trkpt>
      <trkpt lat="42.85214" lon="-0.15748">
        <ele>1617.2</ele>
        <time>2022-07-09T13:34:15.000Z</time>
      </trkpt>
      <trkpt lat="42.85222" lon="-0.15738">
        <ele>1615.8</ele>
        <time>2022-07-09T13:34:22.000Z</time>
      </trkpt>
      <trkpt lat="42.85226" lon="-0.15727">
        <ele>1616.5</ele>
        <time>2022-07-09T13:34:30.000Z</time>
      </trkpt>
      <trkpt lat="42.8523" lon="-0.15715">
        <ele>1614.9</ele>
        <time>2022-07-09T13:34:39.000Z</time>
      </trkpt>
      <trkpt lat="42.85231" lon="-0.15702">
        <ele>1614.7</ele>
        <time>2022-07-09T13:34:47.000Z</time>
      </trkpt>
      <trkpt lat="42.85231" lon="-0.15688">
        <ele>1614.2</ele>
        <time>2022-07-09T13:34:55.000Z</time>
      </trkpt>
      <trkpt lat="42.85229" lon="-0.15676">
        <ele>1614.4</ele>
        <time>2022-07-09T13:35:02.000Z</time>
      </trkpt>
      <trkpt lat="42.85226" lon="-0.15662">
        <ele>1614</ele>
        <time>2022-07-09T13:35:10.000Z</time>
      </trkpt>
      <trkpt lat="42.85222" lon="-0.1565">
        <ele>1613.5</ele>
        <time>2022-07-09T13:35:17.000Z</time>
      </trkpt>
      <trkpt lat="42.85219" lon="-0.15638">
        <ele>1613.5</ele>
        <time>2022-07-09T13:35:24.000Z</time>
      </trkpt>
      <trkpt lat="42.85214" lon="-0.15627">
        <ele>1613</ele>
        <time>2022-07-09T13:35:37.000Z</time>
      </trkpt>
      <trkpt lat="42.85209" lon="-0.15616">
        <ele>1612.5</ele>
        <time>2022-07-09T13:35:44.000Z</time>
      </trkpt>
      <trkpt lat="42.85207" lon="-0.15602">
        <ele>1611.6</ele>
        <time>2022-07-09T13:35:52.000Z</time>
      </trkpt>
      <trkpt lat="42.85207" lon="-0.15589">
        <ele>1610.7</ele>
        <time>2022-07-09T13:36:01.000Z</time>
      </trkpt>
      <trkpt lat="42.85207" lon="-0.15576">
        <ele>1609.2</ele>
        <time>2022-07-09T13:36:09.000Z</time>
      </trkpt>
      <trkpt lat="42.85209" lon="-0.15563">
        <ele>1608.3</ele>
        <time>2022-07-09T13:36:19.000Z</time>
      </trkpt>
      <trkpt lat="42.8521" lon="-0.1555">
        <ele>1607.3</ele>
        <time>2022-07-09T13:36:28.000Z</time>
      </trkpt>
      <trkpt lat="42.8521" lon="-0.15536">
        <ele>1605.9</ele>
        <time>2022-07-09T13:36:36.000Z</time>
      </trkpt>
      <trkpt lat="42.85208" lon="-0.15522">
        <ele>1604.9</ele>
        <time>2022-07-09T13:36:44.000Z</time>
      </trkpt>
      <trkpt lat="42.85205" lon="-0.1551">
        <ele>1604.6</ele>
        <time>2022-07-09T13:36:51.000Z</time>
      </trkpt>
      <trkpt lat="42.85202" lon="-0.15498">
        <ele>1605</ele>
        <time>2022-07-09T13:36:59.000Z</time>
      </trkpt>
      <trkpt lat="42.85201" lon="-0.15484">
        <ele>1605</ele>
        <time>2022-07-09T13:37:08.000Z</time>
      </trkpt>
      <trkpt lat="42.85199" lon="-0.15472">
        <ele>1605.1</ele>
        <time>2022-07-09T13:37:17.000Z</time>
      </trkpt>
      <trkpt lat="42.852" lon="-0.15457">
        <ele>1605.7</ele>
        <time>2022-07-09T13:37:24.000Z</time>
      </trkpt>
      <trkpt lat="42.85201" lon="-0.15444">
        <ele>1605.3</ele>
        <time>2022-07-09T13:37:33.000Z</time>
      </trkpt>
      <trkpt lat="42.852" lon="-0.15431">
        <ele>1605.6</ele>
        <time>2022-07-09T13:37:41.000Z</time>
      </trkpt>
      <trkpt lat="42.852" lon="-0.15419">
        <ele>1605.6</ele>
        <time>2022-07-09T13:37:48.000Z</time>
      </trkpt>
      <trkpt lat="42.852" lon="-0.15406">
        <ele>1605.6</ele>
        <time>2022-07-09T13:37:55.000Z</time>
      </trkpt>
      <trkpt lat="42.85201" lon="-0.15394">
        <ele>1605.6</ele>
        <time>2022-07-09T13:38:02.000Z</time>
      </trkpt>
      <trkpt lat="42.85201" lon="-0.15381">
        <ele>1605.3</ele>
        <time>2022-07-09T13:38:10.000Z</time>
      </trkpt>
      <trkpt lat="42.85202" lon="-0.15368">
        <ele>1605.6</ele>
        <time>2022-07-09T13:38:18.000Z</time>
      </trkpt>
      <trkpt lat="42.85204" lon="-0.15354">
        <ele>1605.2</ele>
        <time>2022-07-09T13:38:27.000Z</time>
      </trkpt>
      <trkpt lat="42.85205" lon="-0.15341">
        <ele>1604.3</ele>
        <time>2022-07-09T13:38:35.000Z</time>
      </trkpt>
      <trkpt lat="42.85205" lon="-0.15329">
        <ele>1602.5</ele>
        <time>2022-07-09T13:38:45.000Z</time>
      </trkpt>
      <trkpt lat="42.85203" lon="-0.15316">
        <ele>1600.5</ele>
        <time>2022-07-09T13:38:53.000Z</time>
      </trkpt>
      <trkpt lat="42.85204" lon="-0.15303">
        <ele>1599.4</ele>
        <time>2022-07-09T13:39:00.000Z</time>
      </trkpt>
      <trkpt lat="42.85207" lon="-0.15291">
        <ele>1598</ele>
        <time>2022-07-09T13:39:07.000Z</time>
      </trkpt>
      <trkpt lat="42.85213" lon="-0.15281">
        <ele>1596.8</ele>
        <time>2022-07-09T13:39:14.000Z</time>
      </trkpt>
      <trkpt lat="42.85216" lon="-0.15268">
        <ele>1595.7</ele>
        <time>2022-07-09T13:39:22.000Z</time>
      </trkpt>
      <trkpt lat="42.85217" lon="-0.15255">
        <ele>1595</ele>
        <time>2022-07-09T13:39:31.000Z</time>
      </trkpt>
      <trkpt lat="42.85223" lon="-0.15245">
        <ele>1594.4</ele>
        <time>2022-07-09T13:39:40.000Z</time>
      </trkpt>
      <trkpt lat="42.85226" lon="-0.15233">
        <ele>1594.3</ele>
        <time>2022-07-09T13:39:50.000Z</time>
      </trkpt>
      <trkpt lat="42.85228" lon="-0.1522">
        <ele>1594.2</ele>
        <time>2022-07-09T13:40:00.000Z</time>
      </trkpt>
      <trkpt lat="42.8523" lon="-0.15206">
        <ele>1594.2</ele>
        <time>2022-07-09T13:40:09.000Z</time>
      </trkpt>
      <trkpt lat="42.85234" lon="-0.15194">
        <ele>1593.7</ele>
        <time>2022-07-09T13:40:19.000Z</time>
      </trkpt>
      <trkpt lat="42.85239" lon="-0.15182">
        <ele>1593</ele>
        <time>2022-07-09T13:40:27.000Z</time>
      </trkpt>
      <trkpt lat="42.85242" lon="-0.15169">
        <ele>1592.2</ele>
        <time>2022-07-09T13:40:39.000Z</time>
      </trkpt>
      <trkpt lat="42.85244" lon="-0.15155">
        <ele>1591.6</ele>
        <time>2022-07-09T13:40:49.000Z</time>
      </trkpt>
      <trkpt lat="42.85247" lon="-0.15143">
        <ele>1590.7</ele>
        <time>2022-07-09T13:41:00.000Z</time>
      </trkpt>
      <trkpt lat="42.85249" lon="-0.15131">
        <ele>1589.7</ele>
        <time>2022-07-09T13:41:17.000Z</time>
      </trkpt>
      <trkpt lat="42.85249" lon="-0.1513">
        <ele>1589.6</ele>
        <time>2022-07-09T13:41:19.000Z</time>
      </trkpt>
      <trkpt lat="42.85249" lon="-0.1513">
        <ele>1589.3</ele>
        <time>2022-07-09T13:41:20.000Z</time>
      </trkpt>
      <trkpt lat="42.85249" lon="-0.1513">
        <ele>1589.2</ele>
        <time>2022-07-09T13:41:21.000Z</time>
      </trkpt>
      <trkpt lat="42.85249" lon="-0.1513">
        <ele>1589.4</ele>
        <time>2022-07-09T13:41:23.000Z</time>
      </trkpt>
      <trkpt lat="42.85249" lon="-0.15131">
        <ele>1589.5</ele>
        <time>2022-07-09T13:41:27.000Z</time>
      </trkpt>
      <trkpt lat="42.85249" lon="-0.15131">
        <ele>1589.5</ele>
        <time>2022-07-09T13:41:30.000Z</time>
      </trkpt>
      <trkpt lat="42.85249" lon="-0.15131">
        <ele>1589.7</ele>
        <time>2022-07-09T13:41:32.000Z</time>
      </trkpt>
      <trkpt lat="42.85249" lon="-0.15131">
        <ele>1589.7</ele>
        <time>2022-07-09T13:41:34.000Z</time>
      </trkpt>
      <trkpt lat="42.85249" lon="-0.15131">
        <ele>1589.8</ele>
        <time>2022-07-09T13:41:35.000Z</time>
      </trkpt>
      <trkpt lat="42.85249" lon="-0.15132">
        <ele>1589.6</ele>
        <time>2022-07-09T13:41:38.000Z</time>
      </trkpt>
      <trkpt lat="42.85249" lon="-0.15136">
        <ele>1589.8</ele>
        <time>2022-07-09T13:41:51.000Z</time>
      </trkpt>
      <trkpt lat="42.85248" lon="-0.15136">
        <ele>1589.7</ele>
        <time>2022-07-09T13:41:56.000Z</time>
      </trkpt>
      <trkpt lat="42.85248" lon="-0.15136">
        <ele>1589.9</ele>
        <time>2022-07-09T13:41:57.000Z</time>
      </trkpt>
      <trkpt lat="42.85249" lon="-0.15136">
        <ele>1589.8</ele>
        <time>2022-07-09T13:41:59.000Z</time>
      </trkpt>
      <trkpt lat="42.85246" lon="-0.1513">
        <ele>1588.4</ele>
        <time>2022-07-09T13:42:15.000Z</time>
      </trkpt>
      <trkpt lat="42.85246" lon="-0.1513">
        <ele>1588</ele>
        <time>2022-07-09T13:42:17.000Z</time>
      </trkpt>
      <trkpt lat="42.85239" lon="-0.15121">
        <ele>1586</ele>
        <time>2022-07-09T13:42:31.000Z</time>
      </trkpt>
      <trkpt lat="42.85236" lon="-0.1511">
        <ele>1584.4</ele>
        <time>2022-07-09T13:42:41.000Z</time>
      </trkpt>
      <trkpt lat="42.85235" lon="-0.15096">
        <ele>1583.4</ele>
        <time>2022-07-09T13:42:52.000Z</time>
      </trkpt>
      <trkpt lat="42.85231" lon="-0.15084">
        <ele>1582.5</ele>
        <time>2022-07-09T13:43:00.000Z</time>
      </trkpt>
      <trkpt lat="42.85227" lon="-0.15072">
        <ele>1582.2</ele>
        <time>2022-07-09T13:43:08.000Z</time>
      </trkpt>
      <trkpt lat="42.85222" lon="-0.15061">
        <ele>1581.4</ele>
        <time>2022-07-09T13:43:18.000Z</time>
      </trkpt>
      <trkpt lat="42.85218" lon="-0.1505">
        <ele>1580.4</ele>
        <time>2022-07-09T13:43:28.000Z</time>
      </trkpt>
      <trkpt lat="42.85214" lon="-0.15038">
        <ele>1579.2</ele>
        <time>2022-07-09T13:43:37.000Z</time>
      </trkpt>
      <trkpt lat="42.85211" lon="-0.15025">
        <ele>1578.1</ele>
        <time>2022-07-09T13:43:45.000Z</time>
      </trkpt>
      <trkpt lat="42.85208" lon="-0.15013">
        <ele>1577.1</ele>
        <time>2022-07-09T13:43:55.000Z</time>
      </trkpt>
      <trkpt lat="42.85204" lon="-0.15002">
        <ele>1575.3</ele>
        <time>2022-07-09T13:44:04.000Z</time>
      </trkpt>
      <trkpt lat="42.85199" lon="-0.14989">
        <ele>1573.6</ele>
        <time>2022-07-09T13:44:14.000Z</time>
      </trkpt>
      <trkpt lat="42.85195" lon="-0.14977">
        <ele>1572.5</ele>
        <time>2022-07-09T13:44:23.000Z</time>
      </trkpt>
      <trkpt lat="42.85191" lon="-0.14966">
        <ele>1571.5</ele>
        <time>2022-07-09T13:44:31.000Z</time>
      </trkpt>
      <trkpt lat="42.85186" lon="-0.14955">
        <ele>1570</ele>
        <time>2022-07-09T13:44:39.000Z</time>
      </trkpt>
      <trkpt lat="42.85181" lon="-0.14943">
        <ele>1569.2</ele>
        <time>2022-07-09T13:44:48.000Z</time>
      </trkpt>
      <trkpt lat="42.85172" lon="-0.14941">
        <ele>1567.8</ele>
        <time>2022-07-09T13:45:00.000Z</time>
      </trkpt>
      <trkpt lat="42.8517" lon="-0.14927">
        <ele>1565.7</ele>
        <time>2022-07-09T13:45:12.000Z</time>
      </trkpt>
      <trkpt lat="42.85169" lon="-0.14913">
        <ele>1563.9</ele>
        <time>2022-07-09T13:45:19.000Z</time>
      </trkpt>
      <trkpt lat="42.85168" lon="-0.149">
        <ele>1564.3</ele>
        <time>2022-07-09T13:45:27.000Z</time>
      </trkpt>
      <trkpt lat="42.85168" lon="-0.14887">
        <ele>1563</ele>
        <time>2022-07-09T13:45:35.000Z</time>
      </trkpt>
      <trkpt lat="42.85167" lon="-0.14875">
        <ele>1561.7</ele>
        <time>2022-07-09T13:45:42.000Z</time>
      </trkpt>
      <trkpt lat="42.85167" lon="-0.14862">
        <ele>1560.4</ele>
        <time>2022-07-09T13:45:50.000Z</time>
      </trkpt>
      <trkpt lat="42.85166" lon="-0.14848">
        <ele>1559.6</ele>
        <time>2022-07-09T13:45:57.000Z</time>
      </trkpt>
      <trkpt lat="42.85166" lon="-0.14835">
        <ele>1558</ele>
        <time>2022-07-09T13:46:05.000Z</time>
      </trkpt>
      <trkpt lat="42.85164" lon="-0.14821">
        <ele>1556.8</ele>
        <time>2022-07-09T13:46:13.000Z</time>
      </trkpt>
      <trkpt lat="42.85164" lon="-0.14807">
        <ele>1556</ele>
        <time>2022-07-09T13:46:21.000Z</time>
      </trkpt>
      <trkpt lat="42.85164" lon="-0.14794">
        <ele>1554.3</ele>
        <time>2022-07-09T13:46:30.000Z</time>
      </trkpt>
      <trkpt lat="42.85164" lon="-0.14781">
        <ele>1553.8</ele>
        <time>2022-07-09T13:46:38.000Z</time>
      </trkpt>
      <trkpt lat="42.85163" lon="-0.14767">
        <ele>1554.2</ele>
        <time>2022-07-09T13:46:45.000Z</time>
      </trkpt>
      <trkpt lat="42.85164" lon="-0.14755">
        <ele>1554.1</ele>
        <time>2022-07-09T13:46:53.000Z</time>
      </trkpt>
      <trkpt lat="42.85165" lon="-0.14742">
        <ele>1553.5</ele>
        <time>2022-07-09T13:47:01.000Z</time>
      </trkpt>
      <trkpt lat="42.85163" lon="-0.14729">
        <ele>1552.7</ele>
        <time>2022-07-09T13:47:09.000Z</time>
      </trkpt>
      <trkpt lat="42.85163" lon="-0.14716">
        <ele>1553</ele>
        <time>2022-07-09T13:47:18.000Z</time>
      </trkpt>
      <trkpt lat="42.85164" lon="-0.14704">
        <ele>1554.1</ele>
        <time>2022-07-09T13:47:32.000Z</time>
      </trkpt>
      <trkpt lat="42.85161" lon="-0.1469">
        <ele>1553.8</ele>
        <time>2022-07-09T13:47:39.000Z</time>
      </trkpt>
      <trkpt lat="42.85159" lon="-0.14677">
        <ele>1553.5</ele>
        <time>2022-07-09T13:47:45.000Z</time>
      </trkpt>
      <trkpt lat="42.85157" lon="-0.14662">
        <ele>1553.3</ele>
        <time>2022-07-09T13:47:53.000Z</time>
      </trkpt>
      <trkpt lat="42.85159" lon="-0.14653">
        <ele>1554.1</ele>
        <time>2022-07-09T13:48:04.000Z</time>
      </trkpt>
      <trkpt lat="42.85158" lon="-0.14653">
        <ele>1554.4</ele>
        <time>2022-07-09T13:48:06.000Z</time>
      </trkpt>
      <trkpt lat="42.85163" lon="-0.1464">
        <ele>1553.3</ele>
        <time>2022-07-09T13:48:14.000Z</time>
      </trkpt>
      <trkpt lat="42.85168" lon="-0.14629">
        <ele>1553.3</ele>
        <time>2022-07-09T13:48:20.000Z</time>
      </trkpt>
      <trkpt lat="42.85173" lon="-0.14618">
        <ele>1553.3</ele>
        <time>2022-07-09T13:48:26.000Z</time>
      </trkpt>
      <trkpt lat="42.85178" lon="-0.14606">
        <ele>1552.8</ele>
        <time>2022-07-09T13:48:32.000Z</time>
      </trkpt>
      <trkpt lat="42.85182" lon="-0.14595">
        <ele>1552.7</ele>
        <time>2022-07-09T13:48:39.000Z</time>
      </trkpt>
      <trkpt lat="42.85187" lon="-0.14584">
        <ele>1552.3</ele>
        <time>2022-07-09T13:48:47.000Z</time>
      </trkpt>
      <trkpt lat="42.85193" lon="-0.14574">
        <ele>1551.9</ele>
        <time>2022-07-09T13:48:54.000Z</time>
      </trkpt>
      <trkpt lat="42.85197" lon="-0.14563">
        <ele>1552.3</ele>
        <time>2022-07-09T13:49:01.000Z</time>
      </trkpt>
      <trkpt lat="42.85202" lon="-0.14551">
        <ele>1553.2</ele>
        <time>2022-07-09T13:49:09.000Z</time>
      </trkpt>
      <trkpt lat="42.85208" lon="-0.14541">
        <ele>1552.8</ele>
        <time>2022-07-09T13:49:17.000Z</time>
      </trkpt>
      <trkpt lat="42.85211" lon="-0.14531">
        <ele>1552.3</ele>
        <time>2022-07-09T13:49:28.000Z</time>
      </trkpt>
      <trkpt lat="42.8521" lon="-0.14531">
        <ele>1552.4</ele>
        <time>2022-07-09T13:49:34.000Z</time>
      </trkpt>
      <trkpt lat="42.8521" lon="-0.14531">
        <ele>1552.5</ele>
        <time>2022-07-09T13:49:36.000Z</time>
      </trkpt>
      <trkpt lat="42.8521" lon="-0.14532">
        <ele>1552.5</ele>
        <time>2022-07-09T13:49:37.000Z</time>
      </trkpt>
      <trkpt lat="42.8521" lon="-0.14532">
        <ele>1552.5</ele>
        <time>2022-07-09T13:49:38.000Z</time>
      </trkpt>
      <trkpt lat="42.8521" lon="-0.14532">
        <ele>1552.4</ele>
        <time>2022-07-09T13:49:39.000Z</time>
      </trkpt>
      <trkpt lat="42.8521" lon="-0.14532">
        <ele>1552.3</ele>
        <time>2022-07-09T13:49:40.000Z</time>
      </trkpt>
      <trkpt lat="42.8521" lon="-0.14532">
        <ele>1552.2</ele>
        <time>2022-07-09T13:49:41.000Z</time>
      </trkpt>
      <trkpt lat="42.8521" lon="-0.14532">
        <ele>1552.2</ele>
        <time>2022-07-09T13:49:42.000Z</time>
      </trkpt>
      <trkpt lat="42.8521" lon="-0.14532">
        <ele>1552.3</ele>
        <time>2022-07-09T13:49:43.000Z</time>
      </trkpt>
      <trkpt lat="42.8521" lon="-0.14533">
        <ele>1552</ele>
        <time>2022-07-09T13:49:52.000Z</time>
      </trkpt>
      <trkpt lat="42.85211" lon="-0.14533">
        <ele>1551.4</ele>
        <time>2022-07-09T13:50:07.000Z</time>
      </trkpt>
      <trkpt lat="42.85211" lon="-0.14533">
        <ele>1551.4</ele>
        <time>2022-07-09T13:50:11.000Z</time>
      </trkpt>
      <trkpt lat="42.85211" lon="-0.14533">
        <ele>1551.6</ele>
        <time>2022-07-09T13:50:13.000Z</time>
      </trkpt>
      <trkpt lat="42.85211" lon="-0.14533">
        <ele>1551.7</ele>
        <time>2022-07-09T13:50:14.000Z</time>
      </trkpt>
      <trkpt lat="42.85211" lon="-0.14532">
        <ele>1551.8</ele>
        <time>2022-07-09T13:50:16.000Z</time>
      </trkpt>
      <trkpt lat="42.85215" lon="-0.1452">
        <ele>1551</ele>
        <time>2022-07-09T13:50:24.000Z</time>
      </trkpt>
      <trkpt lat="42.85219" lon="-0.14508">
        <ele>1551.6</ele>
        <time>2022-07-09T13:50:32.000Z</time>
      </trkpt>
      <trkpt lat="42.85222" lon="-0.14496">
        <ele>1552.5</ele>
        <time>2022-07-09T13:50:40.000Z</time>
      </trkpt>
      <trkpt lat="42.85226" lon="-0.14483">
        <ele>1553</ele>
        <time>2022-07-09T13:50:46.000Z</time>
      </trkpt>
      <trkpt lat="42.85229" lon="-0.14471">
        <ele>1553.3</ele>
        <time>2022-07-09T13:50:54.000Z</time>
      </trkpt>
      <trkpt lat="42.85232" lon="-0.1446">
        <ele>1554.4</ele>
        <time>2022-07-09T13:51:01.000Z</time>
      </trkpt>
      <trkpt lat="42.85235" lon="-0.14448">
        <ele>1554.4</ele>
        <time>2022-07-09T13:51:08.000Z</time>
      </trkpt>
      <trkpt lat="42.85239" lon="-0.14436">
        <ele>1554</ele>
        <time>2022-07-09T13:51:15.000Z</time>
      </trkpt>
      <trkpt lat="42.85244" lon="-0.14425">
        <ele>1554.4</ele>
        <time>2022-07-09T13:51:23.000Z</time>
      </trkpt>
      <trkpt lat="42.85247" lon="-0.14412">
        <ele>1554.8</ele>
        <time>2022-07-09T13:51:31.000Z</time>
      </trkpt>
      <trkpt lat="42.85252" lon="-0.144">
        <ele>1555.3</ele>
        <time>2022-07-09T13:51:38.000Z</time>
      </trkpt>
      <trkpt lat="42.85257" lon="-0.14388">
        <ele>1555</ele>
        <time>2022-07-09T13:51:46.000Z</time>
      </trkpt>
      <trkpt lat="42.8526" lon="-0.14375">
        <ele>1554.7</ele>
        <time>2022-07-09T13:51:53.000Z</time>
      </trkpt>
      <trkpt lat="42.85262" lon="-0.14363">
        <ele>1554.8</ele>
        <time>2022-07-09T13:52:00.000Z</time>
      </trkpt>
      <trkpt lat="42.85262" lon="-0.1435">
        <ele>1554.2</ele>
        <time>2022-07-09T13:52:07.000Z</time>
      </trkpt>
      <trkpt lat="42.85261" lon="-0.14338">
        <ele>1555.1</ele>
        <time>2022-07-09T13:52:13.000Z</time>
      </trkpt>
      <trkpt lat="42.8526" lon="-0.14323">
        <ele>1555.2</ele>
        <time>2022-07-09T13:52:21.000Z</time>
      </trkpt>
      <trkpt lat="42.85262" lon="-0.14311">
        <ele>1554.4</ele>
        <time>2022-07-09T13:52:28.000Z</time>
      </trkpt>
      <trkpt lat="42.85261" lon="-0.14296">
        <ele>1554.2</ele>
        <time>2022-07-09T13:52:36.000Z</time>
      </trkpt>
      <trkpt lat="42.8526" lon="-0.14283">
        <ele>1554.4</ele>
        <time>2022-07-09T13:52:43.000Z</time>
      </trkpt>
      <trkpt lat="42.85257" lon="-0.14271">
        <ele>1554.2</ele>
        <time>2022-07-09T13:52:49.000Z</time>
      </trkpt>
      <trkpt lat="42.85252" lon="-0.1426">
        <ele>1554.5</ele>
        <time>2022-07-09T13:52:56.000Z</time>
      </trkpt>
      <trkpt lat="42.85244" lon="-0.14253">
        <ele>1554.3</ele>
        <time>2022-07-09T13:53:02.000Z</time>
      </trkpt>
      <trkpt lat="42.85236" lon="-0.14248">
        <ele>1554.3</ele>
        <time>2022-07-09T13:53:08.000Z</time>
      </trkpt>
      <trkpt lat="42.85228" lon="-0.14243">
        <ele>1554</ele>
        <time>2022-07-09T13:53:17.000Z</time>
      </trkpt>
      <trkpt lat="42.8522" lon="-0.14235">
        <ele>1553.7</ele>
        <time>2022-07-09T13:53:25.000Z</time>
      </trkpt>
      <trkpt lat="42.85214" lon="-0.14226">
        <ele>1553.5</ele>
        <time>2022-07-09T13:53:33.000Z</time>
      </trkpt>
      <trkpt lat="42.85207" lon="-0.14217">
        <ele>1553.8</ele>
        <time>2022-07-09T13:53:40.000Z</time>
      </trkpt>
      <trkpt lat="42.852" lon="-0.14207">
        <ele>1553.1</ele>
        <time>2022-07-09T13:53:48.000Z</time>
      </trkpt>
      <trkpt lat="42.85193" lon="-0.14197">
        <ele>1552.7</ele>
        <time>2022-07-09T13:53:57.000Z</time>
      </trkpt>
      <trkpt lat="42.85187" lon="-0.14185">
        <ele>1552.1</ele>
        <time>2022-07-09T13:54:04.000Z</time>
      </trkpt>
      <trkpt lat="42.85181" lon="-0.14176">
        <ele>1551.6</ele>
        <time>2022-07-09T13:54:10.000Z</time>
      </trkpt>
      <trkpt lat="42.85177" lon="-0.14165">
        <ele>1551.3</ele>
        <time>2022-07-09T13:54:16.000Z</time>
      </trkpt>
      <trkpt lat="42.85171" lon="-0.14155">
        <ele>1550.5</ele>
        <time>2022-07-09T13:54:24.000Z</time>
      </trkpt>
      <trkpt lat="42.85164" lon="-0.14145">
        <ele>1549</ele>
        <time>2022-07-09T13:54:32.000Z</time>
      </trkpt>
      <trkpt lat="42.85156" lon="-0.14139">
        <ele>1547.4</ele>
        <time>2022-07-09T13:54:40.000Z</time>
      </trkpt>
      <trkpt lat="42.85147" lon="-0.14139">
        <ele>1545.2</ele>
        <time>2022-07-09T13:54:48.000Z</time>
      </trkpt>
      <trkpt lat="42.85139" lon="-0.14131">
        <ele>1544.5</ele>
        <time>2022-07-09T13:54:58.000Z</time>
      </trkpt>
      <trkpt lat="42.85136" lon="-0.1412">
        <ele>1543.7</ele>
        <time>2022-07-09T13:55:06.000Z</time>
      </trkpt>
      <trkpt lat="42.85131" lon="-0.14107">
        <ele>1542.2</ele>
        <time>2022-07-09T13:55:12.000Z</time>
      </trkpt>
      <trkpt lat="42.85128" lon="-0.14096">
        <ele>1541.7</ele>
        <time>2022-07-09T13:55:18.000Z</time>
      </trkpt>
      <trkpt lat="42.85124" lon="-0.14084">
        <ele>1540.5</ele>
        <time>2022-07-09T13:55:26.000Z</time>
      </trkpt>
      <trkpt lat="42.85121" lon="-0.14071">
        <ele>1539.4</ele>
        <time>2022-07-09T13:55:38.000Z</time>
      </trkpt>
      <trkpt lat="42.85122" lon="-0.14057">
        <ele>1538.5</ele>
        <time>2022-07-09T13:55:46.000Z</time>
      </trkpt>
      <trkpt lat="42.85124" lon="-0.14044">
        <ele>1538</ele>
        <time>2022-07-09T13:55:53.000Z</time>
      </trkpt>
      <trkpt lat="42.85126" lon="-0.14031">
        <ele>1537.2</ele>
        <time>2022-07-09T13:56:05.000Z</time>
      </trkpt>
      <trkpt lat="42.85128" lon="-0.14019">
        <ele>1536.4</ele>
        <time>2022-07-09T13:56:14.000Z</time>
      </trkpt>
      <trkpt lat="42.85133" lon="-0.14007">
        <ele>1535.6</ele>
        <time>2022-07-09T13:56:22.000Z</time>
      </trkpt>
      <trkpt lat="42.85137" lon="-0.13995">
        <ele>1534.7</ele>
        <time>2022-07-09T13:56:31.000Z</time>
      </trkpt>
      <trkpt lat="42.85139" lon="-0.13982">
        <ele>1533</ele>
        <time>2022-07-09T13:56:40.000Z</time>
      </trkpt>
      <trkpt lat="42.85134" lon="-0.13971">
        <ele>1532.3</ele>
        <time>2022-07-09T13:56:47.000Z</time>
      </trkpt>
      <trkpt lat="42.85125" lon="-0.1397">
        <ele>1531.6</ele>
        <time>2022-07-09T13:56:54.000Z</time>
      </trkpt>
      <trkpt lat="42.85117" lon="-0.13977">
        <ele>1530.8</ele>
        <time>2022-07-09T13:57:02.000Z</time>
      </trkpt>
      <trkpt lat="42.85109" lon="-0.13984">
        <ele>1530.2</ele>
        <time>2022-07-09T13:57:10.000Z</time>
      </trkpt>
      <trkpt lat="42.85108" lon="-0.13972">
        <ele>1529.4</ele>
        <time>2022-07-09T13:57:21.000Z</time>
      </trkpt>
      <trkpt lat="42.85115" lon="-0.13963">
        <ele>1528.4</ele>
        <time>2022-07-09T13:57:29.000Z</time>
      </trkpt>
      <trkpt lat="42.85119" lon="-0.13952">
        <ele>1526.9</ele>
        <time>2022-07-09T13:57:37.000Z</time>
      </trkpt>
      <trkpt lat="42.85126" lon="-0.13944">
        <ele>1524.9</ele>
        <time>2022-07-09T13:57:45.000Z</time>
      </trkpt>
      <trkpt lat="42.85135" lon="-0.13937">
        <ele>1523.7</ele>
        <time>2022-07-09T13:57:53.000Z</time>
      </trkpt>
      <trkpt lat="42.85142" lon="-0.13929">
        <ele>1521.9</ele>
        <time>2022-07-09T13:58:03.000Z</time>
      </trkpt>
      <trkpt lat="42.85132" lon="-0.13927">
        <ele>1520.6</ele>
        <time>2022-07-09T13:58:12.000Z</time>
      </trkpt>
      <trkpt lat="42.85123" lon="-0.13929">
        <ele>1518.7</ele>
        <time>2022-07-09T13:58:20.000Z</time>
      </trkpt>
      <trkpt lat="42.85119" lon="-0.13933">
        <ele>1516.7</ele>
        <time>2022-07-09T13:58:29.000Z</time>
      </trkpt>
      <trkpt lat="42.85118" lon="-0.13933">
        <ele>1516.5</ele>
        <time>2022-07-09T13:58:31.000Z</time>
      </trkpt>
      <trkpt lat="42.85112" lon="-0.13923">
        <ele>1516.4</ele>
        <time>2022-07-09T13:58:50.000Z</time>
      </trkpt>
      <trkpt lat="42.85106" lon="-0.13912">
        <ele>1515.8</ele>
        <time>2022-07-09T13:58:58.000Z</time>
      </trkpt>
      <trkpt lat="42.85103" lon="-0.13899">
        <ele>1516</ele>
        <time>2022-07-09T13:59:12.000Z</time>
      </trkpt>
      <trkpt lat="42.85104" lon="-0.13886">
        <ele>1514.2</ele>
        <time>2022-07-09T13:59:21.000Z</time>
      </trkpt>
      <trkpt lat="42.85108" lon="-0.13874">
        <ele>1512.7</ele>
        <time>2022-07-09T13:59:30.000Z</time>
      </trkpt>
      <trkpt lat="42.85111" lon="-0.13862">
        <ele>1511.4</ele>
        <time>2022-07-09T13:59:37.000Z</time>
      </trkpt>
      <trkpt lat="42.85117" lon="-0.13852">
        <ele>1509.8</ele>
        <time>2022-07-09T13:59:46.000Z</time>
      </trkpt>
      <trkpt lat="42.85125" lon="-0.13845">
        <ele>1508.3</ele>
        <time>2022-07-09T13:59:54.000Z</time>
      </trkpt>
      <trkpt lat="42.85133" lon="-0.13838">
        <ele>1507.4</ele>
        <time>2022-07-09T14:00:02.000Z</time>
      </trkpt>
      <trkpt lat="42.85138" lon="-0.13828">
        <ele>1505.8</ele>
        <time>2022-07-09T14:00:11.000Z</time>
      </trkpt>
      <trkpt lat="42.8514" lon="-0.13815">
        <ele>1505.1</ele>
        <time>2022-07-09T14:00:18.000Z</time>
      </trkpt>
      <trkpt lat="42.8514" lon="-0.13803">
        <ele>1504.1</ele>
        <time>2022-07-09T14:00:25.000Z</time>
      </trkpt>
      <trkpt lat="42.85138" lon="-0.1379">
        <ele>1503.6</ele>
        <time>2022-07-09T14:00:33.000Z</time>
      </trkpt>
      <trkpt lat="42.85139" lon="-0.13776">
        <ele>1502.4</ele>
        <time>2022-07-09T14:00:41.000Z</time>
      </trkpt>
      <trkpt lat="42.85142" lon="-0.13764">
        <ele>1501.3</ele>
        <time>2022-07-09T14:00:50.000Z</time>
      </trkpt>
      <trkpt lat="42.85146" lon="-0.13752">
        <ele>1500.7</ele>
        <time>2022-07-09T14:01:00.000Z</time>
      </trkpt>
      <trkpt lat="42.85151" lon="-0.1374">
        <ele>1500.1</ele>
        <time>2022-07-09T14:01:09.000Z</time>
      </trkpt>
      <trkpt lat="42.85155" lon="-0.13729">
        <ele>1499.4</ele>
        <time>2022-07-09T14:01:17.000Z</time>
      </trkpt>
      <trkpt lat="42.8516" lon="-0.13718">
        <ele>1499.2</ele>
        <time>2022-07-09T14:01:24.000Z</time>
      </trkpt>
      <trkpt lat="42.85166" lon="-0.13707">
        <ele>1497.7</ele>
        <time>2022-07-09T14:01:36.000Z</time>
      </trkpt>
      <trkpt lat="42.8517" lon="-0.13702">
        <ele>1496.7</ele>
        <time>2022-07-09T14:01:44.000Z</time>
      </trkpt>
      <trkpt lat="42.85171" lon="-0.13701">
        <ele>1496.5</ele>
        <time>2022-07-09T14:01:45.000Z</time>
      </trkpt>
      <trkpt lat="42.85171" lon="-0.13701">
        <ele>1496.5</ele>
        <time>2022-07-09T14:01:45.000Z</time>
      </trkpt>
    </trkseg>
  </trk>
</gpx>